<?xml version="1.0" encoding="UTF-8" standalone="no" ?>
<gpx xmlns="http://www.topografix.com/GPX/1/1" creator="MapSource 6.16.3" version="1.1" xmlns:xsi="http://www.w3.org/2001/XMLSchema-instance" xsi:schemaLocation="http://www.topografix.com/GPX/1/1 http://www.topografix.com/GPX/1/1/gpx.xsd">

  <metadata>
    <link href="http://www.garmin.com">
      <text>Garmin International</text>
    </link>
    <time>2011-09-08T06:07:34Z</time>
    <bounds maxlat="44.118586219847202" maxlon="10.281255422160029" minlat="44.024356277659535" minlon="10.135866282507777"/>
  </metadata>

  <trk>
    <name>2011-08-07T06:31:19Z</name>
    <extensions>
      <gpxx:TrackExtension xmlns:gpxx="http://www.garmin.com/xmlschemas/GpxExtensions/v3">
        <gpxx:DisplayColor>Cyan</gpxx:DisplayColor>
      </gpxx:TrackExtension>
    </extensions>
    <trkseg>
      <trkpt lat="44.113677274435759" lon="10.281255422160029">
        <ele>577</ele>
        <time>2011-08-07T06:31:19Z</time>
      </trkpt>
      <trkpt lat="44.113689931109548" lon="10.281179063022137">
        <ele>577.79999999999995</ele>
        <time>2011-08-07T06:31:26Z</time>
      </trkpt>
      <trkpt lat="44.113693870604038" lon="10.281153498217463">
        <ele>577.39999999999998</ele>
        <time>2011-08-07T06:31:33Z</time>
      </trkpt>
      <trkpt lat="44.113705018535256" lon="10.281131034716964">
        <ele>574.79999999999995</ele>
        <time>2011-08-07T06:32:10Z</time>
      </trkpt>
      <trkpt lat="44.113708036020398" lon="10.281101278960705">
        <ele>575</ele>
        <time>2011-08-07T06:32:17Z</time>
      </trkpt>
      <trkpt lat="44.113720441237092" lon="10.281016202643514">
        <ele>573.60000000000002</ele>
        <time>2011-08-07T06:32:22Z</time>
      </trkpt>
      <trkpt lat="44.113766709342599" lon="10.280836327001452">
        <ele>573.39999999999998</ele>
        <time>2011-08-07T06:32:29Z</time>
      </trkpt>
      <trkpt lat="44.113825634121895" lon="10.280543295666575">
        <ele>574.60000000000002</ele>
        <time>2011-08-07T06:32:40Z</time>
      </trkpt>
      <trkpt lat="44.113899478688836" lon="10.28030407615006">
        <ele>576.79999999999995</ele>
        <time>2011-08-07T06:32:49Z</time>
      </trkpt>
      <trkpt lat="44.114006934687495" lon="10.280113387852907">
        <ele>577.60000000000002</ele>
        <time>2011-08-07T06:32:58Z</time>
      </trkpt>
      <trkpt lat="44.114134088158607" lon="10.27997181750834">
        <ele>578.79999999999995</ele>
        <time>2011-08-07T06:33:08Z</time>
      </trkpt>
      <trkpt lat="44.114209860563278" lon="10.279884561896324">
        <ele>580.20000000000005</ele>
        <time>2011-08-07T06:33:15Z</time>
      </trkpt>
      <trkpt lat="44.114284459501505" lon="10.279821194708347">
        <ele>580.79999999999995</ele>
        <time>2011-08-07T06:33:22Z</time>
      </trkpt>
      <trkpt lat="44.114383365958929" lon="10.279736118391156">
        <ele>582.60000000000002</ele>
        <time>2011-08-07T06:33:30Z</time>
      </trkpt>
      <trkpt lat="44.11445033736527" lon="10.279678618535399">
        <ele>584.20000000000005</ele>
        <time>2011-08-07T06:33:37Z</time>
      </trkpt>
      <trkpt lat="44.114460563287139" lon="10.279670404270291">
        <ele>584.39999999999998</ele>
        <time>2011-08-07T06:33:38Z</time>
      </trkpt>
      <trkpt lat="44.114504400640726" lon="10.279629668220878">
        <ele>585.20000000000005</ele>
        <time>2011-08-07T06:33:43Z</time>
      </trkpt>
      <trkpt lat="44.114572796970606" lon="10.27955062687397">
        <ele>587.20000000000005</ele>
        <time>2011-08-07T06:33:51Z</time>
      </trkpt>
      <trkpt lat="44.114626441150904" lon="10.279477620497346">
        <ele>589</ele>
        <time>2011-08-07T06:33:58Z</time>
      </trkpt>
      <trkpt lat="44.114635661244392" lon="10.279455240815878">
        <ele>589</ele>
        <time>2011-08-07T06:34:00Z</time>
      </trkpt>
      <trkpt lat="44.114688383415341" lon="10.279377540573478">
        <ele>590.20000000000005</ele>
        <time>2011-08-07T06:34:08Z</time>
      </trkpt>
      <trkpt lat="44.114743871614337" lon="10.279294727370143">
        <ele>592</ele>
        <time>2011-08-07T06:34:16Z</time>
      </trkpt>
      <trkpt lat="44.114799862727523" lon="10.279196072369814">
        <ele>593.39999999999998</ele>
        <time>2011-08-07T06:34:25Z</time>
      </trkpt>
      <trkpt lat="44.114844789728522" lon="10.279130106791854">
        <ele>593.60000000000002</ele>
        <time>2011-08-07T06:34:32Z</time>
      </trkpt>
      <trkpt lat="44.114848226308823" lon="10.279117282480001">
        <ele>593.79999999999995</ele>
        <time>2011-08-07T06:34:33Z</time>
      </trkpt>
      <trkpt lat="44.114898182451725" lon="10.279029104858637">
        <ele>595.20000000000005</ele>
        <time>2011-08-07T06:34:41Z</time>
      </trkpt>
      <trkpt lat="44.114938834682107" lon="10.278955092653632">
        <ele>596.39999999999998</ele>
        <time>2011-08-07T06:34:48Z</time>
      </trkpt>
      <trkpt lat="44.11498636007309" lon="10.278864400461316">
        <ele>597.20000000000005</ele>
        <time>2011-08-07T06:34:57Z</time>
      </trkpt>
      <trkpt lat="44.115024665370584" lon="10.278775887563825">
        <ele>598.20000000000005</ele>
        <time>2011-08-07T06:35:05Z</time>
      </trkpt>
      <trkpt lat="44.115045284852386" lon="10.278669269755483">
        <ele>599.20000000000005</ele>
        <time>2011-08-07T06:35:13Z</time>
      </trkpt>
      <trkpt lat="44.115072190761566" lon="10.278577068820596">
        <ele>600.20000000000005</ele>
        <time>2011-08-07T06:35:21Z</time>
      </trkpt>
      <trkpt lat="44.115108903497458" lon="10.278492411598563">
        <ele>601</ele>
        <time>2011-08-07T06:35:29Z</time>
      </trkpt>
      <trkpt lat="44.115123990923166" lon="10.278478497639298">
        <ele>601.20000000000005</ele>
        <time>2011-08-07T06:35:31Z</time>
      </trkpt>
      <trkpt lat="44.115139413625002" lon="10.278433319181204">
        <ele>601.60000000000002</ele>
        <time>2011-08-07T06:35:35Z</time>
      </trkpt>
      <trkpt lat="44.115156512707472" lon="10.278349164873362">
        <ele>602.20000000000005</ele>
        <time>2011-08-07T06:35:42Z</time>
      </trkpt>
      <trkpt lat="44.115183586254716" lon="10.278241205960512">
        <ele>603.39999999999998</ele>
        <time>2011-08-07T06:35:51Z</time>
      </trkpt>
      <trkpt lat="44.115216275677085" lon="10.278132576495409">
        <ele>606</ele>
        <time>2011-08-07T06:36:00Z</time>
      </trkpt>
      <trkpt lat="44.115257430821657" lon="10.27804272249341">
        <ele>607.60000000000002</ele>
        <time>2011-08-07T06:36:08Z</time>
      </trkpt>
      <trkpt lat="44.115314679220319" lon="10.277952533215284">
        <ele>607.60000000000002</ele>
        <time>2011-08-07T06:36:17Z</time>
      </trkpt>
      <trkpt lat="44.115363210439682" lon="10.277866870164871">
        <ele>608.20000000000005</ele>
        <time>2011-08-07T06:36:25Z</time>
      </trkpt>
      <trkpt lat="44.115409478545189" lon="10.277785900980234">
        <ele>608.20000000000005</ele>
        <time>2011-08-07T06:36:33Z</time>
      </trkpt>
      <trkpt lat="44.115457339212298" lon="10.277706189081073">
        <ele>608.39999999999998</ele>
        <time>2011-08-07T06:36:41Z</time>
      </trkpt>
      <trkpt lat="44.115513665601611" lon="10.277609964832664">
        <ele>609.60000000000002</ele>
        <time>2011-08-07T06:36:50Z</time>
      </trkpt>
      <trkpt lat="44.115562364459038" lon="10.277521871030331">
        <ele>610.60000000000002</ele>
        <time>2011-08-07T06:36:58Z</time>
      </trkpt>
      <trkpt lat="44.115605279803276" lon="10.277433106675744">
        <ele>611</ele>
        <time>2011-08-07T06:37:06Z</time>
      </trkpt>
      <trkpt lat="44.115657834336162" lon="10.277353227138519">
        <ele>612.60000000000002</ele>
        <time>2011-08-07T06:37:14Z</time>
      </trkpt>
      <trkpt lat="44.115711897611618" lon="10.277266558259726">
        <ele>615</ele>
        <time>2011-08-07T06:37:22Z</time>
      </trkpt>
      <trkpt lat="44.115724638104439" lon="10.277245938777924">
        <ele>615.60000000000002</ele>
        <time>2011-08-07T06:37:24Z</time>
      </trkpt>
      <trkpt lat="44.115752801299095" lon="10.277189696207643">
        <ele>616.39999999999998</ele>
        <time>2011-08-07T06:37:29Z</time>
      </trkpt>
      <trkpt lat="44.115788759663701" lon="10.277111325412989">
        <ele>617.60000000000002</ele>
        <time>2011-08-07T06:37:36Z</time>
      </trkpt>
      <trkpt lat="44.115837877616286" lon="10.277030523866415">
        <ele>618.39999999999998</ele>
        <time>2011-08-07T06:37:44Z</time>
      </trkpt>
      <trkpt lat="44.115892359986901" lon="10.276923319324851">
        <ele>619.60000000000002</ele>
        <time>2011-08-07T06:37:54Z</time>
      </trkpt>
      <trkpt lat="44.115926306694746" lon="10.276844529435039">
        <ele>620.20000000000005</ele>
        <time>2011-08-07T06:38:01Z</time>
      </trkpt>
      <trkpt lat="44.115931922569871" lon="10.276833632960916">
        <ele>620.20000000000005</ele>
        <time>2011-08-07T06:38:02Z</time>
      </trkpt>
      <trkpt lat="44.115956900641322" lon="10.276788622140884">
        <ele>621</ele>
        <time>2011-08-07T06:38:06Z</time>
      </trkpt>
      <trkpt lat="44.115988919511437" lon="10.276756435632706">
        <ele>621.39999999999998</ele>
        <time>2011-08-07T06:38:10Z</time>
      </trkpt>
      <trkpt lat="44.116031583398581" lon="10.276664402335882">
        <ele>622.39999999999998</ele>
        <time>2011-08-07T06:38:18Z</time>
      </trkpt>
      <trkpt lat="44.116067625582218" lon="10.276602627709508">
        <ele>623.20000000000005</ele>
        <time>2011-08-07T06:38:24Z</time>
      </trkpt>
      <trkpt lat="44.116069218143821" lon="10.276595335453749">
        <ele>624</ele>
        <time>2011-08-07T06:38:26Z</time>
      </trkpt>
      <trkpt lat="44.116099728271365" lon="10.276548312976956">
        <ele>624.79999999999995</ele>
        <time>2011-08-07T06:38:32Z</time>
      </trkpt>
      <trkpt lat="44.116144571453333" lon="10.276460470631719">
        <ele>625.79999999999995</ele>
        <time>2011-08-07T06:38:41Z</time>
      </trkpt>
      <trkpt lat="44.116194108501077" lon="10.276378663256764">
        <ele>627.20000000000005</ele>
        <time>2011-08-07T06:38:51Z</time>
      </trkpt>
      <trkpt lat="44.116255380213261" lon="10.276284534484148">
        <ele>628</ele>
        <time>2011-08-07T06:39:02Z</time>
      </trkpt>
      <trkpt lat="44.116305839270353" lon="10.276174396276474">
        <ele>629.79999999999995</ele>
        <time>2011-08-07T06:39:13Z</time>
      </trkpt>
      <trkpt lat="44.116311706602573" lon="10.276164086535573">
        <ele>630</ele>
        <time>2011-08-07T06:39:14Z</time>
      </trkpt>
      <trkpt lat="44.116350598633289" lon="10.276104239746928">
        <ele>631</ele>
        <time>2011-08-07T06:39:21Z</time>
      </trkpt>
      <trkpt lat="44.116403739899397" lon="10.276020672172308">
        <ele>631.20000000000005</ele>
        <time>2011-08-07T06:39:32Z</time>
      </trkpt>
      <trkpt lat="44.116457467898726" lon="10.275940289720893">
        <ele>632.39999999999998</ele>
        <time>2011-08-07T06:39:42Z</time>
      </trkpt>
      <trkpt lat="44.116510692983866" lon="10.275855800136924">
        <ele>634.79999999999995</ele>
        <time>2011-08-07T06:39:52Z</time>
      </trkpt>
      <trkpt lat="44.116562828421593" lon="10.275767035782337">
        <ele>636.60000000000002</ele>
        <time>2011-08-07T06:40:03Z</time>
      </trkpt>
      <trkpt lat="44.116602893918753" lon="10.275696460157633">
        <ele>637.60000000000002</ele>
        <time>2011-08-07T06:40:12Z</time>
      </trkpt>
      <trkpt lat="44.116648994386196" lon="10.275609539821744">
        <ele>638</ele>
        <time>2011-08-07T06:40:22Z</time>
      </trkpt>
      <trkpt lat="44.116676989942789" lon="10.27557366527617">
        <ele>637.20000000000005</ele>
        <time>2011-08-07T06:40:28Z</time>
      </trkpt>
      <trkpt lat="44.116732059046626" lon="10.275494204834104">
        <ele>636.79999999999995</ele>
        <time>2011-08-07T06:40:38Z</time>
      </trkpt>
      <trkpt lat="44.116782266646624" lon="10.275415498763323">
        <ele>638.79999999999995</ele>
        <time>2011-08-07T06:40:48Z</time>
      </trkpt>
      <trkpt lat="44.116834318265319" lon="10.275341905653477">
        <ele>639.79999999999995</ele>
        <time>2011-08-07T06:40:58Z</time>
      </trkpt>
      <trkpt lat="44.116894500330091" lon="10.275272922590375">
        <ele>640.79999999999995</ele>
        <time>2011-08-07T06:41:08Z</time>
      </trkpt>
      <trkpt lat="44.11695946007967" lon="10.27518717572093">
        <ele>642.20000000000005</ele>
        <time>2011-08-07T06:41:19Z</time>
      </trkpt>
      <trkpt lat="44.116990389302373" lon="10.275151133537292">
        <ele>641.79999999999995</ele>
        <time>2011-08-07T06:41:24Z</time>
      </trkpt>
      <trkpt lat="44.117007069289684" lon="10.275130765512586">
        <ele>642.60000000000002</ele>
        <time>2011-08-07T06:41:27Z</time>
      </trkpt>
      <trkpt lat="44.117056103423238" lon="10.275062788277864">
        <ele>646.20000000000005</ele>
        <time>2011-08-07T06:41:36Z</time>
      </trkpt>
      <trkpt lat="44.117114441469312" lon="10.274982824921608">
        <ele>644.79999999999995</ele>
        <time>2011-08-07T06:41:46Z</time>
      </trkpt>
      <trkpt lat="44.117164565250278" lon="10.274912416934967">
        <ele>646</ele>
        <time>2011-08-07T06:41:55Z</time>
      </trkpt>
      <trkpt lat="44.117215191945434" lon="10.274837566539645">
        <ele>644.39999999999998</ele>
        <time>2011-08-07T06:42:04Z</time>
      </trkpt>
      <trkpt lat="44.117250228300691" lon="10.274792304262519">
        <ele>643.39999999999998</ele>
        <time>2011-08-07T06:42:10Z</time>
      </trkpt>
      <trkpt lat="44.117299178615212" lon="10.274714436382055">
        <ele>648</ele>
        <time>2011-08-07T06:42:19Z</time>
      </trkpt>
      <trkpt lat="44.117331532761455" lon="10.274634640663862">
        <ele>653.60000000000002</ele>
        <time>2011-08-07T06:42:28Z</time>
      </trkpt>
      <trkpt lat="44.117363383993506" lon="10.274553839117289">
        <ele>658.39999999999998</ele>
        <time>2011-08-07T06:42:37Z</time>
      </trkpt>
      <trkpt lat="44.117391798645258" lon="10.274460799992085">
        <ele>660.60000000000002</ele>
        <time>2011-08-07T06:42:46Z</time>
      </trkpt>
      <trkpt lat="44.117420464754105" lon="10.274369018152356">
        <ele>662.79999999999995</ele>
        <time>2011-08-07T06:42:56Z</time>
      </trkpt>
      <trkpt lat="44.117439491674304" lon="10.274257203564048">
        <ele>663.79999999999995</ele>
        <time>2011-08-07T06:43:06Z</time>
      </trkpt>
      <trkpt lat="44.117442090064287" lon="10.274159135296941">
        <ele>663.60000000000002</ele>
        <time>2011-08-07T06:43:14Z</time>
      </trkpt>
      <trkpt lat="44.117463212460279" lon="10.274048829451203">
        <ele>661.20000000000005</ele>
        <time>2011-08-07T06:43:23Z</time>
      </trkpt>
      <trkpt lat="44.117491710931063" lon="10.27393433265388">
        <ele>659.39999999999998</ele>
        <time>2011-08-07T06:43:33Z</time>
      </trkpt>
      <trkpt lat="44.117513839155436" lon="10.273804161697626">
        <ele>662.39999999999998</ele>
        <time>2011-08-07T06:43:44Z</time>
      </trkpt>
      <trkpt lat="44.117556000128388" lon="10.27369293384254">
        <ele>663.20000000000005</ele>
        <time>2011-08-07T06:43:54Z</time>
      </trkpt>
      <trkpt lat="44.117609895765781" lon="10.273568462580442">
        <ele>664</ele>
        <time>2011-08-07T06:44:05Z</time>
      </trkpt>
      <trkpt lat="44.117655241861939" lon="10.273483218625188">
        <ele>664</ele>
        <time>2011-08-07T06:44:14Z</time>
      </trkpt>
      <trkpt lat="44.117698492482305" lon="10.273374672979116">
        <ele>664</ele>
        <time>2011-08-07T06:44:24Z</time>
      </trkpt>
      <trkpt lat="44.117707377299666" lon="10.273353634402156">
        <ele>664.39999999999998</ele>
        <time>2011-08-07T06:44:32Z</time>
      </trkpt>
      <trkpt lat="44.117730762809515" lon="10.273278029635549">
        <ele>663.79999999999995</ele>
        <time>2011-08-07T06:44:37Z</time>
      </trkpt>
      <trkpt lat="44.117776695638895" lon="10.273107541725039">
        <ele>662</ele>
        <time>2011-08-07T06:44:46Z</time>
      </trkpt>
      <trkpt lat="44.117823382839561" lon="10.27292431332171">
        <ele>659.60000000000002</ele>
        <time>2011-08-07T06:44:56Z</time>
      </trkpt>
      <trkpt lat="44.117869315668941" lon="10.272708395496011">
        <ele>659.60000000000002</ele>
        <time>2011-08-07T06:45:06Z</time>
      </trkpt>
      <trkpt lat="44.117937963455915" lon="10.272562382742763">
        <ele>660.39999999999998</ele>
        <time>2011-08-07T06:45:14Z</time>
      </trkpt>
      <trkpt lat="44.118014741688967" lon="10.272402120754123">
        <ele>662</ele>
        <time>2011-08-07T06:45:23Z</time>
      </trkpt>
      <trkpt lat="44.11811993457377" lon="10.272244540974498">
        <ele>663.39999999999998</ele>
        <time>2011-08-07T06:45:33Z</time>
      </trkpt>
      <trkpt lat="44.118194365873933" lon="10.272124595940113">
        <ele>664.60000000000002</ele>
        <time>2011-08-07T06:45:41Z</time>
      </trkpt>
      <trkpt lat="44.118271982297301" lon="10.272015715017915">
        <ele>665.60000000000002</ele>
        <time>2011-08-07T06:45:49Z</time>
      </trkpt>
      <trkpt lat="44.118369882926345" lon="10.271878838539124">
        <ele>666.79999999999995</ele>
        <time>2011-08-07T06:45:59Z</time>
      </trkpt>
      <trkpt lat="44.118483792990446" lon="10.271712960675359">
        <ele>668.79999999999995</ele>
        <time>2011-08-07T06:46:11Z</time>
      </trkpt>
      <trkpt lat="44.118539532646537" lon="10.271594859659672">
        <ele>670</ele>
        <time>2011-08-07T06:46:19Z</time>
      </trkpt>
      <trkpt lat="44.118586219847202" lon="10.271419258788228">
        <ele>671.20000000000005</ele>
        <time>2011-08-07T06:46:29Z</time>
      </trkpt>
      <trkpt lat="44.118555122986436" lon="10.271236030384898">
        <ele>672.60000000000002</ele>
        <time>2011-08-07T06:46:39Z</time>
      </trkpt>
      <trkpt lat="44.118545902892947" lon="10.271202838048339">
        <ele>673.20000000000005</ele>
        <time>2011-08-07T06:46:45Z</time>
      </trkpt>
      <trkpt lat="44.118485301733017" lon="10.271102003753185">
        <ele>667.39999999999998</ele>
        <time>2011-08-07T06:47:40Z</time>
      </trkpt>
      <trkpt lat="44.118437441065907" lon="10.270921709015965">
        <ele>670</ele>
        <time>2011-08-07T06:47:49Z</time>
      </trkpt>
      <trkpt lat="44.118356639519334" lon="10.270742001011968">
        <ele>673.39999999999998</ele>
        <time>2011-08-07T06:48:00Z</time>
      </trkpt>
      <trkpt lat="44.118259912356734" lon="10.27061115950346">
        <ele>675.60000000000002</ele>
        <time>2011-08-07T06:48:10Z</time>
      </trkpt>
      <trkpt lat="44.118167795240879" lon="10.270471181720495">
        <ele>679.20000000000005</ele>
        <time>2011-08-07T06:48:20Z</time>
      </trkpt>
      <trkpt lat="44.118102332577109" lon="10.270324666053057">
        <ele>680.20000000000005</ele>
        <time>2011-08-07T06:48:29Z</time>
      </trkpt>
      <trkpt lat="44.118061428889632" lon="10.270129116252065">
        <ele>681.39999999999998</ele>
        <time>2011-08-07T06:48:40Z</time>
      </trkpt>
      <trkpt lat="44.118040641769767" lon="10.269944714382291">
        <ele>683</ele>
        <time>2011-08-07T06:48:50Z</time>
      </trkpt>
      <trkpt lat="44.118009461089969" lon="10.269764084368944">
        <ele>683.79999999999995</ele>
        <time>2011-08-07T06:49:00Z</time>
      </trkpt>
      <trkpt lat="44.117993703112006" lon="10.269616898149252">
        <ele>684</ele>
        <time>2011-08-07T06:49:08Z</time>
      </trkpt>
      <trkpt lat="44.117973502725363" lon="10.269485302269459">
        <ele>687.20000000000005</ele>
        <time>2011-08-07T06:49:16Z</time>
      </trkpt>
      <trkpt lat="44.117953637614846" lon="10.269321436062455">
        <ele>686</ele>
        <time>2011-08-07T06:49:25Z</time>
      </trkpt>
      <trkpt lat="44.117930922657251" lon="10.269168633967638">
        <ele>684.79999999999995</ele>
        <time>2011-08-07T06:49:34Z</time>
      </trkpt>
      <trkpt lat="44.117905776947737" lon="10.269023962318897">
        <ele>684.20000000000005</ele>
        <time>2011-08-07T06:49:42Z</time>
      </trkpt>
      <trkpt lat="44.117873338982463" lon="10.268870238214731">
        <ele>686.20000000000005</ele>
        <time>2011-08-07T06:49:50Z</time>
      </trkpt>
      <trkpt lat="44.117851126939058" lon="10.268666809424758">
        <ele>685.79999999999995</ele>
        <time>2011-08-07T06:50:01Z</time>
      </trkpt>
      <trkpt lat="44.117830172181129" lon="10.268517360091209">
        <ele>686.20000000000005</ele>
        <time>2011-08-07T06:50:10Z</time>
      </trkpt>
      <trkpt lat="44.117811731994152" lon="10.268376125022769">
        <ele>687.60000000000002</ele>
        <time>2011-08-07T06:50:18Z</time>
      </trkpt>
      <trkpt lat="44.117792788892984" lon="10.26823103427887">
        <ele>688.60000000000002</ele>
        <time>2011-08-07T06:50:27Z</time>
      </trkpt>
      <trkpt lat="44.117768397554755" lon="10.26808493770659">
        <ele>690.20000000000005</ele>
        <time>2011-08-07T06:50:36Z</time>
      </trkpt>
      <trkpt lat="44.117741575464606" lon="10.267924005165696">
        <ele>692</ele>
        <time>2011-08-07T06:50:46Z</time>
      </trkpt>
      <trkpt lat="44.117735959589481" lon="10.26787287555635">
        <ele>692.60000000000002</ele>
        <time>2011-08-07T06:50:51Z</time>
      </trkpt>
      <trkpt lat="44.117732774466276" lon="10.267859296873212">
        <ele>692.79999999999995</ele>
        <time>2011-08-07T06:50:52Z</time>
      </trkpt>
      <trkpt lat="44.117697486653924" lon="10.267731891945004">
        <ele>694.79999999999995</ele>
        <time>2011-08-07T06:51:04Z</time>
      </trkpt>
      <trkpt lat="44.117655996233225" lon="10.267602391541004">
        <ele>695.39999999999998</ele>
        <time>2011-08-07T06:51:17Z</time>
      </trkpt>
      <trkpt lat="44.117620959877968" lon="10.267496611922979">
        <ele>695.79999999999995</ele>
        <time>2011-08-07T06:51:27Z</time>
      </trkpt>
      <trkpt lat="44.117587599903345" lon="10.267385467886925">
        <ele>696.20000000000005</ele>
        <time>2011-08-07T06:51:38Z</time>
      </trkpt>
      <trkpt lat="44.117563460022211" lon="10.267284465953708">
        <ele>696</ele>
        <time>2011-08-07T06:51:48Z</time>
      </trkpt>
      <trkpt lat="44.117550635710359" lon="10.267186397686601">
        <ele>695.39999999999998</ele>
        <time>2011-08-07T06:51:58Z</time>
      </trkpt>
      <trkpt lat="44.117551138624549" lon="10.267089335247874">
        <ele>697.39999999999998</ele>
        <time>2011-08-07T06:52:08Z</time>
      </trkpt>
      <trkpt lat="44.117544181644917" lon="10.266975006088614">
        <ele>701.20000000000005</ele>
        <time>2011-08-07T06:52:19Z</time>
      </trkpt>
      <trkpt lat="44.117534961551428" lon="10.266908621415496">
        <ele>701.20000000000005</ele>
        <time>2011-08-07T06:52:25Z</time>
      </trkpt>
      <trkpt lat="44.117530100047588" lon="10.266786497086287">
        <ele>699.60000000000002</ele>
        <time>2011-08-07T06:52:35Z</time>
      </trkpt>
      <trkpt lat="44.117520460858941" lon="10.266647608950734">
        <ele>700.20000000000005</ele>
        <time>2011-08-07T06:52:46Z</time>
      </trkpt>
      <trkpt lat="44.117518784478307" lon="10.266601927578449">
        <ele>701.20000000000005</ele>
        <time>2011-08-07T06:52:55Z</time>
      </trkpt>
      <trkpt lat="44.11751308478415" lon="10.26652623899281">
        <ele>704</ele>
        <time>2011-08-07T06:53:31Z</time>
      </trkpt>
      <trkpt lat="44.117511827498674" lon="10.266370167955756">
        <ele>704</ele>
        <time>2011-08-07T06:53:43Z</time>
      </trkpt>
      <trkpt lat="44.11750428378582" lon="10.266212001442909">
        <ele>705.79999999999995</ele>
        <time>2011-08-07T06:53:55Z</time>
      </trkpt>
      <trkpt lat="44.117499925196171" lon="10.266070598736405">
        <ele>707.20000000000005</ele>
        <time>2011-08-07T06:54:06Z</time>
      </trkpt>
      <trkpt lat="44.117491627112031" lon="10.265943361446261">
        <ele>708.39999999999998</ele>
        <time>2011-08-07T06:54:17Z</time>
      </trkpt>
      <trkpt lat="44.117473941296339" lon="10.265841018408537">
        <ele>711.20000000000005</ele>
        <time>2011-08-07T06:54:25Z</time>
      </trkpt>
      <trkpt lat="44.117464134469628" lon="10.265733562409878">
        <ele>711.79999999999995</ele>
        <time>2011-08-07T06:54:35Z</time>
      </trkpt>
      <trkpt lat="44.117439575493336" lon="10.265600625425577">
        <ele>712.60000000000002</ele>
        <time>2011-08-07T06:54:46Z</time>
      </trkpt>
      <trkpt lat="44.117411579936743" lon="10.2654785849154">
        <ele>714.20000000000005</ele>
        <time>2011-08-07T06:54:57Z</time>
      </trkpt>
      <trkpt lat="44.117370927706361" lon="10.265343468636274">
        <ele>716</ele>
        <time>2011-08-07T06:55:11Z</time>
      </trkpt>
      <trkpt lat="44.117307141423225" lon="10.26526115834713">
        <ele>717.39999999999998</ele>
        <time>2011-08-07T06:55:21Z</time>
      </trkpt>
      <trkpt lat="44.117222232744098" lon="10.265257386490703">
        <ele>722.60000000000002</ele>
        <time>2011-08-07T06:55:30Z</time>
      </trkpt>
      <trkpt lat="44.117198092862964" lon="10.26535302400589">
        <ele>724.60000000000002</ele>
        <time>2011-08-07T06:55:38Z</time>
      </trkpt>
      <trkpt lat="44.117236733436584" lon="10.265476908534765">
        <ele>730.60000000000002</ele>
        <time>2011-08-07T06:55:48Z</time>
      </trkpt>
      <trkpt lat="44.117286438122392" lon="10.265635661780834">
        <ele>734.79999999999995</ele>
        <time>2011-08-07T06:56:00Z</time>
      </trkpt>
      <trkpt lat="44.117256263270974" lon="10.265723671764135">
        <ele>738.39999999999998</ele>
        <time>2011-08-07T06:56:08Z</time>
      </trkpt>
      <trkpt lat="44.117195662111044" lon="10.265719061717391">
        <ele>739.20000000000005</ele>
        <time>2011-08-07T06:56:15Z</time>
      </trkpt>
      <trkpt lat="44.117171186953783" lon="10.26561051607132">
        <ele>737.39999999999998</ele>
        <time>2011-08-07T06:56:24Z</time>
      </trkpt>
      <trkpt lat="44.117148136720061" lon="10.265508592128754">
        <ele>734.60000000000002</ele>
        <time>2011-08-07T06:56:33Z</time>
      </trkpt>
      <trkpt lat="44.117112178355455" lon="10.265398537740111">
        <ele>732.79999999999995</ele>
        <time>2011-08-07T06:56:43Z</time>
      </trkpt>
      <trkpt lat="44.11708652973175" lon="10.265278341248631">
        <ele>732</ele>
        <time>2011-08-07T06:56:53Z</time>
      </trkpt>
      <trkpt lat="44.11708359606564" lon="10.265142973512411">
        <ele>732.39999999999998</ele>
        <time>2011-08-07T06:57:03Z</time>
      </trkpt>
      <trkpt lat="44.117104634642601" lon="10.265034595504403">
        <ele>731.60000000000002</ele>
        <time>2011-08-07T06:57:12Z</time>
      </trkpt>
      <trkpt lat="44.117158865556121" lon="10.264912387356162">
        <ele>730.20000000000005</ele>
        <time>2011-08-07T06:57:25Z</time>
      </trkpt>
      <trkpt lat="44.117235476151109" lon="10.26484583504498">
        <ele>730.39999999999998</ele>
        <time>2011-08-07T06:57:35Z</time>
      </trkpt>
      <trkpt lat="44.117276798933744" lon="10.26472027413547">
        <ele>731.20000000000005</ele>
        <time>2011-08-07T06:57:46Z</time>
      </trkpt>
      <trkpt lat="44.117272440344095" lon="10.26463083922863">
        <ele>731.20000000000005</ele>
        <time>2011-08-07T06:57:54Z</time>
      </trkpt>
      <trkpt lat="44.117244360968471" lon="10.26452774181962">
        <ele>731.20000000000005</ele>
        <time>2011-08-07T06:58:03Z</time>
      </trkpt>
      <trkpt lat="44.117197506129742" lon="10.264479210600257">
        <ele>731.20000000000005</ele>
        <time>2011-08-07T06:58:10Z</time>
      </trkpt>
      <trkpt lat="44.117176970466971" lon="10.264473259449005">
        <ele>731.60000000000002</ele>
        <time>2011-08-07T06:58:12Z</time>
      </trkpt>
      <trkpt lat="44.117120560258627" lon="10.264481725171208">
        <ele>735.20000000000005</ele>
        <time>2011-08-07T06:58:19Z</time>
      </trkpt>
      <trkpt lat="44.117098264396191" lon="10.26450963690877">
        <ele>739.39999999999998</ele>
        <time>2011-08-07T06:58:22Z</time>
      </trkpt>
      <trkpt lat="44.117036825045943" lon="10.264519359916449">
        <ele>744.39999999999998</ele>
        <time>2011-08-07T06:58:27Z</time>
      </trkpt>
      <trkpt lat="44.117017379030585" lon="10.264533860608935">
        <ele>746</ele>
        <time>2011-08-07T06:58:31Z</time>
      </trkpt>
      <trkpt lat="44.117010002955794" lon="10.264533273875713">
        <ele>746.39999999999998</ele>
        <time>2011-08-07T06:58:32Z</time>
      </trkpt>
      <trkpt lat="44.116955520585179" lon="10.264551378786564">
        <ele>747.79999999999995</ele>
        <time>2011-08-07T06:58:39Z</time>
      </trkpt>
      <trkpt lat="44.116863738745451" lon="10.264611141756177">
        <ele>751.20000000000005</ele>
        <time>2011-08-07T06:58:51Z</time>
      </trkpt>
      <trkpt lat="44.116848902776837" lon="10.264655062928796">
        <ele>755</ele>
        <time>2011-08-07T06:58:56Z</time>
      </trkpt>
      <trkpt lat="44.116821326315403" lon="10.264735613018274">
        <ele>755.20000000000005</ele>
        <time>2011-08-07T06:59:04Z</time>
      </trkpt>
      <trkpt lat="44.116793163120747" lon="10.264855390414596">
        <ele>755.20000000000005</ele>
        <time>2011-08-07T06:59:14Z</time>
      </trkpt>
      <trkpt lat="44.116774806752801" lon="10.264973826706409">
        <ele>753.39999999999998</ele>
        <time>2011-08-07T06:59:24Z</time>
      </trkpt>
      <trkpt lat="44.116745637729764" lon="10.265115480870008">
        <ele>751</ele>
        <time>2011-08-07T06:59:37Z</time>
      </trkpt>
      <trkpt lat="44.116719234734774" lon="10.265236096456647">
        <ele>749.39999999999998</ele>
        <time>2011-08-07T06:59:48Z</time>
      </trkpt>
      <trkpt lat="44.116683360189199" lon="10.26532368734479">
        <ele>750.60000000000002</ele>
        <time>2011-08-07T06:59:57Z</time>
      </trkpt>
      <trkpt lat="44.116626363247633" lon="10.265408596023917">
        <ele>756.60000000000002</ele>
        <time>2011-08-07T07:00:07Z</time>
      </trkpt>
      <trkpt lat="44.116544891148806" lon="10.265465090051293">
        <ele>758.39999999999998</ele>
        <time>2011-08-07T07:00:18Z</time>
      </trkpt>
      <trkpt lat="44.116463335230947" lon="10.265427958220243">
        <ele>758.39999999999998</ele>
        <time>2011-08-07T07:00:27Z</time>
      </trkpt>
      <trkpt lat="44.116402063518763" lon="10.265354197472334">
        <ele>763.60000000000002</ele>
        <time>2011-08-07T07:00:36Z</time>
      </trkpt>
      <trkpt lat="44.116369541734457" lon="10.265277670696378">
        <ele>763.39999999999998</ele>
        <time>2011-08-07T07:00:43Z</time>
      </trkpt>
      <trkpt lat="44.116347162052989" lon="10.265263421460986">
        <ele>755.60000000000002</ele>
        <time>2011-08-07T07:00:46Z</time>
      </trkpt>
      <trkpt lat="44.116315059363842" lon="10.265216315165162">
        <ele>752.60000000000002</ele>
        <time>2011-08-07T07:00:51Z</time>
      </trkpt>
      <trkpt lat="44.116310365498066" lon="10.265192678198218">
        <ele>751.60000000000002</ele>
        <time>2011-08-07T07:00:53Z</time>
      </trkpt>
      <trkpt lat="44.116305336356163" lon="10.265135178342462">
        <ele>754.20000000000005</ele>
        <time>2011-08-07T07:00:57Z</time>
      </trkpt>
      <trkpt lat="44.116297205910087" lon="10.265082959085703">
        <ele>755.79999999999995</ele>
        <time>2011-08-07T07:01:01Z</time>
      </trkpt>
      <trkpt lat="44.116288991644979" lon="10.265039037913084">
        <ele>753.79999999999995</ele>
        <time>2011-08-07T07:01:05Z</time>
      </trkpt>
      <trkpt lat="44.116264432668686" lon="10.265026967972517">
        <ele>754.79999999999995</ele>
        <time>2011-08-07T07:01:08Z</time>
      </trkpt>
      <trkpt lat="44.116267366334796" lon="10.265025794506073">
        <ele>753.79999999999995</ele>
        <time>2011-08-07T07:01:10Z</time>
      </trkpt>
      <trkpt lat="44.116233671084046" lon="10.264955470338464">
        <ele>755.20000000000005</ele>
        <time>2011-08-07T07:01:16Z</time>
      </trkpt>
      <trkpt lat="44.116145996376872" lon="10.264792358502746">
        <ele>753.39999999999998</ele>
        <time>2011-08-07T07:01:25Z</time>
      </trkpt>
      <trkpt lat="44.116045413538814" lon="10.264647100120783">
        <ele>752.39999999999998</ele>
        <time>2011-08-07T07:01:33Z</time>
      </trkpt>
      <trkpt lat="44.115926139056683" lon="10.264557162299752">
        <ele>752.20000000000005</ele>
        <time>2011-08-07T07:01:40Z</time>
      </trkpt>
      <trkpt lat="44.115813737735152" lon="10.264453561976552">
        <ele>752.79999999999995</ele>
        <time>2011-08-07T07:01:47Z</time>
      </trkpt>
      <trkpt lat="44.115682896226645" lon="10.2642731834203">
        <ele>753.39999999999998</ele>
        <time>2011-08-07T07:01:55Z</time>
      </trkpt>
      <trkpt lat="44.115530429407954" lon="10.263959532603621">
        <ele>750.79999999999995</ele>
        <time>2011-08-07T07:02:03Z</time>
      </trkpt>
      <trkpt lat="44.115338483825326" lon="10.26358226314187">
        <ele>749.20000000000005</ele>
        <time>2011-08-07T07:02:10Z</time>
      </trkpt>
      <trkpt lat="44.115118123590946" lon="10.263136094436049">
        <ele>747.20000000000005</ele>
        <time>2011-08-07T07:02:17Z</time>
      </trkpt>
      <trkpt lat="44.115093564614654" lon="10.263065015897155">
        <ele>747</ele>
        <time>2011-08-07T07:02:18Z</time>
      </trkpt>
      <trkpt lat="44.115082668140531" lon="10.262987734749913">
        <ele>747</ele>
        <time>2011-08-07T07:02:19Z</time>
      </trkpt>
      <trkpt lat="44.115046039223671" lon="10.262750191614032">
        <ele>748.20000000000005</ele>
        <time>2011-08-07T07:02:22Z</time>
      </trkpt>
      <trkpt lat="44.11503572948277" lon="10.262627564370632">
        <ele>748.39999999999998</ele>
        <time>2011-08-07T07:02:24Z</time>
      </trkpt>
      <trkpt lat="44.115017876029015" lon="10.262541314586997">
        <ele>748.79999999999995</ele>
        <time>2011-08-07T07:02:26Z</time>
      </trkpt>
      <trkpt lat="44.114997172728181" lon="10.262465039268136">
        <ele>749.60000000000002</ele>
        <time>2011-08-07T07:02:27Z</time>
      </trkpt>
      <trkpt lat="44.114901535212994" lon="10.262307208031416">
        <ele>753.79999999999995</ele>
        <time>2011-08-07T07:02:30Z</time>
      </trkpt>
      <trkpt lat="44.114791313186288" lon="10.262259179726243">
        <ele>754.39999999999998</ele>
        <time>2011-08-07T07:02:33Z</time>
      </trkpt>
      <trkpt lat="44.114722078666091" lon="10.262228921055794">
        <ele>754.39999999999998</ele>
        <time>2011-08-07T07:02:35Z</time>
      </trkpt>
      <trkpt lat="44.114615963771939" lon="10.26212221942842">
        <ele>754.20000000000005</ele>
        <time>2011-08-07T07:02:39Z</time>
      </trkpt>
      <trkpt lat="44.114566762000322" lon="10.262057678773999">
        <ele>754.39999999999998</ele>
        <time>2011-08-07T07:02:41Z</time>
      </trkpt>
      <trkpt lat="44.114451929926872" lon="10.261913174763322">
        <ele>755.60000000000002</ele>
        <time>2011-08-07T07:02:47Z</time>
      </trkpt>
      <trkpt lat="44.114419994875789" lon="10.261884341016412">
        <ele>756.79999999999995</ele>
        <time>2011-08-07T07:02:52Z</time>
      </trkpt>
      <trkpt lat="44.114309521391988" lon="10.261786775663495">
        <ele>754.60000000000002</ele>
        <time>2011-08-07T07:03:05Z</time>
      </trkpt>
      <trkpt lat="44.114218158647418" lon="10.261716786772013">
        <ele>755.79999999999995</ele>
        <time>2011-08-07T07:03:16Z</time>
      </trkpt>
      <trkpt lat="44.114133333787322" lon="10.26164973154664">
        <ele>757.60000000000002</ele>
        <time>2011-08-07T07:03:27Z</time>
      </trkpt>
      <trkpt lat="44.114040127024055" lon="10.261556608602405">
        <ele>759.60000000000002</ele>
        <time>2011-08-07T07:03:40Z</time>
      </trkpt>
      <trkpt lat="44.113993104547262" lon="10.261493576690555">
        <ele>759.20000000000005</ele>
        <time>2011-08-07T07:03:48Z</time>
      </trkpt>
      <trkpt lat="44.113973071798682" lon="10.261457031592727">
        <ele>759.39999999999998</ele>
        <time>2011-08-07T07:03:52Z</time>
      </trkpt>
      <trkpt lat="44.113950524479151" lon="10.261420235037804">
        <ele>759.39999999999998</ele>
        <time>2011-08-07T07:03:56Z</time>
      </trkpt>
      <trkpt lat="44.113908866420388" lon="10.261360807344317">
        <ele>759.79999999999995</ele>
        <time>2011-08-07T07:04:03Z</time>
      </trkpt>
      <trkpt lat="44.113854635506868" lon="10.261301631107926">
        <ele>758.39999999999998</ele>
        <time>2011-08-07T07:04:11Z</time>
      </trkpt>
      <trkpt lat="44.113817000761628" lon="10.261230887845159">
        <ele>759.39999999999998</ele>
        <time>2011-08-07T07:04:18Z</time>
      </trkpt>
      <trkpt lat="44.113792525604367" lon="10.261171963065863">
        <ele>761.60000000000002</ele>
        <time>2011-08-07T07:04:23Z</time>
      </trkpt>
      <trkpt lat="44.113747095689178" lon="10.261084958910942">
        <ele>764.39999999999998</ele>
        <time>2011-08-07T07:04:31Z</time>
      </trkpt>
      <trkpt lat="44.113711975514889" lon="10.261023435741663">
        <ele>764.79999999999995</ele>
        <time>2011-08-07T07:04:37Z</time>
      </trkpt>
      <trkpt lat="44.113684399053454" lon="10.260984040796757">
        <ele>766</ele>
        <time>2011-08-07T07:04:41Z</time>
      </trkpt>
      <trkpt lat="44.113625306636095" lon="10.260878512635827">
        <ele>768.60000000000002</ele>
        <time>2011-08-07T07:04:50Z</time>
      </trkpt>
      <trkpt lat="44.113555988296866" lon="10.260725961998105">
        <ele>765</ele>
        <time>2011-08-07T07:05:03Z</time>
      </trkpt>
      <trkpt lat="44.11349706351757" lon="10.260616913437843">
        <ele>767.60000000000002</ele>
        <time>2011-08-07T07:05:12Z</time>
      </trkpt>
      <trkpt lat="44.113438641652465" lon="10.260469475761056">
        <ele>765.60000000000002</ele>
        <time>2011-08-07T07:05:24Z</time>
      </trkpt>
      <trkpt lat="44.113409891724586" lon="10.260421112179756">
        <ele>766.60000000000002</ele>
        <time>2011-08-07T07:05:28Z</time>
      </trkpt>
      <trkpt lat="44.113307129591703" lon="10.260285492986441">
        <ele>768.79999999999995</ele>
        <time>2011-08-07T07:05:42Z</time>
      </trkpt>
      <trkpt lat="44.113221634179354" lon="10.260182563215494">
        <ele>769.20000000000005</ele>
        <time>2011-08-07T07:05:54Z</time>
      </trkpt>
      <trkpt lat="44.113116273656487" lon="10.260061109438539">
        <ele>771</ele>
        <time>2011-08-07T07:06:08Z</time>
      </trkpt>
      <trkpt lat="44.113033628091216" lon="10.259985839948058">
        <ele>771.60000000000002</ele>
        <time>2011-08-07T07:06:18Z</time>
      </trkpt>
      <trkpt lat="44.112999681383371" lon="10.259917778894305">
        <ele>771.60000000000002</ele>
        <time>2011-08-07T07:06:25Z</time>
      </trkpt>
      <trkpt lat="44.112975876778364" lon="10.259833540767431">
        <ele>771.60000000000002</ele>
        <time>2011-08-07T07:06:31Z</time>
      </trkpt>
      <trkpt lat="44.112895075231791" lon="10.25964486412704">
        <ele>769</ele>
        <time>2011-08-07T07:06:38Z</time>
      </trkpt>
      <trkpt lat="44.112759958952665" lon="10.259351832792163">
        <ele>767.60000000000002</ele>
        <time>2011-08-07T07:06:46Z</time>
      </trkpt>
      <trkpt lat="44.112660465762019" lon="10.259053437039256">
        <ele>767.79999999999995</ele>
        <time>2011-08-07T07:06:53Z</time>
      </trkpt>
      <trkpt lat="44.112596260383725" lon="10.258635263890028">
        <ele>770</ele>
        <time>2011-08-07T07:07:01Z</time>
      </trkpt>
      <trkpt lat="44.112490313127637" lon="10.258169900625944">
        <ele>771.60000000000002</ele>
        <time>2011-08-07T07:07:07Z</time>
      </trkpt>
      <trkpt lat="44.112368859350681" lon="10.25784669443965">
        <ele>772.79999999999995</ele>
        <time>2011-08-07T07:07:11Z</time>
      </trkpt>
      <trkpt lat="44.112332230433822" lon="10.257773771882057">
        <ele>772.39999999999998</ele>
        <time>2011-08-07T07:07:12Z</time>
      </trkpt>
      <trkpt lat="44.112244807183743" lon="10.25763463228941">
        <ele>770.79999999999995</ele>
        <time>2011-08-07T07:07:14Z</time>
      </trkpt>
      <trkpt lat="44.112131735309958" lon="10.257526589557528">
        <ele>769.79999999999995</ele>
        <time>2011-08-07T07:07:16Z</time>
      </trkpt>
      <trkpt lat="44.111999133601785" lon="10.257442016154528">
        <ele>769.39999999999998</ele>
        <time>2011-08-07T07:07:18Z</time>
      </trkpt>
      <trkpt lat="44.11175848916173" lon="10.257254429161549">
        <ele>769</ele>
        <time>2011-08-07T07:07:22Z</time>
      </trkpt>
      <trkpt lat="44.111605267971754" lon="10.257104728370905">
        <ele>771.20000000000005</ele>
        <time>2011-08-07T07:07:26Z</time>
      </trkpt>
      <trkpt lat="44.111502170562744" lon="10.256977491080761">
        <ele>772.60000000000002</ele>
        <time>2011-08-07T07:07:31Z</time>
      </trkpt>
      <trkpt lat="44.111491441726685" lon="10.256953770294785">
        <ele>773</ele>
        <time>2011-08-07T07:07:32Z</time>
      </trkpt>
      <trkpt lat="44.111440060660243" lon="10.256827035918832">
        <ele>774.79999999999995</ele>
        <time>2011-08-07T07:07:38Z</time>
      </trkpt>
      <trkpt lat="44.111433019861579" lon="10.256806667894125">
        <ele>775.20000000000005</ele>
        <time>2011-08-07T07:07:39Z</time>
      </trkpt>
      <trkpt lat="44.111379208043218" lon="10.256647160276771">
        <ele>778</ele>
        <time>2011-08-07T07:07:48Z</time>
      </trkpt>
      <trkpt lat="44.111336041241884" lon="10.256556132808328">
        <ele>779.60000000000002</ele>
        <time>2011-08-07T07:07:54Z</time>
      </trkpt>
      <trkpt lat="44.111267058178782" lon="10.256427638232708">
        <ele>781.79999999999995</ele>
        <time>2011-08-07T07:08:03Z</time>
      </trkpt>
      <trkpt lat="44.111226238310337" lon="10.25633979588747">
        <ele>782.39999999999998</ele>
        <time>2011-08-07T07:08:09Z</time>
      </trkpt>
      <trkpt lat="44.111167481169105" lon="10.256228316575289">
        <ele>783.79999999999995</ele>
        <time>2011-08-07T07:08:17Z</time>
      </trkpt>
      <trkpt lat="44.111120207235217" lon="10.256108203902841">
        <ele>784.39999999999998</ele>
        <time>2011-08-07T07:08:25Z</time>
      </trkpt>
      <trkpt lat="44.111066479235888" lon="10.255980296060443">
        <ele>785.39999999999998</ele>
        <time>2011-08-07T07:08:34Z</time>
      </trkpt>
      <trkpt lat="44.111013673245907" lon="10.255850125104189">
        <ele>787</ele>
        <time>2011-08-07T07:08:43Z</time>
      </trkpt>
      <trkpt lat="44.110957011580467" lon="10.255704279989004">
        <ele>788.79999999999995</ele>
        <time>2011-08-07T07:08:53Z</time>
      </trkpt>
      <trkpt lat="44.110899679362774" lon="10.255622724071145">
        <ele>791</ele>
        <time>2011-08-07T07:09:00Z</time>
      </trkpt>
      <trkpt lat="44.110825834795833" lon="10.255521135404706">
        <ele>792.79999999999995</ele>
        <time>2011-08-07T07:09:09Z</time>
      </trkpt>
      <trkpt lat="44.110740087926388" lon="10.255446620285511">
        <ele>794.39999999999998</ele>
        <time>2011-08-07T07:09:18Z</time>
      </trkpt>
      <trkpt lat="44.110657861456275" lon="10.255369758233428">
        <ele>795.79999999999995</ele>
        <time>2011-08-07T07:09:27Z</time>
      </trkpt>
      <trkpt lat="44.110564067959785" lon="10.255284430459142">
        <ele>797.20000000000005</ele>
        <time>2011-08-07T07:09:37Z</time>
      </trkpt>
      <trkpt lat="44.110486870631576" lon="10.255192397162318">
        <ele>798.20000000000005</ele>
        <time>2011-08-07T07:09:46Z</time>
      </trkpt>
      <trkpt lat="44.110411014407873" lon="10.255076391622424">
        <ele>798.60000000000002</ele>
        <time>2011-08-07T07:09:56Z</time>
      </trkpt>
      <trkpt lat="44.110347898676991" lon="10.254964493215084">
        <ele>798.39999999999998</ele>
        <time>2011-08-07T07:10:05Z</time>
      </trkpt>
      <trkpt lat="44.110296098515391" lon="10.254858462139964">
        <ele>796.79999999999995</ele>
        <time>2011-08-07T07:10:13Z</time>
      </trkpt>
      <trkpt lat="44.11022862419486" lon="10.254740361124277">
        <ele>796</ele>
        <time>2011-08-07T07:10:22Z</time>
      </trkpt>
      <trkpt lat="44.110176991671324" lon="10.254615386947989">
        <ele>796.60000000000002</ele>
        <time>2011-08-07T07:10:30Z</time>
      </trkpt>
      <trkpt lat="44.110120832920074" lon="10.254500135779381">
        <ele>796.79999999999995</ele>
        <time>2011-08-07T07:10:38Z</time>
      </trkpt>
      <trkpt lat="44.110037935897708" lon="10.25434423238039">
        <ele>796.60000000000002</ele>
        <time>2011-08-07T07:10:49Z</time>
      </trkpt>
      <trkpt lat="44.109963588416576" lon="10.254225879907608">
        <ele>797.20000000000005</ele>
        <time>2011-08-07T07:10:58Z</time>
      </trkpt>
      <trkpt lat="44.109883876517415" lon="10.254138624295592">
        <ele>798</ele>
        <time>2011-08-07T07:11:06Z</time>
      </trkpt>
      <trkpt lat="44.109811624512076" lon="10.25403393432498">
        <ele>799</ele>
        <time>2011-08-07T07:11:15Z</time>
      </trkpt>
      <trkpt lat="44.109720177948475" lon="10.253931172192097">
        <ele>800.20000000000005</ele>
        <time>2011-08-07T07:11:25Z</time>
      </trkpt>
      <trkpt lat="44.109617583453655" lon="10.25382480584085">
        <ele>803</ele>
        <time>2011-08-07T07:11:36Z</time>
      </trkpt>
      <trkpt lat="44.109547175467014" lon="10.25374517776072">
        <ele>805</ele>
        <time>2011-08-07T07:11:44Z</time>
      </trkpt>
      <trkpt lat="44.109466625377536" lon="10.253640236333013">
        <ele>807.39999999999998</ele>
        <time>2011-08-07T07:11:54Z</time>
      </trkpt>
      <trkpt lat="44.109386494383216" lon="10.253555914387107">
        <ele>809.39999999999998</ele>
        <time>2011-08-07T07:12:03Z</time>
      </trkpt>
      <trkpt lat="44.109340813010931" lon="10.253491960465908">
        <ele>810.39999999999998</ele>
        <time>2011-08-07T07:12:09Z</time>
      </trkpt>
      <trkpt lat="44.109283313155174" lon="10.253443429246545">
        <ele>811</ele>
        <time>2011-08-07T07:12:16Z</time>
      </trkpt>
      <trkpt lat="44.109269566833973" lon="10.253460528329015">
        <ele>814.20000000000005</ele>
        <time>2011-08-07T07:12:29Z</time>
      </trkpt>
      <trkpt lat="44.109231596812606" lon="10.253458013758063">
        <ele>817.20000000000005</ele>
        <time>2011-08-07T07:13:04Z</time>
      </trkpt>
      <trkpt lat="44.109154399484396" lon="10.253454660996795">
        <ele>817.60000000000002</ele>
        <time>2011-08-07T07:13:13Z</time>
      </trkpt>
      <trkpt lat="44.109106790274382" lon="10.253460695967078">
        <ele>818</ele>
        <time>2011-08-07T07:13:19Z</time>
      </trkpt>
      <trkpt lat="44.109034622088075" lon="10.253453738987446">
        <ele>818.60000000000002</ele>
        <time>2011-08-07T07:13:28Z</time>
      </trkpt>
      <trkpt lat="44.10893227905035" lon="10.253430269658566">
        <ele>819.79999999999995</ele>
        <time>2011-08-07T07:13:40Z</time>
      </trkpt>
      <trkpt lat="44.108835468068719" lon="10.253386935219169">
        <ele>820.79999999999995</ele>
        <time>2011-08-07T07:13:52Z</time>
      </trkpt>
      <trkpt lat="44.108755169436336" lon="10.253332536667585">
        <ele>821.60000000000002</ele>
        <time>2011-08-07T07:14:03Z</time>
      </trkpt>
      <trkpt lat="44.108740920200944" lon="10.25332541204989">
        <ele>820.60000000000002</ele>
        <time>2011-08-07T07:14:14Z</time>
      </trkpt>
      <trkpt lat="44.108660873025656" lon="10.253276629373431">
        <ele>820.20000000000005</ele>
        <time>2011-08-07T07:14:24Z</time>
      </trkpt>
      <trkpt lat="44.108548136427999" lon="10.253274869173765">
        <ele>823.60000000000002</ele>
        <time>2011-08-07T07:14:35Z</time>
      </trkpt>
      <trkpt lat="44.108450403437018" lon="10.253277383744717">
        <ele>825.20000000000005</ele>
        <time>2011-08-07T07:14:45Z</time>
      </trkpt>
      <trkpt lat="44.108356777578592" lon="10.253251483663917">
        <ele>825.79999999999995</ele>
        <time>2011-08-07T07:14:57Z</time>
      </trkpt>
      <trkpt lat="44.108289889991283" lon="10.253243688493967">
        <ele>827</ele>
        <time>2011-08-07T07:15:05Z</time>
      </trkpt>
      <trkpt lat="44.108209339901805" lon="10.253230277448893">
        <ele>830.20000000000005</ele>
        <time>2011-08-07T07:15:13Z</time>
      </trkpt>
      <trkpt lat="44.108127113431692" lon="10.253169341012836">
        <ele>834.79999999999995</ele>
        <time>2011-08-07T07:15:23Z</time>
      </trkpt>
      <trkpt lat="44.108039438724518" lon="10.253085102885962">
        <ele>838.60000000000002</ele>
        <time>2011-08-07T07:15:35Z</time>
      </trkpt>
      <trkpt lat="44.108003312721848" lon="10.253043863922358">
        <ele>837.39999999999998</ele>
        <time>2011-08-07T07:15:41Z</time>
      </trkpt>
      <trkpt lat="44.107972634956241" lon="10.253019807860255">
        <ele>838.20000000000005</ele>
        <time>2011-08-07T07:15:45Z</time>
      </trkpt>
      <trkpt lat="44.107900634407997" lon="10.252980664372444">
        <ele>839.39999999999998</ele>
        <time>2011-08-07T07:15:54Z</time>
      </trkpt>
      <trkpt lat="44.107856880873442" lon="10.25298141874373">
        <ele>838.60000000000002</ele>
        <time>2011-08-07T07:16:00Z</time>
      </trkpt>
      <trkpt lat="44.107817485928535" lon="10.253012012690306">
        <ele>838.20000000000005</ele>
        <time>2011-08-07T07:16:06Z</time>
      </trkpt>
      <trkpt lat="44.107801141217351" lon="10.253056436777115">
        <ele>837.60000000000002</ele>
        <time>2011-08-07T07:16:10Z</time>
      </trkpt>
      <trkpt lat="44.107777923345566" lon="10.253178309649229">
        <ele>836.20000000000005</ele>
        <time>2011-08-07T07:16:20Z</time>
      </trkpt>
      <trkpt lat="44.107786808162928" lon="10.253284340724349">
        <ele>835.20000000000005</ele>
        <time>2011-08-07T07:16:29Z</time>
      </trkpt>
      <trkpt lat="44.107803739607334" lon="10.253354161977768">
        <ele>835.20000000000005</ele>
        <time>2011-08-07T07:16:35Z</time>
      </trkpt>
      <trkpt lat="44.107862412929535" lon="10.253517609089613">
        <ele>837.20000000000005</ele>
        <time>2011-08-07T07:16:50Z</time>
      </trkpt>
      <trkpt lat="44.107880434021354" lon="10.253595476970077">
        <ele>839.39999999999998</ele>
        <time>2011-08-07T07:16:58Z</time>
      </trkpt>
      <trkpt lat="44.107889235019684" lon="10.253691198304296">
        <ele>846</ele>
        <time>2011-08-07T07:17:04Z</time>
      </trkpt>
      <trkpt lat="44.107910776510835" lon="10.253692036494613">
        <ele>852.60000000000002</ele>
        <time>2011-08-07T07:17:10Z</time>
      </trkpt>
      <trkpt lat="44.107959810644388" lon="10.253733778372407">
        <ele>855.20000000000005</ele>
        <time>2011-08-07T07:17:17Z</time>
      </trkpt>
      <trkpt lat="44.107986800372601" lon="10.253778621554375">
        <ele>856</ele>
        <time>2011-08-07T07:17:22Z</time>
      </trkpt>
      <trkpt lat="44.107995182275772" lon="10.253844922408462">
        <ele>856.39999999999998</ele>
        <time>2011-08-07T07:17:28Z</time>
      </trkpt>
      <trkpt lat="44.107953440397978" lon="10.253896471112967">
        <ele>855.39999999999998</ele>
        <time>2011-08-07T07:17:35Z</time>
      </trkpt>
      <trkpt lat="44.107916140928864" lon="10.253880964592099">
        <ele>854.20000000000005</ele>
        <time>2011-08-07T07:17:40Z</time>
      </trkpt>
      <trkpt lat="44.107872974127531" lon="10.25383067317307">
        <ele>852.79999999999995</ele>
        <time>2011-08-07T07:17:47Z</time>
      </trkpt>
      <trkpt lat="44.107847074046731" lon="10.253794882446527">
        <ele>851.20000000000005</ele>
        <time>2011-08-07T07:17:52Z</time>
      </trkpt>
      <trkpt lat="44.10780499689281" lon="10.253725228831172">
        <ele>849.39999999999998</ele>
        <time>2011-08-07T07:18:01Z</time>
      </trkpt>
      <trkpt lat="44.107774989679456" lon="10.253673093393445">
        <ele>847.79999999999995</ele>
        <time>2011-08-07T07:18:18Z</time>
      </trkpt>
      <trkpt lat="44.107721596956253" lon="10.253571001812816">
        <ele>843.60000000000002</ele>
        <time>2011-08-07T07:18:31Z</time>
      </trkpt>
      <trkpt lat="44.107642639428377" lon="10.253448709845543">
        <ele>849.20000000000005</ele>
        <time>2011-08-07T07:18:43Z</time>
      </trkpt>
      <trkpt lat="44.10760123282671" lon="10.253370003774762">
        <ele>851.20000000000005</ele>
        <time>2011-08-07T07:18:53Z</time>
      </trkpt>
      <trkpt lat="44.107547337189317" lon="10.253291381523013">
        <ele>852.79999999999995</ele>
        <time>2011-08-07T07:19:02Z</time>
      </trkpt>
      <trkpt lat="44.107481706887484" lon="10.253214100375772">
        <ele>853.20000000000005</ele>
        <time>2011-08-07T07:19:12Z</time>
      </trkpt>
      <trkpt lat="44.10740920342505" lon="10.253180572763085">
        <ele>856.20000000000005</ele>
        <time>2011-08-07T07:19:20Z</time>
      </trkpt>
      <trkpt lat="44.107309291139245" lon="10.253125503659248">
        <ele>860.39999999999998</ele>
        <time>2011-08-07T07:19:31Z</time>
      </trkpt>
      <trkpt lat="44.107261011376977" lon="10.253043863922358">
        <ele>858.20000000000005</ele>
        <time>2011-08-07T07:19:40Z</time>
      </trkpt>
      <trkpt lat="44.107190184295177" lon="10.252969432622194">
        <ele>859</ele>
        <time>2011-08-07T07:19:50Z</time>
      </trkpt>
      <trkpt lat="44.107119273394346" lon="10.252925762906671">
        <ele>860</ele>
        <time>2011-08-07T07:19:59Z</time>
      </trkpt>
      <trkpt lat="44.107035538181663" lon="10.252861473709345">
        <ele>865.39999999999998</ele>
        <time>2011-08-07T07:20:10Z</time>
      </trkpt>
      <trkpt lat="44.107027240097523" lon="10.252829287201166">
        <ele>859.20000000000005</ele>
        <time>2011-08-07T07:20:28Z</time>
      </trkpt>
      <trkpt lat="44.106929423287511" lon="10.252782600000501">
        <ele>866.39999999999998</ele>
        <time>2011-08-07T07:20:38Z</time>
      </trkpt>
      <trkpt lat="44.106821715831757" lon="10.252754185348749">
        <ele>879</ele>
        <time>2011-08-07T07:20:48Z</time>
      </trkpt>
      <trkpt lat="44.106842000037432" lon="10.25273272767663">
        <ele>877.60000000000002</ele>
        <time>2011-08-07T07:20:53Z</time>
      </trkpt>
      <trkpt lat="44.106834959238768" lon="10.252718897536397">
        <ele>880.79999999999995</ele>
        <time>2011-08-07T07:20:57Z</time>
      </trkpt>
      <trkpt lat="44.106803778558969" lon="10.252731638029218">
        <ele>887</ele>
        <time>2011-08-07T07:21:01Z</time>
      </trkpt>
      <trkpt lat="44.106748960912228" lon="10.252717472612858">
        <ele>895.20000000000005</ele>
        <time>2011-08-07T07:21:05Z</time>
      </trkpt>
      <trkpt lat="44.10660051740706" lon="10.252714287489653">
        <ele>920.39999999999998</ele>
        <time>2011-08-07T07:21:13Z</time>
      </trkpt>
      <trkpt lat="44.106496162712574" lon="10.252667600288987">
        <ele>935.20000000000005</ele>
        <time>2011-08-07T07:21:22Z</time>
      </trkpt>
      <trkpt lat="44.106425335630774" lon="10.252621080726385">
        <ele>934.20000000000005</ele>
        <time>2011-08-07T07:21:33Z</time>
      </trkpt>
      <trkpt lat="44.106397172436118" lon="10.252619404345751">
        <ele>930.39999999999998</ele>
        <time>2011-08-07T07:21:38Z</time>
      </trkpt>
      <trkpt lat="44.106367416679859" lon="10.252603981643915">
        <ele>921</ele>
        <time>2011-08-07T07:21:46Z</time>
      </trkpt>
      <trkpt lat="44.106348473578691" lon="10.252547487616539">
        <ele>915.60000000000002</ele>
        <time>2011-08-07T07:21:53Z</time>
      </trkpt>
      <trkpt lat="44.106310335919261" lon="10.252515217289329">
        <ele>915.20000000000005</ele>
        <time>2011-08-07T07:21:59Z</time>
      </trkpt>
      <trkpt lat="44.106281837448478" lon="10.252510020509362">
        <ele>917</ele>
        <time>2011-08-07T07:22:02Z</time>
      </trkpt>
      <trkpt lat="44.106261804699898" lon="10.252512618899345">
        <ele>918</ele>
        <time>2011-08-07T07:22:04Z</time>
      </trkpt>
      <trkpt lat="44.106238335371017" lon="10.252486383542418">
        <ele>915.79999999999995</ele>
        <time>2011-08-07T07:22:09Z</time>
      </trkpt>
      <trkpt lat="44.106163484975696" lon="10.25246107019484">
        <ele>923.20000000000005</ele>
        <time>2011-08-07T07:22:16Z</time>
      </trkpt>
      <trkpt lat="44.106076313182712" lon="10.252426536753774">
        <ele>929.39999999999998</ele>
        <time>2011-08-07T07:22:26Z</time>
      </trkpt>
      <trkpt lat="44.106064578518271" lon="10.252415305003524">
        <ele>921.79999999999995</ele>
        <time>2011-08-07T07:22:32Z</time>
      </trkpt>
      <trkpt lat="44.106146469712257" lon="10.252337101846933">
        <ele>882.60000000000002</ele>
        <time>2011-08-07T07:23:04Z</time>
      </trkpt>
      <trkpt lat="44.106107158586383" lon="10.252346908673644">
        <ele>886</ele>
        <time>2011-08-07T07:23:08Z</time>
      </trkpt>
      <trkpt lat="44.106095675379038" lon="10.252346824854612">
        <ele>887.39999999999998</ele>
        <time>2011-08-07T07:23:09Z</time>
      </trkpt>
      <trkpt lat="44.106043204665184" lon="10.252315141260624">
        <ele>891.79999999999995</ele>
        <time>2011-08-07T07:23:16Z</time>
      </trkpt>
      <trkpt lat="44.10603323020041" lon="10.252297958359122">
        <ele>890</ele>
        <time>2011-08-07T07:23:21Z</time>
      </trkpt>
      <trkpt lat="44.10602199845016" lon="10.25229200720787">
        <ele>889.39999999999998</ele>
        <time>2011-08-07T07:23:28Z</time>
      </trkpt>
      <trkpt lat="44.106009006500244" lon="10.252275578677654">
        <ele>890.20000000000005</ele>
        <time>2011-08-07T07:23:30Z</time>
      </trkpt>
      <trkpt lat="44.105961732566357" lon="10.252226963639259">
        <ele>890</ele>
        <time>2011-08-07T07:23:38Z</time>
      </trkpt>
      <trkpt lat="44.10593256354332" lon="10.252157058566809">
        <ele>887.20000000000005</ele>
        <time>2011-08-07T07:23:47Z</time>
      </trkpt>
      <trkpt lat="44.105914458632469" lon="10.252086985856295">
        <ele>885</ele>
        <time>2011-08-07T07:23:55Z</time>
      </trkpt>
      <trkpt lat="44.105887720361352" lon="10.252048512920737">
        <ele>885.39999999999998</ele>
        <time>2011-08-07T07:24:01Z</time>
      </trkpt>
      <trkpt lat="44.105869280174375" lon="10.251981876790524">
        <ele>882.60000000000002</ele>
        <time>2011-08-07T07:24:09Z</time>
      </trkpt>
      <trkpt lat="44.105885792523623" lon="10.251941559836268">
        <ele>886.20000000000005</ele>
        <time>2011-08-07T07:24:16Z</time>
      </trkpt>
      <trkpt lat="44.10589006729424" lon="10.251937201246619">
        <ele>887.20000000000005</ele>
        <time>2011-08-07T07:24:17Z</time>
      </trkpt>
      <trkpt lat="44.105923259630799" lon="10.25192353874445">
        <ele>892.20000000000005</ele>
        <time>2011-08-07T07:24:21Z</time>
      </trkpt>
      <trkpt lat="44.105951758101583" lon="10.251917419955134">
        <ele>896.60000000000002</ele>
        <time>2011-08-07T07:24:24Z</time>
      </trkpt>
      <trkpt lat="44.105965588241816" lon="10.25189814157784">
        <ele>898.20000000000005</ele>
        <time>2011-08-07T07:24:26Z</time>
      </trkpt>
      <trkpt lat="44.105949997901917" lon="10.251867212355137">
        <ele>898</ele>
        <time>2011-08-07T07:24:28Z</time>
      </trkpt>
      <trkpt lat="44.105959385633469" lon="10.251834522932768">
        <ele>903.60000000000002</ele>
        <time>2011-08-07T07:24:33Z</time>
      </trkpt>
      <trkpt lat="44.105968438088894" lon="10.251822788268328">
        <ele>904.20000000000005</ele>
        <time>2011-08-07T07:24:34Z</time>
      </trkpt>
      <trkpt lat="44.105931222438812" lon="10.25174031034112">
        <ele>905.39999999999998</ele>
        <time>2011-08-07T07:24:40Z</time>
      </trkpt>
      <trkpt lat="44.105896102264524" lon="10.251645762473345">
        <ele>902</ele>
        <time>2011-08-07T07:24:45Z</time>
      </trkpt>
      <trkpt lat="44.105888810008764" lon="10.251633021980524">
        <ele>902</ele>
        <time>2011-08-07T07:24:46Z</time>
      </trkpt>
      <trkpt lat="44.105831226333976" lon="10.251557836309075">
        <ele>897.60000000000002</ele>
        <time>2011-08-07T07:24:51Z</time>
      </trkpt>
      <trkpt lat="44.105798872187734" lon="10.251502180472016">
        <ele>895</ele>
        <time>2011-08-07T07:24:55Z</time>
      </trkpt>
      <trkpt lat="44.105736007913947" lon="10.251414841040969">
        <ele>892.20000000000005</ele>
        <time>2011-08-07T07:25:03Z</time>
      </trkpt>
      <trkpt lat="44.105688566341996" lon="10.251380139961839">
        <ele>892</ele>
        <time>2011-08-07T07:25:08Z</time>
      </trkpt>
      <trkpt lat="44.105647997930646" lon="10.251325238496065">
        <ele>891.60000000000002</ele>
        <time>2011-08-07T07:25:13Z</time>
      </trkpt>
      <trkpt lat="44.105570381507277" lon="10.251295818015933">
        <ele>891</ele>
        <time>2011-08-07T07:25:21Z</time>
      </trkpt>
      <trkpt lat="44.105540625751019" lon="10.251291459426284">
        <ele>890.60000000000002</ele>
        <time>2011-08-07T07:25:24Z</time>
      </trkpt>
      <trkpt lat="44.105518497526646" lon="10.251298416405916">
        <ele>891</ele>
        <time>2011-08-07T07:25:26Z</time>
      </trkpt>
      <trkpt lat="44.105507098138332" lon="10.251306463032961">
        <ele>890.60000000000002</ele>
        <time>2011-08-07T07:25:28Z</time>
      </trkpt>
      <trkpt lat="44.105480276048183" lon="10.251285592094064">
        <ele>888.79999999999995</ele>
        <time>2011-08-07T07:25:31Z</time>
      </trkpt>
      <trkpt lat="44.105377765372396" lon="10.251259189099073">
        <ele>885.20000000000005</ele>
        <time>2011-08-07T07:25:38Z</time>
      </trkpt>
      <trkpt lat="44.105276763439178" lon="10.251233540475368">
        <ele>883.20000000000005</ele>
        <time>2011-08-07T07:25:45Z</time>
      </trkpt>
      <trkpt lat="44.105070987716317" lon="10.251368321478367">
        <ele>890.20000000000005</ele>
        <time>2011-08-07T07:25:55Z</time>
      </trkpt>
      <trkpt lat="44.104970572516322" lon="10.251346863806248">
        <ele>890.60000000000002</ele>
        <time>2011-08-07T07:26:03Z</time>
      </trkpt>
      <trkpt lat="44.104860434308648" lon="10.251327333971858">
        <ele>887.20000000000005</ele>
        <time>2011-08-07T07:26:11Z</time>
      </trkpt>
      <trkpt lat="44.104700423777103" lon="10.251345606520772">
        <ele>891.20000000000005</ele>
        <time>2011-08-07T07:26:19Z</time>
      </trkpt>
      <trkpt lat="44.104610234498978" lon="10.25132498703897">
        <ele>893</ele>
        <time>2011-08-07T07:26:25Z</time>
      </trkpt>
      <trkpt lat="44.104473441839218" lon="10.2512560877949">
        <ele>894.39999999999998</ele>
        <time>2011-08-07T07:26:34Z</time>
      </trkpt>
      <trkpt lat="44.104384258389473" lon="10.251202108338475">
        <ele>892.20000000000005</ele>
        <time>2011-08-07T07:26:41Z</time>
      </trkpt>
      <trkpt lat="44.104293901473284" lon="10.251158606261015">
        <ele>888.60000000000002</ele>
        <time>2011-08-07T07:26:49Z</time>
      </trkpt>
      <trkpt lat="44.10419256426394" lon="10.25117008946836">
        <ele>889.39999999999998</ele>
        <time>2011-08-07T07:26:56Z</time>
      </trkpt>
      <trkpt lat="44.104023836553097" lon="10.25115055963397">
        <ele>889.60000000000002</ele>
        <time>2011-08-07T07:27:07Z</time>
      </trkpt>
      <trkpt lat="44.103894587606192" lon="10.251092305406928">
        <ele>890</ele>
        <time>2011-08-07T07:27:16Z</time>
      </trkpt>
      <trkpt lat="44.103761063888669" lon="10.250996164977551">
        <ele>891.79999999999995</ele>
        <time>2011-08-07T07:27:25Z</time>
      </trkpt>
      <trkpt lat="44.103631479665637" lon="10.250912010669708">
        <ele>893.79999999999995</ele>
        <time>2011-08-07T07:27:34Z</time>
      </trkpt>
      <trkpt lat="44.103518994525075" lon="10.250884937122464">
        <ele>892</ele>
        <time>2011-08-07T07:27:42Z</time>
      </trkpt>
      <trkpt lat="44.103389829397202" lon="10.250887703150511">
        <ele>892.39999999999998</ele>
        <time>2011-08-07T07:27:50Z</time>
      </trkpt>
      <trkpt lat="44.103239877149463" lon="10.250870939344168">
        <ele>892.79999999999995</ele>
        <time>2011-08-07T07:27:58Z</time>
      </trkpt>
      <trkpt lat="44.103117417544127" lon="10.25077823549509">
        <ele>892.60000000000002</ele>
        <time>2011-08-07T07:28:06Z</time>
      </trkpt>
      <trkpt lat="44.103007866069674" lon="10.250672958791256">
        <ele>893</ele>
        <time>2011-08-07T07:28:14Z</time>
      </trkpt>
      <trkpt lat="44.102889262139797" lon="10.2505446318537">
        <ele>894</ele>
        <time>2011-08-07T07:28:23Z</time>
      </trkpt>
      <trkpt lat="44.102886579930782" lon="10.250545721501112">
        <ele>894</ele>
        <time>2011-08-07T07:28:29Z</time>
      </trkpt>
      <trkpt lat="44.102808460593224" lon="10.250564580783248">
        <ele>895.39999999999998</ele>
        <time>2011-08-07T07:29:21Z</time>
      </trkpt>
      <trkpt lat="44.102662531659007" lon="10.250495010986924">
        <ele>894.79999999999995</ele>
        <time>2011-08-07T07:29:30Z</time>
      </trkpt>
      <trkpt lat="44.102542167529464" lon="10.250449664890766">
        <ele>894.60000000000002</ele>
        <time>2011-08-07T07:29:37Z</time>
      </trkpt>
      <trkpt lat="44.102388611063361" lon="10.25038386695087">
        <ele>894.39999999999998</ele>
        <time>2011-08-07T07:29:46Z</time>
      </trkpt>
      <trkpt lat="44.102203706279397" lon="10.250320415943861">
        <ele>895.39999999999998</ele>
        <time>2011-08-07T07:29:57Z</time>
      </trkpt>
      <trkpt lat="44.102049982175231" lon="10.250259730964899">
        <ele>895.60000000000002</ele>
        <time>2011-08-07T07:30:06Z</time>
      </trkpt>
      <trkpt lat="44.101893994957209" lon="10.250184461474419">
        <ele>895.79999999999995</ele>
        <time>2011-08-07T07:30:15Z</time>
      </trkpt>
      <trkpt lat="44.10175577737391" lon="10.25010977871716">
        <ele>895.60000000000002</ele>
        <time>2011-08-07T07:30:23Z</time>
      </trkpt>
      <trkpt lat="44.101547403261065" lon="10.250027636066079">
        <ele>895</ele>
        <time>2011-08-07T07:30:30Z</time>
      </trkpt>
      <trkpt lat="44.101385800167918" lon="10.250047165900469">
        <ele>895.39999999999998</ele>
        <time>2011-08-07T07:30:35Z</time>
      </trkpt>
      <trkpt lat="44.101204164326191" lon="10.250107934698462">
        <ele>895.39999999999998</ele>
        <time>2011-08-07T07:30:43Z</time>
      </trkpt>
      <trkpt lat="44.101065192371607" lon="10.250171637162566">
        <ele>894.60000000000002</ele>
        <time>2011-08-07T07:30:51Z</time>
      </trkpt>
      <trkpt lat="44.10094952210784" lon="10.250154789537191">
        <ele>894.60000000000002</ele>
        <time>2011-08-07T07:30:57Z</time>
      </trkpt>
      <trkpt lat="44.100881880149245" lon="10.25003501214087">
        <ele>896</ele>
        <time>2011-08-07T07:31:03Z</time>
      </trkpt>
      <trkpt lat="44.100846759974957" lon="10.249898638576269">
        <ele>896.60000000000002</ele>
        <time>2011-08-07T07:31:09Z</time>
      </trkpt>
      <trkpt lat="44.100834941491485" lon="10.2498884126544">
        <ele>897</ele>
        <time>2011-08-07T07:31:10Z</time>
      </trkpt>
      <trkpt lat="44.100813483819366" lon="10.249940464273095">
        <ele>896.60000000000002</ele>
        <time>2011-08-07T07:31:14Z</time>
      </trkpt>
      <trkpt lat="44.100866038352251" lon="10.25003400631249">
        <ele>897.60000000000002</ele>
        <time>2011-08-07T07:31:18Z</time>
      </trkpt>
      <trkpt lat="44.100873162969947" lon="10.2500628400594">
        <ele>897.79999999999995</ele>
        <time>2011-08-07T07:31:19Z</time>
      </trkpt>
      <trkpt lat="44.100941810756922" lon="10.250205332413316">
        <ele>898</ele>
        <time>2011-08-07T07:31:26Z</time>
      </trkpt>
      <trkpt lat="44.100938541814685" lon="10.250234920531511">
        <ele>897.79999999999995</ele>
        <time>2011-08-07T07:31:27Z</time>
      </trkpt>
      <trkpt lat="44.100912809371948" lon="10.250292001292109">
        <ele>897.60000000000002</ele>
        <time>2011-08-07T07:31:30Z</time>
      </trkpt>
      <trkpt lat="44.100878024473786" lon="10.250335587188601">
        <ele>897.60000000000002</ele>
        <time>2011-08-07T07:31:33Z</time>
      </trkpt>
      <trkpt lat="44.100780207663774" lon="10.250389231368899">
        <ele>896.20000000000005</ele>
        <time>2011-08-07T07:31:40Z</time>
      </trkpt>
      <trkpt lat="44.100662358105183" lon="10.250506494194269">
        <ele>896.79999999999995</ele>
        <time>2011-08-07T07:31:46Z</time>
      </trkpt>
      <trkpt lat="44.100543586537242" lon="10.250684693455696">
        <ele>896.60000000000002</ele>
        <time>2011-08-07T07:31:54Z</time>
      </trkpt>
      <trkpt lat="44.1004594322294" lon="10.250863060355186">
        <ele>898</ele>
        <time>2011-08-07T07:32:01Z</time>
      </trkpt>
      <trkpt lat="44.100363710895181" lon="10.250970600172877">
        <ele>898.60000000000002</ele>
        <time>2011-08-07T07:32:07Z</time>
      </trkpt>
      <trkpt lat="44.100300930440426" lon="10.25109046138823">
        <ele>901.39999999999998</ele>
        <time>2011-08-07T07:32:13Z</time>
      </trkpt>
      <trkpt lat="44.10024493932724" lon="10.251220129430294">
        <ele>910.20000000000005</ele>
        <time>2011-08-07T07:32:20Z</time>
      </trkpt>
      <trkpt lat="44.100179141387343" lon="10.251372009515762">
        <ele>915</ele>
        <time>2011-08-07T07:32:28Z</time>
      </trkpt>
      <trkpt lat="44.100140668451786" lon="10.251521961763501">
        <ele>918.39999999999998</ele>
        <time>2011-08-07T07:32:37Z</time>
      </trkpt>
      <trkpt lat="44.100139997899532" lon="10.251591363921762">
        <ele>917.20000000000005</ele>
        <time>2011-08-07T07:32:41Z</time>
      </trkpt>
      <trkpt lat="44.100135723128915" lon="10.251643918454647">
        <ele>916.39999999999998</ele>
        <time>2011-08-07T07:32:44Z</time>
      </trkpt>
      <trkpt lat="44.100130526348948" lon="10.251700328662992">
        <ele>915.39999999999998</ele>
        <time>2011-08-07T07:32:47Z</time>
      </trkpt>
      <trkpt lat="44.100111667066813" lon="10.251748440787196">
        <ele>913.39999999999998</ele>
        <time>2011-08-07T07:32:50Z</time>
      </trkpt>
      <trkpt lat="44.100142596289515" lon="10.25177157483995">
        <ele>914</ele>
        <time>2011-08-07T07:32:51Z</time>
      </trkpt>
      <trkpt lat="44.100215099751949" lon="10.251850616186857">
        <ele>914.79999999999995</ele>
        <time>2011-08-07T07:32:55Z</time>
      </trkpt>
      <trkpt lat="44.100230103358626" lon="10.251890430226922">
        <ele>913.79999999999995</ele>
        <time>2011-08-07T07:32:58Z</time>
      </trkpt>
      <trkpt lat="44.100262206047773" lon="10.251933010295033">
        <ele>912.39999999999998</ele>
        <time>2011-08-07T07:33:02Z</time>
      </trkpt>
      <trkpt lat="44.100270504131913" lon="10.251941895112395">
        <ele>912</ele>
        <time>2011-08-07T07:33:03Z</time>
      </trkpt>
      <trkpt lat="44.100292380899191" lon="10.25196461006999">
        <ele>911</ele>
        <time>2011-08-07T07:33:06Z</time>
      </trkpt>
      <trkpt lat="44.100361363962293" lon="10.251984978094697">
        <ele>910.79999999999995</ele>
        <time>2011-08-07T07:33:12Z</time>
      </trkpt>
      <trkpt lat="44.100426072254777" lon="10.25198950432241">
        <ele>910.39999999999998</ele>
        <time>2011-08-07T07:33:17Z</time>
      </trkpt>
      <trkpt lat="44.10045993514359" lon="10.25201540440321">
        <ele>910.60000000000002</ele>
        <time>2011-08-07T07:33:20Z</time>
      </trkpt>
      <trkpt lat="44.100517434999347" lon="10.252081789076328">
        <ele>909.60000000000002</ele>
        <time>2011-08-07T07:33:26Z</time>
      </trkpt>
      <trkpt lat="44.1005181055516" lon="10.252133924514055">
        <ele>909.60000000000002</ele>
        <time>2011-08-07T07:33:30Z</time>
      </trkpt>
      <trkpt lat="44.100503940135241" lon="10.252162758260965">
        <ele>909.39999999999998</ele>
        <time>2011-08-07T07:33:32Z</time>
      </trkpt>
      <trkpt lat="44.100490361452103" lon="10.252182288095355">
        <ele>909.39999999999998</ele>
        <time>2011-08-07T07:33:34Z</time>
      </trkpt>
      <trkpt lat="44.100483236834407" lon="10.252183880656958">
        <ele>909</ele>
        <time>2011-08-07T07:33:37Z</time>
      </trkpt>
      <trkpt lat="44.100415259599686" lon="10.252199973911047">
        <ele>909.39999999999998</ele>
        <time>2011-08-07T07:33:46Z</time>
      </trkpt>
      <trkpt lat="44.1003592684865" lon="10.252207266166806">
        <ele>908.20000000000005</ele>
        <time>2011-08-07T07:33:56Z</time>
      </trkpt>
      <trkpt lat="44.100310569629073" lon="10.252221515402198">
        <ele>909.39999999999998</ele>
        <time>2011-08-07T07:34:03Z</time>
      </trkpt>
      <trkpt lat="44.100274862721562" lon="10.252233166247606">
        <ele>910.79999999999995</ele>
        <time>2011-08-07T07:34:09Z</time>
      </trkpt>
      <trkpt lat="44.100219290703535" lon="10.252252528443933">
        <ele>912.60000000000002</ele>
        <time>2011-08-07T07:34:18Z</time>
      </trkpt>
      <trkpt lat="44.10017310641706" lon="10.252273064106703">
        <ele>915</ele>
        <time>2011-08-07T07:34:24Z</time>
      </trkpt>
      <trkpt lat="44.100136393681169" lon="10.252286558970809">
        <ele>916.79999999999995</ele>
        <time>2011-08-07T07:34:29Z</time>
      </trkpt>
      <trkpt lat="44.100099513307214" lon="10.252299131825566">
        <ele>917.79999999999995</ele>
        <time>2011-08-07T07:34:34Z</time>
      </trkpt>
      <trkpt lat="44.100058358162642" lon="10.252309525385499">
        <ele>919</ele>
        <time>2011-08-07T07:34:39Z</time>
      </trkpt>
      <trkpt lat="44.099989207461476" lon="10.252283373847604">
        <ele>919.20000000000005</ele>
        <time>2011-08-07T07:34:48Z</time>
      </trkpt>
      <trkpt lat="44.099927265197039" lon="10.252237692475319">
        <ele>919.79999999999995</ele>
        <time>2011-08-07T07:34:57Z</time>
      </trkpt>
      <trkpt lat="44.099886529147625" lon="10.25220843963325">
        <ele>920</ele>
        <time>2011-08-07T07:35:03Z</time>
      </trkpt>
      <trkpt lat="44.099834393709898" lon="10.252077011391521">
        <ele>918.60000000000002</ele>
        <time>2011-08-07T07:35:14Z</time>
      </trkpt>
      <trkpt lat="44.099824922159314" lon="10.251994030550122">
        <ele>920.20000000000005</ele>
        <time>2011-08-07T07:35:20Z</time>
      </trkpt>
      <trkpt lat="44.099831208586693" lon="10.251901494339108">
        <ele>923.39999999999998</ele>
        <time>2011-08-07T07:35:27Z</time>
      </trkpt>
      <trkpt lat="44.099857192486525" lon="10.251850197091699">
        <ele>922</ele>
        <time>2011-08-07T07:35:32Z</time>
      </trkpt>
      <trkpt lat="44.099876135587692" lon="10.251782974228263">
        <ele>924.20000000000005</ele>
        <time>2011-08-07T07:35:39Z</time>
      </trkpt>
      <trkpt lat="44.099885439500213" lon="10.251687169075012">
        <ele>926.79999999999995</ele>
        <time>2011-08-07T07:35:48Z</time>
      </trkpt>
      <trkpt lat="44.099882170557976" lon="10.251619527116418">
        <ele>928</ele>
        <time>2011-08-07T07:35:55Z</time>
      </trkpt>
      <trkpt lat="44.099862221628428" lon="10.251561440527439">
        <ele>928.60000000000002</ele>
        <time>2011-08-07T07:36:00Z</time>
      </trkpt>
      <trkpt lat="44.099829783663154" lon="10.251460941508412">
        <ele>929.60000000000002</ele>
        <time>2011-08-07T07:36:09Z</time>
      </trkpt>
      <trkpt lat="44.099778234958649" lon="10.251354239881039">
        <ele>931</ele>
        <time>2011-08-07T07:36:19Z</time>
      </trkpt>
      <trkpt lat="44.099708162248135" lon="10.251252232119441">
        <ele>933.79999999999995</ele>
        <time>2011-08-07T07:36:31Z</time>
      </trkpt>
      <trkpt lat="44.099667007103562" lon="10.251170927658677">
        <ele>933.79999999999995</ele>
        <time>2011-08-07T07:36:41Z</time>
      </trkpt>
      <trkpt lat="44.099614704027772" lon="10.251085264608264">
        <ele>933.39999999999998</ele>
        <time>2011-08-07T07:36:51Z</time>
      </trkpt>
      <trkpt lat="44.099614871665835" lon="10.251063387840986">
        <ele>933.39999999999998</ele>
        <time>2011-08-07T07:36:53Z</time>
      </trkpt>
      <trkpt lat="44.099603723734617" lon="10.251021897420287">
        <ele>933.39999999999998</ele>
        <time>2011-08-07T07:36:57Z</time>
      </trkpt>
      <trkpt lat="44.099577823653817" lon="10.250952411442995">
        <ele>932.79999999999995</ele>
        <time>2011-08-07T07:37:04Z</time>
      </trkpt>
      <trkpt lat="44.099572040140629" lon="10.250942185521126">
        <ele>932.79999999999995</ele>
        <time>2011-08-07T07:37:05Z</time>
      </trkpt>
      <trkpt lat="44.099511271342635" lon="10.250854259356856">
        <ele>932</ele>
        <time>2011-08-07T07:37:14Z</time>
      </trkpt>
      <trkpt lat="44.099423093721271" lon="10.250815702602267">
        <ele>933.20000000000005</ele>
        <time>2011-08-07T07:37:23Z</time>
      </trkpt>
      <trkpt lat="44.099342795088887" lon="10.25080606341362">
        <ele>932.79999999999995</ele>
        <time>2011-08-07T07:37:32Z</time>
      </trkpt>
      <trkpt lat="44.099244391545653" lon="10.250802040100098">
        <ele>937.60000000000002</ele>
        <time>2011-08-07T07:37:41Z</time>
      </trkpt>
      <trkpt lat="44.099161913618445" lon="10.250837495550513">
        <ele>939.39999999999998</ele>
        <time>2011-08-07T07:37:49Z</time>
      </trkpt>
      <trkpt lat="44.099066276103258" lon="10.250870436429977">
        <ele>940.20000000000005</ele>
        <time>2011-08-07T07:37:59Z</time>
      </trkpt>
      <trkpt lat="44.098982959985733" lon="10.250927936285734">
        <ele>941.39999999999998</ele>
        <time>2011-08-07T07:38:09Z</time>
      </trkpt>
      <trkpt lat="44.098907858133316" lon="10.251006726175547">
        <ele>940.60000000000002</ele>
        <time>2011-08-07T07:38:20Z</time>
      </trkpt>
      <trkpt lat="44.098858740180731" lon="10.2510747872293">
        <ele>940.60000000000002</ele>
        <time>2011-08-07T07:38:29Z</time>
      </trkpt>
      <trkpt lat="44.098795875906944" lon="10.251172604039311">
        <ele>942.39999999999998</ele>
        <time>2011-08-07T07:38:39Z</time>
      </trkpt>
      <trkpt lat="44.09873703494668" lon="10.251249466091394">
        <ele>945.39999999999998</ele>
        <time>2011-08-07T07:38:49Z</time>
      </trkpt>
      <trkpt lat="44.09870040602982" lon="10.251338984817266">
        <ele>946.79999999999995</ele>
        <time>2011-08-07T07:38:58Z</time>
      </trkpt>
      <trkpt lat="44.098672494292259" lon="10.251399334520102">
        <ele>947.79999999999995</ele>
        <time>2011-08-07T07:39:07Z</time>
      </trkpt>
      <trkpt lat="44.098655730485916" lon="10.251436801627278">
        <ele>947.79999999999995</ele>
        <time>2011-08-07T07:39:39Z</time>
      </trkpt>
      <trkpt lat="44.098619939759374" lon="10.251544760540128">
        <ele>951.60000000000002</ele>
        <time>2011-08-07T07:39:48Z</time>
      </trkpt>
      <trkpt lat="44.098572582006454" lon="10.251669399440289">
        <ele>953.20000000000005</ele>
        <time>2011-08-07T07:40:00Z</time>
      </trkpt>
      <trkpt lat="44.098560763522983" lon="10.25172270834446">
        <ele>952.60000000000002</ele>
        <time>2011-08-07T07:40:06Z</time>
      </trkpt>
      <trkpt lat="44.098546095192432" lon="10.25176864117384">
        <ele>952.60000000000002</ele>
        <time>2011-08-07T07:40:11Z</time>
      </trkpt>
      <trkpt lat="44.098527822643518" lon="10.251809796318412">
        <ele>953.20000000000005</ele>
        <time>2011-08-07T07:40:15Z</time>
      </trkpt>
      <trkpt lat="44.098475184291601" lon="10.251950109377503">
        <ele>954.39999999999998</ele>
        <time>2011-08-07T07:40:29Z</time>
      </trkpt>
      <trkpt lat="44.098452469334006" lon="10.252010794356465">
        <ele>955.79999999999995</ele>
        <time>2011-08-07T07:40:35Z</time>
      </trkpt>
      <trkpt lat="44.098433861508965" lon="10.252056308090687">
        <ele>956.20000000000005</ele>
        <time>2011-08-07T07:40:40Z</time>
      </trkpt>
      <trkpt lat="44.098424473777413" lon="10.252094697207212">
        <ele>955.60000000000002</ele>
        <time>2011-08-07T07:40:45Z</time>
      </trkpt>
      <trkpt lat="44.098413661122322" lon="10.252141719684005">
        <ele>955.79999999999995</ele>
        <time>2011-08-07T07:40:50Z</time>
      </trkpt>
      <trkpt lat="44.09840477630496" lon="10.252178683876991">
        <ele>955.79999999999995</ele>
        <time>2011-08-07T07:40:54Z</time>
      </trkpt>
      <trkpt lat="44.09839203581214" lon="10.25223433971405">
        <ele>956</ele>
        <time>2011-08-07T07:41:00Z</time>
      </trkpt>
      <trkpt lat="44.098382228985429" lon="10.252275494858623">
        <ele>956.20000000000005</ele>
        <time>2011-08-07T07:41:04Z</time>
      </trkpt>
      <trkpt lat="44.098367560654879" lon="10.252331905066967">
        <ele>956.79999999999995</ele>
        <time>2011-08-07T07:41:10Z</time>
      </trkpt>
      <trkpt lat="44.09834953956306" lon="10.252439612522721">
        <ele>957.39999999999998</ele>
        <time>2011-08-07T07:41:21Z</time>
      </trkpt>
      <trkpt lat="44.098341660574079" lon="10.252481605857611">
        <ele>957.60000000000002</ele>
        <time>2011-08-07T07:41:25Z</time>
      </trkpt>
      <trkpt lat="44.098333027213812" lon="10.252533322200179">
        <ele>957.79999999999995</ele>
        <time>2011-08-07T07:41:30Z</time>
      </trkpt>
      <trkpt lat="44.098319197073579" lon="10.252654608339071">
        <ele>958.20000000000005</ele>
        <time>2011-08-07T07:41:40Z</time>
      </trkpt>
      <trkpt lat="44.09828893840313" lon="10.25276105850935">
        <ele>958.39999999999998</ele>
        <time>2011-08-07T07:41:50Z</time>
      </trkpt>
      <trkpt lat="44.098264463245869" lon="10.252807913348079">
        <ele>956.60000000000002</ele>
        <time>2011-08-07T07:41:57Z</time>
      </trkpt>
      <trkpt lat="44.098247615620494" lon="10.252845380455256">
        <ele>957.39999999999998</ele>
        <time>2011-08-07T07:42:01Z</time>
      </trkpt>
      <trkpt lat="44.098193803802133" lon="10.252905813977122">
        <ele>959</ele>
        <time>2011-08-07T07:42:08Z</time>
      </trkpt>
      <trkpt lat="44.098181063309312" lon="10.252919476479292">
        <ele>957.60000000000002</ele>
        <time>2011-08-07T07:42:12Z</time>
      </trkpt>
      <trkpt lat="44.09814971499145" lon="10.252950740978122">
        <ele>957.79999999999995</ele>
        <time>2011-08-07T07:42:16Z</time>
      </trkpt>
      <trkpt lat="44.098115265369415" lon="10.252975216135383">
        <ele>958.20000000000005</ele>
        <time>2011-08-07T07:42:20Z</time>
      </trkpt>
      <trkpt lat="44.098051059991121" lon="10.253008073195815">
        <ele>959.39999999999998</ele>
        <time>2011-08-07T07:42:26Z</time>
      </trkpt>
      <trkpt lat="44.097953159362078" lon="10.253026429563761">
        <ele>960.60000000000002</ele>
        <time>2011-08-07T07:42:36Z</time>
      </trkpt>
      <trkpt lat="44.097872693091631" lon="10.252991560846567">
        <ele>961.60000000000002</ele>
        <time>2011-08-07T07:42:45Z</time>
      </trkpt>
      <trkpt lat="44.097830196842551" lon="10.252945879474282">
        <ele>962.60000000000002</ele>
        <time>2011-08-07T07:42:51Z</time>
      </trkpt>
      <trkpt lat="44.097812091931701" lon="10.252921236678958">
        <ele>963.20000000000005</ele>
        <time>2011-08-07T07:42:54Z</time>
      </trkpt>
      <trkpt lat="44.097795663401484" lon="10.252907238900661">
        <ele>963.60000000000002</ele>
        <time>2011-08-07T07:42:56Z</time>
      </trkpt>
      <trkpt lat="44.097786862403154" lon="10.252901539206505">
        <ele>963.60000000000002</ele>
        <time>2011-08-07T07:42:57Z</time>
      </trkpt>
      <trkpt lat="44.097745036706328" lon="10.252867760136724">
        <ele>964.20000000000005</ele>
        <time>2011-08-07T07:43:02Z</time>
      </trkpt>
      <trkpt lat="44.097659876570106" lon="10.252785114571452">
        <ele>966</ele>
        <time>2011-08-07T07:43:12Z</time>
      </trkpt>
      <trkpt lat="44.097569771111012" lon="10.25268972851336">
        <ele>966.79999999999995</ele>
        <time>2011-08-07T07:43:23Z</time>
      </trkpt>
      <trkpt lat="44.097476564347744" lon="10.252604484558105">
        <ele>967.79999999999995</ele>
        <time>2011-08-07T07:43:34Z</time>
      </trkpt>
      <trkpt lat="44.09738402813673" lon="10.252535166218877">
        <ele>969.39999999999998</ele>
        <time>2011-08-07T07:43:44Z</time>
      </trkpt>
      <trkpt lat="44.097276320680976" lon="10.252447659149766">
        <ele>971.60000000000002</ele>
        <time>2011-08-07T07:43:55Z</time>
      </trkpt>
      <trkpt lat="44.097168361768126" lon="10.252369539812207">
        <ele>970.79999999999995</ele>
        <time>2011-08-07T07:43:58Z</time>
      </trkpt>
      <trkpt lat="44.096921933814883" lon="10.252142306417227">
        <ele>969.20000000000005</ele>
        <time>2011-08-07T07:44:04Z</time>
      </trkpt>
      <trkpt lat="44.096899135038257" lon="10.252091512084007">
        <ele>968.79999999999995</ele>
        <time>2011-08-07T07:44:05Z</time>
      </trkpt>
      <trkpt lat="44.096890920773149" lon="10.25200123898685">
        <ele>967.20000000000005</ele>
        <time>2011-08-07T07:44:07Z</time>
      </trkpt>
      <trkpt lat="44.096895363181829" lon="10.251960335299373">
        <ele>966.39999999999998</ele>
        <time>2011-08-07T07:44:09Z</time>
      </trkpt>
      <trkpt lat="44.096897877752781" lon="10.251959329470992">
        <ele>966</ele>
        <time>2011-08-07T07:44:10Z</time>
      </trkpt>
      <trkpt lat="44.096894022077322" lon="10.251890430226922">
        <ele>966.60000000000002</ele>
        <time>2011-08-07T07:44:16Z</time>
      </trkpt>
      <trkpt lat="44.096875414252281" lon="10.251794205978513">
        <ele>965.20000000000005</ele>
        <time>2011-08-07T07:44:26Z</time>
      </trkpt>
      <trkpt lat="44.096838533878326" lon="10.251691779121757">
        <ele>965.79999999999995</ele>
        <time>2011-08-07T07:44:36Z</time>
      </trkpt>
      <trkpt lat="44.096804922446609" lon="10.251603936776519">
        <ele>967.60000000000002</ele>
        <time>2011-08-07T07:44:45Z</time>
      </trkpt>
      <trkpt lat="44.096765359863639" lon="10.251507209613919">
        <ele>968.60000000000002</ele>
        <time>2011-08-07T07:44:56Z</time>
      </trkpt>
      <trkpt lat="44.096737364307046" lon="10.251436969265342">
        <ele>969.20000000000005</ele>
        <time>2011-08-07T07:45:04Z</time>
      </trkpt>
      <trkpt lat="44.096693359315395" lon="10.251348204910755">
        <ele>970</ele>
        <time>2011-08-07T07:45:14Z</time>
      </trkpt>
      <trkpt lat="44.096667962148786" lon="10.251274863258004">
        <ele>969.20000000000005</ele>
        <time>2011-08-07T07:45:22Z</time>
      </trkpt>
      <trkpt lat="44.096665363758802" lon="10.251149637624621">
        <ele>971.20000000000005</ele>
        <time>2011-08-07T07:45:34Z</time>
      </trkpt>
      <trkpt lat="44.096693778410554" lon="10.251053078100085">
        <ele>978</ele>
        <time>2011-08-07T07:45:43Z</time>
      </trkpt>
      <trkpt lat="44.096735436469316" lon="10.250959033146501">
        <ele>981.60000000000002</ele>
        <time>2011-08-07T07:45:53Z</time>
      </trkpt>
      <trkpt lat="44.096760917454958" lon="10.25089742615819">
        <ele>982.20000000000005</ele>
        <time>2011-08-07T07:45:59Z</time>
      </trkpt>
      <trkpt lat="44.096766198053956" lon="10.250887703150511">
        <ele>982.20000000000005</ele>
        <time>2011-08-07T07:46:00Z</time>
      </trkpt>
      <trkpt lat="44.096814729273319" lon="10.25075669400394">
        <ele>982.60000000000002</ele>
        <time>2011-08-07T07:46:12Z</time>
      </trkpt>
      <trkpt lat="44.096803665161133" lon="10.25066876783967">
        <ele>984.20000000000005</ele>
        <time>2011-08-07T07:46:20Z</time>
      </trkpt>
      <trkpt lat="44.096814813092351" lon="10.250586876645684">
        <ele>983.39999999999998</ele>
        <time>2011-08-07T07:46:29Z</time>
      </trkpt>
      <trkpt lat="44.096814561635256" lon="10.250509092584252">
        <ele>981.60000000000002</ele>
        <time>2011-08-07T07:46:37Z</time>
      </trkpt>
      <trkpt lat="44.096839120611548" lon="10.250428207218647">
        <ele>981.39999999999998</ele>
        <time>2011-08-07T07:46:46Z</time>
      </trkpt>
      <trkpt lat="44.09685974009335" lon="10.250329971313477">
        <ele>981.20000000000005</ele>
        <time>2011-08-07T07:46:55Z</time>
      </trkpt>
      <trkpt lat="44.096903158351779" lon="10.250199465081096">
        <ele>981.79999999999995</ele>
        <time>2011-08-07T07:47:06Z</time>
      </trkpt>
      <trkpt lat="44.096911875531077" lon="10.2501215133816">
        <ele>983</ele>
        <time>2011-08-07T07:47:12Z</time>
      </trkpt>
      <trkpt lat="44.096913803368807" lon="10.249997125938535">
        <ele>986</ele>
        <time>2011-08-07T07:47:21Z</time>
      </trkpt>
      <trkpt lat="44.096908438950777" lon="10.249972734600306">
        <ele>986.20000000000005</ele>
        <time>2011-08-07T07:47:23Z</time>
      </trkpt>
      <trkpt lat="44.096904499456286" lon="10.249908864498138">
        <ele>987.79999999999995</ele>
        <time>2011-08-07T07:47:28Z</time>
      </trkpt>
      <trkpt lat="44.096899637952447" lon="10.249843569472432">
        <ele>989.39999999999998</ele>
        <time>2011-08-07T07:47:33Z</time>
      </trkpt>
      <trkpt lat="44.096900979056954" lon="10.249783638864756">
        <ele>990.20000000000005</ele>
        <time>2011-08-07T07:47:38Z</time>
      </trkpt>
      <trkpt lat="44.096913719549775" lon="10.249597141519189">
        <ele>991.60000000000002</ele>
        <time>2011-08-07T07:47:55Z</time>
      </trkpt>
      <trkpt lat="44.096901062875986" lon="10.24955271743238">
        <ele>991.39999999999998</ele>
        <time>2011-08-07T07:47:59Z</time>
      </trkpt>
      <trkpt lat="44.096895279362798" lon="10.249491361901164">
        <ele>991</ele>
        <time>2011-08-07T07:48:05Z</time>
      </trkpt>
      <trkpt lat="44.096884215250611" lon="10.249417265877128">
        <ele>993.79999999999995</ele>
        <time>2011-08-07T07:48:11Z</time>
      </trkpt>
      <trkpt lat="44.096875078976154" lon="10.249342834576964">
        <ele>994.79999999999995</ele>
        <time>2011-08-07T07:48:17Z</time>
      </trkpt>
      <trkpt lat="44.096860494464636" lon="10.249275779351592">
        <ele>995.60000000000002</ele>
        <time>2011-08-07T07:48:24Z</time>
      </trkpt>
      <trkpt lat="44.09684750251472" lon="10.249199168756604">
        <ele>1000.4</ele>
        <time>2011-08-07T07:48:29Z</time>
      </trkpt>
      <trkpt lat="44.096867116168141" lon="10.249145859852433">
        <ele>996.79999999999995</ele>
        <time>2011-08-07T07:48:34Z</time>
      </trkpt>
      <trkpt lat="44.096887735649943" lon="10.249097580090165">
        <ele>995.60000000000002</ele>
        <time>2011-08-07T07:48:39Z</time>
      </trkpt>
      <trkpt lat="44.09691640175879" lon="10.24906363338232">
        <ele>993.39999999999998</ele>
        <time>2011-08-07T07:48:43Z</time>
      </trkpt>
      <trkpt lat="44.096977338194847" lon="10.249023484066129">
        <ele>993.60000000000002</ele>
        <time>2011-08-07T07:48:49Z</time>
      </trkpt>
      <trkpt lat="44.097089571878314" lon="10.248999930918217">
        <ele>996.60000000000002</ele>
        <time>2011-08-07T07:50:10Z</time>
      </trkpt>
      <trkpt lat="44.09712016582489" lon="10.248976796865463">
        <ele>996</ele>
        <time>2011-08-07T07:50:19Z</time>
      </trkpt>
      <trkpt lat="44.097074484452605" lon="10.248949890956283">
        <ele>996.79999999999995</ele>
        <time>2011-08-07T07:52:48Z</time>
      </trkpt>
      <trkpt lat="44.097075741738081" lon="10.248923990875483">
        <ele>996.60000000000002</ele>
        <time>2011-08-07T07:52:50Z</time>
      </trkpt>
      <trkpt lat="44.09707079641521" lon="10.248872023075819">
        <ele>996.79999999999995</ele>
        <time>2011-08-07T07:52:55Z</time>
      </trkpt>
      <trkpt lat="44.0970678627491" lon="10.248860958963633">
        <ele>996.79999999999995</ele>
        <time>2011-08-07T07:52:56Z</time>
      </trkpt>
      <trkpt lat="44.09705713391304" lon="10.248825084418058">
        <ele>997.20000000000005</ele>
        <time>2011-08-07T07:53:00Z</time>
      </trkpt>
      <trkpt lat="44.097044225782156" lon="10.248789293691516">
        <ele>997.79999999999995</ele>
        <time>2011-08-07T07:53:04Z</time>
      </trkpt>
      <trkpt lat="44.097047662362456" lon="10.248692566528916">
        <ele>999.20000000000005</ele>
        <time>2011-08-07T07:53:14Z</time>
      </trkpt>
      <trkpt lat="44.097049506381154" lon="10.248638670891523">
        <ele>1001</ele>
        <time>2011-08-07T07:53:20Z</time>
      </trkpt>
      <trkpt lat="44.097032072022557" lon="10.248552924022079">
        <ele>1003.4</ele>
        <time>2011-08-07T07:53:28Z</time>
      </trkpt>
      <trkpt lat="44.097001729533076" lon="10.248511182144284">
        <ele>1002.8</ele>
        <time>2011-08-07T07:53:33Z</time>
      </trkpt>
      <trkpt lat="44.096973314881325" lon="10.248471535742283">
        <ele>1002.6</ele>
        <time>2011-08-07T07:53:38Z</time>
      </trkpt>
      <trkpt lat="44.096955712884665" lon="10.248438259586692">
        <ele>1003</ele>
        <time>2011-08-07T07:53:43Z</time>
      </trkpt>
      <trkpt lat="44.096930986270308" lon="10.248391404747963">
        <ele>1004.8</ele>
        <time>2011-08-07T07:53:48Z</time>
      </trkpt>
      <trkpt lat="44.096905421465635" lon="10.248345639556646">
        <ele>1006.4</ele>
        <time>2011-08-07T07:53:54Z</time>
      </trkpt>
      <trkpt lat="44.096883377060294" lon="10.248300125822425">
        <ele>1006.8</ele>
        <time>2011-08-07T07:54:00Z</time>
      </trkpt>
      <trkpt lat="44.096862338483334" lon="10.248238518834114">
        <ele>1007.8</ele>
        <time>2011-08-07T07:54:07Z</time>
      </trkpt>
      <trkpt lat="44.096848089247942" lon="10.248192837461829">
        <ele>1008.2</ele>
        <time>2011-08-07T07:54:13Z</time>
      </trkpt>
      <trkpt lat="44.096837025135756" lon="10.248127290979028">
        <ele>1009.4</ele>
        <time>2011-08-07T07:54:20Z</time>
      </trkpt>
      <trkpt lat="44.096840964630246" lon="10.248066522181034">
        <ele>1009.2</ele>
        <time>2011-08-07T07:54:27Z</time>
      </trkpt>
      <trkpt lat="44.096851861104369" lon="10.248007765039802">
        <ele>1010.4</ele>
        <time>2011-08-07T07:54:33Z</time>
      </trkpt>
      <trkpt lat="44.096882035955787" lon="10.247951606288552">
        <ele>1010.8</ele>
        <time>2011-08-07T07:54:40Z</time>
      </trkpt>
      <trkpt lat="44.096928974613547" lon="10.247936937958002">
        <ele>1010.6</ele>
        <time>2011-08-07T07:54:48Z</time>
      </trkpt>
      <trkpt lat="44.096970213577151" lon="10.247936267405748">
        <ele>1012</ele>
        <time>2011-08-07T07:54:54Z</time>
      </trkpt>
      <trkpt lat="44.097031401470304" lon="10.247949678450823">
        <ele>1015.8</ele>
        <time>2011-08-07T07:54:59Z</time>
      </trkpt>
      <trkpt lat="44.097100468352437" lon="10.247964598238468">
        <ele>1019.6</ele>
        <time>2011-08-07T07:55:04Z</time>
      </trkpt>
      <trkpt lat="44.097112286835909" lon="10.247963340952992">
        <ele>1020.6</ele>
        <time>2011-08-07T07:55:06Z</time>
      </trkpt>
      <trkpt lat="44.097144473344088" lon="10.247961496934295">
        <ele>1022.2</ele>
        <time>2011-08-07T07:55:09Z</time>
      </trkpt>
      <trkpt lat="44.097168026492" lon="10.247970130294561">
        <ele>1023.8</ele>
        <time>2011-08-07T07:55:11Z</time>
      </trkpt>
      <trkpt lat="44.097110023722053" lon="10.247966274619102">
        <ele>1037</ele>
        <time>2011-08-07T07:56:23Z</time>
      </trkpt>
      <trkpt lat="44.097171798348427" lon="10.248012039810419">
        <ele>1034</ele>
        <time>2011-08-07T07:56:27Z</time>
      </trkpt>
      <trkpt lat="44.097261819988489" lon="10.248081274330616">
        <ele>1027.2</ele>
        <time>2011-08-07T07:56:34Z</time>
      </trkpt>
      <trkpt lat="44.097167439758778" lon="10.247988905757666">
        <ele>1023.6</ele>
        <time>2011-08-07T07:56:49Z</time>
      </trkpt>
      <trkpt lat="44.097136259078979" lon="10.247948337346315">
        <ele>1022.6</ele>
        <time>2011-08-07T07:56:53Z</time>
      </trkpt>
      <trkpt lat="44.097116896882653" lon="10.247945319861174">
        <ele>1023.2</ele>
        <time>2011-08-07T07:57:05Z</time>
      </trkpt>
      <trkpt lat="44.097092086449265" lon="10.247962502762675">
        <ele>1024.5999999999999</ele>
        <time>2011-08-07T07:58:42Z</time>
      </trkpt>
      <trkpt lat="44.097142461687326" lon="10.247955210506916">
        <ele>1027.2</ele>
        <time>2011-08-07T07:58:47Z</time>
      </trkpt>
      <trkpt lat="44.097111616283655" lon="10.24791682139039">
        <ele>1040.2</ele>
        <time>2011-08-07T07:59:18Z</time>
      </trkpt>
      <trkpt lat="44.097066940739751" lon="10.247904667630792">
        <ele>1042.8</ele>
        <time>2011-08-07T07:59:21Z</time>
      </trkpt>
      <trkpt lat="44.097065599635243" lon="10.247888658195734">
        <ele>1039.2</ele>
        <time>2011-08-07T07:59:27Z</time>
      </trkpt>
      <trkpt lat="44.097042297944427" lon="10.247876504436135">
        <ele>1038.2</ele>
        <time>2011-08-07T07:59:29Z</time>
      </trkpt>
      <trkpt lat="44.097038609907031" lon="10.247875079512596">
        <ele>1038.5999999999999</ele>
        <time>2011-08-07T07:59:30Z</time>
      </trkpt>
      <trkpt lat="44.097252516075969" lon="10.248062079772353">
        <ele>1061</ele>
        <time>2011-08-07T08:00:15Z</time>
      </trkpt>
      <trkpt lat="44.09726089797914" lon="10.248066186904907">
        <ele>1059.2</ele>
        <time>2011-08-07T08:00:19Z</time>
      </trkpt>
      <trkpt lat="44.09722913056612" lon="10.247883461415768">
        <ele>1022</ele>
        <time>2011-08-07T08:02:58Z</time>
      </trkpt>
      <trkpt lat="44.097253940999508" lon="10.247857561334968">
        <ele>1021.2</ele>
        <time>2011-08-07T08:03:01Z</time>
      </trkpt>
      <trkpt lat="44.097308591008186" lon="10.247796205803752">
        <ele>1019.8</ele>
        <time>2011-08-07T08:03:08Z</time>
      </trkpt>
      <trkpt lat="44.097351841628551" lon="10.247718337923288">
        <ele>1020.6</ele>
        <time>2011-08-07T08:03:22Z</time>
      </trkpt>
      <trkpt lat="44.097362905740738" lon="10.247710039839149">
        <ele>1020.8</ele>
        <time>2011-08-07T08:03:23Z</time>
      </trkpt>
      <trkpt lat="44.097380759194493" lon="10.247679026797414">
        <ele>1021.4</ele>
        <time>2011-08-07T08:03:26Z</time>
      </trkpt>
      <trkpt lat="44.097564993426204" lon="10.247570564970374">
        <ele>1023.2</ele>
        <time>2011-08-07T08:03:55Z</time>
      </trkpt>
      <trkpt lat="44.097616290673614" lon="10.247557405382395">
        <ele>1024.4000000000001</ele>
        <time>2011-08-07T08:04:05Z</time>
      </trkpt>
      <trkpt lat="44.097678065299988" lon="10.247537540271878">
        <ele>1026.8</ele>
        <time>2011-08-07T08:04:11Z</time>
      </trkpt>
      <trkpt lat="44.097719388082623" lon="10.247501414269209">
        <ele>1024.2</ele>
        <time>2011-08-07T08:04:18Z</time>
      </trkpt>
      <trkpt lat="44.097763560712337" lon="10.247469563037157">
        <ele>1021.6</ele>
        <time>2011-08-07T08:04:24Z</time>
      </trkpt>
      <trkpt lat="44.097779737785459" lon="10.24750979617238">
        <ele>1024.5999999999999</ele>
        <time>2011-08-07T08:04:31Z</time>
      </trkpt>
      <trkpt lat="44.097780073061585" lon="10.247585736215115">
        <ele>1030.8</ele>
        <time>2011-08-07T08:04:35Z</time>
      </trkpt>
      <trkpt lat="44.097778480499983" lon="10.247621610760689">
        <ele>1034.4000000000001</ele>
        <time>2011-08-07T08:04:39Z</time>
      </trkpt>
      <trkpt lat="44.097817037254572" lon="10.247643906623125">
        <ele>1038</ele>
        <time>2011-08-07T08:04:48Z</time>
      </trkpt>
      <trkpt lat="44.097852241247892" lon="10.247605014592409">
        <ele>1036.2</ele>
        <time>2011-08-07T08:04:52Z</time>
      </trkpt>
      <trkpt lat="44.097890462726355" lon="10.24759772233665">
        <ele>1036.5999999999999</ele>
        <time>2011-08-07T08:04:56Z</time>
      </trkpt>
      <trkpt lat="44.097901191562414" lon="10.247581461444497">
        <ele>1036.5999999999999</ele>
        <time>2011-08-07T08:04:58Z</time>
      </trkpt>
      <trkpt lat="44.097917871549726" lon="10.247569810599089">
        <ele>1036.4000000000001</ele>
        <time>2011-08-07T08:05:00Z</time>
      </trkpt>
      <trkpt lat="44.097972689196467" lon="10.247523291036487">
        <ele>1032.5999999999999</ele>
        <time>2011-08-07T08:05:08Z</time>
      </trkpt>
      <trkpt lat="44.098044941201806" lon="10.247437711805105">
        <ele>1027.2</ele>
        <time>2011-08-07T08:05:17Z</time>
      </trkpt>
      <trkpt lat="44.098104201257229" lon="10.247402507811785">
        <ele>1027</ele>
        <time>2011-08-07T08:05:26Z</time>
      </trkpt>
      <trkpt lat="44.098174022510648" lon="10.247362609952688">
        <ele>1029</ele>
        <time>2011-08-07T08:05:35Z</time>
      </trkpt>
      <trkpt lat="44.098242167383432" lon="10.247295722365379">
        <ele>1030.4000000000001</ele>
        <time>2011-08-07T08:05:45Z</time>
      </trkpt>
      <trkpt lat="44.098297404125333" lon="10.247241239994764">
        <ele>1031</ele>
        <time>2011-08-07T08:05:53Z</time>
      </trkpt>
      <trkpt lat="44.098342163488269" lon="10.247221458703279">
        <ele>1032</ele>
        <time>2011-08-07T08:05:58Z</time>
      </trkpt>
      <trkpt lat="44.098394634202123" lon="10.247208131477237">
        <ele>1032.4000000000001</ele>
        <time>2011-08-07T08:06:05Z</time>
      </trkpt>
      <trkpt lat="44.098467472940683" lon="10.247185081243515">
        <ele>1034.2</ele>
        <time>2011-08-07T08:06:14Z</time>
      </trkpt>
      <trkpt lat="44.098517512902617" lon="10.247149458155036">
        <ele>1035</ele>
        <time>2011-08-07T08:06:21Z</time>
      </trkpt>
      <trkpt lat="44.098525810986757" lon="10.247140070423484">
        <ele>1035.4000000000001</ele>
        <time>2011-08-07T08:06:22Z</time>
      </trkpt>
      <trkpt lat="44.098527487367392" lon="10.247098412364721">
        <ele>1036.5999999999999</ele>
        <time>2011-08-07T08:06:26Z</time>
      </trkpt>
      <trkpt lat="44.098525559529662" lon="10.247057760134339">
        <ele>1035.4000000000001</ele>
        <time>2011-08-07T08:06:30Z</time>
      </trkpt>
      <trkpt lat="44.09851860255003" lon="10.246984418481588">
        <ele>1035.4000000000001</ele>
        <time>2011-08-07T08:06:38Z</time>
      </trkpt>
      <trkpt lat="44.098505107685924" lon="10.24694393388927">
        <ele>1036.4000000000001</ele>
        <time>2011-08-07T08:06:43Z</time>
      </trkpt>
      <trkpt lat="44.098457917571068" lon="10.246923230588436">
        <ele>1037.4000000000001</ele>
        <time>2011-08-07T08:06:49Z</time>
      </trkpt>
      <trkpt lat="44.098414080217481" lon="10.246911663562059">
        <ele>1038.8</ele>
        <time>2011-08-07T08:06:55Z</time>
      </trkpt>
      <trkpt lat="44.098357334733009" lon="10.246910909190774">
        <ele>1039</ele>
        <time>2011-08-07T08:07:02Z</time>
      </trkpt>
      <trkpt lat="44.098285837098956" lon="10.246916692703962">
        <ele>1040</ele>
        <time>2011-08-07T08:07:11Z</time>
      </trkpt>
      <trkpt lat="44.098225235939026" lon="10.246883081272244">
        <ele>1042.8</ele>
        <time>2011-08-07T08:07:20Z</time>
      </trkpt>
      <trkpt lat="44.098210064694285" lon="10.246839663013816">
        <ele>1043.8</ele>
        <time>2011-08-07T08:07:26Z</time>
      </trkpt>
      <trkpt lat="44.098211573436856" lon="10.246799932792783">
        <ele>1043.4000000000001</ele>
        <time>2011-08-07T08:07:30Z</time>
      </trkpt>
      <trkpt lat="44.098232863470912" lon="10.246732039377093">
        <ele>1044.5999999999999</ele>
        <time>2011-08-07T08:07:38Z</time>
      </trkpt>
      <trkpt lat="44.098245771601796" lon="10.246710078790784">
        <ele>1045</ele>
        <time>2011-08-07T08:07:42Z</time>
      </trkpt>
      <trkpt lat="44.098272761330009" lon="10.246683340519667">
        <ele>1046.5999999999999</ele>
        <time>2011-08-07T08:07:47Z</time>
      </trkpt>
      <trkpt lat="44.098308468237519" lon="10.246631372720003">
        <ele>1047</ele>
        <time>2011-08-07T08:07:55Z</time>
      </trkpt>
      <trkpt lat="44.098341409116983" lon="10.246580159291625">
        <ele>1047.2</ele>
        <time>2011-08-07T08:08:03Z</time>
      </trkpt>
      <trkpt lat="44.098363788798451" lon="10.246523916721344">
        <ele>1048.5999999999999</ele>
        <time>2011-08-07T08:08:10Z</time>
      </trkpt>
      <trkpt lat="44.098368063569069" lon="10.246470607817173">
        <ele>1048.8</ele>
        <time>2011-08-07T08:08:17Z</time>
      </trkpt>
      <trkpt lat="44.098327159881592" lon="10.246446216478944">
        <ele>1051</ele>
        <time>2011-08-07T08:08:22Z</time>
      </trkpt>
      <trkpt lat="44.098282065242529" lon="10.246445797383785">
        <ele>1052.2</ele>
        <time>2011-08-07T08:08:27Z</time>
      </trkpt>
      <trkpt lat="44.098259937018156" lon="10.246448563411832">
        <ele>1052.8</ele>
        <time>2011-08-07T08:08:30Z</time>
      </trkpt>
      <trkpt lat="44.098243173211813" lon="10.246453760191798">
        <ele>1053.8</ele>
        <time>2011-08-07T08:08:33Z</time>
      </trkpt>
      <trkpt lat="44.098153403028846" lon="10.246467925608158">
        <ele>1057.4000000000001</ele>
        <time>2011-08-07T08:08:49Z</time>
      </trkpt>
      <trkpt lat="44.098091125488281" lon="10.246442276984453">
        <ele>1063</ele>
        <time>2011-08-07T08:09:42Z</time>
      </trkpt>
      <trkpt lat="44.098041839897633" lon="10.246434565633535">
        <ele>1059.8</ele>
        <time>2011-08-07T08:09:48Z</time>
      </trkpt>
      <trkpt lat="44.097959026694298" lon="10.246421070769429">
        <ele>1057</ele>
        <time>2011-08-07T08:09:57Z</time>
      </trkpt>
      <trkpt lat="44.097956428304315" lon="10.246420903131366">
        <ele>1057.8</ele>
        <time>2011-08-07T08:09:58Z</time>
      </trkpt>
      <trkpt lat="44.097941927611828" lon="10.246429704129696">
        <ele>1059.8</ele>
        <time>2011-08-07T08:10:02Z</time>
      </trkpt>
      <trkpt lat="44.097898006439209" lon="10.246424339711666">
        <ele>1061</ele>
        <time>2011-08-07T08:10:10Z</time>
      </trkpt>
      <trkpt lat="44.097840590402484" lon="10.246412018314004">
        <ele>1063.5999999999999</ele>
        <time>2011-08-07T08:10:20Z</time>
      </trkpt>
      <trkpt lat="44.097809158265591" lon="10.246400786563754">
        <ele>1062.8</ele>
        <time>2011-08-07T08:10:24Z</time>
      </trkpt>
      <trkpt lat="44.09776171669364" lon="10.246401960030198">
        <ele>1064.5999999999999</ele>
        <time>2011-08-07T08:10:32Z</time>
      </trkpt>
      <trkpt lat="44.097732212394476" lon="10.246417466551065">
        <ele>1066.8</ele>
        <time>2011-08-07T08:10:37Z</time>
      </trkpt>
      <trkpt lat="44.097698181867599" lon="10.246436158195138">
        <ele>1068.8</ele>
        <time>2011-08-07T08:10:42Z</time>
      </trkpt>
      <trkpt lat="44.097664067521691" lon="10.246460381895304">
        <ele>1074.4000000000001</ele>
        <time>2011-08-07T08:10:50Z</time>
      </trkpt>
      <trkpt lat="44.097629282623529" lon="10.246458034962416">
        <ele>1075.4000000000001</ele>
        <time>2011-08-07T08:10:56Z</time>
      </trkpt>
      <trkpt lat="44.097574129700661" lon="10.246450239792466">
        <ele>1074.5999999999999</ele>
        <time>2011-08-07T08:11:03Z</time>
      </trkpt>
      <trkpt lat="44.09752668812871" lon="10.246441103518009">
        <ele>1077.2</ele>
        <time>2011-08-07T08:11:11Z</time>
      </trkpt>
      <trkpt lat="44.097500201314688" lon="10.246415873989463">
        <ele>1080</ele>
        <time>2011-08-07T08:11:17Z</time>
      </trkpt>
      <trkpt lat="44.097491484135389" lon="10.24640154093504">
        <ele>1081.8</ele>
        <time>2011-08-07T08:11:21Z</time>
      </trkpt>
      <trkpt lat="44.097447730600834" lon="10.246368180960417">
        <ele>1081.2</ele>
        <time>2011-08-07T08:11:30Z</time>
      </trkpt>
      <trkpt lat="44.097368605434895" lon="10.246364492923021">
        <ele>1084.4000000000001</ele>
        <time>2011-08-07T08:11:40Z</time>
      </trkpt>
      <trkpt lat="44.097325690090656" lon="10.2463707793504">
        <ele>1083.8</ele>
        <time>2011-08-07T08:11:44Z</time>
      </trkpt>
      <trkpt lat="44.097273638471961" lon="10.24637857452035">
        <ele>1088</ele>
        <time>2011-08-07T08:11:53Z</time>
      </trkpt>
      <trkpt lat="44.097254695370793" lon="10.246374802663922">
        <ele>1087.5999999999999</ele>
        <time>2011-08-07T08:11:56Z</time>
      </trkpt>
      <trkpt lat="44.097199626266956" lon="10.246365331113338">
        <ele>1085.2</ele>
        <time>2011-08-07T08:12:02Z</time>
      </trkpt>
      <trkpt lat="44.097144221886992" lon="10.246373964473605">
        <ele>1085.8</ele>
        <time>2011-08-07T08:12:09Z</time>
      </trkpt>
      <trkpt lat="44.09707666374743" lon="10.246360385790467">
        <ele>1085.8</ele>
        <time>2011-08-07T08:12:21Z</time>
      </trkpt>
      <trkpt lat="44.096982702612877" lon="10.246369773522019">
        <ele>1083</ele>
        <time>2011-08-07T08:12:32Z</time>
      </trkpt>
      <trkpt lat="44.096918413415551" lon="10.246368097141385">
        <ele>1082.5999999999999</ele>
        <time>2011-08-07T08:12:41Z</time>
      </trkpt>
      <trkpt lat="44.096852783113718" lon="10.246358709409833">
        <ele>1084.2</ele>
        <time>2011-08-07T08:12:51Z</time>
      </trkpt>
      <trkpt lat="44.09682696685195" lon="10.246356865391135">
        <ele>1085</ele>
        <time>2011-08-07T08:12:56Z</time>
      </trkpt>
      <trkpt lat="44.096793187782168" lon="10.246352087706327">
        <ele>1081.4000000000001</ele>
        <time>2011-08-07T08:13:04Z</time>
      </trkpt>
      <trkpt lat="44.096731413155794" lon="10.246319398283958">
        <ele>1084.5999999999999</ele>
        <time>2011-08-07T08:14:00Z</time>
      </trkpt>
      <trkpt lat="44.096669722348452" lon="10.246319817379117">
        <ele>1086.2</ele>
        <time>2011-08-07T08:14:10Z</time>
      </trkpt>
      <trkpt lat="44.096636027097702" lon="10.246321996673942">
        <ele>1089.2</ele>
        <time>2011-08-07T08:14:16Z</time>
      </trkpt>
      <trkpt lat="44.096582634374499" lon="10.246331384405494">
        <ele>1090.8</ele>
        <time>2011-08-07T08:14:25Z</time>
      </trkpt>
      <trkpt lat="44.096547262743115" lon="10.246347393840551">
        <ele>1092.2</ele>
        <time>2011-08-07T08:14:31Z</time>
      </trkpt>
      <trkpt lat="44.096481464803219" lon="10.246359463781118">
        <ele>1092</ele>
        <time>2011-08-07T08:14:40Z</time>
      </trkpt>
      <trkpt lat="44.096426563337445" lon="10.246365834027529">
        <ele>1092.2</ele>
        <time>2011-08-07T08:14:48Z</time>
      </trkpt>
      <trkpt lat="44.096365291625261" lon="10.246361726894975">
        <ele>1093.5999999999999</ele>
        <time>2011-08-07T08:14:58Z</time>
      </trkpt>
      <trkpt lat="44.096307540312409" lon="10.246357033029199">
        <ele>1094.4000000000001</ele>
        <time>2011-08-07T08:15:07Z</time>
      </trkpt>
      <trkpt lat="44.096239563077688" lon="10.246344627812505">
        <ele>1095.4000000000001</ele>
        <time>2011-08-07T08:15:17Z</time>
      </trkpt>
      <trkpt lat="44.09618298523128" lon="10.246334820985794">
        <ele>1096.8</ele>
        <time>2011-08-07T08:15:26Z</time>
      </trkpt>
      <trkpt lat="44.096147613599896" lon="10.246322667226195">
        <ele>1097.4000000000001</ele>
        <time>2011-08-07T08:15:33Z</time>
      </trkpt>
      <trkpt lat="44.096101261675358" lon="10.246288720518351">
        <ele>1098</ele>
        <time>2011-08-07T08:15:42Z</time>
      </trkpt>
      <trkpt lat="44.096062202006578" lon="10.246267262846231">
        <ele>1099</ele>
        <time>2011-08-07T08:15:49Z</time>
      </trkpt>
      <trkpt lat="44.096041331067681" lon="10.246250918135047">
        <ele>1098.8</ele>
        <time>2011-08-07T08:15:54Z</time>
      </trkpt>
      <trkpt lat="44.096011072397232" lon="10.246205991134048">
        <ele>1100</ele>
        <time>2011-08-07T08:16:02Z</time>
      </trkpt>
      <trkpt lat="44.095978802070022" lon="10.246180510148406">
        <ele>1100.5999999999999</ele>
        <time>2011-08-07T08:16:11Z</time>
      </trkpt>
      <trkpt lat="44.095951728522778" lon="10.246161399409175">
        <ele>1100.4000000000001</ele>
        <time>2011-08-07T08:16:21Z</time>
      </trkpt>
      <trkpt lat="44.095902275294065" lon="10.246131895110011">
        <ele>1102.5999999999999</ele>
        <time>2011-08-07T08:16:30Z</time>
      </trkpt>
      <trkpt lat="44.095858605578542" lon="10.246129967272282">
        <ele>1103</ele>
        <time>2011-08-07T08:16:37Z</time>
      </trkpt>
      <trkpt lat="44.09582138992846" lon="10.246142875403166">
        <ele>1106.8</ele>
        <time>2011-08-07T08:16:45Z</time>
      </trkpt>
      <trkpt lat="44.095788029953837" lon="10.246158298105001">
        <ele>1108</ele>
        <time>2011-08-07T08:16:50Z</time>
      </trkpt>
      <trkpt lat="44.095719465985894" lon="10.246160058304667">
        <ele>1109.4000000000001</ele>
        <time>2011-08-07T08:16:59Z</time>
      </trkpt>
      <trkpt lat="44.09566699527204" lon="10.246104234829545">
        <ele>1108.5999999999999</ele>
        <time>2011-08-07T08:17:09Z</time>
      </trkpt>
      <trkpt lat="44.095691218972206" lon="10.246038269251585">
        <ele>1108.8</ele>
        <time>2011-08-07T08:17:17Z</time>
      </trkpt>
      <trkpt lat="44.095754334703088" lon="10.245994096621871">
        <ele>1110.8</ele>
        <time>2011-08-07T08:17:26Z</time>
      </trkpt>
      <trkpt lat="44.095798004418612" lon="10.245968783274293">
        <ele>1111.5999999999999</ele>
        <time>2011-08-07T08:17:32Z</time>
      </trkpt>
      <trkpt lat="44.095836561173201" lon="10.245949001982808">
        <ele>1110</ele>
        <time>2011-08-07T08:17:40Z</time>
      </trkpt>
      <trkpt lat="44.095890205353498" lon="10.245931064710021">
        <ele>1109.8</ele>
        <time>2011-08-07T08:17:49Z</time>
      </trkpt>
      <trkpt lat="44.095952734351158" lon="10.245928633958101">
        <ele>1110.2</ele>
        <time>2011-08-07T08:17:58Z</time>
      </trkpt>
      <trkpt lat="44.096009312197566" lon="10.245924778282642">
        <ele>1110.8</ele>
        <time>2011-08-07T08:18:07Z</time>
      </trkpt>
      <trkpt lat="44.096075361594558" lon="10.245912624523044">
        <ele>1111</ele>
        <time>2011-08-07T08:18:17Z</time>
      </trkpt>
      <trkpt lat="44.096137220039964" lon="10.245890831574798">
        <ele>1111.8</ele>
        <time>2011-08-07T08:18:27Z</time>
      </trkpt>
      <trkpt lat="44.096189606934786" lon="10.24585722014308">
        <ele>1113.4000000000001</ele>
        <time>2011-08-07T08:18:35Z</time>
      </trkpt>
      <trkpt lat="44.096265463158488" lon="10.245803408324718">
        <ele>1114.8</ele>
        <time>2011-08-07T08:18:47Z</time>
      </trkpt>
      <trkpt lat="44.096303097903728" lon="10.245768707245588">
        <ele>1116</ele>
        <time>2011-08-07T08:18:53Z</time>
      </trkpt>
      <trkpt lat="44.096340984106064" lon="10.24571992456913">
        <ele>1117.2</ele>
        <time>2011-08-07T08:19:01Z</time>
      </trkpt>
      <trkpt lat="44.096383564174175" lon="10.245640883222222">
        <ele>1117.8</ele>
        <time>2011-08-07T08:19:11Z</time>
      </trkpt>
      <trkpt lat="44.096395634114742" lon="10.245616072788835">
        <ele>1119</ele>
        <time>2011-08-07T08:19:17Z</time>
      </trkpt>
      <trkpt lat="44.096431927755475" lon="10.245567793026567">
        <ele>1118.2</ele>
        <time>2011-08-07T08:20:55Z</time>
      </trkpt>
      <trkpt lat="44.09647568129003" lon="10.24555035866797">
        <ele>1120</ele>
        <time>2011-08-07T08:21:01Z</time>
      </trkpt>
      <trkpt lat="44.096546759828925" lon="10.245547508820891">
        <ele>1121.8</ele>
        <time>2011-08-07T08:21:11Z</time>
      </trkpt>
      <trkpt lat="44.096614737063646" lon="10.245546502992511">
        <ele>1122.8</ele>
        <time>2011-08-07T08:21:21Z</time>
      </trkpt>
      <trkpt lat="44.096683133393526" lon="10.245535606518388">
        <ele>1123.5999999999999</ele>
        <time>2011-08-07T08:21:31Z</time>
      </trkpt>
      <trkpt lat="44.096751026809216" lon="10.245515406131744">
        <ele>1123.8</ele>
        <time>2011-08-07T08:21:41Z</time>
      </trkpt>
      <trkpt lat="44.096802240237594" lon="10.245485063642263">
        <ele>1126.2</ele>
        <time>2011-08-07T08:21:50Z</time>
      </trkpt>
      <trkpt lat="44.096856974065304" lon="10.24546486325562">
        <ele>1126.5999999999999</ele>
        <time>2011-08-07T08:21:59Z</time>
      </trkpt>
      <trkpt lat="44.096909025683999" lon="10.245467713102698">
        <ele>1127.8</ele>
        <time>2011-08-07T08:22:08Z</time>
      </trkpt>
      <trkpt lat="44.096972392871976" lon="10.24547316133976">
        <ele>1129.2</ele>
        <time>2011-08-07T08:22:18Z</time>
      </trkpt>
      <trkpt lat="44.097045734524727" lon="10.245493361726403">
        <ele>1132.2</ele>
        <time>2011-08-07T08:22:29Z</time>
      </trkpt>
      <trkpt lat="44.097119495272636" lon="10.245506186038256">
        <ele>1132.8</ele>
        <time>2011-08-07T08:22:39Z</time>
      </trkpt>
      <trkpt lat="44.097200715914369" lon="10.245523285120726">
        <ele>1133.5999999999999</ele>
        <time>2011-08-07T08:22:49Z</time>
      </trkpt>
      <trkpt lat="44.097283110022545" lon="10.245518339797854">
        <ele>1133</ele>
        <time>2011-08-07T08:23:00Z</time>
      </trkpt>
      <trkpt lat="44.097326025366783" lon="10.245510796085">
        <ele>1132.5999999999999</ele>
        <time>2011-08-07T08:23:05Z</time>
      </trkpt>
      <trkpt lat="44.09738352522254" lon="10.245495541021228">
        <ele>1133.8</ele>
        <time>2011-08-07T08:23:12Z</time>
      </trkpt>
      <trkpt lat="44.097419399768114" lon="10.245481375604868">
        <ele>1133</ele>
        <time>2011-08-07T08:23:17Z</time>
      </trkpt>
      <trkpt lat="44.097481677308679" lon="10.245485063642263">
        <ele>1134</ele>
        <time>2011-08-07T08:23:25Z</time>
      </trkpt>
      <trkpt lat="44.097574381157756" lon="10.245482800528407">
        <ele>1133</ele>
        <time>2011-08-07T08:23:35Z</time>
      </trkpt>
      <trkpt lat="44.09764789044857" lon="10.245487662032247">
        <ele>1131.5999999999999</ele>
        <time>2011-08-07T08:23:43Z</time>
      </trkpt>
      <trkpt lat="44.097728440538049" lon="10.245485985651612">
        <ele>1131.5999999999999</ele>
        <time>2011-08-07T08:23:52Z</time>
      </trkpt>
      <trkpt lat="44.097829526290298" lon="10.24549855850637">
        <ele>1132</ele>
        <time>2011-08-07T08:24:03Z</time>
      </trkpt>
      <trkpt lat="44.097923822700977" lon="10.2454883325845">
        <ele>1132.5999999999999</ele>
        <time>2011-08-07T08:24:14Z</time>
      </trkpt>
      <trkpt lat="44.097983669489622" lon="10.24547902867198">
        <ele>1133</ele>
        <time>2011-08-07T08:24:22Z</time>
      </trkpt>
      <trkpt lat="44.098066063597798" lon="10.245450530201197">
        <ele>1134.5999999999999</ele>
        <time>2011-08-07T08:24:32Z</time>
      </trkpt>
      <trkpt lat="44.098122138530016" lon="10.245391186326742">
        <ele>1135.2</ele>
        <time>2011-08-07T08:24:40Z</time>
      </trkpt>
      <trkpt lat="44.09815801307559" lon="10.245329327881336">
        <ele>1136.2</ele>
        <time>2011-08-07T08:24:46Z</time>
      </trkpt>
      <trkpt lat="44.098198162391782" lon="10.245275096967816">
        <ele>1136.8</ele>
        <time>2011-08-07T08:24:53Z</time>
      </trkpt>
      <trkpt lat="44.098234036937356" lon="10.245224973186851">
        <ele>1137.2</ele>
        <time>2011-08-07T08:24:58Z</time>
      </trkpt>
      <trkpt lat="44.098247196525335" lon="10.245199408382177">
        <ele>1136.5999999999999</ele>
        <time>2011-08-07T08:25:01Z</time>
      </trkpt>
      <trkpt lat="44.098275862634182" lon="10.245169987902045">
        <ele>1137.8</ele>
        <time>2011-08-07T08:25:05Z</time>
      </trkpt>
      <trkpt lat="44.098302600905299" lon="10.245148111134768">
        <ele>1139.2</ele>
        <time>2011-08-07T08:25:08Z</time>
      </trkpt>
      <trkpt lat="44.098340570926666" lon="10.245113829150796">
        <ele>1139.5999999999999</ele>
        <time>2011-08-07T08:25:12Z</time>
      </trkpt>
      <trkpt lat="44.098382899537683" lon="10.245057167485356">
        <ele>1138</ele>
        <time>2011-08-07T08:25:18Z</time>
      </trkpt>
      <trkpt lat="44.098444925621152" lon="10.244955411180854">
        <ele>1134.8</ele>
        <time>2011-08-07T08:25:27Z</time>
      </trkpt>
      <trkpt lat="44.098465293645859" lon="10.244880393147469">
        <ele>1134.2</ele>
        <time>2011-08-07T08:25:35Z</time>
      </trkpt>
      <trkpt lat="44.098490187898278" lon="10.244802692905068">
        <ele>1135.4000000000001</ele>
        <time>2011-08-07T08:25:43Z</time>
      </trkpt>
      <trkpt lat="44.098500413820148" lon="10.244739660993218">
        <ele>1136.2</ele>
        <time>2011-08-07T08:25:51Z</time>
      </trkpt>
      <trkpt lat="44.098506700247526" lon="10.244700266048312">
        <ele>1136.5999999999999</ele>
        <time>2011-08-07T08:25:56Z</time>
      </trkpt>
      <trkpt lat="44.098534192889929" lon="10.244635222479701">
        <ele>1139</ele>
        <time>2011-08-07T08:26:05Z</time>
      </trkpt>
      <trkpt lat="44.098564200103283" lon="10.244560791179538">
        <ele>1141.5999999999999</ele>
        <time>2011-08-07T08:26:15Z</time>
      </trkpt>
      <trkpt lat="44.098584903404117" lon="10.244511840865016">
        <ele>1142.5999999999999</ele>
        <time>2011-08-07T08:26:21Z</time>
      </trkpt>
      <trkpt lat="44.0986168384552" lon="10.244451239705086">
        <ele>1144.5999999999999</ele>
        <time>2011-08-07T08:26:30Z</time>
      </trkpt>
      <trkpt lat="44.098641481250525" lon="10.244407318532467">
        <ele>1145.5999999999999</ele>
        <time>2011-08-07T08:26:36Z</time>
      </trkpt>
      <trkpt lat="44.098682217299938" lon="10.244353758171201">
        <ele>1148</ele>
        <time>2011-08-07T08:26:44Z</time>
      </trkpt>
      <trkpt lat="44.098761761561036" lon="10.244318218901753">
        <ele>1151.4000000000001</ele>
        <time>2011-08-07T08:26:55Z</time>
      </trkpt>
      <trkpt lat="44.098838539794087" lon="10.244319560006261">
        <ele>1150.2</ele>
        <time>2011-08-07T08:27:02Z</time>
      </trkpt>
      <trkpt lat="44.098985977470875" lon="10.244320398196578">
        <ele>1149.4000000000001</ele>
        <time>2011-08-07T08:27:08Z</time>
      </trkpt>
      <trkpt lat="44.099002238363028" lon="10.244323667138815">
        <ele>1149</ele>
        <time>2011-08-07T08:27:11Z</time>
      </trkpt>
      <trkpt lat="44.099001316353679" lon="10.244327774271369">
        <ele>1149</ele>
        <time>2011-08-07T08:27:12Z</time>
      </trkpt>
      <trkpt lat="44.099030904471874" lon="10.244354763999581">
        <ele>1150</ele>
        <time>2011-08-07T08:27:18Z</time>
      </trkpt>
      <trkpt lat="44.099087566137314" lon="10.244386279955506">
        <ele>1151.2</ele>
        <time>2011-08-07T08:27:27Z</time>
      </trkpt>
      <trkpt lat="44.099129140377045" lon="10.244449563324451">
        <ele>1151</ele>
        <time>2011-08-07T08:27:36Z</time>
      </trkpt>
      <trkpt lat="44.09917339682579" lon="10.244516870006919">
        <ele>1149</ele>
        <time>2011-08-07T08:27:46Z</time>
      </trkpt>
      <trkpt lat="44.099186472594738" lon="10.244570262730122">
        <ele>1148.2</ele>
        <time>2011-08-07T08:27:51Z</time>
      </trkpt>
      <trkpt lat="44.099210109561682" lon="10.244672019034624">
        <ele>1148.4000000000001</ele>
        <time>2011-08-07T08:28:00Z</time>
      </trkpt>
      <trkpt lat="44.099248163402081" lon="10.244802609086037">
        <ele>1152.4000000000001</ele>
        <time>2011-08-07T08:28:11Z</time>
      </trkpt>
      <trkpt lat="44.099291162565351" lon="10.244839238002896">
        <ele>1150.8</ele>
        <time>2011-08-07T08:28:19Z</time>
      </trkpt>
      <trkpt lat="44.099379507824779" lon="10.244909059256315">
        <ele>1154.5999999999999</ele>
        <time>2011-08-07T08:28:31Z</time>
      </trkpt>
      <trkpt lat="44.099402977153659" lon="10.244931941851974">
        <ele>1157</ele>
        <time>2011-08-07T08:28:35Z</time>
      </trkpt>
      <trkpt lat="44.099443461745977" lon="10.244951136410236">
        <ele>1156.8</ele>
        <time>2011-08-07T08:28:42Z</time>
      </trkpt>
      <trkpt lat="44.099490735679865" lon="10.244962703436613">
        <ele>1156</ele>
        <time>2011-08-07T08:28:50Z</time>
      </trkpt>
      <trkpt lat="44.099527113139629" lon="10.244979802519083">
        <ele>1156.4000000000001</ele>
        <time>2011-08-07T08:28:56Z</time>
      </trkpt>
      <trkpt lat="44.099575309082866" lon="10.245010396465659">
        <ele>1157</ele>
        <time>2011-08-07T08:29:05Z</time>
      </trkpt>
      <trkpt lat="44.099621661007404" lon="10.245072925463319">
        <ele>1157</ele>
        <time>2011-08-07T08:29:15Z</time>
      </trkpt>
      <trkpt lat="44.099659966304898" lon="10.24511793628335">
        <ele>1157.2</ele>
        <time>2011-08-07T08:29:24Z</time>
      </trkpt>
      <trkpt lat="44.099685782566667" lon="10.245166635140777">
        <ele>1158.4000000000001</ele>
        <time>2011-08-07T08:29:31Z</time>
      </trkpt>
      <trkpt lat="44.099717633798718" lon="10.245241736993194">
        <ele>1161.4000000000001</ele>
        <time>2011-08-07T08:29:41Z</time>
      </trkpt>
      <trkpt lat="44.099740264937282" lon="10.245285993441939">
        <ele>1163.4000000000001</ele>
        <time>2011-08-07T08:29:46Z</time>
      </trkpt>
      <trkpt lat="44.099774463102221" lon="10.245359418913722">
        <ele>1166.5999999999999</ele>
        <time>2011-08-07T08:29:54Z</time>
      </trkpt>
      <trkpt lat="44.099802458658814" lon="10.245443321764469">
        <ele>1168</ele>
        <time>2011-08-07T08:30:04Z</time>
      </trkpt>
      <trkpt lat="44.099826095625758" lon="10.24555136449635">
        <ele>1168</ele>
        <time>2011-08-07T08:30:16Z</time>
      </trkpt>
      <trkpt lat="44.099861634895205" lon="10.24560802616179">
        <ele>1168.5999999999999</ele>
        <time>2011-08-07T08:30:24Z</time>
      </trkpt>
      <trkpt lat="44.099923241883516" lon="10.245635602623224">
        <ele>1167.8</ele>
        <time>2011-08-07T08:30:34Z</time>
      </trkpt>
      <trkpt lat="44.09998057410121" lon="10.245654210448265">
        <ele>1167.8</ele>
        <time>2011-08-07T08:30:43Z</time>
      </trkpt>
      <trkpt lat="44.100041510537267" lon="10.245671309530735">
        <ele>1169</ele>
        <time>2011-08-07T08:30:52Z</time>
      </trkpt>
      <trkpt lat="44.100096579641104" lon="10.245711961761117">
        <ele>1172.4000000000001</ele>
        <time>2011-08-07T08:31:00Z</time>
      </trkpt>
      <trkpt lat="44.100141171365976" lon="10.245745070278645">
        <ele>1175.8</ele>
        <time>2011-08-07T08:31:07Z</time>
      </trkpt>
      <trkpt lat="44.10020143724978" lon="10.245790164917707">
        <ele>1180.2</ele>
        <time>2011-08-07T08:31:16Z</time>
      </trkpt>
      <trkpt lat="44.100253069773316" lon="10.245819333940744">
        <ele>1182.2</ele>
        <time>2011-08-07T08:31:23Z</time>
      </trkpt>
      <trkpt lat="44.100304786115885" lon="10.245847664773464">
        <ele>1184.2</ele>
        <time>2011-08-07T08:31:30Z</time>
      </trkpt>
      <trkpt lat="44.100354239344597" lon="10.245843473821878">
        <ele>1181.4000000000001</ele>
        <time>2011-08-07T08:31:37Z</time>
      </trkpt>
      <trkpt lat="44.100392879918218" lon="10.245822099968791">
        <ele>1178.2</ele>
        <time>2011-08-07T08:31:43Z</time>
      </trkpt>
      <trkpt lat="44.100444260984659" lon="10.245803324505687">
        <ele>1173</ele>
        <time>2011-08-07T08:31:51Z</time>
      </trkpt>
      <trkpt lat="44.100502515211701" lon="10.245777424424887">
        <ele>1169.8</ele>
        <time>2011-08-07T08:31:59Z</time>
      </trkpt>
      <trkpt lat="44.10057233646512" lon="10.245784968137741">
        <ele>1169.8</ele>
        <time>2011-08-07T08:32:09Z</time>
      </trkpt>
      <trkpt lat="44.10062707029283" lon="10.24576879106462">
        <ele>1169.4000000000001</ele>
        <time>2011-08-07T08:32:17Z</time>
      </trkpt>
      <trkpt lat="44.100679038092494" lon="10.245745740830898">
        <ele>1169.2</ele>
        <time>2011-08-07T08:32:25Z</time>
      </trkpt>
      <trkpt lat="44.100729497149587" lon="10.245678769424558">
        <ele>1159.4000000000001</ele>
        <time>2011-08-07T08:32:33Z</time>
      </trkpt>
      <trkpt lat="44.100768640637398" lon="10.245654964819551">
        <ele>1158</ele>
        <time>2011-08-07T08:32:39Z</time>
      </trkpt>
      <trkpt lat="44.100828403607011" lon="10.245629902929068">
        <ele>1164.2</ele>
        <time>2011-08-07T08:32:49Z</time>
      </trkpt>
      <trkpt lat="44.100875006988645" lon="10.245579024776816">
        <ele>1167</ele>
        <time>2011-08-07T08:33:14Z</time>
      </trkpt>
      <trkpt lat="44.100900320336223" lon="10.245558740571141">
        <ele>1170.2</ele>
        <time>2011-08-07T08:33:21Z</time>
      </trkpt>
      <trkpt lat="44.100959496572614" lon="10.245500234887004">
        <ele>1172.4000000000001</ele>
        <time>2011-08-07T08:33:32Z</time>
      </trkpt>
      <trkpt lat="44.100964106619358" lon="10.245457235723734">
        <ele>1170.5999999999999</ele>
        <time>2011-08-07T08:33:37Z</time>
      </trkpt>
      <trkpt lat="44.101010961458087" lon="10.245439801365137">
        <ele>1170</ele>
        <time>2011-08-07T08:33:44Z</time>
      </trkpt>
      <trkpt lat="44.101068126037717" lon="10.245423959568143">
        <ele>1167.5999999999999</ele>
        <time>2011-08-07T08:33:53Z</time>
      </trkpt>
      <trkpt lat="44.101141216233373" lon="10.245381882414222">
        <ele>1168.4000000000001</ele>
        <time>2011-08-07T08:34:04Z</time>
      </trkpt>
      <trkpt lat="44.101172061637044" lon="10.245281886309385">
        <ele>1165.5999999999999</ele>
        <time>2011-08-07T08:34:15Z</time>
      </trkpt>
      <trkpt lat="44.101165104657412" lon="10.245140818879008">
        <ele>1153.8</ele>
        <time>2011-08-07T08:34:24Z</time>
      </trkpt>
      <trkpt lat="44.101134175434709" lon="10.245027076452971">
        <ele>1144.4000000000001</ele>
        <time>2011-08-07T08:34:34Z</time>
      </trkpt>
      <trkpt lat="44.101229226216674" lon="10.245211310684681">
        <ele>1186.2</ele>
        <time>2011-08-07T08:35:19Z</time>
      </trkpt>
      <trkpt lat="44.101245235651731" lon="10.245200078934431">
        <ele>1187.5999999999999</ele>
        <time>2011-08-07T08:35:25Z</time>
      </trkpt>
      <trkpt lat="44.101253114640713" lon="10.245184237137437">
        <ele>1187.4000000000001</ele>
        <time>2011-08-07T08:35:30Z</time>
      </trkpt>
      <trkpt lat="44.101256215944886" lon="10.24523033760488">
        <ele>1194.4000000000001</ele>
        <time>2011-08-07T08:36:21Z</time>
      </trkpt>
      <trkpt lat="44.101237608119845" lon="10.245248358696699">
        <ele>1188.8</ele>
        <time>2011-08-07T08:37:06Z</time>
      </trkpt>
      <trkpt lat="44.10121682099998" lon="10.245245927944779">
        <ele>1184</ele>
        <time>2011-08-07T08:37:46Z</time>
      </trkpt>
      <trkpt lat="44.101190585643053" lon="10.24522346444428">
        <ele>1186.4000000000001</ele>
        <time>2011-08-07T08:38:03Z</time>
      </trkpt>
      <trkpt lat="44.101173067465425" lon="10.24520636536181">
        <ele>1186.5999999999999</ele>
        <time>2011-08-07T08:38:06Z</time>
      </trkpt>
      <trkpt lat="44.101168122142553" lon="10.245208377018571">
        <ele>1186.8</ele>
        <time>2011-08-07T08:38:07Z</time>
      </trkpt>
      <trkpt lat="44.101137025281787" lon="10.245186164975166">
        <ele>1187</ele>
        <time>2011-08-07T08:38:12Z</time>
      </trkpt>
      <trkpt lat="44.101165439933538" lon="10.245166970416903">
        <ele>1185.2</ele>
        <time>2011-08-07T08:38:20Z</time>
      </trkpt>
      <trkpt lat="44.101177761331201" lon="10.245151212438941">
        <ele>1188.8</ele>
        <time>2011-08-07T08:38:55Z</time>
      </trkpt>
      <trkpt lat="44.101190501824021" lon="10.245196809992194">
        <ele>1183.8</ele>
        <time>2011-08-07T08:43:46Z</time>
      </trkpt>
      <trkpt lat="44.101214641705155" lon="10.245240982621908">
        <ele>1189</ele>
        <time>2011-08-07T08:45:37Z</time>
      </trkpt>
      <trkpt lat="44.101231405511498" lon="10.245253136381507">
        <ele>1186.4000000000001</ele>
        <time>2011-08-07T08:45:42Z</time>
      </trkpt>
      <trkpt lat="44.101197626441717" lon="10.245224302634597">
        <ele>1184.4000000000001</ele>
        <time>2011-08-07T08:45:46Z</time>
      </trkpt>
      <trkpt lat="44.101169127970934" lon="10.245189601555467">
        <ele>1183.8</ele>
        <time>2011-08-07T08:45:51Z</time>
      </trkpt>
      <trkpt lat="44.101181365549564" lon="10.24519806727767">
        <ele>1184.8</ele>
        <time>2011-08-07T08:46:00Z</time>
      </trkpt>
      <trkpt lat="44.101215479895473" lon="10.245228661224246">
        <ele>1184.4000000000001</ele>
        <time>2011-08-07T08:46:07Z</time>
      </trkpt>
      <trkpt lat="44.101217659190297" lon="10.245224889367819">
        <ele>1185.4000000000001</ele>
        <time>2011-08-07T08:46:14Z</time>
      </trkpt>
      <trkpt lat="44.101236015558243" lon="10.245214914903045">
        <ele>1191.5999999999999</ele>
        <time>2011-08-07T08:46:50Z</time>
      </trkpt>
      <trkpt lat="44.101209864020348" lon="10.245181890204549">
        <ele>1190.4000000000001</ele>
        <time>2011-08-07T08:46:55Z</time>
      </trkpt>
      <trkpt lat="44.101206678897142" lon="10.245101507753134">
        <ele>1190.5999999999999</ele>
        <time>2011-08-07T08:47:04Z</time>
      </trkpt>
      <trkpt lat="44.101200727745891" lon="10.245055323466659">
        <ele>1190.2</ele>
        <time>2011-08-07T08:47:09Z</time>
      </trkpt>
      <trkpt lat="44.101237189024687" lon="10.245007211342454">
        <ele>1190.8</ele>
        <time>2011-08-07T08:47:18Z</time>
      </trkpt>
      <trkpt lat="44.101244900375605" lon="10.24495960213244">
        <ele>1191.8</ele>
        <time>2011-08-07T08:47:24Z</time>
      </trkpt>
      <trkpt lat="44.101275661960244" lon="10.244917776435614">
        <ele>1193.2</ele>
        <time>2011-08-07T08:47:32Z</time>
      </trkpt>
      <trkpt lat="44.101280272006989" lon="10.244888439774513">
        <ele>1194</ele>
        <time>2011-08-07T08:47:36Z</time>
      </trkpt>
      <trkpt lat="44.101295191794634" lon="10.244851307943463">
        <ele>1194.8</ele>
        <time>2011-08-07T08:47:42Z</time>
      </trkpt>
      <trkpt lat="44.101328635588288" lon="10.244783498346806">
        <ele>1197</ele>
        <time>2011-08-07T08:47:52Z</time>
      </trkpt>
      <trkpt lat="44.10133508965373" lon="10.244721304625273">
        <ele>1198.2</ele>
        <time>2011-08-07T08:47:59Z</time>
      </trkpt>
      <trkpt lat="44.101317236199975" lon="10.244696913287044">
        <ele>1199</ele>
        <time>2011-08-07T08:48:06Z</time>
      </trkpt>
      <trkpt lat="44.101338861510158" lon="10.244643520563841">
        <ele>1201.5999999999999</ele>
        <time>2011-08-07T08:48:46Z</time>
      </trkpt>
      <trkpt lat="44.101348668336868" lon="10.244591468945146">
        <ele>1202.5999999999999</ele>
        <time>2011-08-07T08:48:51Z</time>
      </trkpt>
      <trkpt lat="44.101375909522176" lon="10.244573699310422">
        <ele>1204.8</ele>
        <time>2011-08-07T08:48:56Z</time>
      </trkpt>
      <trkpt lat="44.101428212597966" lon="10.244515025988221">
        <ele>1207.2</ele>
        <time>2011-08-07T08:49:07Z</time>
      </trkpt>
      <trkpt lat="44.101452771574259" lon="10.244475631043315">
        <ele>1206</ele>
        <time>2011-08-07T08:49:14Z</time>
      </trkpt>
      <trkpt lat="44.1014748159796" lon="10.244436487555504">
        <ele>1205.2</ele>
        <time>2011-08-07T08:49:20Z</time>
      </trkpt>
      <trkpt lat="44.101507170125842" lon="10.244396002963185">
        <ele>1206.2</ele>
        <time>2011-08-07T08:49:27Z</time>
      </trkpt>
      <trkpt lat="44.101541116833687" lon="10.244327187538147">
        <ele>1207.8</ele>
        <time>2011-08-07T08:49:36Z</time>
      </trkpt>
      <trkpt lat="44.101551091298461" lon="10.244301036000252">
        <ele>1206.8</ele>
        <time>2011-08-07T08:49:44Z</time>
      </trkpt>
      <trkpt lat="44.101579170674086" lon="10.244243703782558">
        <ele>1207.2</ele>
        <time>2011-08-07T08:50:31Z</time>
      </trkpt>
      <trkpt lat="44.101635329425335" lon="10.244173379614949">
        <ele>1210.2</ele>
        <time>2011-08-07T08:50:41Z</time>
      </trkpt>
      <trkpt lat="44.101631138473749" lon="10.244093416258693">
        <ele>1212</ele>
        <time>2011-08-07T08:50:49Z</time>
      </trkpt>
      <trkpt lat="44.101612530648708" lon="10.244081681594253">
        <ele>1212.4000000000001</ele>
        <time>2011-08-07T08:50:51Z</time>
      </trkpt>
      <trkpt lat="44.101582691073418" lon="10.244088638573885">
        <ele>1212.5999999999999</ele>
        <time>2011-08-07T08:50:55Z</time>
      </trkpt>
      <trkpt lat="44.101519575342536" lon="10.244135912507772">
        <ele>1214.5999999999999</ele>
        <time>2011-08-07T08:51:05Z</time>
      </trkpt>
      <trkpt lat="44.101460063830018" lon="10.244157537817955">
        <ele>1213.2</ele>
        <time>2011-08-07T08:51:16Z</time>
      </trkpt>
      <trkpt lat="44.101424440741539" lon="10.244165835902095">
        <ele>1213.4000000000001</ele>
        <time>2011-08-07T08:51:23Z</time>
      </trkpt>
      <trkpt lat="44.101386889815331" lon="10.244181510061026">
        <ele>1213.2</ele>
        <time>2011-08-07T08:51:29Z</time>
      </trkpt>
      <trkpt lat="44.101333161816001" lon="10.244212858378887">
        <ele>1213.8</ele>
        <time>2011-08-07T08:51:38Z</time>
      </trkpt>
      <trkpt lat="44.101296113803983" lon="10.244234232231975">
        <ele>1214</ele>
        <time>2011-08-07T08:51:45Z</time>
      </trkpt>
      <trkpt lat="44.101256299763918" lon="10.244263736531138">
        <ele>1215.5999999999999</ele>
        <time>2011-08-07T08:51:53Z</time>
      </trkpt>
      <trkpt lat="44.101235177367926" lon="10.244289804250002">
        <ele>1218.8</ele>
        <time>2011-08-07T08:51:58Z</time>
      </trkpt>
      <trkpt lat="44.101179940626025" lon="10.244334060698748">
        <ele>1224.5999999999999</ele>
        <time>2011-08-07T08:52:08Z</time>
      </trkpt>
      <trkpt lat="44.101133588701487" lon="10.244323834776878">
        <ele>1220</ele>
        <time>2011-08-07T08:52:14Z</time>
      </trkpt>
      <trkpt lat="44.101104084402323" lon="10.244348729029298">
        <ele>1224.5999999999999</ele>
        <time>2011-08-07T08:52:20Z</time>
      </trkpt>
      <trkpt lat="44.101042058318853" lon="10.244354261085391">
        <ele>1221.2</ele>
        <time>2011-08-07T08:52:29Z</time>
      </trkpt>
      <trkpt lat="44.100984139367938" lon="10.24438351392746">
        <ele>1222</ele>
        <time>2011-08-07T08:52:38Z</time>
      </trkpt>
      <trkpt lat="44.100933261215687" lon="10.244400780647993">
        <ele>1222</ele>
        <time>2011-08-07T08:52:47Z</time>
      </trkpt>
      <trkpt lat="44.100884897634387" lon="10.244422573596239">
        <ele>1225.8</ele>
        <time>2011-08-07T08:52:56Z</time>
      </trkpt>
      <trkpt lat="44.100834690034389" lon="10.2444504853338">
        <ele>1229.2</ele>
        <time>2011-08-07T08:53:06Z</time>
      </trkpt>
      <trkpt lat="44.100802335888147" lon="10.244483007118106">
        <ele>1237.5999999999999</ele>
        <time>2011-08-07T08:53:14Z</time>
      </trkpt>
      <trkpt lat="44.100808203220367" lon="10.244487365707755">
        <ele>1243</ele>
        <time>2011-08-07T08:53:24Z</time>
      </trkpt>
      <trkpt lat="44.100803174078465" lon="10.244456101208925">
        <ele>1247.8</ele>
        <time>2011-08-07T08:53:48Z</time>
      </trkpt>
      <trkpt lat="44.100799737498164" lon="10.244393404573202">
        <ele>1251</ele>
        <time>2011-08-07T08:53:56Z</time>
      </trkpt>
      <trkpt lat="44.100844664499164" lon="10.244368426501751">
        <ele>1256</ele>
        <time>2011-08-07T08:54:03Z</time>
      </trkpt>
      <trkpt lat="44.100868720561266" lon="10.244329869747162">
        <ele>1253.4000000000001</ele>
        <time>2011-08-07T08:54:11Z</time>
      </trkpt>
      <trkpt lat="44.100894536823034" lon="10.244242278859019">
        <ele>1239.2</ele>
        <time>2011-08-07T08:54:56Z</time>
      </trkpt>
      <trkpt lat="44.100931836292148" lon="10.244205901399255">
        <ele>1240.5999999999999</ele>
        <time>2011-08-07T08:55:03Z</time>
      </trkpt>
      <trkpt lat="44.100965112447739" lon="10.244165584445">
        <ele>1242.8</ele>
        <time>2011-08-07T08:55:10Z</time>
      </trkpt>
      <trkpt lat="44.100964860990644" lon="10.244129206985235">
        <ele>1246.2</ele>
        <time>2011-08-07T08:55:17Z</time>
      </trkpt>
      <trkpt lat="44.100902918726206" lon="10.244138678535819">
        <ele>1248</ele>
        <time>2011-08-07T08:55:25Z</time>
      </trkpt>
      <trkpt lat="44.100848939269781" lon="10.244160890579224">
        <ele>1249.5999999999999</ele>
        <time>2011-08-07T08:55:33Z</time>
      </trkpt>
      <trkpt lat="44.10080049186945" lon="10.244165835902095">
        <ele>1248.8</ele>
        <time>2011-08-07T08:55:40Z</time>
      </trkpt>
      <trkpt lat="44.100768808275461" lon="10.244173714891076">
        <ele>1247.2</ele>
        <time>2011-08-07T08:55:44Z</time>
      </trkpt>
      <trkpt lat="44.100702591240406" lon="10.244211265817285">
        <ele>1247.5999999999999</ele>
        <time>2011-08-07T08:55:53Z</time>
      </trkpt>
      <trkpt lat="44.10066126845777" lon="10.24426868185401">
        <ele>1253.2</ele>
        <time>2011-08-07T08:56:02Z</time>
      </trkpt>
      <trkpt lat="44.100637380033731" lon="10.244229538366199">
        <ele>1253.8</ele>
        <time>2011-08-07T08:56:08Z</time>
      </trkpt>
      <trkpt lat="44.100664118304849" lon="10.244177989661694">
        <ele>1256.2</ele>
        <time>2011-08-07T08:56:15Z</time>
      </trkpt>
      <trkpt lat="44.100693203508854" lon="10.244103977456689">
        <ele>1253.4000000000001</ele>
        <time>2011-08-07T08:56:24Z</time>
      </trkpt>
      <trkpt lat="44.100693706423044" lon="10.244099786505103">
        <ele>1250.5999999999999</ele>
        <time>2011-08-07T08:56:36Z</time>
      </trkpt>
      <trkpt lat="44.10073016770184" lon="10.244057206436992">
        <ele>1247</ele>
        <time>2011-08-07T08:57:14Z</time>
      </trkpt>
      <trkpt lat="44.100764114409685" lon="10.244017979130149">
        <ele>1248.2</ele>
        <time>2011-08-07T08:57:20Z</time>
      </trkpt>
      <trkpt lat="44.10081566311419" lon="10.243957210332155">
        <ele>1251.5999999999999</ele>
        <time>2011-08-07T08:57:29Z</time>
      </trkpt>
      <trkpt lat="44.100900823250413" lon="10.243952097371221">
        <ele>1263.4000000000001</ele>
        <time>2011-08-07T08:57:40Z</time>
      </trkpt>
      <trkpt lat="44.10090752877295" lon="10.243947487324476">
        <ele>1264.2</ele>
        <time>2011-08-07T08:57:41Z</time>
      </trkpt>
      <trkpt lat="44.100938709452748" lon="10.24393985979259">
        <ele>1269.5999999999999</ele>
        <time>2011-08-07T08:57:45Z</time>
      </trkpt>
      <trkpt lat="44.10097592510283" lon="10.243930388242006">
        <ele>1274.2</ele>
        <time>2011-08-07T08:57:50Z</time>
      </trkpt>
      <trkpt lat="44.101021019741893" lon="10.2439168933779">
        <ele>1279.2</ele>
        <time>2011-08-07T08:57:56Z</time>
      </trkpt>
      <trkpt lat="44.10106142051518" lon="10.24389686062932">
        <ele>1282.8</ele>
        <time>2011-08-07T08:58:03Z</time>
      </trkpt>
      <trkpt lat="44.101080615073442" lon="10.243864338845015">
        <ele>1281.4000000000001</ele>
        <time>2011-08-07T08:58:08Z</time>
      </trkpt>
      <trkpt lat="44.10110148601234" lon="10.243819914758205">
        <ele>1278.2</ele>
        <time>2011-08-07T08:58:13Z</time>
      </trkpt>
      <trkpt lat="44.101127302274108" lon="10.243800133466721">
        <ele>1280.5999999999999</ele>
        <time>2011-08-07T08:58:18Z</time>
      </trkpt>
      <trkpt lat="44.101126883178949" lon="10.243754032999277">
        <ele>1270.4000000000001</ele>
        <time>2011-08-07T08:58:27Z</time>
      </trkpt>
      <trkpt lat="44.101224113255739" lon="10.243723439052701">
        <ele>1300.2</ele>
        <time>2011-08-07T09:00:18Z</time>
      </trkpt>
      <trkpt lat="44.101223861798644" lon="10.243692258372903">
        <ele>1290.8</ele>
        <time>2011-08-07T09:00:22Z</time>
      </trkpt>
      <trkpt lat="44.101233081892133" lon="10.243644816800952">
        <ele>1281.4000000000001</ele>
        <time>2011-08-07T09:00:29Z</time>
      </trkpt>
      <trkpt lat="44.101240793243051" lon="10.243617324158549">
        <ele>1277.8</ele>
        <time>2011-08-07T09:00:34Z</time>
      </trkpt>
      <trkpt lat="44.101267028599977" lon="10.243568373844028">
        <ele>1274.8</ele>
        <time>2011-08-07T09:00:43Z</time>
      </trkpt>
      <trkpt lat="44.101310865953565" lon="10.24350693449378">
        <ele>1274.4000000000001</ele>
        <time>2011-08-07T09:00:54Z</time>
      </trkpt>
      <trkpt lat="44.101340537890792" lon="10.243451530113816">
        <ele>1279.5999999999999</ele>
        <time>2011-08-07T09:01:04Z</time>
      </trkpt>
      <trkpt lat="44.101364258676767" lon="10.243405597284436">
        <ele>1281</ele>
        <time>2011-08-07T09:01:11Z</time>
      </trkpt>
      <trkpt lat="44.101408012211323" lon="10.243352791294456">
        <ele>1282.4000000000001</ele>
        <time>2011-08-07T09:01:20Z</time>
      </trkpt>
      <trkpt lat="44.101438019424677" lon="10.243297973647714">
        <ele>1281.4000000000001</ele>
        <time>2011-08-07T09:01:29Z</time>
      </trkpt>
      <trkpt lat="44.101458471268415" lon="10.243266709148884">
        <ele>1281.2</ele>
        <time>2011-08-07T09:01:34Z</time>
      </trkpt>
      <trkpt lat="44.101432822644711" lon="10.24316587485373">
        <ele>1281.5999999999999</ele>
        <time>2011-08-07T09:01:45Z</time>
      </trkpt>
      <trkpt lat="44.101398289203644" lon="10.243202922865748">
        <ele>1282.8</ele>
        <time>2011-08-07T09:01:53Z</time>
      </trkpt>
      <trkpt lat="44.101374065503478" lon="10.243224464356899">
        <ele>1286.2</ele>
        <time>2011-08-07T09:02:00Z</time>
      </trkpt>
      <trkpt lat="44.101358558982611" lon="10.2432572375983">
        <ele>1291.4000000000001</ele>
        <time>2011-08-07T09:02:05Z</time>
      </trkpt>
      <trkpt lat="44.101320505142212" lon="10.24328607134521">
        <ele>1293.5999999999999</ele>
        <time>2011-08-07T09:02:13Z</time>
      </trkpt>
      <trkpt lat="44.101276332512498" lon="10.24328364059329">
        <ele>1290.5999999999999</ele>
        <time>2011-08-07T09:02:21Z</time>
      </trkpt>
      <trkpt lat="44.101250264793634" lon="10.243287663906813">
        <ele>1289.2</ele>
        <time>2011-08-07T09:02:25Z</time>
      </trkpt>
      <trkpt lat="44.1012002248317" lon="10.243298476561904">
        <ele>1288.8</ele>
        <time>2011-08-07T09:02:33Z</time>
      </trkpt>
      <trkpt lat="44.101188071072102" lon="10.243252040818334">
        <ele>1288</ele>
        <time>2011-08-07T09:02:39Z</time>
      </trkpt>
      <trkpt lat="44.101211372762918" lon="10.243212897330523">
        <ele>1288.4000000000001</ele>
        <time>2011-08-07T09:02:46Z</time>
      </trkpt>
      <trkpt lat="44.101243391633034" lon="10.243169311434031">
        <ele>1289.2</ele>
        <time>2011-08-07T09:02:54Z</time>
      </trkpt>
      <trkpt lat="44.101267112419009" lon="10.243139136582613">
        <ele>1290</ele>
        <time>2011-08-07T09:02:59Z</time>
      </trkpt>
      <trkpt lat="44.101314134895802" lon="10.243083983659744">
        <ele>1292</ele>
        <time>2011-08-07T09:03:08Z</time>
      </trkpt>
      <trkpt lat="44.10134632140398" lon="10.2430500369519">
        <ele>1293.5999999999999</ele>
        <time>2011-08-07T09:03:14Z</time>
      </trkpt>
      <trkpt lat="44.101392505690455" lon="10.243008714169264">
        <ele>1296.5999999999999</ele>
        <time>2011-08-07T09:03:22Z</time>
      </trkpt>
      <trkpt lat="44.101426284760237" lon="10.242999158799648">
        <ele>1301.8</ele>
        <time>2011-08-07T09:03:27Z</time>
      </trkpt>
      <trkpt lat="44.101461069658399" lon="10.24298558011651">
        <ele>1306.5999999999999</ele>
        <time>2011-08-07T09:03:32Z</time>
      </trkpt>
      <trkpt lat="44.101435085758567" lon="10.242894217371941">
        <ele>1283.5999999999999</ele>
        <time>2011-08-07T09:04:37Z</time>
      </trkpt>
      <trkpt lat="44.101483700796962" lon="10.242882231250405">
        <ele>1293</ele>
        <time>2011-08-07T09:04:44Z</time>
      </trkpt>
      <trkpt lat="44.101524101570249" lon="10.242873765528202">
        <ele>1299.2</ele>
        <time>2011-08-07T09:04:51Z</time>
      </trkpt>
      <trkpt lat="44.101574309170246" lon="10.242861276492476">
        <ele>1303.5999999999999</ele>
        <time>2011-08-07T09:05:00Z</time>
      </trkpt>
      <trkpt lat="44.101612279191613" lon="10.242800423875451">
        <ele>1298.8</ele>
        <time>2011-08-07T09:05:06Z</time>
      </trkpt>
      <trkpt lat="44.101643962785602" lon="10.242780307307839">
        <ele>1300</ele>
        <time>2011-08-07T09:05:12Z</time>
      </trkpt>
      <trkpt lat="44.101691823452711" lon="10.242725070565939">
        <ele>1297.5999999999999</ele>
        <time>2011-08-07T09:05:22Z</time>
      </trkpt>
      <trkpt lat="44.101725937798619" lon="10.242711659520864">
        <ele>1300</ele>
        <time>2011-08-07T09:05:28Z</time>
      </trkpt>
      <trkpt lat="44.101762734353542" lon="10.242689279839396">
        <ele>1301.4000000000001</ele>
        <time>2011-08-07T09:05:34Z</time>
      </trkpt>
      <trkpt lat="44.101844122633338" lon="10.242703864350915">
        <ele>1315</ele>
        <time>2011-08-07T09:05:46Z</time>
      </trkpt>
      <trkpt lat="44.101876141503453" lon="10.242629265412688">
        <ele>1308.4000000000001</ele>
        <time>2011-08-07T09:05:55Z</time>
      </trkpt>
      <trkpt lat="44.101872285827994" lon="10.242607221007347">
        <ele>1304.2</ele>
        <time>2011-08-07T09:06:07Z</time>
      </trkpt>
      <trkpt lat="44.101907322183251" lon="10.242564724758267">
        <ele>1302</ele>
        <time>2011-08-07T09:06:19Z</time>
      </trkpt>
      <trkpt lat="44.101960128173232" lon="10.242529604583979">
        <ele>1304.2</ele>
        <time>2011-08-07T09:06:28Z</time>
      </trkpt>
      <trkpt lat="44.101995667442679" lon="10.242480570450425">
        <ele>1306.5999999999999</ele>
        <time>2011-08-07T09:06:35Z</time>
      </trkpt>
      <trkpt lat="44.102011760696769" lon="10.242420388385653">
        <ele>1308.4000000000001</ele>
        <time>2011-08-07T09:06:42Z</time>
      </trkpt>
      <trkpt lat="44.102014862000942" lon="10.242373198270798">
        <ele>1309.5999999999999</ele>
        <time>2011-08-07T09:06:48Z</time>
      </trkpt>
      <trkpt lat="44.102009329944849" lon="10.24232198484242">
        <ele>1311.2</ele>
        <time>2011-08-07T09:06:54Z</time>
      </trkpt>
      <trkpt lat="44.102007234469056" lon="10.242321062833071">
        <ele>1311.4000000000001</ele>
        <time>2011-08-07T09:07:05Z</time>
      </trkpt>
      <trkpt lat="44.102009832859039" lon="10.242261970415711">
        <ele>1308.8</ele>
        <time>2011-08-07T09:07:41Z</time>
      </trkpt>
      <trkpt lat="44.102023495361209" lon="10.242221402004361">
        <ele>1310.2</ele>
        <time>2011-08-07T09:07:47Z</time>
      </trkpt>
      <trkpt lat="44.102045958861709" lon="10.242193909361959">
        <ele>1314.8</ele>
        <time>2011-08-07T09:07:54Z</time>
      </trkpt>
      <trkpt lat="44.102070182561874" lon="10.24215342476964">
        <ele>1318.5999999999999</ele>
        <time>2011-08-07T09:08:02Z</time>
      </trkpt>
      <trkpt lat="44.102107984945178" lon="10.242109838873148">
        <ele>1321.8</ele>
        <time>2011-08-07T09:08:10Z</time>
      </trkpt>
      <trkpt lat="44.102154839783907" lon="10.242053093388677">
        <ele>1321.8</ele>
        <time>2011-08-07T09:08:18Z</time>
      </trkpt>
      <trkpt lat="44.102174285799265" lon="10.242021661251783">
        <ele>1322</ele>
        <time>2011-08-07T09:08:22Z</time>
      </trkpt>
      <trkpt lat="44.10219507291913" lon="10.241976985707879">
        <ele>1322</ele>
        <time>2011-08-07T09:08:28Z</time>
      </trkpt>
      <trkpt lat="44.102194821462035" lon="10.241930382326245">
        <ele>1322.5999999999999</ele>
        <time>2011-08-07T09:08:33Z</time>
      </trkpt>
      <trkpt lat="44.102170765399933" lon="10.241890903562307">
        <ele>1323.2</ele>
        <time>2011-08-07T09:08:39Z</time>
      </trkpt>
      <trkpt lat="44.102135729044676" lon="10.241871541365981">
        <ele>1324.4000000000001</ele>
        <time>2011-08-07T09:08:44Z</time>
      </trkpt>
      <trkpt lat="44.102104632183909" lon="10.241865338757634">
        <ele>1324.8</ele>
        <time>2011-08-07T09:08:50Z</time>
      </trkpt>
      <trkpt lat="44.102064399048686" lon="10.241862237453461">
        <ele>1324.5999999999999</ele>
        <time>2011-08-07T09:08:58Z</time>
      </trkpt>
      <trkpt lat="44.102036990225315" lon="10.241847904399037">
        <ele>1323.4000000000001</ele>
        <time>2011-08-07T09:09:06Z</time>
      </trkpt>
      <trkpt lat="44.101963397115469" lon="10.241947565227747">
        <ele>1335.2</ele>
        <time>2011-08-07T09:10:09Z</time>
      </trkpt>
      <trkpt lat="44.101937413215637" lon="10.241929208859801">
        <ele>1332.8</ele>
        <time>2011-08-07T09:10:13Z</time>
      </trkpt>
      <trkpt lat="44.101915201172233" lon="10.241918060928583">
        <ele>1333.5999999999999</ele>
        <time>2011-08-07T09:10:17Z</time>
      </trkpt>
      <trkpt lat="44.101895838975906" lon="10.24193306453526">
        <ele>1338</ele>
        <time>2011-08-07T09:10:23Z</time>
      </trkpt>
      <trkpt lat="44.10185937769711" lon="10.241962065920234">
        <ele>1344.2</ele>
        <time>2011-08-07T09:10:30Z</time>
      </trkpt>
      <trkpt lat="44.101822664961219" lon="10.24197313003242">
        <ele>1347.5999999999999</ele>
        <time>2011-08-07T09:10:36Z</time>
      </trkpt>
      <trkpt lat="44.101797100156546" lon="10.241987714543939">
        <ele>1350.2</ele>
        <time>2011-08-07T09:10:40Z</time>
      </trkpt>
      <trkpt lat="44.101768434047699" lon="10.242002969607711">
        <ele>1352</ele>
        <time>2011-08-07T09:10:45Z</time>
      </trkpt>
      <trkpt lat="44.101726524531841" lon="10.241963658481836">
        <ele>1343.8</ele>
        <time>2011-08-07T09:10:50Z</time>
      </trkpt>
      <trkpt lat="44.101720238104463" lon="10.241956701502204">
        <ele>1343</ele>
        <time>2011-08-07T09:10:51Z</time>
      </trkpt>
      <trkpt lat="44.101685788482428" lon="10.241947062313557">
        <ele>1342</ele>
        <time>2011-08-07T09:10:56Z</time>
      </trkpt>
      <trkpt lat="44.101668437942863" lon="10.241939937695861">
        <ele>1340</ele>
        <time>2011-08-07T09:10:58Z</time>
      </trkpt>
      <trkpt lat="44.101629462093115" lon="10.242007412016392">
        <ele>1350.4000000000001</ele>
        <time>2011-08-07T09:11:06Z</time>
      </trkpt>
      <trkpt lat="44.10157741047442" lon="10.24201026186347">
        <ele>1353</ele>
        <time>2011-08-07T09:11:14Z</time>
      </trkpt>
      <trkpt lat="44.101546565070748" lon="10.242008166387677">
        <ele>1351</ele>
        <time>2011-08-07T09:11:19Z</time>
      </trkpt>
      <trkpt lat="44.101514127105474" lon="10.242008334025741">
        <ele>1349.8</ele>
        <time>2011-08-07T09:11:24Z</time>
      </trkpt>
      <trkpt lat="44.101468781009316" lon="10.242033479735255">
        <ele>1351.5999999999999</ele>
        <time>2011-08-07T09:11:31Z</time>
      </trkpt>
      <trkpt lat="44.101427877321839" lon="10.242041274905205">
        <ele>1351.8</ele>
        <time>2011-08-07T09:11:37Z</time>
      </trkpt>
      <trkpt lat="44.101354200392962" lon="10.242010429501534">
        <ele>1346</ele>
        <time>2011-08-07T09:11:47Z</time>
      </trkpt>
      <trkpt lat="44.10129158757627" lon="10.242002634331584">
        <ele>1342.5999999999999</ele>
        <time>2011-08-07T09:11:56Z</time>
      </trkpt>
      <trkpt lat="44.101240960881114" lon="10.24202736094594">
        <ele>1344.8</ele>
        <time>2011-08-07T09:12:04Z</time>
      </trkpt>
      <trkpt lat="44.101204415783286" lon="10.242051081731915">
        <ele>1347</ele>
        <time>2011-08-07T09:12:11Z</time>
      </trkpt>
      <trkpt lat="44.101160829886794" lon="10.242067761719227">
        <ele>1346.4000000000001</ele>
        <time>2011-08-07T09:12:18Z</time>
      </trkpt>
      <trkpt lat="44.101131828501821" lon="10.242094835266471">
        <ele>1344.8</ele>
        <time>2011-08-07T09:12:24Z</time>
      </trkpt>
      <trkpt lat="44.101105341687799" lon="10.242142863571644">
        <ele>1348.5999999999999</ele>
        <time>2011-08-07T09:12:29Z</time>
      </trkpt>
      <trkpt lat="44.101071814075112" lon="10.242162896320224">
        <ele>1350</ele>
        <time>2011-08-07T09:12:34Z</time>
      </trkpt>
      <trkpt lat="44.101038035005331" lon="10.242174379527569">
        <ele>1349.5999999999999</ele>
        <time>2011-08-07T09:12:40Z</time>
      </trkpt>
      <trkpt lat="44.100995538756251" lon="10.242190388962626">
        <ele>1345.5999999999999</ele>
        <time>2011-08-07T09:12:48Z</time>
      </trkpt>
      <trkpt lat="44.100963938981295" lon="10.242209918797016">
        <ele>1344.4000000000001</ele>
        <time>2011-08-07T09:12:54Z</time>
      </trkpt>
      <trkpt lat="44.100932590663433" lon="10.242195501923561">
        <ele>1346.2</ele>
        <time>2011-08-07T09:13:01Z</time>
      </trkpt>
      <trkpt lat="44.100934183225036" lon="10.242143617942929">
        <ele>1346</ele>
        <time>2011-08-07T09:13:07Z</time>
      </trkpt>
      <trkpt lat="44.100961508229375" lon="10.242098271846771">
        <ele>1344.4000000000001</ele>
        <time>2011-08-07T09:13:13Z</time>
      </trkpt>
      <trkpt lat="44.100980702787638" lon="10.24206206202507">
        <ele>1345.2</ele>
        <time>2011-08-07T09:13:19Z</time>
      </trkpt>
      <trkpt lat="44.100995538756251" lon="10.2420190628618">
        <ele>1345.8</ele>
        <time>2011-08-07T09:13:25Z</time>
      </trkpt>
      <trkpt lat="44.101021271198988" lon="10.241985702887177">
        <ele>1347.4000000000001</ele>
        <time>2011-08-07T09:13:32Z</time>
      </trkpt>
      <trkpt lat="44.101043902337551" lon="10.241946140304208">
        <ele>1342.8</ele>
        <time>2011-08-07T09:14:15Z</time>
      </trkpt>
      <trkpt lat="44.101063767448068" lon="10.241914037615061">
        <ele>1344.2</ele>
        <time>2011-08-07T09:14:20Z</time>
      </trkpt>
      <trkpt lat="44.10109369084239" lon="10.241834660992026">
        <ele>1344.8</ele>
        <time>2011-08-07T09:14:29Z</time>
      </trkpt>
      <trkpt lat="44.101107520982623" lon="10.241774898022413">
        <ele>1346.4000000000001</ele>
        <time>2011-08-07T09:14:36Z</time>
      </trkpt>
      <trkpt lat="44.101125877350569" lon="10.241732569411397">
        <ele>1348.8</ele>
        <time>2011-08-07T09:14:42Z</time>
      </trkpt>
      <trkpt lat="44.101162925362587" lon="10.241678087040782">
        <ele>1353.5999999999999</ele>
        <time>2011-08-07T09:14:51Z</time>
      </trkpt>
      <trkpt lat="44.101191340014338" lon="10.241617485880852">
        <ele>1354.5999999999999</ele>
        <time>2011-08-07T09:14:59Z</time>
      </trkpt>
      <trkpt lat="44.101263172924519" lon="10.241518663242459">
        <ele>1361.2</ele>
        <time>2011-08-07T09:15:13Z</time>
      </trkpt>
      <trkpt lat="44.101295862346888" lon="10.241485387086868">
        <ele>1363.4000000000001</ele>
        <time>2011-08-07T09:15:19Z</time>
      </trkpt>
      <trkpt lat="44.10129938274622" lon="10.2413818705827">
        <ele>1350.4000000000001</ele>
        <time>2011-08-07T09:17:16Z</time>
      </trkpt>
      <trkpt lat="44.101299718022346" lon="10.24137114174664">
        <ele>1350</ele>
        <time>2011-08-07T09:17:17Z</time>
      </trkpt>
      <trkpt lat="44.101342465728521" lon="10.241319593042135">
        <ele>1353.4000000000001</ele>
        <time>2011-08-07T09:17:23Z</time>
      </trkpt>
      <trkpt lat="44.101366270333529" lon="10.241291429847479">
        <ele>1358</ele>
        <time>2011-08-07T09:17:28Z</time>
      </trkpt>
      <trkpt lat="44.101392421871424" lon="10.241225464269519">
        <ele>1358.2</ele>
        <time>2011-08-07T09:17:35Z</time>
      </trkpt>
      <trkpt lat="44.101408934220672" lon="10.241176597774029">
        <ele>1358.8</ele>
        <time>2011-08-07T09:17:40Z</time>
      </trkpt>
      <trkpt lat="44.101462662220001" lon="10.241113062947989">
        <ele>1360.5999999999999</ele>
        <time>2011-08-07T09:17:49Z</time>
      </trkpt>
      <trkpt lat="44.101515216752887" lon="10.24101298302412">
        <ele>1364.4000000000001</ele>
        <time>2011-08-07T09:18:01Z</time>
      </trkpt>
      <trkpt lat="44.101542122662067" lon="10.240929834544659">
        <ele>1365</ele>
        <time>2011-08-07T09:18:11Z</time>
      </trkpt>
      <trkpt lat="44.101575901731849" lon="10.24085758253932">
        <ele>1365</ele>
        <time>2011-08-07T09:18:20Z</time>
      </trkpt>
      <trkpt lat="44.101601969450712" lon="10.24083411321044">
        <ele>1366</ele>
        <time>2011-08-07T09:18:25Z</time>
      </trkpt>
      <trkpt lat="44.10163608379662" lon="10.240786923095584">
        <ele>1369.8</ele>
        <time>2011-08-07T09:18:34Z</time>
      </trkpt>
      <trkpt lat="44.101648237556219" lon="10.240747611969709">
        <ele>1370.4000000000001</ele>
        <time>2011-08-07T09:18:39Z</time>
      </trkpt>
      <trkpt lat="44.101675059646368" lon="10.240678461268544">
        <ele>1371.8</ele>
        <time>2011-08-07T09:18:47Z</time>
      </trkpt>
      <trkpt lat="44.101693164557219" lon="10.240598665550351">
        <ele>1372.8</ele>
        <time>2011-08-07T09:18:56Z</time>
      </trkpt>
      <trkpt lat="44.101711940020323" lon="10.24055021815002">
        <ele>1373.2</ele>
        <time>2011-08-07T09:19:03Z</time>
      </trkpt>
      <trkpt lat="44.101720992475748" lon="10.240498166531324">
        <ele>1374.4000000000001</ele>
        <time>2011-08-07T09:19:09Z</time>
      </trkpt>
      <trkpt lat="44.101751837879419" lon="10.240445360541344">
        <ele>1376.5999999999999</ele>
        <time>2011-08-07T09:19:15Z</time>
      </trkpt>
      <trkpt lat="44.101773463189602" lon="10.24036212824285">
        <ele>1378.4000000000001</ele>
        <time>2011-08-07T09:19:24Z</time>
      </trkpt>
      <trkpt lat="44.101791065186262" lon="10.240311920642853">
        <ele>1378.2</ele>
        <time>2011-08-07T09:19:30Z</time>
      </trkpt>
      <trkpt lat="44.101799698546529" lon="10.240265065804124">
        <ele>1378.2</ele>
        <time>2011-08-07T09:19:35Z</time>
      </trkpt>
      <trkpt lat="44.101819815114141" lon="10.240189963951707">
        <ele>1379.2</ele>
        <time>2011-08-07T09:19:44Z</time>
      </trkpt>
      <trkpt lat="44.101846134290099" lon="10.240103714168072">
        <ele>1380.2</ele>
        <time>2011-08-07T09:19:54Z</time>
      </trkpt>
      <trkpt lat="44.101888127624989" lon="10.240013776347041">
        <ele>1381.2</ele>
        <time>2011-08-07T09:20:06Z</time>
      </trkpt>
      <trkpt lat="44.101906316354871" lon="10.239973794668913">
        <ele>1380.8</ele>
        <time>2011-08-07T09:20:12Z</time>
      </trkpt>
      <trkpt lat="44.101918637752533" lon="10.239910176023841">
        <ele>1380.4000000000001</ele>
        <time>2011-08-07T09:20:18Z</time>
      </trkpt>
      <trkpt lat="44.101949818432331" lon="10.239849993959069">
        <ele>1380.2</ele>
        <time>2011-08-07T09:20:26Z</time>
      </trkpt>
      <trkpt lat="44.101969432085752" lon="10.23981093429029">
        <ele>1380.8</ele>
        <time>2011-08-07T09:20:31Z</time>
      </trkpt>
      <trkpt lat="44.102014023810625" lon="10.239747231826186">
        <ele>1381.5999999999999</ele>
        <time>2011-08-07T09:20:42Z</time>
      </trkpt>
      <trkpt lat="44.102056436240673" lon="10.239689564332366">
        <ele>1382.4000000000001</ele>
        <time>2011-08-07T09:20:50Z</time>
      </trkpt>
      <trkpt lat="44.10210907459259" lon="10.239621922373772">
        <ele>1384.2</ele>
        <time>2011-08-07T09:21:00Z</time>
      </trkpt>
      <trkpt lat="44.102160204201937" lon="10.239550927653909">
        <ele>1385</ele>
        <time>2011-08-07T09:21:11Z</time>
      </trkpt>
      <trkpt lat="44.102206388488412" lon="10.239477418363094">
        <ele>1386.2</ele>
        <time>2011-08-07T09:21:21Z</time>
      </trkpt>
      <trkpt lat="44.102231785655022" lon="10.23944640532136">
        <ele>1386.8</ele>
        <time>2011-08-07T09:21:27Z</time>
      </trkpt>
      <trkpt lat="44.102267492562532" lon="10.239370381459594">
        <ele>1388</ele>
        <time>2011-08-07T09:21:37Z</time>
      </trkpt>
      <trkpt lat="44.102291716262698" lon="10.23932721465826">
        <ele>1387.5999999999999</ele>
        <time>2011-08-07T09:21:42Z</time>
      </trkpt>
      <trkpt lat="44.102329770103097" lon="10.239262087270617">
        <ele>1388</ele>
        <time>2011-08-07T09:21:50Z</time>
      </trkpt>
      <trkpt lat="44.102354664355516" lon="10.239211125299335">
        <ele>1388.2</ele>
        <time>2011-08-07T09:21:56Z</time>
      </trkpt>
      <trkpt lat="44.102387772873044" lon="10.2391610853374">
        <ele>1386.2</ele>
        <time>2011-08-07T09:22:02Z</time>
      </trkpt>
      <trkpt lat="44.102410739287734" lon="10.239107022061944">
        <ele>1384.5999999999999</ele>
        <time>2011-08-07T09:22:06Z</time>
      </trkpt>
      <trkpt lat="44.102452984079719" lon="10.239067291840911">
        <ele>1386</ele>
        <time>2011-08-07T09:22:13Z</time>
      </trkpt>
      <trkpt lat="44.102508807554841" lon="10.239031417295337">
        <ele>1388</ele>
        <time>2011-08-07T09:22:22Z</time>
      </trkpt>
      <trkpt lat="44.102555327117443" lon="10.239003505557775">
        <ele>1389</ele>
        <time>2011-08-07T09:22:30Z</time>
      </trkpt>
      <trkpt lat="44.102614922448993" lon="10.238976096734405">
        <ele>1390.5999999999999</ele>
        <time>2011-08-07T09:22:39Z</time>
      </trkpt>
      <trkpt lat="44.102659011259675" lon="10.238963523879647">
        <ele>1391.4000000000001</ele>
        <time>2011-08-07T09:22:46Z</time>
      </trkpt>
      <trkpt lat="44.1026939637959" lon="10.238959584385157">
        <ele>1389.8</ele>
        <time>2011-08-07T09:22:53Z</time>
      </trkpt>
      <trkpt lat="44.102758085355163" lon="10.238916920498013">
        <ele>1391.2</ele>
        <time>2011-08-07T09:23:02Z</time>
      </trkpt>
      <trkpt lat="44.102820111438632" lon="10.238863863050938">
        <ele>1393.2</ele>
        <time>2011-08-07T09:23:11Z</time>
      </trkpt>
      <trkpt lat="44.102875934913754" lon="10.238823713734746">
        <ele>1393.4000000000001</ele>
        <time>2011-08-07T09:23:19Z</time>
      </trkpt>
      <trkpt lat="44.10293485969305" lon="10.238794041797519">
        <ele>1393.8</ele>
        <time>2011-08-07T09:23:28Z</time>
      </trkpt>
      <trkpt lat="44.102982636541128" lon="10.238769734278321">
        <ele>1393.2</ele>
        <time>2011-08-07T09:23:35Z</time>
      </trkpt>
      <trkpt lat="44.103028820827603" lon="10.238847183063626">
        <ele>1395.8</ele>
        <time>2011-08-07T09:23:46Z</time>
      </trkpt>
      <trkpt lat="44.103073328733444" lon="10.238903425633907">
        <ele>1397.4000000000001</ele>
        <time>2011-08-07T09:23:55Z</time>
      </trkpt>
      <trkpt lat="44.103115070611238" lon="10.238952292129397">
        <ele>1398.4000000000001</ele>
        <time>2011-08-07T09:24:02Z</time>
      </trkpt>
      <trkpt lat="44.10317181609571" lon="10.239029238000512">
        <ele>1400.4000000000001</ele>
        <time>2011-08-07T09:24:12Z</time>
      </trkpt>
      <trkpt lat="44.103189166635275" lon="10.239049773663282">
        <ele>1400.4000000000001</ele>
        <time>2011-08-07T09:24:20Z</time>
      </trkpt>
      <trkpt lat="44.1032241191715" lon="10.239103669300675">
        <ele>1398.4000000000001</ele>
        <time>2011-08-07T09:26:36Z</time>
      </trkpt>
      <trkpt lat="44.103287486359477" lon="10.239143567159772">
        <ele>1400</ele>
        <time>2011-08-07T09:26:46Z</time>
      </trkpt>
      <trkpt lat="44.10334481857717" lon="10.239167120307684">
        <ele>1402.8</ele>
        <time>2011-08-07T09:26:55Z</time>
      </trkpt>
      <trkpt lat="44.103408688679338" lon="10.239192014560103">
        <ele>1406.2</ele>
        <time>2011-08-07T09:27:03Z</time>
      </trkpt>
      <trkpt lat="44.103481695055962" lon="10.239209532737732">
        <ele>1409.8</ele>
        <time>2011-08-07T09:27:13Z</time>
      </trkpt>
      <trkpt lat="44.103555036708713" lon="10.239219339564443">
        <ele>1412.4000000000001</ele>
        <time>2011-08-07T09:27:24Z</time>
      </trkpt>
      <trkpt lat="44.103598119691014" lon="10.239232331514359">
        <ele>1411.5999999999999</ele>
        <time>2011-08-07T09:27:33Z</time>
      </trkpt>
      <trkpt lat="44.103665761649609" lon="10.239248927682638">
        <ele>1413</ele>
        <time>2011-08-07T09:27:43Z</time>
      </trkpt>
      <trkpt lat="44.103711526840925" lon="10.239242976531386">
        <ele>1409.5999999999999</ele>
        <time>2011-08-07T09:27:50Z</time>
      </trkpt>
      <trkpt lat="44.103754358366132" lon="10.239259405061603">
        <ele>1412.2</ele>
        <time>2011-08-07T09:27:57Z</time>
      </trkpt>
      <trkpt lat="44.103798866271973" lon="10.239265691488981">
        <ele>1411.8</ele>
        <time>2011-08-07T09:28:04Z</time>
      </trkpt>
      <trkpt lat="44.103810684755445" lon="10.239219171926379">
        <ele>1407</ele>
        <time>2011-08-07T09:28:08Z</time>
      </trkpt>
      <trkpt lat="44.10380020737648" lon="10.239178519695997">
        <ele>1402.5999999999999</ele>
        <time>2011-08-07T09:28:11Z</time>
      </trkpt>
      <trkpt lat="44.103793082758784" lon="10.239176005125046">
        <ele>1403.5999999999999</ele>
        <time>2011-08-07T09:28:19Z</time>
      </trkpt>
      <trkpt lat="44.103720160201192" lon="10.23907357826829">
        <ele>1389</ele>
        <time>2011-08-07T09:28:44Z</time>
      </trkpt>
      <trkpt lat="44.103683531284332" lon="10.239030495285988">
        <ele>1394.2</ele>
        <time>2011-08-07T09:28:54Z</time>
      </trkpt>
      <trkpt lat="44.103641621768475" lon="10.238990010693669">
        <ele>1400</ele>
        <time>2011-08-07T09:29:04Z</time>
      </trkpt>
      <trkpt lat="44.103601975366473" lon="10.238971738144755">
        <ele>1407.5999999999999</ele>
        <time>2011-08-07T09:29:12Z</time>
      </trkpt>
      <trkpt lat="44.103567525744438" lon="10.238919267430902">
        <ele>1414.4000000000001</ele>
        <time>2011-08-07T09:29:23Z</time>
      </trkpt>
      <trkpt lat="44.103529220446944" lon="10.238865036517382">
        <ele>1419</ele>
        <time>2011-08-07T09:29:33Z</time>
      </trkpt>
      <trkpt lat="44.103506589308381" lon="10.238801166415215">
        <ele>1419.2</ele>
        <time>2011-08-07T09:29:41Z</time>
      </trkpt>
      <trkpt lat="44.103468870744109" lon="10.238755736500025">
        <ele>1420.4000000000001</ele>
        <time>2011-08-07T09:29:51Z</time>
      </trkpt>
      <trkpt lat="44.103440875187516" lon="10.23873838596046">
        <ele>1423.4000000000001</ele>
        <time>2011-08-07T09:29:57Z</time>
      </trkpt>
      <trkpt lat="44.103382537141442" lon="10.23866948671639">
        <ele>1423.5999999999999</ele>
        <time>2011-08-07T09:30:09Z</time>
      </trkpt>
      <trkpt lat="44.103352362290025" lon="10.238612741231918">
        <ele>1421.8</ele>
        <time>2011-08-07T09:30:16Z</time>
      </trkpt>
      <trkpt lat="44.103352362290025" lon="10.23855616338551">
        <ele>1421.2</ele>
        <time>2011-08-07T09:30:23Z</time>
      </trkpt>
      <trkpt lat="44.103397792205215" lon="10.238519534468651">
        <ele>1422</ele>
        <time>2011-08-07T09:30:31Z</time>
      </trkpt>
      <trkpt lat="44.103431906551123" lon="10.238546188920736">
        <ele>1424.5999999999999</ele>
        <time>2011-08-07T09:30:38Z</time>
      </trkpt>
      <trkpt lat="44.103479431942105" lon="10.238545602187514">
        <ele>1425.5999999999999</ele>
        <time>2011-08-07T09:31:18Z</time>
      </trkpt>
      <trkpt lat="44.103490663692355" lon="10.238594301044941">
        <ele>1427.2</ele>
        <time>2011-08-07T09:31:25Z</time>
      </trkpt>
      <trkpt lat="44.103517737239599" lon="10.238623637706041">
        <ele>1429.2</ele>
        <time>2011-08-07T09:31:32Z</time>
      </trkpt>
      <trkpt lat="44.103558389469981" lon="10.238654064014554">
        <ele>1431.8</ele>
        <time>2011-08-07T09:31:40Z</time>
      </trkpt>
      <trkpt lat="44.103588061407208" lon="10.238676862791181">
        <ele>1432.4000000000001</ele>
        <time>2011-08-07T09:31:47Z</time>
      </trkpt>
      <trkpt lat="44.103616559877992" lon="10.238712318241596">
        <ele>1432.2</ele>
        <time>2011-08-07T09:31:52Z</time>
      </trkpt>
      <trkpt lat="44.103658469393849" lon="10.238748695701361">
        <ele>1434.8</ele>
        <time>2011-08-07T09:31:58Z</time>
      </trkpt>
      <trkpt lat="44.103670874610543" lon="10.238763196393847">
        <ele>1436.8</ele>
        <time>2011-08-07T09:32:07Z</time>
      </trkpt>
      <trkpt lat="44.103709012269974" lon="10.238734195008874">
        <ele>1433.4000000000001</ele>
        <time>2011-08-07T09:32:31Z</time>
      </trkpt>
      <trkpt lat="44.103724099695683" lon="10.238743918016553">
        <ele>1434.8</ele>
        <time>2011-08-07T09:32:35Z</time>
      </trkpt>
      <trkpt lat="44.103749161586165" lon="10.238748863339424">
        <ele>1438.4000000000001</ele>
        <time>2011-08-07T09:32:42Z</time>
      </trkpt>
      <trkpt lat="44.10381437279284" lon="10.238739894703031">
        <ele>1440.4000000000001</ele>
        <time>2011-08-07T09:32:51Z</time>
      </trkpt>
      <trkpt lat="44.103854522109032" lon="10.238745929673314">
        <ele>1440.5999999999999</ele>
        <time>2011-08-07T09:32:58Z</time>
      </trkpt>
      <trkpt lat="44.103879164904356" lon="10.238745007663965">
        <ele>1442.2</ele>
        <time>2011-08-07T09:33:03Z</time>
      </trkpt>
      <trkpt lat="44.10391453653574" lon="10.238739307969809">
        <ele>1443.4000000000001</ele>
        <time>2011-08-07T09:33:10Z</time>
      </trkpt>
      <trkpt lat="44.103959882631898" lon="10.238736039027572">
        <ele>1444.8</ele>
        <time>2011-08-07T09:33:18Z</time>
      </trkpt>
      <trkpt lat="44.103999109938741" lon="10.23873888887465">
        <ele>1444</ele>
        <time>2011-08-07T09:33:25Z</time>
      </trkpt>
      <trkpt lat="44.104042528197169" lon="10.238743163645267">
        <ele>1444.2</ele>
        <time>2011-08-07T09:33:32Z</time>
      </trkpt>
      <trkpt lat="44.104073792695999" lon="10.238750372081995">
        <ele>1447.2</ele>
        <time>2011-08-07T09:33:39Z</time>
      </trkpt>
      <trkpt lat="44.104084018617868" lon="10.238748025149107">
        <ele>1448.2</ele>
        <time>2011-08-07T09:33:48Z</time>
      </trkpt>
      <trkpt lat="44.104101285338402" lon="10.238723298534751">
        <ele>1449.8</ele>
        <time>2011-08-07T09:34:05Z</time>
      </trkpt>
      <trkpt lat="44.10414076410234" lon="10.238734865561128">
        <ele>1449.2</ele>
        <time>2011-08-07T09:34:11Z</time>
      </trkpt>
      <trkpt lat="44.10417890176177" lon="10.238740062341094">
        <ele>1448.4000000000001</ele>
        <time>2011-08-07T09:34:17Z</time>
      </trkpt>
      <trkpt lat="44.10423363558948" lon="10.238775685429573">
        <ele>1452</ele>
        <time>2011-08-07T09:34:25Z</time>
      </trkpt>
      <trkpt lat="44.104274790734053" lon="10.238828910514712">
        <ele>1454.4000000000001</ele>
        <time>2011-08-07T09:34:34Z</time>
      </trkpt>
      <trkpt lat="44.104323741048574" lon="10.238863695412874">
        <ele>1455.4000000000001</ele>
        <time>2011-08-07T09:34:42Z</time>
      </trkpt>
      <trkpt lat="44.10436456091702" lon="10.238878028467298">
        <ele>1456.2</ele>
        <time>2011-08-07T09:34:50Z</time>
      </trkpt>
      <trkpt lat="44.104371434077621" lon="10.238845339044929">
        <ele>1455.2</ele>
        <time>2011-08-07T09:34:55Z</time>
      </trkpt>
      <trkpt lat="44.104355089366436" lon="10.23878968320787">
        <ele>1456.5999999999999</ele>
        <time>2011-08-07T09:35:16Z</time>
      </trkpt>
      <trkpt lat="44.104328183457255" lon="10.238767135888338">
        <ele>1457</ele>
        <time>2011-08-07T09:35:21Z</time>
      </trkpt>
      <trkpt lat="44.104295913130045" lon="10.23872472345829">
        <ele>1456.4000000000001</ele>
        <time>2011-08-07T09:35:29Z</time>
      </trkpt>
      <trkpt lat="44.104270096868277" lon="10.238700415939093">
        <ele>1457.5999999999999</ele>
        <time>2011-08-07T09:35:35Z</time>
      </trkpt>
      <trkpt lat="44.104228438809514" lon="10.238671163097024">
        <ele>1462.5999999999999</ele>
        <time>2011-08-07T09:35:42Z</time>
      </trkpt>
      <trkpt lat="44.104201029986143" lon="10.238627577200532">
        <ele>1466</ele>
        <time>2011-08-07T09:35:49Z</time>
      </trkpt>
      <trkpt lat="44.104169514030218" lon="10.238573178648949">
        <ele>1467.2</ele>
        <time>2011-08-07T09:35:57Z</time>
      </trkpt>
      <trkpt lat="44.104135567322373" lon="10.238517941907048">
        <ele>1466.8</ele>
        <time>2011-08-07T09:36:05Z</time>
      </trkpt>
      <trkpt lat="44.10413489677012" lon="10.2384720928967">
        <ele>1466.8</ele>
        <time>2011-08-07T09:36:11Z</time>
      </trkpt>
      <trkpt lat="44.104117210954428" lon="10.238434122875333">
        <ele>1467.8</ele>
        <time>2011-08-07T09:36:17Z</time>
      </trkpt>
      <trkpt lat="44.104087874293327" lon="10.238387268036604">
        <ele>1468.5999999999999</ele>
        <time>2011-08-07T09:36:24Z</time>
      </trkpt>
      <trkpt lat="44.104070020839572" lon="10.238351225852966">
        <ele>1468.5999999999999</ele>
        <time>2011-08-07T09:36:29Z</time>
      </trkpt>
      <trkpt lat="44.104045797139406" lon="10.238330187276006">
        <ele>1468.4000000000001</ele>
        <time>2011-08-07T09:36:35Z</time>
      </trkpt>
      <trkpt lat="44.104016460478306" lon="10.238307639956474">
        <ele>1467.5999999999999</ele>
        <time>2011-08-07T09:36:41Z</time>
      </trkpt>
      <trkpt lat="44.104001373052597" lon="10.238265562802553">
        <ele>1468.4000000000001</ele>
        <time>2011-08-07T09:36:47Z</time>
      </trkpt>
      <trkpt lat="44.103967091068625" lon="10.238223904743791">
        <ele>1468.4000000000001</ele>
        <time>2011-08-07T09:36:56Z</time>
      </trkpt>
      <trkpt lat="44.103938508778811" lon="10.238247290253639">
        <ele>1467.2</ele>
        <time>2011-08-07T09:37:08Z</time>
      </trkpt>
      <trkpt lat="44.10390674136579" lon="10.238211583346128">
        <ele>1471.5999999999999</ele>
        <time>2011-08-07T09:37:38Z</time>
      </trkpt>
      <trkpt lat="44.103868771344423" lon="10.238160118460655">
        <ele>1471.4000000000001</ele>
        <time>2011-08-07T09:37:45Z</time>
      </trkpt>
      <trkpt lat="44.103818731382489" lon="10.238101193681359">
        <ele>1471.4000000000001</ele>
        <time>2011-08-07T09:37:55Z</time>
      </trkpt>
      <trkpt lat="44.103791071102023" lon="10.238071521744132">
        <ele>1472</ele>
        <time>2011-08-07T09:38:02Z</time>
      </trkpt>
      <trkpt lat="44.103755783289671" lon="10.23802257142961">
        <ele>1472.5999999999999</ele>
        <time>2011-08-07T09:38:10Z</time>
      </trkpt>
      <trkpt lat="44.10376550629735" lon="10.237986277788877">
        <ele>1471.8</ele>
        <time>2011-08-07T09:38:15Z</time>
      </trkpt>
      <trkpt lat="44.1038026381284" lon="10.237922072410583">
        <ele>1468.8</ele>
        <time>2011-08-07T09:38:23Z</time>
      </trkpt>
      <trkpt lat="44.103854270651937" lon="10.237909583374858">
        <ele>1471.2</ele>
        <time>2011-08-07T09:38:31Z</time>
      </trkpt>
      <trkpt lat="44.103894419968128" lon="10.237945541739464">
        <ele>1471.4000000000001</ele>
        <time>2011-08-07T09:38:39Z</time>
      </trkpt>
      <trkpt lat="44.103934485465288" lon="10.237969178706408">
        <ele>1470.5999999999999</ele>
        <time>2011-08-07T09:38:46Z</time>
      </trkpt>
      <trkpt lat="44.103959212079644" lon="10.23795953951776">
        <ele>1472.8</ele>
        <time>2011-08-07T09:38:51Z</time>
      </trkpt>
      <trkpt lat="44.103987039998174" lon="10.237987032160163">
        <ele>1477.5999999999999</ele>
        <time>2011-08-07T09:41:41Z</time>
      </trkpt>
      <trkpt lat="44.104016711935401" lon="10.238013938069344">
        <ele>1476.8</ele>
        <time>2011-08-07T09:41:47Z</time>
      </trkpt>
      <trkpt lat="44.104068428277969" lon="10.238045370206237">
        <ele>1476.2</ele>
        <time>2011-08-07T09:41:56Z</time>
      </trkpt>
      <trkpt lat="44.104104470461607" lon="10.238068420439959">
        <ele>1476</ele>
        <time>2011-08-07T09:42:02Z</time>
      </trkpt>
      <trkpt lat="44.104145206511021" lon="10.238097170367837">
        <ele>1476</ele>
        <time>2011-08-07T09:42:10Z</time>
      </trkpt>
      <trkpt lat="44.104197258129716" lon="10.238131284713745">
        <ele>1476.8</ele>
        <time>2011-08-07T09:42:21Z</time>
      </trkpt>
      <trkpt lat="44.104230869561434" lon="10.238143522292376">
        <ele>1479.5999999999999</ele>
        <time>2011-08-07T09:42:27Z</time>
      </trkpt>
      <trkpt lat="44.104266492649913" lon="10.238167578354478">
        <ele>1482.5999999999999</ele>
        <time>2011-08-07T09:42:33Z</time>
      </trkpt>
      <trkpt lat="44.104293482378125" lon="10.238196579739451">
        <ele>1484.2</ele>
        <time>2011-08-07T09:42:39Z</time>
      </trkpt>
      <trkpt lat="44.104330698028207" lon="10.238222060725093">
        <ele>1485.8</ele>
        <time>2011-08-07T09:42:45Z</time>
      </trkpt>
      <trkpt lat="44.104386102408171" lon="10.238245194777846">
        <ele>1484.2</ele>
        <time>2011-08-07T09:42:53Z</time>
      </trkpt>
      <trkpt lat="44.10443932749331" lon="10.238259360194206">
        <ele>1483.8</ele>
        <time>2011-08-07T09:43:01Z</time>
      </trkpt>
      <trkpt lat="44.104476040229201" lon="10.238264724612236">
        <ele>1485.4000000000001</ele>
        <time>2011-08-07T09:43:07Z</time>
      </trkpt>
      <trkpt lat="44.104489283636212" lon="10.23826589807868">
        <ele>1488.4000000000001</ele>
        <time>2011-08-07T09:43:12Z</time>
      </trkpt>
      <trkpt lat="44.104518201202154" lon="10.23828836157918">
        <ele>1489</ele>
        <time>2011-08-07T09:43:18Z</time>
      </trkpt>
      <trkpt lat="44.104568408802152" lon="10.238324068486691">
        <ele>1486.8</ele>
        <time>2011-08-07T09:43:24Z</time>
      </trkpt>
      <trkpt lat="44.104613000527024" lon="10.238345023244619">
        <ele>1486</ele>
        <time>2011-08-07T09:43:31Z</time>
      </trkpt>
      <trkpt lat="44.104704866185784" lon="10.238362792879343">
        <ele>1483.5999999999999</ele>
        <time>2011-08-07T09:43:42Z</time>
      </trkpt>
      <trkpt lat="44.104745518416166" lon="10.238397493958473">
        <ele>1487.2</ele>
        <time>2011-08-07T09:43:51Z</time>
      </trkpt>
      <trkpt lat="44.104784158989787" lon="10.23843445815146">
        <ele>1490.4000000000001</ele>
        <time>2011-08-07T09:43:58Z</time>
      </trkpt>
      <trkpt lat="44.104803437367082" lon="10.238455077633262">
        <ele>1492.5999999999999</ele>
        <time>2011-08-07T09:44:03Z</time>
      </trkpt>
      <trkpt lat="44.104827158153057" lon="10.238477541133761">
        <ele>1493.5999999999999</ele>
        <time>2011-08-07T09:44:09Z</time>
      </trkpt>
      <trkpt lat="44.104848112910986" lon="10.23847502656281">
        <ele>1494</ele>
        <time>2011-08-07T09:44:13Z</time>
      </trkpt>
      <trkpt lat="44.104868061840534" lon="10.238453820347786">
        <ele>1494.5999999999999</ele>
        <time>2011-08-07T09:44:20Z</time>
      </trkpt>
      <trkpt lat="44.104833109304309" lon="10.23838953115046">
        <ele>1496.2</ele>
        <time>2011-08-07T09:44:29Z</time>
      </trkpt>
      <trkpt lat="44.104806538671255" lon="10.238347705453634">
        <ele>1496.8</ele>
        <time>2011-08-07T09:44:36Z</time>
      </trkpt>
      <trkpt lat="44.104755828157067" lon="10.238274615257978">
        <ele>1497.4000000000001</ele>
        <time>2011-08-07T09:44:47Z</time>
      </trkpt>
      <trkpt lat="44.104701513424516" lon="10.238215858116746">
        <ele>1498.8</ele>
        <time>2011-08-07T09:44:58Z</time>
      </trkpt>
      <trkpt lat="44.104652982205153" lon="10.238152490928769">
        <ele>1499.8</ele>
        <time>2011-08-07T09:45:07Z</time>
      </trkpt>
      <trkpt lat="44.104610737413168" lon="10.238097002729774">
        <ele>1500.8</ele>
        <time>2011-08-07T09:45:15Z</time>
      </trkpt>
      <trkpt lat="44.104578886181116" lon="10.238050734624267">
        <ele>1502</ele>
        <time>2011-08-07T09:45:23Z</time>
      </trkpt>
      <trkpt lat="44.104540161788464" lon="10.237986780703068">
        <ele>1503.4000000000001</ele>
        <time>2011-08-07T09:45:33Z</time>
      </trkpt>
      <trkpt lat="44.104500263929367" lon="10.237926095724106">
        <ele>1504.4000000000001</ele>
        <time>2011-08-07T09:45:42Z</time>
      </trkpt>
      <trkpt lat="44.104469586163759" lon="10.237850658595562">
        <ele>1505</ele>
        <time>2011-08-07T09:45:51Z</time>
      </trkpt>
      <trkpt lat="44.104467490687966" lon="10.237840600311756">
        <ele>1504.8</ele>
        <time>2011-08-07T09:46:00Z</time>
      </trkpt>
      <trkpt lat="44.10444175824523" lon="10.237815622240305">
        <ele>1504</ele>
        <time>2011-08-07T09:46:21Z</time>
      </trkpt>
      <trkpt lat="44.104402028024197" lon="10.237782513722777">
        <ele>1504.4000000000001</ele>
        <time>2011-08-07T09:46:29Z</time>
      </trkpt>
      <trkpt lat="44.104375038295984" lon="10.237760134041309">
        <ele>1505.2</ele>
        <time>2011-08-07T09:46:40Z</time>
      </trkpt>
      <trkpt lat="44.104363722726703" lon="10.237750494852662">
        <ele>1506.5999999999999</ele>
        <time>2011-08-07T09:46:54Z</time>
      </trkpt>
      <trkpt lat="44.104351904243231" lon="10.237706741318107">
        <ele>1507.8</ele>
        <time>2011-08-07T09:47:02Z</time>
      </trkpt>
      <trkpt lat="44.104295158758759" lon="10.237661059945822">
        <ele>1507.2</ele>
        <time>2011-08-07T09:47:10Z</time>
      </trkpt>
      <trkpt lat="44.1042585298419" lon="10.237629627808928">
        <ele>1507.4000000000001</ele>
        <time>2011-08-07T09:47:15Z</time>
      </trkpt>
      <trkpt lat="44.104238832369447" lon="10.237592495977879">
        <ele>1507.5999999999999</ele>
        <time>2011-08-07T09:47:19Z</time>
      </trkpt>
      <trkpt lat="44.104235898703337" lon="10.237583862617612">
        <ele>1507.8</ele>
        <time>2011-08-07T09:47:20Z</time>
      </trkpt>
      <trkpt lat="44.104203963652253" lon="10.237485794350505">
        <ele>1509</ele>
        <time>2011-08-07T09:47:31Z</time>
      </trkpt>
      <trkpt lat="44.104182422161102" lon="10.237433658912778">
        <ele>1510</ele>
        <time>2011-08-07T09:47:38Z</time>
      </trkpt>
      <trkpt lat="44.104156689718366" lon="10.23735118098557">
        <ele>1510.8</ele>
        <time>2011-08-07T09:47:48Z</time>
      </trkpt>
      <trkpt lat="44.104136908426881" lon="10.237259399145842">
        <ele>1512.8</ele>
        <time>2011-08-07T09:47:57Z</time>
      </trkpt>
      <trkpt lat="44.104107907041907" lon="10.237197037786245">
        <ele>1513.5999999999999</ele>
        <time>2011-08-07T09:48:05Z</time>
      </trkpt>
      <trkpt lat="44.104069685563445" lon="10.237139537930489">
        <ele>1514.4000000000001</ele>
        <time>2011-08-07T09:48:14Z</time>
      </trkpt>
      <trkpt lat="44.104037331417203" lon="10.237052533775568">
        <ele>1515.4000000000001</ele>
        <time>2011-08-07T09:48:25Z</time>
      </trkpt>
      <trkpt lat="44.104008581489325" lon="10.236987825483084">
        <ele>1516</ele>
        <time>2011-08-07T09:48:35Z</time>
      </trkpt>
      <trkpt lat="44.103989638388157" lon="10.236970726400614">
        <ele>1516.5999999999999</ele>
        <time>2011-08-07T09:48:43Z</time>
      </trkpt>
      <trkpt lat="44.103972287848592" lon="10.236945077776909">
        <ele>1517</ele>
        <time>2011-08-07T09:48:49Z</time>
      </trkpt>
      <trkpt lat="44.103939514607191" lon="10.236930325627327">
        <ele>1517.4000000000001</ele>
        <time>2011-08-07T09:48:54Z</time>
      </trkpt>
      <trkpt lat="44.103901041671634" lon="10.236889589577913">
        <ele>1517.8</ele>
        <time>2011-08-07T09:49:01Z</time>
      </trkpt>
      <trkpt lat="44.103854186832905" lon="10.236853128299117">
        <ele>1518.4000000000001</ele>
        <time>2011-08-07T09:49:09Z</time>
      </trkpt>
      <trkpt lat="44.103800039738417" lon="10.236797891557217">
        <ele>1519.2</ele>
        <time>2011-08-07T09:49:19Z</time>
      </trkpt>
      <trkpt lat="44.103766093030572" lon="10.236777607351542">
        <ele>1519.4000000000001</ele>
        <time>2011-08-07T09:49:25Z</time>
      </trkpt>
      <trkpt lat="44.10373323597014" lon="10.23671843111515">
        <ele>1519.5999999999999</ele>
        <time>2011-08-07T09:49:34Z</time>
      </trkpt>
      <trkpt lat="44.103698534891009" lon="10.236632684245706">
        <ele>1520</ele>
        <time>2011-08-07T09:49:43Z</time>
      </trkpt>
      <trkpt lat="44.103652182966471" lon="10.236568059772253">
        <ele>1520.2</ele>
        <time>2011-08-07T09:49:53Z</time>
      </trkpt>
      <trkpt lat="44.103593425825238" lon="10.236514583230019">
        <ele>1521.4000000000001</ele>
        <time>2011-08-07T09:50:03Z</time>
      </trkpt>
      <trkpt lat="44.103524861857295" lon="10.236472841352224">
        <ele>1522</ele>
        <time>2011-08-07T09:50:13Z</time>
      </trkpt>
      <trkpt lat="44.103453112766147" lon="10.236454820260406">
        <ele>1524</ele>
        <time>2011-08-07T09:50:23Z</time>
      </trkpt>
      <trkpt lat="44.103390164673328" lon="10.236455574631691">
        <ele>1523.5999999999999</ele>
        <time>2011-08-07T09:50:31Z</time>
      </trkpt>
      <trkpt lat="44.103333922103047" lon="10.236446438357234">
        <ele>1524</ele>
        <time>2011-08-07T09:50:39Z</time>
      </trkpt>
      <trkpt lat="44.103305088356137" lon="10.236420873552561">
        <ele>1524.2</ele>
        <time>2011-08-07T09:50:44Z</time>
      </trkpt>
      <trkpt lat="44.103253539651632" lon="10.236376030370593">
        <ele>1525.5999999999999</ele>
        <time>2011-08-07T09:50:54Z</time>
      </trkpt>
      <trkpt lat="44.103210708126426" lon="10.236320290714502">
        <ele>1526</ele>
        <time>2011-08-07T09:51:03Z</time>
      </trkpt>
      <trkpt lat="44.103188412263989" lon="10.236249966546893">
        <ele>1526</ele>
        <time>2011-08-07T09:51:11Z</time>
      </trkpt>
      <trkpt lat="44.103138539940119" lon="10.236205961555243">
        <ele>1526</ele>
        <time>2011-08-07T09:51:19Z</time>
      </trkpt>
      <trkpt lat="44.1030911821872" lon="10.2361995074898">
        <ele>1528.4000000000001</ele>
        <time>2011-08-07T09:51:26Z</time>
      </trkpt>
      <trkpt lat="44.103048099204898" lon="10.236163297668099">
        <ele>1528.8</ele>
        <time>2011-08-07T09:51:34Z</time>
      </trkpt>
      <trkpt lat="44.102999484166503" lon="10.236147623509169">
        <ele>1529.8</ele>
        <time>2011-08-07T09:51:42Z</time>
      </trkpt>
      <trkpt lat="44.10295195877552" lon="10.236124824732542">
        <ele>1530.8</ele>
        <time>2011-08-07T09:51:50Z</time>
      </trkpt>
      <trkpt lat="44.102889429777861" lon="10.23609783500433">
        <ele>1531.8</ele>
        <time>2011-08-07T09:51:59Z</time>
      </trkpt>
      <trkpt lat="44.102842826396227" lon="10.236084926873446">
        <ele>1532.8</ele>
        <time>2011-08-07T09:52:07Z</time>
      </trkpt>
      <trkpt lat="44.102792032063007" lon="10.236064307391644">
        <ele>1533.8</ele>
        <time>2011-08-07T09:52:16Z</time>
      </trkpt>
      <trkpt lat="44.102741070091724" lon="10.236039161682129">
        <ele>1535.2</ele>
        <time>2011-08-07T09:52:26Z</time>
      </trkpt>
      <trkpt lat="44.102686336264014" lon="10.236036730930209">
        <ele>1536.8</ele>
        <time>2011-08-07T09:52:35Z</time>
      </trkpt>
      <trkpt lat="44.10262699238956" lon="10.236008064821362">
        <ele>1537.5999999999999</ele>
        <time>2011-08-07T09:52:45Z</time>
      </trkpt>
      <trkpt lat="44.102621963247657" lon="10.236001359298825">
        <ele>1537.8</ele>
        <time>2011-08-07T09:52:53Z</time>
      </trkpt>
      <trkpt lat="44.102603439241648" lon="10.235959617421031">
        <ele>1540</ele>
        <time>2011-08-07T09:53:46Z</time>
      </trkpt>
      <trkpt lat="44.102546693757176" lon="10.235944027081132">
        <ele>1541.8</ele>
        <time>2011-08-07T09:53:55Z</time>
      </trkpt>
      <trkpt lat="44.102491540834308" lon="10.235955594107509">
        <ele>1542.8</ele>
        <time>2011-08-07T09:54:05Z</time>
      </trkpt>
      <trkpt lat="44.102466562762856" lon="10.235971519723535">
        <ele>1538.5999999999999</ele>
        <time>2011-08-07T09:56:39Z</time>
      </trkpt>
      <trkpt lat="44.10242130048573" lon="10.235989205539227">
        <ele>1539.2</ele>
        <time>2011-08-07T09:56:47Z</time>
      </trkpt>
      <trkpt lat="44.102355167269707" lon="10.236007729545236">
        <ele>1539.8</ele>
        <time>2011-08-07T09:56:57Z</time>
      </trkpt>
      <trkpt lat="44.102283837273717" lon="10.236053159460425">
        <ele>1541.4000000000001</ele>
        <time>2011-08-07T09:57:08Z</time>
      </trkpt>
      <trkpt lat="44.102237233892083" lon="10.23606707341969">
        <ele>1542.2</ele>
        <time>2011-08-07T09:57:17Z</time>
      </trkpt>
      <trkpt lat="44.10215936601162" lon="10.236090626567602">
        <ele>1544</ele>
        <time>2011-08-07T09:57:29Z</time>
      </trkpt>
      <trkpt lat="44.102116534486413" lon="10.23613303899765">
        <ele>1545.8</ele>
        <time>2011-08-07T09:57:39Z</time>
      </trkpt>
      <trkpt lat="44.102076888084412" lon="10.236156927421689">
        <ele>1546.8</ele>
        <time>2011-08-07T09:57:52Z</time>
      </trkpt>
      <trkpt lat="44.102057861164212" lon="10.236090123653412">
        <ele>1546.2</ele>
        <time>2011-08-07T09:58:00Z</time>
      </trkpt>
      <trkpt lat="44.102064399048686" lon="10.236018961295485">
        <ele>1546.5999999999999</ele>
        <time>2011-08-07T09:58:08Z</time>
      </trkpt>
      <trkpt lat="44.10207093693316" lon="10.235918881371617">
        <ele>1547.4000000000001</ele>
        <time>2011-08-07T09:58:18Z</time>
      </trkpt>
      <trkpt lat="44.102099686861038" lon="10.235840426757932">
        <ele>1548</ele>
        <time>2011-08-07T09:58:27Z</time>
      </trkpt>
      <trkpt lat="44.102127263322473" lon="10.235754763707519">
        <ele>1549.5999999999999</ele>
        <time>2011-08-07T09:58:37Z</time>
      </trkpt>
      <trkpt lat="44.102164898067713" lon="10.235721319913864">
        <ele>1549.2</ele>
        <time>2011-08-07T09:58:45Z</time>
      </trkpt>
      <trkpt lat="44.102194905281067" lon="10.235719392076135">
        <ele>1549</ele>
        <time>2011-08-07T09:58:50Z</time>
      </trkpt>
      <trkpt lat="44.102252908051014" lon="10.235709333792329">
        <ele>1549.4000000000001</ele>
        <time>2011-08-07T09:59:00Z</time>
      </trkpt>
      <trkpt lat="44.10231183283031" lon="10.235702963545918">
        <ele>1550</ele>
        <time>2011-08-07T09:59:09Z</time>
      </trkpt>
      <trkpt lat="44.102368662133813" lon="10.235691899433732">
        <ele>1550.2</ele>
        <time>2011-08-07T09:59:18Z</time>
      </trkpt>
      <trkpt lat="44.102437226101756" lon="10.235668765380979">
        <ele>1550.5999999999999</ele>
        <time>2011-08-07T09:59:29Z</time>
      </trkpt>
      <trkpt lat="44.102482069283724" lon="10.235660970211029">
        <ele>1551.2</ele>
        <time>2011-08-07T09:59:38Z</time>
      </trkpt>
      <trkpt lat="44.102473519742489" lon="10.235626939684153">
        <ele>1553.4000000000001</ele>
        <time>2011-08-07T09:59:49Z</time>
      </trkpt>
      <trkpt lat="44.102435130625963" lon="10.235573630779982">
        <ele>1555.8</ele>
        <time>2011-08-07T09:59:57Z</time>
      </trkpt>
      <trkpt lat="44.102371679618955" lon="10.235530380159616">
        <ele>1557.8</ele>
        <time>2011-08-07T10:00:08Z</time>
      </trkpt>
      <trkpt lat="44.102312922477722" lon="10.235503474250436">
        <ele>1559.8</ele>
        <time>2011-08-07T10:00:17Z</time>
      </trkpt>
      <trkpt lat="44.102250393480062" lon="10.235478496178985">
        <ele>1560.8</ele>
        <time>2011-08-07T10:00:27Z</time>
      </trkpt>
      <trkpt lat="44.10218333825469" lon="10.235486961901188">
        <ele>1562.4000000000001</ele>
        <time>2011-08-07T10:00:36Z</time>
      </trkpt>
      <trkpt lat="44.102131705731153" lon="10.235486375167966">
        <ele>1564.5999999999999</ele>
        <time>2011-08-07T10:00:43Z</time>
      </trkpt>
      <trkpt lat="44.10208024084568" lon="10.235502300783992">
        <ele>1566.8</ele>
        <time>2011-08-07T10:00:51Z</time>
      </trkpt>
      <trkpt lat="44.102008575573564" lon="10.235517388209701">
        <ele>1568.5999999999999</ele>
        <time>2011-08-07T10:01:02Z</time>
      </trkpt>
      <trkpt lat="44.101967001333833" lon="10.235538175329566">
        <ele>1570.2</ele>
        <time>2011-08-07T10:01:09Z</time>
      </trkpt>
      <trkpt lat="44.101946968585253" lon="10.235548904165626">
        <ele>1571</ele>
        <time>2011-08-07T10:01:17Z</time>
      </trkpt>
      <trkpt lat="44.101917464286089" lon="10.235543539747596">
        <ele>1570</ele>
        <time>2011-08-07T10:01:51Z</time>
      </trkpt>
      <trkpt lat="44.101863233372569" lon="10.235578492283821">
        <ele>1572.5999999999999</ele>
        <time>2011-08-07T10:02:01Z</time>
      </trkpt>
      <trkpt lat="44.101818222552538" lon="10.235587460920215">
        <ele>1573.5999999999999</ele>
        <time>2011-08-07T10:02:07Z</time>
      </trkpt>
      <trkpt lat="44.101761560887098" lon="10.235625263303518">
        <ele>1575</ele>
        <time>2011-08-07T10:02:15Z</time>
      </trkpt>
      <trkpt lat="44.101715963333845" lon="10.235630962997675">
        <ele>1575.5999999999999</ele>
        <time>2011-08-07T10:02:22Z</time>
      </trkpt>
      <trkpt lat="44.101662319153547" lon="10.235603386536241">
        <ele>1576.2</ele>
        <time>2011-08-07T10:02:30Z</time>
      </trkpt>
      <trkpt lat="44.101613368839025" lon="10.235558459535241">
        <ele>1577.2</ele>
        <time>2011-08-07T10:02:38Z</time>
      </trkpt>
      <trkpt lat="44.101535584777594" lon="10.235546808689833">
        <ele>1578.5999999999999</ele>
        <time>2011-08-07T10:02:49Z</time>
      </trkpt>
      <trkpt lat="44.101483030244708" lon="10.235529625788331">
        <ele>1579.2</ele>
        <time>2011-08-07T10:02:57Z</time>
      </trkpt>
      <trkpt lat="44.101475235074759" lon="10.235516969114542">
        <ele>1579.4000000000001</ele>
        <time>2011-08-07T10:03:05Z</time>
      </trkpt>
      <trkpt lat="44.101436007767916" lon="10.235485788434744">
        <ele>1583.5999999999999</ele>
        <time>2011-08-07T10:03:39Z</time>
      </trkpt>
      <trkpt lat="44.101418070495129" lon="10.235428959131241">
        <ele>1583</ele>
        <time>2011-08-07T10:03:46Z</time>
      </trkpt>
      <trkpt lat="44.101372975856066" lon="10.235404232516885">
        <ele>1584</ele>
        <time>2011-08-07T10:03:53Z</time>
      </trkpt>
      <trkpt lat="44.101346991956234" lon="10.235359137877822">
        <ele>1584.4000000000001</ele>
        <time>2011-08-07T10:04:00Z</time>
      </trkpt>
      <trkpt lat="44.101344561204314" lon="10.235304571688175">
        <ele>1585.8</ele>
        <time>2011-08-07T10:04:09Z</time>
      </trkpt>
      <trkpt lat="44.101328635588288" lon="10.235272468999028">
        <ele>1585.4000000000001</ele>
        <time>2011-08-07T10:04:46Z</time>
      </trkpt>
      <trkpt lat="44.101315308362246" lon="10.23522611707449">
        <ele>1586</ele>
        <time>2011-08-07T10:04:53Z</time>
      </trkpt>
      <trkpt lat="44.101308435201645" lon="10.235160235315561">
        <ele>1587.2</ele>
        <time>2011-08-07T10:05:02Z</time>
      </trkpt>
      <trkpt lat="44.101281780749559" lon="10.235188230872154">
        <ele>1587</ele>
        <time>2011-08-07T10:05:09Z</time>
      </trkpt>
      <trkpt lat="44.10125931724906" lon="10.235214130952954">
        <ele>1586.8</ele>
        <time>2011-08-07T10:05:16Z</time>
      </trkpt>
      <trkpt lat="44.101239116862416" lon="10.235237432643771">
        <ele>1586.2</ele>
        <time>2011-08-07T10:05:22Z</time>
      </trkpt>
      <trkpt lat="44.101199302822351" lon="10.23528671823442">
        <ele>1586.4000000000001</ele>
        <time>2011-08-07T10:05:30Z</time>
      </trkpt>
      <trkpt lat="44.101162170991302" lon="10.235295938327909">
        <ele>1586.8</ele>
        <time>2011-08-07T10:05:35Z</time>
      </trkpt>
      <trkpt lat="44.101115064695477" lon="10.235302727669477">
        <ele>1587.4000000000001</ele>
        <time>2011-08-07T10:05:42Z</time>
      </trkpt>
      <trkpt lat="44.101064689457417" lon="10.235311025753617">
        <ele>1588.5999999999999</ele>
        <time>2011-08-07T10:05:49Z</time>
      </trkpt>
      <trkpt lat="44.100998220965266" lon="10.235339272767305">
        <ele>1589.5999999999999</ele>
        <time>2011-08-07T10:06:01Z</time>
      </trkpt>
      <trkpt lat="44.100937033072114" lon="10.235338686034083">
        <ele>1590.5999999999999</ele>
        <time>2011-08-07T10:06:12Z</time>
      </trkpt>
      <trkpt lat="44.100913060829043" lon="10.235328963026404">
        <ele>1591.5999999999999</ele>
        <time>2011-08-07T10:06:19Z</time>
      </trkpt>
      <trkpt lat="44.100882969796658" lon="10.235325107350945">
        <ele>1593</ele>
        <time>2011-08-07T10:07:08Z</time>
      </trkpt>
      <trkpt lat="44.100829660892487" lon="10.235331980511546">
        <ele>1595.2</ele>
        <time>2011-08-07T10:07:18Z</time>
      </trkpt>
      <trkpt lat="44.100795211270452" lon="10.235349163413048">
        <ele>1597.2</ele>
        <time>2011-08-07T10:07:25Z</time>
      </trkpt>
      <trkpt lat="44.100749110803008" lon="10.235379170626402">
        <ele>1599</ele>
        <time>2011-08-07T10:07:36Z</time>
      </trkpt>
      <trkpt lat="44.100715834647417" lon="10.235396772623062">
        <ele>1600</ele>
        <time>2011-08-07T10:07:43Z</time>
      </trkpt>
      <trkpt lat="44.100694628432393" lon="10.235391827300191">
        <ele>1600</ele>
        <time>2011-08-07T10:07:51Z</time>
      </trkpt>
      <trkpt lat="44.100669734179974" lon="10.235315971076488">
        <ele>1580</ele>
        <time>2011-08-07T10:11:47Z</time>
      </trkpt>
      <trkpt lat="44.100670907646418" lon="10.235282611101866">
        <ele>1582.4000000000001</ele>
        <time>2011-08-07T10:11:54Z</time>
      </trkpt>
      <trkpt lat="44.10069303587079" lon="10.235217567533255">
        <ele>1582</ele>
        <time>2011-08-07T10:12:02Z</time>
      </trkpt>
      <trkpt lat="44.100708039477468" lon="10.235164258629084">
        <ele>1582.4000000000001</ele>
        <time>2011-08-07T10:12:09Z</time>
      </trkpt>
      <trkpt lat="44.100724970921874" lon="10.235125618055463">
        <ele>1584</ele>
        <time>2011-08-07T10:12:16Z</time>
      </trkpt>
      <trkpt lat="44.100733185186982" lon="10.235094940289855">
        <ele>1586.4000000000001</ele>
        <time>2011-08-07T10:12:23Z</time>
      </trkpt>
      <trkpt lat="44.100747769698501" lon="10.235055210068822">
        <ele>1589</ele>
        <time>2011-08-07T10:12:29Z</time>
      </trkpt>
      <trkpt lat="44.100752966478467" lon="10.234996536746621">
        <ele>1596.4000000000001</ele>
        <time>2011-08-07T10:13:11Z</time>
      </trkpt>
      <trkpt lat="44.100760258734226" lon="10.23494322784245">
        <ele>1597</ele>
        <time>2011-08-07T10:13:19Z</time>
      </trkpt>
      <trkpt lat="44.100766461342573" lon="10.2349026594311">
        <ele>1599.2</ele>
        <time>2011-08-07T10:13:26Z</time>
      </trkpt>
      <trkpt lat="44.100787164643407" lon="10.234881034120917">
        <ele>1594.2</ele>
        <time>2011-08-07T10:17:08Z</time>
      </trkpt>
      <trkpt lat="44.100807532668114" lon="10.234845159575343">
        <ele>1600.4000000000001</ele>
        <time>2011-08-07T10:17:16Z</time>
      </trkpt>
      <trkpt lat="44.100831001996994" lon="10.234798304736614">
        <ele>1604.4000000000001</ele>
        <time>2011-08-07T10:17:23Z</time>
      </trkpt>
      <trkpt lat="44.100858913734555" lon="10.234757317230105">
        <ele>1607.2</ele>
        <time>2011-08-07T10:17:31Z</time>
      </trkpt>
      <trkpt lat="44.100869726389647" lon="10.23472186177969">
        <ele>1606.4000000000001</ele>
        <time>2011-08-07T10:17:38Z</time>
      </trkpt>
      <trkpt lat="44.100890178233385" lon="10.23469403386116">
        <ele>1607</ele>
        <time>2011-08-07T10:17:43Z</time>
      </trkpt>
      <trkpt lat="44.100929321721196" lon="10.234688837081194">
        <ele>1609.8</ele>
        <time>2011-08-07T10:17:49Z</time>
      </trkpt>
      <trkpt lat="44.100958490744233" lon="10.234669474884868">
        <ele>1610.2</ele>
        <time>2011-08-07T10:17:55Z</time>
      </trkpt>
      <trkpt lat="44.10097106359899" lon="10.234654638916254">
        <ele>1611</ele>
        <time>2011-08-07T10:18:03Z</time>
      </trkpt>
      <trkpt lat="44.101000484079123" lon="10.234611472114921">
        <ele>1609.5999999999999</ele>
        <time>2011-08-07T10:18:38Z</time>
      </trkpt>
      <trkpt lat="44.101051278412342" lon="10.234539387747645">
        <ele>1608.5999999999999</ele>
        <time>2011-08-07T10:18:48Z</time>
      </trkpt>
      <trkpt lat="44.101097881793976" lon="10.23452203720808">
        <ele>1609.4000000000001</ele>
        <time>2011-08-07T10:18:56Z</time>
      </trkpt>
      <trkpt lat="44.101143227890134" lon="10.23448633030057">
        <ele>1610.5999999999999</ele>
        <time>2011-08-07T10:19:05Z</time>
      </trkpt>
      <trkpt lat="44.101186897605658" lon="10.234417766332626">
        <ele>1611.8</ele>
        <time>2011-08-07T10:19:15Z</time>
      </trkpt>
      <trkpt lat="44.101215060800314" lon="10.234382813796401">
        <ele>1611.8</ele>
        <time>2011-08-07T10:19:21Z</time>
      </trkpt>
      <trkpt lat="44.101243559271097" lon="10.234364960342646">
        <ele>1612.4000000000001</ele>
        <time>2011-08-07T10:19:26Z</time>
      </trkpt>
      <trkpt lat="44.101271135732532" lon="10.234364122152328">
        <ele>1612.8</ele>
        <time>2011-08-07T10:19:31Z</time>
      </trkpt>
      <trkpt lat="44.101295694708824" lon="10.234335958957672">
        <ele>1614.4000000000001</ele>
        <time>2011-08-07T10:19:37Z</time>
      </trkpt>
      <trkpt lat="44.101326707750559" lon="10.23429287597537">
        <ele>1616</ele>
        <time>2011-08-07T10:19:46Z</time>
      </trkpt>
      <trkpt lat="44.101333161816001" lon="10.234284410253167">
        <ele>1616.2</ele>
        <time>2011-08-07T10:19:56Z</time>
      </trkpt>
      <trkpt lat="44.101345734670758" lon="10.234271166846156">
        <ele>1616.2</ele>
        <time>2011-08-07T10:20:13Z</time>
      </trkpt>
      <trkpt lat="44.101375490427017" lon="10.234227580949664">
        <ele>1616</ele>
        <time>2011-08-07T10:20:22Z</time>
      </trkpt>
      <trkpt lat="44.101325199007988" lon="10.234214421361685">
        <ele>1627.8</ele>
        <time>2011-08-07T10:22:21Z</time>
      </trkpt>
      <trkpt lat="44.101326372474432" lon="10.234202099964023">
        <ele>1626.5999999999999</ele>
        <time>2011-08-07T10:22:28Z</time>
      </trkpt>
      <trkpt lat="44.101313464343548" lon="10.234200675040483">
        <ele>1627.4000000000001</ele>
        <time>2011-08-07T10:23:23Z</time>
      </trkpt>
      <trkpt lat="44.101304998621345" lon="10.234210314229131">
        <ele>1627.8</ele>
        <time>2011-08-07T10:23:28Z</time>
      </trkpt>
      <trkpt lat="44.10130818374455" lon="10.2342239767313">
        <ele>1629</ele>
        <time>2011-08-07T10:23:46Z</time>
      </trkpt>
      <trkpt lat="44.10132042132318" lon="10.234204865992069">
        <ele>1630.4000000000001</ele>
        <time>2011-08-07T10:23:54Z</time>
      </trkpt>
      <trkpt lat="44.101344896480441" lon="10.234211990609765">
        <ele>1628.8</ele>
        <time>2011-08-07T10:24:06Z</time>
      </trkpt>
      <trkpt lat="44.101350679993629" lon="10.234209476038814">
        <ele>1629</ele>
        <time>2011-08-07T10:24:12Z</time>
      </trkpt>
      <trkpt lat="44.101356463506818" lon="10.234209224581718">
        <ele>1627.4000000000001</ele>
        <time>2011-08-07T10:24:20Z</time>
      </trkpt>
      <trkpt lat="44.101372137665749" lon="10.234211320057511">
        <ele>1625.8</ele>
        <time>2011-08-07T10:24:34Z</time>
      </trkpt>
      <trkpt lat="44.101363001391292" lon="10.234212828800082">
        <ele>1620.5999999999999</ele>
        <time>2011-08-07T10:28:59Z</time>
      </trkpt>
      <trkpt lat="44.101375322788954" lon="10.234257839620113">
        <ele>1622.4000000000001</ele>
        <time>2011-08-07T10:29:16Z</time>
      </trkpt>
      <trkpt lat="44.101355541497469" lon="10.234220959246159">
        <ele>1622.8</ele>
        <time>2011-08-07T10:29:33Z</time>
      </trkpt>
      <trkpt lat="44.101339532062411" lon="10.234193718060851">
        <ele>1623.8</ele>
        <time>2011-08-07T10:29:39Z</time>
      </trkpt>
      <trkpt lat="44.101350009441376" lon="10.234222719445825">
        <ele>1623.5999999999999</ele>
        <time>2011-08-07T10:29:50Z</time>
      </trkpt>
      <trkpt lat="44.101368701085448" lon="10.234256163239479">
        <ele>1622.5999999999999</ele>
        <time>2011-08-07T10:29:55Z</time>
      </trkpt>
      <trkpt lat="44.10136291757226" lon="10.234267897903919">
        <ele>1623</ele>
        <time>2011-08-07T10:29:59Z</time>
      </trkpt>
      <trkpt lat="44.101357134059072" lon="10.234257001429796">
        <ele>1623.8</ele>
        <time>2011-08-07T10:30:26Z</time>
      </trkpt>
      <trkpt lat="44.101348668336868" lon="10.23422883823514">
        <ele>1625.2</ele>
        <time>2011-08-07T10:30:35Z</time>
      </trkpt>
      <trkpt lat="44.101332239806652" lon="10.234216181561351">
        <ele>1626.2</ele>
        <time>2011-08-07T10:31:08Z</time>
      </trkpt>
      <trkpt lat="44.101340621709824" lon="10.234217774122953">
        <ele>1624</ele>
        <time>2011-08-07T10:31:26Z</time>
      </trkpt>
      <trkpt lat="44.101341962814331" lon="10.234234537929296">
        <ele>1624.5999999999999</ele>
        <time>2011-08-07T10:31:32Z</time>
      </trkpt>
      <trkpt lat="44.101240960881114" lon="10.234297486022115">
        <ele>1623.4000000000001</ele>
        <time>2011-08-07T10:33:37Z</time>
      </trkpt>
      <trkpt lat="44.101244816556573" lon="10.234296312555671">
        <ele>1623.5999999999999</ele>
        <time>2011-08-07T10:33:39Z</time>
      </trkpt>
      <trkpt lat="44.101253533735871" lon="10.234293462708592">
        <ele>1624</ele>
        <time>2011-08-07T10:33:41Z</time>
      </trkpt>
      <trkpt lat="44.101286977529526" lon="10.234277034178376">
        <ele>1624.5999999999999</ele>
        <time>2011-08-07T10:33:48Z</time>
      </trkpt>
      <trkpt lat="44.101303238421679" lon="10.23426990956068">
        <ele>1625.4000000000001</ele>
        <time>2011-08-07T10:33:54Z</time>
      </trkpt>
      <trkpt lat="44.101332826539874" lon="10.234239399433136">
        <ele>1627.5999999999999</ele>
        <time>2011-08-07T10:34:47Z</time>
      </trkpt>
      <trkpt lat="44.101335592567921" lon="10.234239734709263">
        <ele>1628.8</ele>
        <time>2011-08-07T10:38:39Z</time>
      </trkpt>
      <trkpt lat="44.101317236199975" lon="10.234233196824789">
        <ele>1630.4000000000001</ele>
        <time>2011-08-07T10:38:58Z</time>
      </trkpt>
      <trkpt lat="44.101312458515167" lon="10.234215427190065">
        <ele>1631.2</ele>
        <time>2011-08-07T10:39:16Z</time>
      </trkpt>
      <trkpt lat="44.101327713578939" lon="10.234190113842487">
        <ele>1628.4000000000001</ele>
        <time>2011-08-07T10:39:45Z</time>
      </trkpt>
      <trkpt lat="44.101317906752229" lon="10.234100762754679">
        <ele>1629.2</ele>
        <time>2011-08-07T10:39:54Z</time>
      </trkpt>
      <trkpt lat="44.101302986964583" lon="10.234074024483562">
        <ele>1631.8</ele>
        <time>2011-08-07T10:39:59Z</time>
      </trkpt>
      <trkpt lat="44.101253114640713" lon="10.233977967873216">
        <ele>1632.2</ele>
        <time>2011-08-07T10:40:05Z</time>
      </trkpt>
      <trkpt lat="44.101238697767258" lon="10.233951229602098">
        <ele>1632</ele>
        <time>2011-08-07T10:40:07Z</time>
      </trkpt>
      <trkpt lat="44.101200979202986" lon="10.233882581815124">
        <ele>1631.5999999999999</ele>
        <time>2011-08-07T10:40:11Z</time>
      </trkpt>
      <trkpt lat="44.10113669000566" lon="10.233775712549686">
        <ele>1631</ele>
        <time>2011-08-07T10:40:17Z</time>
      </trkpt>
      <trkpt lat="44.10112788900733" lon="10.233758362010121">
        <ele>1629.5999999999999</ele>
        <time>2011-08-07T10:40:22Z</time>
      </trkpt>
      <trkpt lat="44.101190082728863" lon="10.233794488012791">
        <ele>1623.5999999999999</ele>
        <time>2011-08-07T10:40:34Z</time>
      </trkpt>
      <trkpt lat="44.101245235651731" lon="10.233803372830153">
        <ele>1620.2</ele>
        <time>2011-08-07T10:40:42Z</time>
      </trkpt>
      <trkpt lat="44.101312458515167" lon="10.233772359788418">
        <ele>1618.5999999999999</ele>
        <time>2011-08-07T10:40:51Z</time>
      </trkpt>
      <trkpt lat="44.101384961977601" lon="10.23374461568892">
        <ele>1616.8</ele>
        <time>2011-08-07T10:41:00Z</time>
      </trkpt>
      <trkpt lat="44.101463416591287" lon="10.233702538534999">
        <ele>1616.4000000000001</ele>
        <time>2011-08-07T10:41:09Z</time>
      </trkpt>
      <trkpt lat="44.101515803486109" lon="10.233652917668223">
        <ele>1616.2</ele>
        <time>2011-08-07T10:41:17Z</time>
      </trkpt>
      <trkpt lat="44.101581936702132" lon="10.233591226860881">
        <ele>1617.2</ele>
        <time>2011-08-07T10:41:24Z</time>
      </trkpt>
      <trkpt lat="44.101602807641029" lon="10.233555268496275">
        <ele>1617.2</ele>
        <time>2011-08-07T10:41:28Z</time>
      </trkpt>
      <trkpt lat="44.101614458486438" lon="10.233527272939682">
        <ele>1616.8</ele>
        <time>2011-08-07T10:41:31Z</time>
      </trkpt>
      <trkpt lat="44.101628791540861" lon="10.233503887429833">
        <ele>1616.4000000000001</ele>
        <time>2011-08-07T10:41:34Z</time>
      </trkpt>
      <trkpt lat="44.10165561363101" lon="10.233468683436513">
        <ele>1615.5999999999999</ele>
        <time>2011-08-07T10:41:39Z</time>
      </trkpt>
      <trkpt lat="44.101696433499455" lon="10.233436664566398">
        <ele>1614.4000000000001</ele>
        <time>2011-08-07T10:41:46Z</time>
      </trkpt>
      <trkpt lat="44.101755106821656" lon="10.233410177752376">
        <ele>1613.4000000000001</ele>
        <time>2011-08-07T10:41:54Z</time>
      </trkpt>
      <trkpt lat="44.101824760437012" lon="10.23339232429862">
        <ele>1611.4000000000001</ele>
        <time>2011-08-07T10:42:04Z</time>
      </trkpt>
      <trkpt lat="44.101871279999614" lon="10.233335830271244">
        <ele>1609.5999999999999</ele>
        <time>2011-08-07T10:42:13Z</time>
      </trkpt>
      <trkpt lat="44.101898688822985" lon="10.233285035938025">
        <ele>1607.5999999999999</ele>
        <time>2011-08-07T10:42:21Z</time>
      </trkpt>
      <trkpt lat="44.10194193944335" lon="10.233218232169747">
        <ele>1605.4000000000001</ele>
        <time>2011-08-07T10:42:31Z</time>
      </trkpt>
      <trkpt lat="44.101975718513131" lon="10.233157966285944">
        <ele>1603.5999999999999</ele>
        <time>2011-08-07T10:42:40Z</time>
      </trkpt>
      <trkpt lat="44.102008575573564" lon="10.233097616583109">
        <ele>1601.8</ele>
        <time>2011-08-07T10:42:48Z</time>
      </trkpt>
      <trkpt lat="44.10202844068408" lon="10.233028633520007">
        <ele>1600</ele>
        <time>2011-08-07T10:42:57Z</time>
      </trkpt>
      <trkpt lat="44.102044031023979" lon="10.23297255858779">
        <ele>1598.5999999999999</ele>
        <time>2011-08-07T10:43:04Z</time>
      </trkpt>
      <trkpt lat="44.102052077651024" lon="10.232933163642883">
        <ele>1597.5999999999999</ele>
        <time>2011-08-07T10:43:10Z</time>
      </trkpt>
      <trkpt lat="44.102056939154863" lon="10.232870215550065">
        <ele>1596.4000000000001</ele>
        <time>2011-08-07T10:43:18Z</time>
      </trkpt>
      <trkpt lat="44.102051658555865" lon="10.232812715694308">
        <ele>1595.5999999999999</ele>
        <time>2011-08-07T10:43:26Z</time>
      </trkpt>
      <trkpt lat="44.102053921669722" lon="10.232774661853909">
        <ele>1595</ele>
        <time>2011-08-07T10:43:32Z</time>
      </trkpt>
      <trkpt lat="44.102067919448018" lon="10.23273509927094">
        <ele>1593.5999999999999</ele>
        <time>2011-08-07T10:43:41Z</time>
      </trkpt>
      <trkpt lat="44.102086611092091" lon="10.23265547119081">
        <ele>1592.4000000000001</ele>
        <time>2011-08-07T10:43:50Z</time>
      </trkpt>
      <trkpt lat="44.102100776508451" lon="10.232595205307007">
        <ele>1591</ele>
        <time>2011-08-07T10:43:58Z</time>
      </trkpt>
      <trkpt lat="44.102114187553525" lon="10.232551284134388">
        <ele>1590</ele>
        <time>2011-08-07T10:44:04Z</time>
      </trkpt>
      <trkpt lat="44.102132124826312" lon="10.232465034350753">
        <ele>1589.4000000000001</ele>
        <time>2011-08-07T10:44:13Z</time>
      </trkpt>
      <trkpt lat="44.102146876975894" lon="10.232411222532392">
        <ele>1588.2</ele>
        <time>2011-08-07T10:44:20Z</time>
      </trkpt>
      <trkpt lat="44.102170262485743" lon="10.232313238084316">
        <ele>1586.8</ele>
        <time>2011-08-07T10:44:32Z</time>
      </trkpt>
      <trkpt lat="44.102192558348179" lon="10.232236459851265">
        <ele>1585</ele>
        <time>2011-08-07T10:44:41Z</time>
      </trkpt>
      <trkpt lat="44.102193731814623" lon="10.232199160382152">
        <ele>1584</ele>
        <time>2011-08-07T10:44:46Z</time>
      </trkpt>
      <trkpt lat="44.102199096232653" lon="10.232124477624893">
        <ele>1582.5999999999999</ele>
        <time>2011-08-07T10:44:54Z</time>
      </trkpt>
      <trkpt lat="44.102200688794255" lon="10.232082735747099">
        <ele>1581.4000000000001</ele>
        <time>2011-08-07T10:45:01Z</time>
      </trkpt>
      <trkpt lat="44.102198341861367" lon="10.232032192870975">
        <ele>1579.8</ele>
        <time>2011-08-07T10:45:08Z</time>
      </trkpt>
      <trkpt lat="44.102209405973554" lon="10.2319704182446">
        <ele>1578.4000000000001</ele>
        <time>2011-08-07T10:45:16Z</time>
      </trkpt>
      <trkpt lat="44.102217284962535" lon="10.231899591162801">
        <ele>1576.5999999999999</ele>
        <time>2011-08-07T10:45:26Z</time>
      </trkpt>
      <trkpt lat="44.10222826525569" lon="10.231831697747111">
        <ele>1575.2</ele>
        <time>2011-08-07T10:45:34Z</time>
      </trkpt>
      <trkpt lat="44.102232707664371" lon="10.231772270053625">
        <ele>1574.2</ele>
        <time>2011-08-07T10:45:41Z</time>
      </trkpt>
      <trkpt lat="44.102239497005939" lon="10.231687780469656">
        <ele>1572.8</ele>
        <time>2011-08-07T10:45:50Z</time>
      </trkpt>
      <trkpt lat="44.102257015183568" lon="10.231584180146456">
        <ele>1571.5999999999999</ele>
        <time>2011-08-07T10:45:59Z</time>
      </trkpt>
      <trkpt lat="44.102262798696756" lon="10.231558866798878">
        <ele>1571.5999999999999</ele>
        <time>2011-08-07T10:46:02Z</time>
      </trkpt>
      <trkpt lat="44.102254081517458" lon="10.231536068022251">
        <ele>1571.2</ele>
        <time>2011-08-07T10:46:06Z</time>
      </trkpt>
      <trkpt lat="44.102260116487741" lon="10.23148275911808">
        <ele>1570.5999999999999</ele>
        <time>2011-08-07T10:46:13Z</time>
      </trkpt>
      <trkpt lat="44.102256260812283" lon="10.231441101059318">
        <ele>1569.8</ele>
        <time>2011-08-07T10:46:19Z</time>
      </trkpt>
      <trkpt lat="44.102246537804604" lon="10.231391564011574">
        <ele>1569</ele>
        <time>2011-08-07T10:46:25Z</time>
      </trkpt>
      <trkpt lat="44.102239832282066" lon="10.231348061934114">
        <ele>1569.2</ele>
        <time>2011-08-07T10:46:34Z</time>
      </trkpt>
      <trkpt lat="44.102219883352518" lon="10.231305230408907">
        <ele>1568.8</ele>
        <time>2011-08-07T10:46:40Z</time>
      </trkpt>
      <trkpt lat="44.102183086797595" lon="10.23133129812777">
        <ele>1569.2</ele>
        <time>2011-08-07T10:46:48Z</time>
      </trkpt>
      <trkpt lat="44.102175375446677" lon="10.2313884627074">
        <ele>1568</ele>
        <time>2011-08-07T10:46:54Z</time>
      </trkpt>
      <trkpt lat="44.102165400981903" lon="10.231397934257984">
        <ele>1569.8</ele>
        <time>2011-08-07T10:47:00Z</time>
      </trkpt>
      <trkpt lat="44.102136315777898" lon="10.231503713876009">
        <ele>1576.2</ele>
        <time>2011-08-07T10:48:31Z</time>
      </trkpt>
      <trkpt lat="44.102140422910452" lon="10.23154478520155">
        <ele>1572.8</ele>
        <time>2011-08-07T10:48:36Z</time>
      </trkpt>
      <trkpt lat="44.102135477587581" lon="10.231549562886357">
        <ele>1572.4000000000001</ele>
        <time>2011-08-07T10:48:37Z</time>
      </trkpt>
      <trkpt lat="44.102135309949517" lon="10.231598177924752">
        <ele>1567</ele>
        <time>2011-08-07T10:48:45Z</time>
      </trkpt>
      <trkpt lat="44.102126508951187" lon="10.231607565656304">
        <ele>1565</ele>
        <time>2011-08-07T10:48:52Z</time>
      </trkpt>
      <trkpt lat="44.102098429575562" lon="10.231638997793198">
        <ele>1563.8</ele>
        <time>2011-08-07T10:49:00Z</time>
      </trkpt>
      <trkpt lat="44.1020826715976" lon="10.231676632538438">
        <ele>1562.2</ele>
        <time>2011-08-07T10:49:05Z</time>
      </trkpt>
      <trkpt lat="44.102052580565214" lon="10.231709741055965">
        <ele>1561.4000000000001</ele>
        <time>2011-08-07T10:49:13Z</time>
      </trkpt>
      <trkpt lat="44.102011676877737" lon="10.231747459620237">
        <ele>1561.2</ele>
        <time>2011-08-07T10:49:48Z</time>
      </trkpt>
      <trkpt lat="44.101983262225986" lon="10.231770677492023">
        <ele>1561</ele>
        <time>2011-08-07T10:49:53Z</time>
      </trkpt>
      <trkpt lat="44.101939341053367" lon="10.231823734939098">
        <ele>1559.8</ele>
        <time>2011-08-07T10:50:02Z</time>
      </trkpt>
      <trkpt lat="44.101903969421983" lon="10.231895064935088">
        <ele>1557.8</ele>
        <time>2011-08-07T10:50:10Z</time>
      </trkpt>
      <trkpt lat="44.10188184119761" lon="10.231939824298024">
        <ele>1556.8</ele>
        <time>2011-08-07T10:50:17Z</time>
      </trkpt>
      <trkpt lat="44.101819060742855" lon="10.232005286961794">
        <ele>1555.8</ele>
        <time>2011-08-07T10:50:28Z</time>
      </trkpt>
      <trkpt lat="44.101774636656046" lon="10.232044262811542">
        <ele>1556.4000000000001</ele>
        <time>2011-08-07T10:50:36Z</time>
      </trkpt>
      <trkpt lat="44.101744210347533" lon="10.232070162892342">
        <ele>1556.2</ele>
        <time>2011-08-07T10:50:41Z</time>
      </trkpt>
      <trkpt lat="44.101700037717819" lon="10.232108635827899">
        <ele>1554.4000000000001</ele>
        <time>2011-08-07T10:50:50Z</time>
      </trkpt>
      <trkpt lat="44.101676736027002" lon="10.232129758223891">
        <ele>1553.4000000000001</ele>
        <time>2011-08-07T10:50:55Z</time>
      </trkpt>
      <trkpt lat="44.101667432114482" lon="10.232169488444924">
        <ele>1550.4000000000001</ele>
        <time>2011-08-07T10:51:01Z</time>
      </trkpt>
      <trkpt lat="44.101659134030342" lon="10.232211397960782">
        <ele>1546.8</ele>
        <time>2011-08-07T10:51:06Z</time>
      </trkpt>
      <trkpt lat="44.101638766005635" lon="10.232244674116373">
        <ele>1545.8</ele>
        <time>2011-08-07T10:51:11Z</time>
      </trkpt>
      <trkpt lat="44.101608172059059" lon="10.232277363538742">
        <ele>1545.5999999999999</ele>
        <time>2011-08-07T10:51:19Z</time>
      </trkpt>
      <trkpt lat="44.101516306400299" lon="10.232353890314698">
        <ele>1544</ele>
        <time>2011-08-07T10:51:24Z</time>
      </trkpt>
      <trkpt lat="44.101435421034694" lon="10.232379119843245">
        <ele>1541.8</ele>
        <time>2011-08-07T10:51:28Z</time>
      </trkpt>
      <trkpt lat="44.101312877610326" lon="10.232389261946082">
        <ele>1538.5999999999999</ele>
        <time>2011-08-07T10:51:34Z</time>
      </trkpt>
      <trkpt lat="44.101213635876775" lon="10.232328660786152">
        <ele>1536.8</ele>
        <time>2011-08-07T10:51:39Z</time>
      </trkpt>
      <trkpt lat="44.101135097444057" lon="10.232267640531063">
        <ele>1531.4000000000001</ele>
        <time>2011-08-07T10:51:44Z</time>
      </trkpt>
      <trkpt lat="44.101072736084461" lon="10.232245596125722">
        <ele>1529.8</ele>
        <time>2011-08-07T10:51:48Z</time>
      </trkpt>
      <trkpt lat="44.101060498505831" lon="10.232229167595506">
        <ele>1529.2</ele>
        <time>2011-08-07T10:51:49Z</time>
      </trkpt>
      <trkpt lat="44.100982714444399" lon="10.232162699103355">
        <ele>1526.5999999999999</ele>
        <time>2011-08-07T10:51:54Z</time>
      </trkpt>
      <trkpt lat="44.100910210981965" lon="10.232034958899021">
        <ele>1524</ele>
        <time>2011-08-07T10:52:00Z</time>
      </trkpt>
      <trkpt lat="44.100898560136557" lon="10.232027918100357">
        <ele>1523.5999999999999</ele>
        <time>2011-08-07T10:52:02Z</time>
      </trkpt>
      <trkpt lat="44.100902080535889" lon="10.232027163729072">
        <ele>1523.5999999999999</ele>
        <time>2011-08-07T10:52:04Z</time>
      </trkpt>
      <trkpt lat="44.100861763581634" lon="10.231999503448606">
        <ele>1523.5999999999999</ele>
        <time>2011-08-07T10:52:13Z</time>
      </trkpt>
      <trkpt lat="44.100821781903505" lon="10.231963461264968">
        <ele>1523</ele>
        <time>2011-08-07T10:52:22Z</time>
      </trkpt>
      <trkpt lat="44.100801330059767" lon="10.231956001371145">
        <ele>1522</ele>
        <time>2011-08-07T10:52:29Z</time>
      </trkpt>
      <trkpt lat="44.100686917081475" lon="10.231924736872315">
        <ele>1518.2</ele>
        <time>2011-08-07T10:52:35Z</time>
      </trkpt>
      <trkpt lat="44.100602762773633" lon="10.231976117938757">
        <ele>1515</ele>
        <time>2011-08-07T10:52:41Z</time>
      </trkpt>
      <trkpt lat="44.100511819124222" lon="10.232011741027236">
        <ele>1512</ele>
        <time>2011-08-07T10:52:47Z</time>
      </trkpt>
      <trkpt lat="44.10047359764576" lon="10.232020290568471">
        <ele>1511.5999999999999</ele>
        <time>2011-08-07T10:52:49Z</time>
      </trkpt>
      <trkpt lat="44.100432526320219" lon="10.232023308053613">
        <ele>1511</ele>
        <time>2011-08-07T10:52:51Z</time>
      </trkpt>
      <trkpt lat="44.100351138040423" lon="10.232003526762128">
        <ele>1508.8</ele>
        <time>2011-08-07T10:52:56Z</time>
      </trkpt>
      <trkpt lat="44.100266899913549" lon="10.232033533975482">
        <ele>1507.8</ele>
        <time>2011-08-07T10:53:00Z</time>
      </trkpt>
      <trkpt lat="44.100247034803033" lon="10.232060439884663">
        <ele>1507.4000000000001</ele>
        <time>2011-08-07T10:53:02Z</time>
      </trkpt>
      <trkpt lat="44.100241670385003" lon="10.232114000245929">
        <ele>1506.4000000000001</ele>
        <time>2011-08-07T10:53:05Z</time>
      </trkpt>
      <trkpt lat="44.100243095308542" lon="10.232135206460953">
        <ele>1506</ele>
        <time>2011-08-07T10:53:06Z</time>
      </trkpt>
      <trkpt lat="44.100249214097857" lon="10.232170661911368">
        <ele>1505.2</ele>
        <time>2011-08-07T10:53:10Z</time>
      </trkpt>
      <trkpt lat="44.100157935172319" lon="10.232214163988829">
        <ele>1514.4000000000001</ele>
        <time>2011-08-07T10:53:54Z</time>
      </trkpt>
      <trkpt lat="44.100167071446776" lon="10.232217768207192">
        <ele>1512.8</ele>
        <time>2011-08-07T10:54:00Z</time>
      </trkpt>
      <trkpt lat="44.100154917687178" lon="10.232182731851935">
        <ele>1510.5999999999999</ele>
        <time>2011-08-07T10:54:07Z</time>
      </trkpt>
      <trkpt lat="44.100139662623405" lon="10.232153814285994">
        <ele>1509.2</ele>
        <time>2011-08-07T10:54:12Z</time>
      </trkpt>
      <trkpt lat="44.100121892988682" lon="10.232099918648601">
        <ele>1507.5999999999999</ele>
        <time>2011-08-07T10:54:20Z</time>
      </trkpt>
      <trkpt lat="44.10009004175663" lon="10.232078460976481">
        <ele>1506.4000000000001</ele>
        <time>2011-08-07T10:54:26Z</time>
      </trkpt>
      <trkpt lat="44.100061962381005" lon="10.232072090730071">
        <ele>1505.2</ele>
        <time>2011-08-07T10:54:33Z</time>
      </trkpt>
      <trkpt lat="44.100036900490522" lon="10.232074186205864">
        <ele>1503</ele>
        <time>2011-08-07T10:54:39Z</time>
      </trkpt>
      <trkpt lat="44.09995467402041" lon="10.231975615024567">
        <ele>1500.8</ele>
        <time>2011-08-07T10:55:07Z</time>
      </trkpt>
      <trkpt lat="44.099904634058475" lon="10.231933118775487">
        <ele>1498</ele>
        <time>2011-08-07T10:55:15Z</time>
      </trkpt>
      <trkpt lat="44.099860964342952" lon="10.231905961409211">
        <ele>1496</ele>
        <time>2011-08-07T10:55:22Z</time>
      </trkpt>
      <trkpt lat="44.099814193323255" lon="10.231944099068642">
        <ele>1493.5999999999999</ele>
        <time>2011-08-07T10:55:29Z</time>
      </trkpt>
      <trkpt lat="44.099793322384357" lon="10.231951558962464">
        <ele>1493.2</ele>
        <time>2011-08-07T10:55:34Z</time>
      </trkpt>
      <trkpt lat="44.099775971844792" lon="10.231939740478992">
        <ele>1493.4000000000001</ele>
        <time>2011-08-07T10:55:51Z</time>
      </trkpt>
      <trkpt lat="44.099752083420753" lon="10.231893137097359">
        <ele>1493.5999999999999</ele>
        <time>2011-08-07T10:56:08Z</time>
      </trkpt>
      <trkpt lat="44.099739762023091" lon="10.231851311400533">
        <ele>1493.8</ele>
        <time>2011-08-07T10:56:20Z</time>
      </trkpt>
      <trkpt lat="44.099717382341623" lon="10.231803534552455">
        <ele>1493.5999999999999</ele>
        <time>2011-08-07T10:56:26Z</time>
      </trkpt>
      <trkpt lat="44.099682010710239" lon="10.231723990291357">
        <ele>1492.8</ele>
        <time>2011-08-07T10:56:35Z</time>
      </trkpt>
      <trkpt lat="44.099684273824096" lon="10.231704795733094">
        <ele>1493</ele>
        <time>2011-08-07T10:56:42Z</time>
      </trkpt>
      <trkpt lat="44.09965518862009" lon="10.2316405903548">
        <ele>1490.5999999999999</ele>
        <time>2011-08-07T10:57:19Z</time>
      </trkpt>
      <trkpt lat="44.099593665450811" lon="10.231610583141446">
        <ele>1486.2</ele>
        <time>2011-08-07T10:57:27Z</time>
      </trkpt>
      <trkpt lat="44.099583690986037" lon="10.231611924245954">
        <ele>1485.8</ele>
        <time>2011-08-07T10:57:28Z</time>
      </trkpt>
      <trkpt lat="44.09955938346684" lon="10.231604464352131">
        <ele>1485</ele>
        <time>2011-08-07T10:57:31Z</time>
      </trkpt>
      <trkpt lat="44.099506828933954" lon="10.231576804071665">
        <ele>1483.5999999999999</ele>
        <time>2011-08-07T10:57:38Z</time>
      </trkpt>
      <trkpt lat="44.099443964660168" lon="10.231523411348462">
        <ele>1481.5999999999999</ele>
        <time>2011-08-07T10:57:48Z</time>
      </trkpt>
      <trkpt lat="44.09940549172461" lon="10.231482507660985">
        <ele>1480</ele>
        <time>2011-08-07T10:57:56Z</time>
      </trkpt>
      <trkpt lat="44.099358133971691" lon="10.231438335031271">
        <ele>1478</ele>
        <time>2011-08-07T10:58:05Z</time>
      </trkpt>
      <trkpt lat="44.099321588873863" lon="10.23142802529037">
        <ele>1477.5999999999999</ele>
        <time>2011-08-07T10:58:12Z</time>
      </trkpt>
      <trkpt lat="44.09923299215734" lon="10.231424504891038">
        <ele>1476.8</ele>
        <time>2011-08-07T10:58:24Z</time>
      </trkpt>
      <trkpt lat="44.099194435402751" lon="10.231439173221588">
        <ele>1475</ele>
        <time>2011-08-07T10:58:31Z</time>
      </trkpt>
      <trkpt lat="44.099183287471533" lon="10.231463313102722">
        <ele>1472</ele>
        <time>2011-08-07T10:58:36Z</time>
      </trkpt>
      <trkpt lat="44.099148334935308" lon="10.231481837108731">
        <ele>1471.2</ele>
        <time>2011-08-07T10:58:42Z</time>
      </trkpt>
      <trkpt lat="44.099085638299584" lon="10.231502708047628">
        <ele>1470.4000000000001</ele>
        <time>2011-08-07T10:58:51Z</time>
      </trkpt>
      <trkpt lat="44.099048338830471" lon="10.231503378599882">
        <ele>1469.4000000000001</ele>
        <time>2011-08-07T10:58:59Z</time>
      </trkpt>
      <trkpt lat="44.098985474556684" lon="10.231513604521751">
        <ele>1468.4000000000001</ele>
        <time>2011-08-07T10:59:06Z</time>
      </trkpt>
      <trkpt lat="44.098908612504601" lon="10.231522489339113">
        <ele>1466.5999999999999</ele>
        <time>2011-08-07T10:59:12Z</time>
      </trkpt>
      <trkpt lat="44.098911210894585" lon="10.231524920091033">
        <ele>1462.5999999999999</ele>
        <time>2011-08-07T10:59:19Z</time>
      </trkpt>
      <trkpt lat="44.098872570320964" lon="10.231496505439281">
        <ele>1460.5999999999999</ele>
        <time>2011-08-07T10:59:28Z</time>
      </trkpt>
      <trkpt lat="44.098842898383737" lon="10.231484938412905">
        <ele>1460</ele>
        <time>2011-08-07T10:59:34Z</time>
      </trkpt>
      <trkpt lat="44.098815238103271" lon="10.23148326203227">
        <ele>1460.4000000000001</ele>
        <time>2011-08-07T10:59:41Z</time>
      </trkpt>
      <trkpt lat="44.098756816238165" lon="10.231440514326096">
        <ele>1464.4000000000001</ele>
        <time>2011-08-07T11:00:17Z</time>
      </trkpt>
      <trkpt lat="44.098732760176063" lon="10.2314143627882">
        <ele>1461.8</ele>
        <time>2011-08-07T11:00:23Z</time>
      </trkpt>
      <trkpt lat="44.098659418523312" lon="10.231396341696382">
        <ele>1458.5999999999999</ele>
        <time>2011-08-07T11:00:34Z</time>
      </trkpt>
      <trkpt lat="44.098617509007454" lon="10.231392988935113">
        <ele>1456.4000000000001</ele>
        <time>2011-08-07T11:00:42Z</time>
      </trkpt>
      <trkpt lat="44.098553722724319" lon="10.231386367231607">
        <ele>1454</ele>
        <time>2011-08-07T11:00:51Z</time>
      </trkpt>
      <trkpt lat="44.098497899249196" lon="10.231351666152477">
        <ele>1451.8</ele>
        <time>2011-08-07T11:01:00Z</time>
      </trkpt>
      <trkpt lat="44.098443500697613" lon="10.231327274814248">
        <ele>1450.4000000000001</ele>
        <time>2011-08-07T11:01:08Z</time>
      </trkpt>
      <trkpt lat="44.098433526232839" lon="10.231319312006235">
        <ele>1449.2</ele>
        <time>2011-08-07T11:01:17Z</time>
      </trkpt>
      <trkpt lat="44.098361441865563" lon="10.231235409155488">
        <ele>1446.5999999999999</ele>
        <time>2011-08-07T11:01:23Z</time>
      </trkpt>
      <trkpt lat="44.098255410790443" lon="10.231154607608914">
        <ele>1444.2</ele>
        <time>2011-08-07T11:01:29Z</time>
      </trkpt>
      <trkpt lat="44.098160779103637" lon="10.23100046440959">
        <ele>1441</ele>
        <time>2011-08-07T11:01:36Z</time>
      </trkpt>
      <trkpt lat="44.09806371666491" lon="10.230934163555503">
        <ele>1438.5999999999999</ele>
        <time>2011-08-07T11:01:41Z</time>
      </trkpt>
      <trkpt lat="44.098046701401472" lon="10.230911113321781">
        <ele>1438</ele>
        <time>2011-08-07T11:01:44Z</time>
      </trkpt>
      <trkpt lat="44.098047874867916" lon="10.230915639549494">
        <ele>1437.8</ele>
        <time>2011-08-07T11:01:45Z</time>
      </trkpt>
      <trkpt lat="44.098058771342039" lon="10.230912202969193">
        <ele>1438.5999999999999</ele>
        <time>2011-08-07T11:01:50Z</time>
      </trkpt>
      <trkpt lat="44.098057262599468" lon="10.23088127374649">
        <ele>1439</ele>
        <time>2011-08-07T11:01:57Z</time>
      </trkpt>
      <trkpt lat="44.098050473257899" lon="10.230839867144823">
        <ele>1440</ele>
        <time>2011-08-07T11:02:05Z</time>
      </trkpt>
      <trkpt lat="44.098010407760739" lon="10.230744732543826">
        <ele>1440.4000000000001</ele>
        <time>2011-08-07T11:02:11Z</time>
      </trkpt>
      <trkpt lat="44.097945280373096" lon="10.230576759204268">
        <ele>1439.2</ele>
        <time>2011-08-07T11:02:16Z</time>
      </trkpt>
      <trkpt lat="44.097848637029529" lon="10.230472236871719">
        <ele>1434</ele>
        <time>2011-08-07T11:02:22Z</time>
      </trkpt>
      <trkpt lat="44.09778761677444" lon="10.230448432266712">
        <ele>1431.2</ele>
        <time>2011-08-07T11:02:25Z</time>
      </trkpt>
      <trkpt lat="44.0977534186095" lon="10.230415239930153">
        <ele>1429.5999999999999</ele>
        <time>2011-08-07T11:02:27Z</time>
      </trkpt>
      <trkpt lat="44.097621403634548" lon="10.230361763387918">
        <ele>1425.4000000000001</ele>
        <time>2011-08-07T11:02:33Z</time>
      </trkpt>
      <trkpt lat="44.097546134144068" lon="10.230259420350194">
        <ele>1423.4000000000001</ele>
        <time>2011-08-07T11:02:38Z</time>
      </trkpt>
      <trkpt lat="44.097526939585805" lon="10.230248775333166">
        <ele>1423</ele>
        <time>2011-08-07T11:02:39Z</time>
      </trkpt>
      <trkpt lat="44.097466338425875" lon="10.230222791433334">
        <ele>1420.5999999999999</ele>
        <time>2011-08-07T11:02:42Z</time>
      </trkpt>
      <trkpt lat="44.097468266263604" lon="10.230227736756206">
        <ele>1420.2</ele>
        <time>2011-08-07T11:02:43Z</time>
      </trkpt>
      <trkpt lat="44.097468182444572" lon="10.230231760069728">
        <ele>1419.4000000000001</ele>
        <time>2011-08-07T11:02:46Z</time>
      </trkpt>
      <trkpt lat="44.097421914339066" lon="10.230193370953202">
        <ele>1417.8</ele>
        <time>2011-08-07T11:03:01Z</time>
      </trkpt>
      <trkpt lat="44.097408084198833" lon="10.230189263820648">
        <ele>1417.5999999999999</ele>
        <time>2011-08-07T11:03:02Z</time>
      </trkpt>
      <trkpt lat="44.097412610426545" lon="10.230191610753536">
        <ele>1418.2</ele>
        <time>2011-08-07T11:03:06Z</time>
      </trkpt>
      <trkpt lat="44.097334239631891" lon="10.230131009593606">
        <ele>1430.5999999999999</ele>
        <time>2011-08-07T11:03:52Z</time>
      </trkpt>
      <trkpt lat="44.097356619313359" lon="10.230140062049031">
        <ele>1428</ele>
        <time>2011-08-07T11:03:57Z</time>
      </trkpt>
      <trkpt lat="44.097381765022874" lon="10.230157161131501">
        <ele>1425.2</ele>
        <time>2011-08-07T11:04:00Z</time>
      </trkpt>
      <trkpt lat="44.097387967631221" lon="10.230165459215641">
        <ele>1424.8</ele>
        <time>2011-08-07T11:04:01Z</time>
      </trkpt>
      <trkpt lat="44.097420321777463" lon="10.230194209143519">
        <ele>1422.4000000000001</ele>
        <time>2011-08-07T11:04:06Z</time>
      </trkpt>
      <trkpt lat="44.097417891025543" lon="10.230207704007626">
        <ele>1422.2</ele>
        <time>2011-08-07T11:04:07Z</time>
      </trkpt>
      <trkpt lat="44.097400540485978" lon="10.230217259377241">
        <ele>1422</ele>
        <time>2011-08-07T11:04:11Z</time>
      </trkpt>
      <trkpt lat="44.097403138875961" lon="10.230216672644019">
        <ele>1420.8</ele>
        <time>2011-08-07T11:04:16Z</time>
      </trkpt>
      <trkpt lat="44.097419232130051" lon="10.230240896344185">
        <ele>1421.2</ele>
        <time>2011-08-07T11:04:25Z</time>
      </trkpt>
      <trkpt lat="44.097451083362103" lon="10.230233771726489">
        <ele>1422</ele>
        <time>2011-08-07T11:05:28Z</time>
      </trkpt>
      <trkpt lat="44.097439767792821" lon="10.230235615745187">
        <ele>1422.4000000000001</ele>
        <time>2011-08-07T11:05:35Z</time>
      </trkpt>
      <trkpt lat="44.097427194938064" lon="10.230214241892099">
        <ele>1426.8</ele>
        <time>2011-08-07T11:07:23Z</time>
      </trkpt>
      <trkpt lat="44.097431637346745" lon="10.230210302397609">
        <ele>1426</ele>
        <time>2011-08-07T11:07:42Z</time>
      </trkpt>
      <trkpt lat="44.097442533820868" lon="10.230211559683084">
        <ele>1425.5999999999999</ele>
        <time>2011-08-07T11:07:52Z</time>
      </trkpt>
      <trkpt lat="44.097427697852254" lon="10.230205021798611">
        <ele>1425.8</ele>
        <time>2011-08-07T11:07:58Z</time>
      </trkpt>
      <trkpt lat="44.097402887418866" lon="10.230206111446023">
        <ele>1424</ele>
        <time>2011-08-07T11:08:09Z</time>
      </trkpt>
      <trkpt lat="44.097406240180135" lon="10.230213990435004">
        <ele>1424.2</ele>
        <time>2011-08-07T11:08:14Z</time>
      </trkpt>
      <trkpt lat="44.097424261271954" lon="10.230220779776573">
        <ele>1425.4000000000001</ele>
        <time>2011-08-07T11:08:52Z</time>
      </trkpt>
      <trkpt lat="44.097459716722369" lon="10.230229329317808">
        <ele>1426.2</ele>
        <time>2011-08-07T11:09:05Z</time>
      </trkpt>
      <trkpt lat="44.097448401153088" lon="10.230206279084086">
        <ele>1429.5999999999999</ele>
        <time>2011-08-07T11:10:35Z</time>
      </trkpt>
      <trkpt lat="44.097468601539731" lon="10.230224132537842">
        <ele>1425.8</ele>
        <time>2011-08-07T11:13:58Z</time>
      </trkpt>
      <trkpt lat="44.097448904067278" lon="10.230179876089096">
        <ele>1425.2</ele>
        <time>2011-08-07T11:14:43Z</time>
      </trkpt>
      <trkpt lat="44.09741235896945" lon="10.230170236900449">
        <ele>1423</ele>
        <time>2011-08-07T11:14:47Z</time>
      </trkpt>
      <trkpt lat="44.0973752271384" lon="10.230096895247698">
        <ele>1418.8</ele>
        <time>2011-08-07T11:14:57Z</time>
      </trkpt>
      <trkpt lat="44.097350668162107" lon="10.229944093152881">
        <ele>1417</ele>
        <time>2011-08-07T11:15:03Z</time>
      </trkpt>
      <trkpt lat="44.097333317622542" lon="10.229775616899133">
        <ele>1416.5999999999999</ele>
        <time>2011-08-07T11:15:09Z</time>
      </trkpt>
      <trkpt lat="44.097333317622542" lon="10.229755081236362">
        <ele>1416.8</ele>
        <time>2011-08-07T11:15:13Z</time>
      </trkpt>
      <trkpt lat="44.097349578514695" lon="10.229706885293126">
        <ele>1418.8</ele>
        <time>2011-08-07T11:15:23Z</time>
      </trkpt>
      <trkpt lat="44.09737229347229" lon="10.229706633836031">
        <ele>1419.4000000000001</ele>
        <time>2011-08-07T11:15:28Z</time>
      </trkpt>
      <trkpt lat="44.097399031743407" lon="10.229726918041706">
        <ele>1419.2</ele>
        <time>2011-08-07T11:15:34Z</time>
      </trkpt>
      <trkpt lat="44.097410263493657" lon="10.229745609685779">
        <ele>1419.2</ele>
        <time>2011-08-07T11:15:40Z</time>
      </trkpt>
      <trkpt lat="44.097464075312018" lon="10.229860693216324">
        <ele>1417.4000000000001</ele>
        <time>2011-08-07T11:15:45Z</time>
      </trkpt>
      <trkpt lat="44.097591731697321" lon="10.230012405663729">
        <ele>1415.4000000000001</ele>
        <time>2011-08-07T11:15:50Z</time>
      </trkpt>
      <trkpt lat="44.097743276506662" lon="10.230098990723491">
        <ele>1412.8</ele>
        <time>2011-08-07T11:15:56Z</time>
      </trkpt>
      <trkpt lat="44.097855007275939" lon="10.230073593556881">
        <ele>1410.4000000000001</ele>
        <time>2011-08-07T11:16:02Z</time>
      </trkpt>
      <trkpt lat="44.097964558750391" lon="10.230059260502458">
        <ele>1408.4000000000001</ele>
        <time>2011-08-07T11:16:07Z</time>
      </trkpt>
      <trkpt lat="44.098099172115326" lon="10.230130758136511">
        <ele>1405.4000000000001</ele>
        <time>2011-08-07T11:16:12Z</time>
      </trkpt>
      <trkpt lat="44.098212830722332" lon="10.230174930766225">
        <ele>1403.5999999999999</ele>
        <time>2011-08-07T11:16:17Z</time>
      </trkpt>
      <trkpt lat="44.098328836262226" lon="10.230267802253366">
        <ele>1401.2</ele>
        <time>2011-08-07T11:16:23Z</time>
      </trkpt>
      <trkpt lat="44.098408799618483" lon="10.23028758354485">
        <ele>1399.2</ele>
        <time>2011-08-07T11:16:26Z</time>
      </trkpt>
      <trkpt lat="44.098488427698612" lon="10.230291523039341">
        <ele>1398.5999999999999</ele>
        <time>2011-08-07T11:16:28Z</time>
      </trkpt>
      <trkpt lat="44.098553638905287" lon="10.230296887457371">
        <ele>1397.8</ele>
        <time>2011-08-07T11:16:30Z</time>
      </trkpt>
      <trkpt lat="44.098660508170724" lon="10.230310466140509">
        <ele>1395.8</ele>
        <time>2011-08-07T11:16:34Z</time>
      </trkpt>
      <trkpt lat="44.098713314160705" lon="10.230310717597604">
        <ele>1394.5999999999999</ele>
        <time>2011-08-07T11:16:39Z</time>
      </trkpt>
      <trkpt lat="44.098737370222807" lon="10.230281967669725">
        <ele>1398.2</ele>
        <time>2011-08-07T11:16:57Z</time>
      </trkpt>
      <trkpt lat="44.0987947024405" lon="10.230267802253366">
        <ele>1397.8</ele>
        <time>2011-08-07T11:17:05Z</time>
      </trkpt>
      <trkpt lat="44.098869301378727" lon="10.230252211913466">
        <ele>1397.4000000000001</ele>
        <time>2011-08-07T11:17:14Z</time>
      </trkpt>
      <trkpt lat="44.098902828991413" lon="10.230247937142849">
        <ele>1395.4000000000001</ele>
        <time>2011-08-07T11:17:20Z</time>
      </trkpt>
      <trkpt lat="44.098947588354349" lon="10.230218516662717">
        <ele>1394</ele>
        <time>2011-08-07T11:17:27Z</time>
      </trkpt>
      <trkpt lat="44.098926717415452" lon="10.230209464207292">
        <ele>1390</ele>
        <time>2011-08-07T11:17:33Z</time>
      </trkpt>
      <trkpt lat="44.098861841484904" lon="10.230210637673736">
        <ele>1384.5999999999999</ele>
        <time>2011-08-07T11:17:49Z</time>
      </trkpt>
      <trkpt lat="44.098802162334323" lon="10.230194795876741">
        <ele>1382.8</ele>
        <time>2011-08-07T11:17:57Z</time>
      </trkpt>
      <trkpt lat="44.098732760176063" lon="10.230187671259046">
        <ele>1381.4000000000001</ele>
        <time>2011-08-07T11:18:05Z</time>
      </trkpt>
      <trkpt lat="44.098725887015462" lon="10.230173505842686">
        <ele>1381.5999999999999</ele>
        <time>2011-08-07T11:18:13Z</time>
      </trkpt>
      <trkpt lat="44.098680624738336" lon="10.230098990723491">
        <ele>1381.8</ele>
        <time>2011-08-07T11:18:18Z</time>
      </trkpt>
      <trkpt lat="44.098613485693932" lon="10.229986421763897">
        <ele>1380.8</ele>
        <time>2011-08-07T11:18:24Z</time>
      </trkpt>
      <trkpt lat="44.09855674020946" lon="10.229935795068741">
        <ele>1379.2</ele>
        <time>2011-08-07T11:18:29Z</time>
      </trkpt>
      <trkpt lat="44.098463365808129" lon="10.229849210008979">
        <ele>1377.5999999999999</ele>
        <time>2011-08-07T11:18:35Z</time>
      </trkpt>
      <trkpt lat="44.09839253872633" lon="10.229729516431689">
        <ele>1375.4000000000001</ele>
        <time>2011-08-07T11:18:40Z</time>
      </trkpt>
      <trkpt lat="44.098275862634182" lon="10.229590041562915">
        <ele>1372.8</ele>
        <time>2011-08-07T11:18:46Z</time>
      </trkpt>
      <trkpt lat="44.09820101223886" lon="10.229426678270102">
        <ele>1370.4000000000001</ele>
        <time>2011-08-07T11:18:51Z</time>
      </trkpt>
      <trkpt lat="44.098084168508649" lon="10.229301704093814">
        <ele>1367.4000000000001</ele>
        <time>2011-08-07T11:18:57Z</time>
      </trkpt>
      <trkpt lat="44.097925834357738" lon="10.229193074628711">
        <ele>1364</ele>
        <time>2011-08-07T11:19:03Z</time>
      </trkpt>
      <trkpt lat="44.097911501303315" lon="10.2291573677212">
        <ele>1363.2</ele>
        <time>2011-08-07T11:19:04Z</time>
      </trkpt>
      <trkpt lat="44.097860036417842" lon="10.229053264483809">
        <ele>1361.8</ele>
        <time>2011-08-07T11:19:07Z</time>
      </trkpt>
      <trkpt lat="44.097823239862919" lon="10.228912197053432">
        <ele>1359.4000000000001</ele>
        <time>2011-08-07T11:19:11Z</time>
      </trkpt>
      <trkpt lat="44.097785437479615" lon="10.228833071887493">
        <ele>1358.2</ele>
        <time>2011-08-07T11:19:13Z</time>
      </trkpt>
      <trkpt lat="44.097730703651905" lon="10.228694686666131">
        <ele>1356.5999999999999</ele>
        <time>2011-08-07T11:19:18Z</time>
      </trkpt>
      <trkpt lat="44.09771041944623" lon="10.228521600365639">
        <ele>1353.8</ele>
        <time>2011-08-07T11:19:23Z</time>
      </trkpt>
      <trkpt lat="44.097634563222528" lon="10.228382628411055">
        <ele>1351.8</ele>
        <time>2011-08-07T11:19:28Z</time>
      </trkpt>
      <trkpt lat="44.097593910992146" lon="10.228339293971658">
        <ele>1350</ele>
        <time>2011-08-07T11:19:32Z</time>
      </trkpt>
      <trkpt lat="44.097591396421194" lon="10.228316998109221">
        <ele>1349.5999999999999</ele>
        <time>2011-08-07T11:19:33Z</time>
      </trkpt>
      <trkpt lat="44.097600867971778" lon="10.228273076936603">
        <ele>1349.4000000000001</ele>
        <time>2011-08-07T11:19:36Z</time>
      </trkpt>
      <trkpt lat="44.097610423341393" lon="10.228260336443782">
        <ele>1348.5999999999999</ele>
        <time>2011-08-07T11:19:38Z</time>
      </trkpt>
      <trkpt lat="44.097623163834214" lon="10.228267880156636">
        <ele>1348</ele>
        <time>2011-08-07T11:19:40Z</time>
      </trkpt>
      <trkpt lat="44.097649399191141" lon="10.228284224867821">
        <ele>1346.8</ele>
        <time>2011-08-07T11:19:43Z</time>
      </trkpt>
      <trkpt lat="44.097744533792138" lon="10.228343904018402">
        <ele>1342.8</ele>
        <time>2011-08-07T11:19:48Z</time>
      </trkpt>
      <trkpt lat="44.097855761647224" lon="10.228511122986674">
        <ele>1340</ele>
        <time>2011-08-07T11:19:53Z</time>
      </trkpt>
      <trkpt lat="44.098001187667251" lon="10.228704996407032">
        <ele>1335.8</ele>
        <time>2011-08-07T11:20:00Z</time>
      </trkpt>
      <trkpt lat="44.098155163228512" lon="10.228825863450766">
        <ele>1334.8</ele>
        <time>2011-08-07T11:20:06Z</time>
      </trkpt>
      <trkpt lat="44.098259015008807" lon="10.228815134614706">
        <ele>1334</ele>
        <time>2011-08-07T11:20:11Z</time>
      </trkpt>
      <trkpt lat="44.098474262282252" lon="10.228848410770297">
        <ele>1329.8</ele>
        <time>2011-08-07T11:20:18Z</time>
      </trkpt>
      <trkpt lat="44.09865153953433" lon="10.228948909789324">
        <ele>1326</ele>
        <time>2011-08-07T11:20:24Z</time>
      </trkpt>
      <trkpt lat="44.098770059645176" lon="10.228908928111196">
        <ele>1324.2</ele>
        <time>2011-08-07T11:20:29Z</time>
      </trkpt>
      <trkpt lat="44.098878772929311" lon="10.228804321959615">
        <ele>1320.5999999999999</ele>
        <time>2011-08-07T11:20:34Z</time>
      </trkpt>
      <trkpt lat="44.0988724026829" lon="10.228780433535576">
        <ele>1319.8</ele>
        <time>2011-08-07T11:20:35Z</time>
      </trkpt>
      <trkpt lat="44.098839964717627" lon="10.228776577860117">
        <ele>1318.8</ele>
        <time>2011-08-07T11:20:37Z</time>
      </trkpt>
      <trkpt lat="44.098795792087913" lon="10.228782696649432">
        <ele>1319.4000000000001</ele>
        <time>2011-08-07T11:20:40Z</time>
      </trkpt>
      <trkpt lat="44.098789840936661" lon="10.228776577860117">
        <ele>1320.8</ele>
        <time>2011-08-07T11:20:42Z</time>
      </trkpt>
      <trkpt lat="44.098825799301267" lon="10.228774482384324">
        <ele>1326</ele>
        <time>2011-08-07T11:21:45Z</time>
      </trkpt>
      <trkpt lat="44.09877123311162" lon="10.228759059682488">
        <ele>1324.5999999999999</ele>
        <time>2011-08-07T11:21:49Z</time>
      </trkpt>
      <trkpt lat="44.098769892007113" lon="10.228764424100518">
        <ele>1322.5999999999999</ele>
        <time>2011-08-07T11:21:54Z</time>
      </trkpt>
      <trkpt lat="44.098723037168384" lon="10.228756628930569">
        <ele>1320.4000000000001</ele>
        <time>2011-08-07T11:21:58Z</time>
      </trkpt>
      <trkpt lat="44.098658999428153" lon="10.228783702477813">
        <ele>1318.8</ele>
        <time>2011-08-07T11:22:03Z</time>
      </trkpt>
      <trkpt lat="44.098644414916635" lon="10.228778924793005">
        <ele>1318.5999999999999</ele>
        <time>2011-08-07T11:22:04Z</time>
      </trkpt>
      <trkpt lat="44.098605271428823" lon="10.228716395795345">
        <ele>1317.2</ele>
        <time>2011-08-07T11:22:08Z</time>
      </trkpt>
      <trkpt lat="44.098557662218809" lon="10.228672306984663">
        <ele>1315.8</ele>
        <time>2011-08-07T11:22:14Z</time>
      </trkpt>
      <trkpt lat="44.098543077707291" lon="10.228648083284497">
        <ele>1314.5999999999999</ele>
        <time>2011-08-07T11:22:17Z</time>
      </trkpt>
      <trkpt lat="44.098525727167726" lon="10.22861547768116">
        <ele>1313.5999999999999</ele>
        <time>2011-08-07T11:22:19Z</time>
      </trkpt>
      <trkpt lat="44.09848440438509" lon="10.228542722761631">
        <ele>1311.2</ele>
        <time>2011-08-07T11:22:22Z</time>
      </trkpt>
      <trkpt lat="44.098450792953372" lon="10.228482708334923">
        <ele>1309.8</ele>
        <time>2011-08-07T11:22:24Z</time>
      </trkpt>
      <trkpt lat="44.098349623382092" lon="10.228346586227417">
        <ele>1304.8</ele>
        <time>2011-08-07T11:22:30Z</time>
      </trkpt>
      <trkpt lat="44.098282903432846" lon="10.228147935122252">
        <ele>1300.4000000000001</ele>
        <time>2011-08-07T11:22:36Z</time>
      </trkpt>
      <trkpt lat="44.098241664469242" lon="10.227944506332278">
        <ele>1297.5999999999999</ele>
        <time>2011-08-07T11:22:41Z</time>
      </trkpt>
      <trkpt lat="44.098238730803132" lon="10.227795476093888">
        <ele>1295.4000000000001</ele>
        <time>2011-08-07T11:22:46Z</time>
      </trkpt>
      <trkpt lat="44.098152061924338" lon="10.227667400613427">
        <ele>1292.4000000000001</ele>
        <time>2011-08-07T11:22:51Z</time>
      </trkpt>
      <trkpt lat="44.098052820190787" lon="10.227543599903584">
        <ele>1286.8</ele>
        <time>2011-08-07T11:22:57Z</time>
      </trkpt>
      <trkpt lat="44.097981574013829" lon="10.227378224954009">
        <ele>1283.4000000000001</ele>
        <time>2011-08-07T11:23:02Z</time>
      </trkpt>
      <trkpt lat="44.097953578457236" lon="10.22720136679709">
        <ele>1280.8</ele>
        <time>2011-08-07T11:23:07Z</time>
      </trkpt>
      <trkpt lat="44.097903035581112" lon="10.226945802569389">
        <ele>1276.8</ele>
        <time>2011-08-07T11:23:14Z</time>
      </trkpt>
      <trkpt lat="44.097873196005821" lon="10.226744133979082">
        <ele>1273.2</ele>
        <time>2011-08-07T11:23:19Z</time>
      </trkpt>
      <trkpt lat="44.097868083044887" lon="10.226581525057554">
        <ele>1271</ele>
        <time>2011-08-07T11:23:24Z</time>
      </trkpt>
      <trkpt lat="44.097820892930031" lon="10.226376336067915">
        <ele>1267.4000000000001</ele>
        <time>2011-08-07T11:23:29Z</time>
      </trkpt>
      <trkpt lat="44.097818629816175" lon="10.226170560345054">
        <ele>1263.8</ele>
        <time>2011-08-07T11:23:34Z</time>
      </trkpt>
      <trkpt lat="44.097806392237544" lon="10.226153712719679">
        <ele>1263</ele>
        <time>2011-08-07T11:23:35Z</time>
      </trkpt>
      <trkpt lat="44.097749562934041" lon="10.226138541474938">
        <ele>1261.5999999999999</ele>
        <time>2011-08-07T11:23:37Z</time>
      </trkpt>
      <trkpt lat="44.097693990916014" lon="10.226106606423855">
        <ele>1258.5999999999999</ele>
        <time>2011-08-07T11:23:39Z</time>
      </trkpt>
      <trkpt lat="44.097586283460259" lon="10.22611565887928">
        <ele>1254.5999999999999</ele>
        <time>2011-08-07T11:23:43Z</time>
      </trkpt>
      <trkpt lat="44.097439935430884" lon="10.226083807647228">
        <ele>1250.8</ele>
        <time>2011-08-07T11:23:48Z</time>
      </trkpt>
      <trkpt lat="44.097347566857934" lon="10.225905608385801">
        <ele>1248.5999999999999</ele>
        <time>2011-08-07T11:23:54Z</time>
      </trkpt>
      <trkpt lat="44.097319236025214" lon="10.225816341117024">
        <ele>1247.4000000000001</ele>
        <time>2011-08-07T11:23:57Z</time>
      </trkpt>
      <trkpt lat="44.097290402278304" lon="10.225760936737061">
        <ele>1246.8</ele>
        <time>2011-08-07T11:23:59Z</time>
      </trkpt>
      <trkpt lat="44.09720566123724" lon="10.225643087178469">
        <ele>1243.5999999999999</ele>
        <time>2011-08-07T11:24:05Z</time>
      </trkpt>
      <trkpt lat="44.0971973631531" lon="10.225614840164781">
        <ele>1243</ele>
        <time>2011-08-07T11:24:06Z</time>
      </trkpt>
      <trkpt lat="44.097157130017877" lon="10.225521381944418">
        <ele>1241.4000000000001</ele>
        <time>2011-08-07T11:24:09Z</time>
      </trkpt>
      <trkpt lat="44.097127374261618" lon="10.225440412759781">
        <ele>1241</ele>
        <time>2011-08-07T11:24:11Z</time>
      </trkpt>
      <trkpt lat="44.09712016582489" lon="10.225267158821225">
        <ele>1241.5999999999999</ele>
        <time>2011-08-07T11:24:14Z</time>
      </trkpt>
      <trkpt lat="44.097150675952435" lon="10.225108237937093">
        <ele>1240.2</ele>
        <time>2011-08-07T11:24:18Z</time>
      </trkpt>
      <trkpt lat="44.097141791135073" lon="10.225075129419565">
        <ele>1239.5999999999999</ele>
        <time>2011-08-07T11:24:19Z</time>
      </trkpt>
      <trkpt lat="44.097121004015207" lon="10.224975636228919">
        <ele>1237.8</ele>
        <time>2011-08-07T11:24:22Z</time>
      </trkpt>
      <trkpt lat="44.097153525799513" lon="10.224850494414568">
        <ele>1235.4000000000001</ele>
        <time>2011-08-07T11:24:26Z</time>
      </trkpt>
      <trkpt lat="44.097156878560781" lon="10.224637510254979">
        <ele>1231.5999999999999</ele>
        <time>2011-08-07T11:24:32Z</time>
      </trkpt>
      <trkpt lat="44.097144389525056" lon="10.224556373432279">
        <ele>1230.2</ele>
        <time>2011-08-07T11:24:34Z</time>
      </trkpt>
      <trkpt lat="44.097157968208194" lon="10.224380185827613">
        <ele>1229</ele>
        <time>2011-08-07T11:24:38Z</time>
      </trkpt>
      <trkpt lat="44.097121423110366" lon="10.224214307963848">
        <ele>1224.4000000000001</ele>
        <time>2011-08-07T11:24:43Z</time>
      </trkpt>
      <trkpt lat="44.09702536650002" lon="10.224107103422284">
        <ele>1215</ele>
        <time>2011-08-07T11:24:48Z</time>
      </trkpt>
      <trkpt lat="44.096948336809874" lon="10.224072234705091">
        <ele>1209.5999999999999</ele>
        <time>2011-08-07T11:24:52Z</time>
      </trkpt>
      <trkpt lat="44.096922520548105" lon="10.224065026268363">
        <ele>1208</ele>
        <time>2011-08-07T11:24:53Z</time>
      </trkpt>
      <trkpt lat="44.096832582727075" lon="10.224115233868361">
        <ele>1202.5999999999999</ele>
        <time>2011-08-07T11:24:57Z</time>
      </trkpt>
      <trkpt lat="44.096808526664972" lon="10.224136272445321">
        <ele>1201.4000000000001</ele>
        <time>2011-08-07T11:24:58Z</time>
      </trkpt>
      <trkpt lat="44.096686318516731" lon="10.224196538329124">
        <ele>1194.4000000000001</ele>
        <time>2011-08-07T11:25:03Z</time>
      </trkpt>
      <trkpt lat="44.096632339060307" lon="10.224201316013932">
        <ele>1191.8</ele>
        <time>2011-08-07T11:25:07Z</time>
      </trkpt>
      <trkpt lat="44.096634015440941" lon="10.224191676825285">
        <ele>1192</ele>
        <time>2011-08-07T11:25:12Z</time>
      </trkpt>
      <trkpt lat="44.096624376252294" lon="10.224162926897407">
        <ele>1199.5999999999999</ele>
        <time>2011-08-07T11:26:12Z</time>
      </trkpt>
      <trkpt lat="44.096642062067986" lon="10.22418019361794">
        <ele>1200.4000000000001</ele>
        <time>2011-08-07T11:27:21Z</time>
      </trkpt>
      <trkpt lat="44.096623286604881" lon="10.224155634641647">
        <ele>1201</ele>
        <time>2011-08-07T11:27:28Z</time>
      </trkpt>
      <trkpt lat="44.096599901095033" lon="10.224161669611931">
        <ele>1203</ele>
        <time>2011-08-07T11:27:46Z</time>
      </trkpt>
      <trkpt lat="44.096566960215569" lon="10.22422076202929">
        <ele>1197.5999999999999</ele>
        <time>2011-08-07T11:28:38Z</time>
      </trkpt>
      <trkpt lat="44.096535611897707" lon="10.224273065105081">
        <ele>1197.8</ele>
        <time>2011-08-07T11:28:44Z</time>
      </trkpt>
      <trkpt lat="44.096523961052299" lon="10.224339365959167">
        <ele>1194.5999999999999</ele>
        <time>2011-08-07T11:28:51Z</time>
      </trkpt>
      <trkpt lat="44.096469394862652" lon="10.224486300721765">
        <ele>1190.8</ele>
        <time>2011-08-07T11:28:56Z</time>
      </trkpt>
      <trkpt lat="44.096399238333106" lon="10.224536759778857">
        <ele>1191.2</ele>
        <time>2011-08-07T11:28:59Z</time>
      </trkpt>
      <trkpt lat="44.096346935257316" lon="10.224564168602228">
        <ele>1189.8</ele>
        <time>2011-08-07T11:29:01Z</time>
      </trkpt>
      <trkpt lat="44.096292536705732" lon="10.224568024277687">
        <ele>1193</ele>
        <time>2011-08-07T11:29:03Z</time>
      </trkpt>
      <trkpt lat="44.096271665766835" lon="10.224561067298055">
        <ele>1192.5999999999999</ele>
        <time>2011-08-07T11:29:05Z</time>
      </trkpt>
      <trkpt lat="44.096180386841297" lon="10.224455371499062">
        <ele>1192.2</ele>
        <time>2011-08-07T11:29:11Z</time>
      </trkpt>
      <trkpt lat="44.096184493973851" lon="10.224431483075023">
        <ele>1191.8</ele>
        <time>2011-08-07T11:29:12Z</time>
      </trkpt>
      <trkpt lat="44.096213662996888" lon="10.224429806694388">
        <ele>1191.2</ele>
        <time>2011-08-07T11:29:15Z</time>
      </trkpt>
      <trkpt lat="44.096228163689375" lon="10.224428633227944">
        <ele>1190.8</ele>
        <time>2011-08-07T11:29:16Z</time>
      </trkpt>
      <trkpt lat="44.096265295520425" lon="10.224425364285707">
        <ele>1190</ele>
        <time>2011-08-07T11:29:19Z</time>
      </trkpt>
      <trkpt lat="44.096304103732109" lon="10.224410863593221">
        <ele>1189.4000000000001</ele>
        <time>2011-08-07T11:29:21Z</time>
      </trkpt>
      <trkpt lat="44.096357831731439" lon="10.224330062046647">
        <ele>1187.4000000000001</ele>
        <time>2011-08-07T11:29:26Z</time>
      </trkpt>
      <trkpt lat="44.096401417627931" lon="10.224160412326455">
        <ele>1184.2</ele>
        <time>2011-08-07T11:29:31Z</time>
      </trkpt>
      <trkpt lat="44.096415834501386" lon="10.223922785371542">
        <ele>1181.2</ele>
        <time>2011-08-07T11:29:38Z</time>
      </trkpt>
      <trkpt lat="44.096461264416575" lon="10.22375313565135">
        <ele>1177.5999999999999</ele>
        <time>2011-08-07T11:29:44Z</time>
      </trkpt>
      <trkpt lat="44.096568133682013" lon="10.223692618310452">
        <ele>1175</ele>
        <time>2011-08-07T11:29:49Z</time>
      </trkpt>
      <trkpt lat="44.09662370570004" lon="10.223650708794594">
        <ele>1172.5999999999999</ele>
        <time>2011-08-07T11:29:52Z</time>
      </trkpt>
      <trkpt lat="44.096674835309386" lon="10.223569069057703">
        <ele>1171</ele>
        <time>2011-08-07T11:29:55Z</time>
      </trkpt>
      <trkpt lat="44.096730407327414" lon="10.223421966657043">
        <ele>1168.4000000000001</ele>
        <time>2011-08-07T11:30:00Z</time>
      </trkpt>
      <trkpt lat="44.09681087359786" lon="10.223235888406634">
        <ele>1164.8</ele>
        <time>2011-08-07T11:30:06Z</time>
      </trkpt>
      <trkpt lat="44.096892094239593" lon="10.22305928170681">
        <ele>1160.5999999999999</ele>
        <time>2011-08-07T11:30:12Z</time>
      </trkpt>
      <trkpt lat="44.096917659044266" lon="10.223046373575926">
        <ele>1160.2</ele>
        <time>2011-08-07T11:30:13Z</time>
      </trkpt>
      <trkpt lat="44.096963927149773" lon="10.223051989451051">
        <ele>1158.5999999999999</ele>
        <time>2011-08-07T11:30:15Z</time>
      </trkpt>
      <trkpt lat="44.097039280459285" lon="10.223145112395287">
        <ele>1155</ele>
        <time>2011-08-07T11:30:19Z</time>
      </trkpt>
      <trkpt lat="44.097058977931738" lon="10.223169503733516">
        <ele>1153.5999999999999</ele>
        <time>2011-08-07T11:30:20Z</time>
      </trkpt>
      <trkpt lat="44.097166769206524" lon="10.223238235339522">
        <ele>1149.5999999999999</ele>
        <time>2011-08-07T11:30:24Z</time>
      </trkpt>
      <trkpt lat="44.097353098914027" lon="10.223319539800286">
        <ele>1147.4000000000001</ele>
        <time>2011-08-07T11:30:30Z</time>
      </trkpt>
      <trkpt lat="44.097473463043571" lon="10.223430013284087">
        <ele>1144.4000000000001</ele>
        <time>2011-08-07T11:30:35Z</time>
      </trkpt>
      <trkpt lat="44.097608411684632" lon="10.223527830094099">
        <ele>1144.4000000000001</ele>
        <time>2011-08-07T11:30:40Z</time>
      </trkpt>
      <trkpt lat="44.097658032551408" lon="10.223528668284416">
        <ele>1144</ele>
        <time>2011-08-07T11:30:42Z</time>
      </trkpt>
      <trkpt lat="44.097690470516682" lon="10.223500085994601">
        <ele>1142.2</ele>
        <time>2011-08-07T11:30:44Z</time>
      </trkpt>
      <trkpt lat="44.097691811621189" lon="10.223465133458376">
        <ele>1140.8</ele>
        <time>2011-08-07T11:30:48Z</time>
      </trkpt>
      <trkpt lat="44.097691141068935" lon="10.223474688827991">
        <ele>1141</ele>
        <time>2011-08-07T11:30:49Z</time>
      </trkpt>
      <trkpt lat="44.097667001187801" lon="10.22345163859427">
        <ele>1143.2</ele>
        <time>2011-08-07T11:30:52Z</time>
      </trkpt>
      <trkpt lat="44.097654260694981" lon="10.223424984142184">
        <ele>1144.2</ele>
        <time>2011-08-07T11:30:53Z</time>
      </trkpt>
      <trkpt lat="44.097611010074615" lon="10.223187273368239">
        <ele>1143.5999999999999</ele>
        <time>2011-08-07T11:30:58Z</time>
      </trkpt>
      <trkpt lat="44.097574632614851" lon="10.223035309463739">
        <ele>1141.2</ele>
        <time>2011-08-07T11:31:01Z</time>
      </trkpt>
      <trkpt lat="44.097555438056588" lon="10.222998093813658">
        <ele>1141.4000000000001</ele>
        <time>2011-08-07T11:31:02Z</time>
      </trkpt>
      <trkpt lat="44.097427865490317" lon="10.222842860966921">
        <ele>1134.8</ele>
        <time>2011-08-07T11:31:08Z</time>
      </trkpt>
      <trkpt lat="44.097316469997168" lon="10.222674217075109">
        <ele>1128.5999999999999</ele>
        <time>2011-08-07T11:31:14Z</time>
      </trkpt>
      <trkpt lat="44.097210019826889" lon="10.222510602325201">
        <ele>1123.2</ele>
        <time>2011-08-07T11:31:20Z</time>
      </trkpt>
      <trkpt lat="44.0970678627491" lon="10.22233416326344">
        <ele>1116.5999999999999</ele>
        <time>2011-08-07T11:31:27Z</time>
      </trkpt>
      <trkpt lat="44.096981612965465" lon="10.22228286601603">
        <ele>1111.8</ele>
        <time>2011-08-07T11:31:31Z</time>
      </trkpt>
      <trkpt lat="44.09697406925261" lon="10.222277417778969">
        <ele>1110.5999999999999</ele>
        <time>2011-08-07T11:31:33Z</time>
      </trkpt>
      <trkpt lat="44.096975913271308" lon="10.222259564325213">
        <ele>1109.4000000000001</ele>
        <time>2011-08-07T11:31:41Z</time>
      </trkpt>
      <trkpt lat="44.097019331529737" lon="10.22225009277463">
        <ele>1114.2</ele>
        <time>2011-08-07T11:36:30Z</time>
      </trkpt>
      <trkpt lat="44.097063336521387" lon="10.222233915701509">
        <ele>1112.4000000000001</ele>
        <time>2011-08-07T11:36:38Z</time>
      </trkpt>
      <trkpt lat="44.097158974036574" lon="10.222266102209687">
        <ele>1108.4000000000001</ele>
        <time>2011-08-07T11:36:44Z</time>
      </trkpt>
      <trkpt lat="44.097180934622884" lon="10.222292589023709">
        <ele>1106.4000000000001</ele>
        <time>2011-08-07T11:36:48Z</time>
      </trkpt>
      <trkpt lat="44.097190322354436" lon="10.222298707813025">
        <ele>1105.8</ele>
        <time>2011-08-07T11:36:50Z</time>
      </trkpt>
      <trkpt lat="44.097196189686656" lon="10.222289571538568">
        <ele>1105</ele>
        <time>2011-08-07T11:36:52Z</time>
      </trkpt>
      <trkpt lat="44.097162075340748" lon="10.222227880731225">
        <ele>1103.8</ele>
        <time>2011-08-07T11:37:00Z</time>
      </trkpt>
      <trkpt lat="44.097123434767127" lon="10.222184462472796">
        <ele>1102.5999999999999</ele>
        <time>2011-08-07T11:37:07Z</time>
      </trkpt>
      <trkpt lat="44.097091583535075" lon="10.222174739465117">
        <ele>1101</ele>
        <time>2011-08-07T11:37:13Z</time>
      </trkpt>
      <trkpt lat="44.097084375098348" lon="10.222164932638407">
        <ele>1098.4000000000001</ele>
        <time>2011-08-07T11:37:18Z</time>
      </trkpt>
      <trkpt lat="44.097047662362456" lon="10.222145402804017">
        <ele>1097.4000000000001</ele>
        <time>2011-08-07T11:37:20Z</time>
      </trkpt>
      <trkpt lat="44.096980858594179" lon="10.222146660089493">
        <ele>1095.4000000000001</ele>
        <time>2011-08-07T11:37:23Z</time>
      </trkpt>
      <trkpt lat="44.096921095624566" lon="10.222154790535569">
        <ele>1093.5999999999999</ele>
        <time>2011-08-07T11:37:26Z</time>
      </trkpt>
      <trkpt lat="44.096881784498692" lon="10.222120760008693">
        <ele>1090.8</ele>
        <time>2011-08-07T11:37:29Z</time>
      </trkpt>
      <trkpt lat="44.096887484192848" lon="10.22210106253624">
        <ele>1090.4000000000001</ele>
        <time>2011-08-07T11:37:30Z</time>
      </trkpt>
      <trkpt lat="44.096980020403862" lon="10.222017494961619">
        <ele>1088.2</ele>
        <time>2011-08-07T11:37:35Z</time>
      </trkpt>
      <trkpt lat="44.097074568271637" lon="10.221929736435413">
        <ele>1085.8</ele>
        <time>2011-08-07T11:37:40Z</time>
      </trkpt>
      <trkpt lat="44.097209433093667" lon="10.221896795555949">
        <ele>1080.4000000000001</ele>
        <time>2011-08-07T11:37:46Z</time>
      </trkpt>
      <trkpt lat="44.097247570753098" lon="10.221896125003695">
        <ele>1078</ele>
        <time>2011-08-07T11:37:49Z</time>
      </trkpt>
      <trkpt lat="44.097261233255267" lon="10.221893023699522">
        <ele>1076.8</ele>
        <time>2011-08-07T11:37:50Z</time>
      </trkpt>
      <trkpt lat="44.097342537716031" lon="10.221893778070807">
        <ele>1073.5999999999999</ele>
        <time>2011-08-07T11:37:54Z</time>
      </trkpt>
      <trkpt lat="44.097392158582807" lon="10.221903920173645">
        <ele>1072.2</ele>
        <time>2011-08-07T11:37:56Z</time>
      </trkpt>
      <trkpt lat="44.097454603761435" lon="10.221900567412376">
        <ele>1071</ele>
        <time>2011-08-07T11:37:58Z</time>
      </trkpt>
      <trkpt lat="44.097583182156086" lon="10.221829488873482">
        <ele>1070</ele>
        <time>2011-08-07T11:38:04Z</time>
      </trkpt>
      <trkpt lat="44.097535237669945" lon="10.221785064786673">
        <ele>1066.8</ele>
        <time>2011-08-07T11:38:08Z</time>
      </trkpt>
      <trkpt lat="44.09748762845993" lon="10.221728403121233">
        <ele>1065.5999999999999</ele>
        <time>2011-08-07T11:38:11Z</time>
      </trkpt>
      <trkpt lat="44.097460638731718" lon="10.221679285168648">
        <ele>1066</ele>
        <time>2011-08-07T11:38:13Z</time>
      </trkpt>
      <trkpt lat="44.097392158582807" lon="10.221620695665479">
        <ele>1064.2</ele>
        <time>2011-08-07T11:38:17Z</time>
      </trkpt>
      <trkpt lat="44.09735812805593" lon="10.221586413681507">
        <ele>1064.2</ele>
        <time>2011-08-07T11:38:19Z</time>
      </trkpt>
      <trkpt lat="44.097247738391161" lon="10.221452889963984">
        <ele>1061.8</ele>
        <time>2011-08-07T11:38:25Z</time>
      </trkpt>
      <trkpt lat="44.097129385918379" lon="10.221372675150633">
        <ele>1057.4000000000001</ele>
        <time>2011-08-07T11:38:31Z</time>
      </trkpt>
      <trkpt lat="44.097104826942086" lon="10.22137301042676">
        <ele>1057</ele>
        <time>2011-08-07T11:38:32Z</time>
      </trkpt>
      <trkpt lat="44.096937775611877" lon="10.221374938264489">
        <ele>1051.5999999999999</ele>
        <time>2011-08-07T11:38:39Z</time>
      </trkpt>
      <trkpt lat="44.09683384001255" lon="10.221337638795376">
        <ele>1046.4000000000001</ele>
        <time>2011-08-07T11:38:44Z</time>
      </trkpt>
      <trkpt lat="44.096696292981505" lon="10.221295477822423">
        <ele>1043</ele>
        <time>2011-08-07T11:38:50Z</time>
      </trkpt>
      <trkpt lat="44.096559165045619" lon="10.221199337393045">
        <ele>1037.8</ele>
        <time>2011-08-07T11:38:56Z</time>
      </trkpt>
      <trkpt lat="44.096474507823586" lon="10.221180394291878">
        <ele>1034.4000000000001</ele>
        <time>2011-08-07T11:39:00Z</time>
      </trkpt>
      <trkpt lat="44.096453301608562" lon="10.221196403726935">
        <ele>1033.2</ele>
        <time>2011-08-07T11:39:01Z</time>
      </trkpt>
      <trkpt lat="44.096385408192873" lon="10.221260776743293">
        <ele>1030.2</ele>
        <time>2011-08-07T11:39:04Z</time>
      </trkpt>
      <trkpt lat="44.096325226128101" lon="10.221284413710237">
        <ele>1028.8</ele>
        <time>2011-08-07T11:39:06Z</time>
      </trkpt>
      <trkpt lat="44.096198910847306" lon="10.221339231356978">
        <ele>1026</ele>
        <time>2011-08-07T11:39:10Z</time>
      </trkpt>
      <trkpt lat="44.096067901700735" lon="10.221363371238112">
        <ele>1023.8</ele>
        <time>2011-08-07T11:39:14Z</time>
      </trkpt>
      <trkpt lat="44.095921637490392" lon="10.221250969916582">
        <ele>1019.6</ele>
        <time>2011-08-07T11:39:20Z</time>
      </trkpt>
      <trkpt lat="44.095806973055005" lon="10.221085008233786">
        <ele>1015.6</ele>
        <time>2011-08-07T11:39:25Z</time>
      </trkpt>
      <trkpt lat="44.095711335539818" lon="10.220902785658836">
        <ele>1010.4</ele>
        <time>2011-08-07T11:39:31Z</time>
      </trkpt>
      <trkpt lat="44.095623409375548" lon="10.220675300806761">
        <ele>1005.6</ele>
        <time>2011-08-07T11:39:37Z</time>
      </trkpt>
      <trkpt lat="44.095591139048338" lon="10.220637498423457">
        <ele>1004.6</ele>
        <time>2011-08-07T11:39:39Z</time>
      </trkpt>
      <trkpt lat="44.095602286979556" lon="10.22059315815568">
        <ele>1003.8</ele>
        <time>2011-08-07T11:39:41Z</time>
      </trkpt>
      <trkpt lat="44.095647297799587" lon="10.220578741282225">
        <ele>1002.2</ele>
        <time>2011-08-07T11:39:43Z</time>
      </trkpt>
      <trkpt lat="44.09568996168673" lon="10.220593912526965">
        <ele>1001</ele>
        <time>2011-08-07T11:39:45Z</time>
      </trkpt>
      <trkpt lat="44.095805380493402" lon="10.220701117068529">
        <ele>998.39999999999998</ele>
        <time>2011-08-07T11:39:50Z</time>
      </trkpt>
      <trkpt lat="44.095850894227624" lon="10.220731124281883">
        <ele>993.79999999999995</ele>
        <time>2011-08-07T11:39:53Z</time>
      </trkpt>
      <trkpt lat="44.095865059643984" lon="10.220729112625122">
        <ele>994</ele>
        <time>2011-08-07T11:39:54Z</time>
      </trkpt>
      <trkpt lat="44.095950135961175" lon="10.220717629417777">
        <ele>991</ele>
        <time>2011-08-07T11:39:58Z</time>
      </trkpt>
      <trkpt lat="44.096015179529786" lon="10.220689717680216">
        <ele>990</ele>
        <time>2011-08-07T11:40:00Z</time>
      </trkpt>
      <trkpt lat="44.096116935834289" lon="10.220538089051843">
        <ele>989.79999999999995</ele>
        <time>2011-08-07T11:40:05Z</time>
      </trkpt>
      <trkpt lat="44.09627677872777" lon="10.220400961115956">
        <ele>983.79999999999995</ele>
        <time>2011-08-07T11:40:11Z</time>
      </trkpt>
      <trkpt lat="44.096417762339115" lon="10.220308592543006">
        <ele>978.60000000000002</ele>
        <time>2011-08-07T11:40:16Z</time>
      </trkpt>
      <trkpt lat="44.096556734293699" lon="10.220226282253861">
        <ele>972.79999999999995</ele>
        <time>2011-08-07T11:40:21Z</time>
      </trkpt>
      <trkpt lat="44.096677685156465" lon="10.220194514840841">
        <ele>969</ele>
        <time>2011-08-07T11:40:25Z</time>
      </trkpt>
      <trkpt lat="44.096835181117058" lon="10.220174062997103">
        <ele>964.39999999999998</ele>
        <time>2011-08-07T11:40:31Z</time>
      </trkpt>
      <trkpt lat="44.096992090344429" lon="10.220041964203119">
        <ele>960.39999999999998</ele>
        <time>2011-08-07T11:40:37Z</time>
      </trkpt>
      <trkpt lat="44.097079178318381" lon="10.219920510426164">
        <ele>959.39999999999998</ele>
        <time>2011-08-07T11:40:41Z</time>
      </trkpt>
      <trkpt lat="44.097185879945755" lon="10.21975027397275">
        <ele>958.39999999999998</ele>
        <time>2011-08-07T11:40:45Z</time>
      </trkpt>
      <trkpt lat="44.097301214933395" lon="10.219578109681606">
        <ele>955.79999999999995</ele>
        <time>2011-08-07T11:40:50Z</time>
      </trkpt>
      <trkpt lat="44.097334994003177" lon="10.219512479379773">
        <ele>954.39999999999998</ele>
        <time>2011-08-07T11:40:53Z</time>
      </trkpt>
      <trkpt lat="44.097345639020205" lon="10.219545001164079">
        <ele>954.39999999999998</ele>
        <time>2011-08-07T11:41:09Z</time>
      </trkpt>
      <trkpt lat="44.097270034253597" lon="10.219588587060571">
        <ele>957.20000000000005</ele>
        <time>2011-08-07T11:43:59Z</time>
      </trkpt>
      <trkpt lat="44.097146987915039" lon="10.219667376950383">
        <ele>953.79999999999995</ele>
        <time>2011-08-07T11:44:06Z</time>
      </trkpt>
      <trkpt lat="44.097089320421219" lon="10.219700066372752">
        <ele>951</ele>
        <time>2011-08-07T11:44:12Z</time>
      </trkpt>
      <trkpt lat="44.097061324864626" lon="10.219707861542702">
        <ele>949</ele>
        <time>2011-08-07T11:44:16Z</time>
      </trkpt>
      <trkpt lat="44.09693886525929" lon="10.219747591763735">
        <ele>944.79999999999995</ele>
        <time>2011-08-07T11:44:22Z</time>
      </trkpt>
      <trkpt lat="44.096757564693689" lon="10.219760164618492">
        <ele>939.60000000000002</ele>
        <time>2011-08-07T11:44:29Z</time>
      </trkpt>
      <trkpt lat="44.096635272726417" lon="10.219684476032853">
        <ele>935.39999999999998</ele>
        <time>2011-08-07T11:44:35Z</time>
      </trkpt>
      <trkpt lat="44.096557572484016" lon="10.219645081087947">
        <ele>932.39999999999998</ele>
        <time>2011-08-07T11:44:39Z</time>
      </trkpt>
      <trkpt lat="44.096510717645288" lon="10.219653965905309">
        <ele>931.39999999999998</ele>
        <time>2011-08-07T11:44:41Z</time>
      </trkpt>
      <trkpt lat="44.096433268859982" lon="10.21965840831399">
        <ele>930.20000000000005</ele>
        <time>2011-08-07T11:44:44Z</time>
      </trkpt>
      <trkpt lat="44.096403094008565" lon="10.219659665599465">
        <ele>928.79999999999995</ele>
        <time>2011-08-07T11:44:46Z</time>
      </trkpt>
      <trkpt lat="44.096381971612573" lon="10.219656229019165">
        <ele>926.39999999999998</ele>
        <time>2011-08-07T11:44:53Z</time>
      </trkpt>
      <trkpt lat="44.096347689628601" lon="10.219650361686945">
        <ele>925.60000000000002</ele>
        <time>2011-08-07T11:44:59Z</time>
      </trkpt>
      <trkpt lat="44.096293374896049" lon="10.219642398878932">
        <ele>924.60000000000002</ele>
        <time>2011-08-07T11:45:08Z</time>
      </trkpt>
      <trkpt lat="44.096251716837287" lon="10.219636280089617">
        <ele>923.39999999999998</ele>
        <time>2011-08-07T11:45:14Z</time>
      </trkpt>
      <trkpt lat="44.096214165911078" lon="10.219637621194124">
        <ele>922.39999999999998</ele>
        <time>2011-08-07T11:45:21Z</time>
      </trkpt>
      <trkpt lat="44.096197402104735" lon="10.219643739983439">
        <ele>920.39999999999998</ele>
        <time>2011-08-07T11:45:26Z</time>
      </trkpt>
      <trkpt lat="44.096164293587208" lon="10.21962177939713">
        <ele>918.79999999999995</ele>
        <time>2011-08-07T11:45:32Z</time>
      </trkpt>
      <trkpt lat="44.096128838136792" lon="10.219559837132692">
        <ele>920.20000000000005</ele>
        <time>2011-08-07T11:45:38Z</time>
      </trkpt>
      <trkpt lat="44.096112661063671" lon="10.219539804384112">
        <ele>922.60000000000002</ele>
        <time>2011-08-07T11:45:46Z</time>
      </trkpt>
      <trkpt lat="44.096301002427936" lon="10.219442490488291">
        <ele>937.60000000000002</ele>
        <time>2011-08-07T11:55:28Z</time>
      </trkpt>
      <trkpt lat="44.096225900575519" lon="10.21960417740047">
        <ele>908.39999999999998</ele>
        <time>2011-08-07T12:00:36Z</time>
      </trkpt>
      <trkpt lat="44.096000595018268" lon="10.219397563487291">
        <ele>930.39999999999998</ele>
        <time>2011-08-07T12:01:22Z</time>
      </trkpt>
      <trkpt lat="44.096185332164168" lon="10.2194610144943">
        <ele>934</ele>
        <time>2011-08-07T12:02:10Z</time>
      </trkpt>
      <trkpt lat="44.096198072656989" lon="10.219496386125684">
        <ele>931.20000000000005</ele>
        <time>2011-08-07T12:02:13Z</time>
      </trkpt>
      <trkpt lat="44.096172507852316" lon="10.219480711966753">
        <ele>921.20000000000005</ele>
        <time>2011-08-07T12:03:08Z</time>
      </trkpt>
      <trkpt lat="44.096219865605235" lon="10.219533098861575">
        <ele>917</ele>
        <time>2011-08-07T12:03:14Z</time>
      </trkpt>
      <trkpt lat="44.096251633018255" lon="10.219570901244879">
        <ele>913</ele>
        <time>2011-08-07T12:03:21Z</time>
      </trkpt>
      <trkpt lat="44.096300583332777" lon="10.2196095418185">
        <ele>909.39999999999998</ele>
        <time>2011-08-07T12:03:29Z</time>
      </trkpt>
      <trkpt lat="44.096267474815249" lon="10.219564782455564">
        <ele>906</ele>
        <time>2011-08-07T12:03:44Z</time>
      </trkpt>
      <trkpt lat="44.096299158409238" lon="10.21951038390398">
        <ele>906</ele>
        <time>2011-08-07T12:03:47Z</time>
      </trkpt>
      <trkpt lat="44.096401082351804" lon="10.219321539625525">
        <ele>907.79999999999995</ele>
        <time>2011-08-07T12:03:55Z</time>
      </trkpt>
      <trkpt lat="44.096532762050629" lon="10.219188937917352">
        <ele>904.39999999999998</ele>
        <time>2011-08-07T12:04:03Z</time>
      </trkpt>
      <trkpt lat="44.096622280776501" lon="10.219172174111009">
        <ele>902.39999999999998</ele>
        <time>2011-08-07T12:04:07Z</time>
      </trkpt>
      <trkpt lat="44.096751362085342" lon="10.219150213524699">
        <ele>895.79999999999995</ele>
        <time>2011-08-07T12:04:12Z</time>
      </trkpt>
      <trkpt lat="44.096793858334422" lon="10.219006463885307">
        <ele>893.39999999999998</ele>
        <time>2011-08-07T12:04:17Z</time>
      </trkpt>
      <trkpt lat="44.096800899133086" lon="10.218815691769123">
        <ele>894.20000000000005</ele>
        <time>2011-08-07T12:04:22Z</time>
      </trkpt>
      <trkpt lat="44.096856135874987" lon="10.218740338459611">
        <ele>893</ele>
        <time>2011-08-07T12:04:25Z</time>
      </trkpt>
      <trkpt lat="44.096886562183499" lon="10.218731369823217">
        <ele>891.60000000000002</ele>
        <time>2011-08-07T12:04:26Z</time>
      </trkpt>
      <trkpt lat="44.097055206075311" lon="10.218649059534073">
        <ele>889</ele>
        <time>2011-08-07T12:04:32Z</time>
      </trkpt>
      <trkpt lat="44.09718856215477" lon="10.218633217737079">
        <ele>886.20000000000005</ele>
        <time>2011-08-07T12:04:37Z</time>
      </trkpt>
      <trkpt lat="44.097348991781473" lon="10.218644198030233">
        <ele>881.39999999999998</ele>
        <time>2011-08-07T12:04:42Z</time>
      </trkpt>
      <trkpt lat="44.097469272091985" lon="10.218581082299352">
        <ele>878</ele>
        <time>2011-08-07T12:04:46Z</time>
      </trkpt>
      <trkpt lat="44.097544122487307" lon="10.218391064554453">
        <ele>878.60000000000002</ele>
        <time>2011-08-07T12:04:51Z</time>
      </trkpt>
      <trkpt lat="44.097552420571446" lon="10.218259636312723">
        <ele>879.39999999999998</ele>
        <time>2011-08-07T12:04:55Z</time>
      </trkpt>
      <trkpt lat="44.097527107223868" lon="10.218249410390854">
        <ele>879.60000000000002</ele>
        <time>2011-08-07T12:04:56Z</time>
      </trkpt>
      <trkpt lat="44.097464997321367" lon="10.218312609940767">
        <ele>877</ele>
        <time>2011-08-07T12:04:59Z</time>
      </trkpt>
      <trkpt lat="44.097392158582807" lon="10.21838117390871">
        <ele>874.39999999999998</ele>
        <time>2011-08-07T12:05:03Z</time>
      </trkpt>
      <trkpt lat="44.097195016220212" lon="10.21844026632607">
        <ele>876</ele>
        <time>2011-08-07T12:05:08Z</time>
      </trkpt>
      <trkpt lat="44.097150508314371" lon="10.218400871381164">
        <ele>874.60000000000002</ele>
        <time>2011-08-07T12:05:11Z</time>
      </trkpt>
      <trkpt lat="44.097211277112365" lon="10.21828536875546">
        <ele>873.39999999999998</ele>
        <time>2011-08-07T12:05:15Z</time>
      </trkpt>
      <trkpt lat="44.097286965698004" lon="10.218226360157132">
        <ele>870</ele>
        <time>2011-08-07T12:05:18Z</time>
      </trkpt>
      <trkpt lat="44.097355278208852" lon="10.218154694885015">
        <ele>867.60000000000002</ele>
        <time>2011-08-07T12:05:21Z</time>
      </trkpt>
      <trkpt lat="44.097490226849914" lon="10.218013795092702">
        <ele>861.79999999999995</ele>
        <time>2011-08-07T12:05:27Z</time>
      </trkpt>
      <trkpt lat="44.097633641213179" lon="10.217867530882359">
        <ele>857.79999999999995</ele>
        <time>2011-08-07T12:05:33Z</time>
      </trkpt>
      <trkpt lat="44.097739839926362" lon="10.217806175351143">
        <ele>854</ele>
        <time>2011-08-07T12:05:38Z</time>
      </trkpt>
      <trkpt lat="44.097746126353741" lon="10.217783628031611">
        <ele>853.20000000000005</ele>
        <time>2011-08-07T12:05:39Z</time>
      </trkpt>
      <trkpt lat="44.097685692831874" lon="10.217750100418925">
        <ele>852</ele>
        <time>2011-08-07T12:05:42Z</time>
      </trkpt>
      <trkpt lat="44.097599778324366" lon="10.217799469828606">
        <ele>849.79999999999995</ele>
        <time>2011-08-07T12:05:45Z</time>
      </trkpt>
      <trkpt lat="44.097545882686973" lon="10.217832829803228">
        <ele>848</ele>
        <time>2011-08-07T12:05:47Z</time>
      </trkpt>
      <trkpt lat="44.097418393939734" lon="10.217823693528771">
        <ele>846.20000000000005</ele>
        <time>2011-08-07T12:05:51Z</time>
      </trkpt>
      <trkpt lat="44.097219575196505" lon="10.217801900580525">
        <ele>842.79999999999995</ele>
        <time>2011-08-07T12:05:58Z</time>
      </trkpt>
      <trkpt lat="44.097099462524056" lon="10.217763092368841">
        <ele>838.39999999999998</ele>
        <time>2011-08-07T12:06:03Z</time>
      </trkpt>
      <trkpt lat="44.096986893564463" lon="10.217825034633279">
        <ele>833.60000000000002</ele>
        <time>2011-08-07T12:06:08Z</time>
      </trkpt>
      <trkpt lat="44.096859404817224" lon="10.217947913333774">
        <ele>829</ele>
        <time>2011-08-07T12:06:14Z</time>
      </trkpt>
      <trkpt lat="44.096705010160804" lon="10.21802980452776">
        <ele>825.60000000000002</ele>
        <time>2011-08-07T12:06:20Z</time>
      </trkpt>
      <trkpt lat="44.096571570262313" lon="10.218114713206887">
        <ele>823</ele>
        <time>2011-08-07T12:06:26Z</time>
      </trkpt>
      <trkpt lat="44.096497977152467" lon="10.218158634379506">
        <ele>825.20000000000005</ele>
        <time>2011-08-07T12:06:29Z</time>
      </trkpt>
      <trkpt lat="44.096488505601883" lon="10.218127788975835">
        <ele>824.39999999999998</ele>
        <time>2011-08-07T12:06:31Z</time>
      </trkpt>
      <trkpt lat="44.096496216952801" lon="10.218050004914403">
        <ele>822.39999999999998</ele>
        <time>2011-08-07T12:06:34Z</time>
      </trkpt>
      <trkpt lat="44.096508119255304" lon="10.217988481745124">
        <ele>820.79999999999995</ele>
        <time>2011-08-07T12:06:36Z</time>
      </trkpt>
      <trkpt lat="44.096564361825585" lon="10.217823022976518">
        <ele>816.60000000000002</ele>
        <time>2011-08-07T12:06:42Z</time>
      </trkpt>
      <trkpt lat="44.096643822267652" lon="10.217732414603233">
        <ele>814.60000000000002</ele>
        <time>2011-08-07T12:06:46Z</time>
      </trkpt>
      <trkpt lat="44.096722360700369" lon="10.217602830380201">
        <ele>812.79999999999995</ele>
        <time>2011-08-07T12:06:51Z</time>
      </trkpt>
      <trkpt lat="44.096752870827913" lon="10.217403760179877">
        <ele>809.79999999999995</ele>
        <time>2011-08-07T12:06:57Z</time>
      </trkpt>
      <trkpt lat="44.096780363470316" lon="10.217122798785567">
        <ele>804.39999999999998</ele>
        <time>2011-08-07T12:07:04Z</time>
      </trkpt>
      <trkpt lat="44.096827721223235" lon="10.216905623674393">
        <ele>799.39999999999998</ele>
        <time>2011-08-07T12:07:09Z</time>
      </trkpt>
      <trkpt lat="44.096971722319722" lon="10.216803699731827">
        <ele>795</ele>
        <time>2011-08-07T12:07:14Z</time>
      </trkpt>
      <trkpt lat="44.09712846390903" lon="10.21681166253984">
        <ele>789.39999999999998</ele>
        <time>2011-08-07T12:07:19Z</time>
      </trkpt>
      <trkpt lat="44.097286714240909" lon="10.216756593436003">
        <ele>788.60000000000002</ele>
        <time>2011-08-07T12:07:25Z</time>
      </trkpt>
      <trkpt lat="44.09735226072371" lon="10.216686436906457">
        <ele>783.79999999999995</ele>
        <time>2011-08-07T12:07:29Z</time>
      </trkpt>
      <trkpt lat="44.097339268773794" lon="10.216666907072067">
        <ele>785</ele>
        <time>2011-08-07T12:07:30Z</time>
      </trkpt>
      <trkpt lat="44.09724622964859" lon="10.216695070266724">
        <ele>781.39999999999998</ele>
        <time>2011-08-07T12:07:34Z</time>
      </trkpt>
      <trkpt lat="44.09710843116045" lon="10.216632541269064">
        <ele>784.39999999999998</ele>
        <time>2011-08-07T12:07:38Z</time>
      </trkpt>
      <trkpt lat="44.097078591585159" lon="10.216609239578247">
        <ele>784.39999999999998</ele>
        <time>2011-08-07T12:07:39Z</time>
      </trkpt>
      <trkpt lat="44.096932159736753" lon="10.216501364484429">
        <ele>779.39999999999998</ele>
        <time>2011-08-07T12:07:45Z</time>
      </trkpt>
      <trkpt lat="44.096831493079662" lon="10.216541429981589">
        <ele>773.60000000000002</ele>
        <time>2011-08-07T12:07:49Z</time>
      </trkpt>
      <trkpt lat="44.096695622429252" lon="10.216625584289432">
        <ele>768.79999999999995</ele>
        <time>2011-08-07T12:07:54Z</time>
      </trkpt>
      <trkpt lat="44.096596799790859" lon="10.216671684756875">
        <ele>760.79999999999995</ele>
        <time>2011-08-07T12:07:59Z</time>
      </trkpt>
      <trkpt lat="44.096600068733096" lon="10.216631535440683">
        <ele>759.79999999999995</ele>
        <time>2011-08-07T12:08:00Z</time>
      </trkpt>
      <trkpt lat="44.09666134044528" lon="10.216548386961222">
        <ele>758.79999999999995</ele>
        <time>2011-08-07T12:08:03Z</time>
      </trkpt>
      <trkpt lat="44.09674096852541" lon="10.216422826051712">
        <ele>756</ele>
        <time>2011-08-07T12:08:07Z</time>
      </trkpt>
      <trkpt lat="44.096768628805876" lon="10.216387370601296">
        <ele>755.39999999999998</ele>
        <time>2011-08-07T12:08:08Z</time>
      </trkpt>
      <trkpt lat="44.096897710114717" lon="10.216216631233692">
        <ele>748.60000000000002</ele>
        <time>2011-08-07T12:08:14Z</time>
      </trkpt>
      <trkpt lat="44.096977170556784" lon="10.216160388663411">
        <ele>748.20000000000005</ele>
        <time>2011-08-07T12:08:17Z</time>
      </trkpt>
      <trkpt lat="44.097049841657281" lon="10.216158628463745">
        <ele>746.79999999999995</ele>
        <time>2011-08-07T12:08:19Z</time>
      </trkpt>
      <trkpt lat="44.097218066453934" lon="10.216134237125516">
        <ele>739.20000000000005</ele>
        <time>2011-08-07T12:08:24Z</time>
      </trkpt>
      <trkpt lat="44.097262071445584" lon="10.215993672609329">
        <ele>741.79999999999995</ele>
        <time>2011-08-07T12:08:28Z</time>
      </trkpt>
      <trkpt lat="44.097287971526384" lon="10.215899460017681">
        <ele>741.20000000000005</ele>
        <time>2011-08-07T12:08:31Z</time>
      </trkpt>
      <trkpt lat="44.097314961254597" lon="10.215788315981627">
        <ele>737.79999999999995</ele>
        <time>2011-08-07T12:08:34Z</time>
      </trkpt>
      <trkpt lat="44.097346309572458" lon="10.215535936877131">
        <ele>733.60000000000002</ele>
        <time>2011-08-07T12:08:40Z</time>
      </trkpt>
      <trkpt lat="44.097348237410188" lon="10.215358911082149">
        <ele>728.39999999999998</ele>
        <time>2011-08-07T12:08:45Z</time>
      </trkpt>
      <trkpt lat="44.097385033965111" lon="10.215314738452435">
        <ele>728.20000000000005</ele>
        <time>2011-08-07T12:08:47Z</time>
      </trkpt>
      <trkpt lat="44.097437839955091" lon="10.215312978252769">
        <ele>726.39999999999998</ele>
        <time>2011-08-07T12:08:49Z</time>
      </trkpt>
      <trkpt lat="44.09747052937746" lon="10.215310296043754">
        <ele>725.79999999999995</ele>
        <time>2011-08-07T12:08:52Z</time>
      </trkpt>
      <trkpt lat="44.097472373396158" lon="10.215303339064121">
        <ele>726.39999999999998</ele>
        <time>2011-08-07T12:08:53Z</time>
      </trkpt>
      <trkpt lat="44.097481677308679" lon="10.215263105928898">
        <ele>731.39999999999998</ele>
        <time>2011-08-07T12:08:59Z</time>
      </trkpt>
      <trkpt lat="44.097491065040231" lon="10.215248605236411">
        <ele>731.20000000000005</ele>
        <time>2011-08-07T12:09:04Z</time>
      </trkpt>
      <trkpt lat="44.097455693408847" lon="10.21529202349484">
        <ele>719.39999999999998</ele>
        <time>2011-08-07T12:12:31Z</time>
      </trkpt>
      <trkpt lat="44.097387380897999" lon="10.215266291052103">
        <ele>715.60000000000002</ele>
        <time>2011-08-07T12:12:41Z</time>
      </trkpt>
      <trkpt lat="44.097312865778804" lon="10.215281210839748">
        <ele>713.60000000000002</ele>
        <time>2011-08-07T12:12:52Z</time>
      </trkpt>
      <trkpt lat="44.097323259338737" lon="10.215282635763288">
        <ele>711</ele>
        <time>2011-08-07T12:13:00Z</time>
      </trkpt>
      <trkpt lat="44.097254108637571" lon="10.215315660461783">
        <ele>722.79999999999995</ele>
        <time>2011-08-07T12:13:10Z</time>
      </trkpt>
      <trkpt lat="44.097241368144751" lon="10.215335274115205">
        <ele>722.39999999999998</ele>
        <time>2011-08-07T12:13:13Z</time>
      </trkpt>
      <trkpt lat="44.097221167758107" lon="10.21535019390285">
        <ele>725.39999999999998</ele>
        <time>2011-08-07T12:13:15Z</time>
      </trkpt>
      <trkpt lat="44.09718856215477" lon="10.215430660173297">
        <ele>725</ele>
        <time>2011-08-07T12:13:23Z</time>
      </trkpt>
      <trkpt lat="44.097176492214203" lon="10.215530237182975">
        <ele>720.20000000000005</ele>
        <time>2011-08-07T12:13:33Z</time>
      </trkpt>
      <trkpt lat="44.09714849665761" lon="10.21563408896327">
        <ele>716.79999999999995</ele>
        <time>2011-08-07T12:13:43Z</time>
      </trkpt>
      <trkpt lat="44.097095690667629" lon="10.215696785598993">
        <ele>714</ele>
        <time>2011-08-07T12:13:53Z</time>
      </trkpt>
      <trkpt lat="44.097096025943756" lon="10.215635765343904">
        <ele>712.20000000000005</ele>
        <time>2011-08-07T12:14:00Z</time>
      </trkpt>
      <trkpt lat="44.097116310149431" lon="10.215549012646079">
        <ele>712.60000000000002</ele>
        <time>2011-08-07T12:14:07Z</time>
      </trkpt>
      <trkpt lat="44.097115220502019" lon="10.21552512422204">
        <ele>712.39999999999998</ele>
        <time>2011-08-07T12:14:09Z</time>
      </trkpt>
      <trkpt lat="44.097118237987161" lon="10.215489165857434">
        <ele>711.20000000000005</ele>
        <time>2011-08-07T12:14:12Z</time>
      </trkpt>
      <trkpt lat="44.097106922417879" lon="10.215382464230061">
        <ele>711.79999999999995</ele>
        <time>2011-08-07T12:14:20Z</time>
      </trkpt>
      <trkpt lat="44.097106838598847" lon="10.215271487832069">
        <ele>712.20000000000005</ele>
        <time>2011-08-07T12:14:28Z</time>
      </trkpt>
      <trkpt lat="44.097110778093338" lon="10.21525489166379">
        <ele>711.79999999999995</ele>
        <time>2011-08-07T12:14:30Z</time>
      </trkpt>
      <trkpt lat="44.097117986530066" lon="10.215208539739251">
        <ele>709.79999999999995</ele>
        <time>2011-08-07T12:14:34Z</time>
      </trkpt>
      <trkpt lat="44.09712066873908" lon="10.21518406458199">
        <ele>709.39999999999998</ele>
        <time>2011-08-07T12:14:36Z</time>
      </trkpt>
      <trkpt lat="44.097118992358446" lon="10.215085409581661">
        <ele>705.79999999999995</ele>
        <time>2011-08-07T12:14:45Z</time>
      </trkpt>
      <trkpt lat="44.097125697880983" lon="10.215035118162632">
        <ele>708</ele>
        <time>2011-08-07T12:14:51Z</time>
      </trkpt>
      <trkpt lat="44.09714506007731" lon="10.21498222835362">
        <ele>711.20000000000005</ele>
        <time>2011-08-07T12:14:56Z</time>
      </trkpt>
      <trkpt lat="44.097131481394172" lon="10.214860523119569">
        <ele>727.60000000000002</ele>
        <time>2011-08-07T12:15:04Z</time>
      </trkpt>
      <trkpt lat="44.097120417281985" lon="10.21481953561306">
        <ele>733.60000000000002</ele>
        <time>2011-08-07T12:15:09Z</time>
      </trkpt>
      <trkpt lat="44.0971162263304" lon="10.214775698259473">
        <ele>740</ele>
        <time>2011-08-07T12:15:12Z</time>
      </trkpt>
      <trkpt lat="44.097130559384823" lon="10.214738063514233">
        <ele>742.39999999999998</ele>
        <time>2011-08-07T12:15:16Z</time>
      </trkpt>
      <trkpt lat="44.097180934622884" lon="10.214732782915235">
        <ele>738.39999999999998</ele>
        <time>2011-08-07T12:15:24Z</time>
      </trkpt>
      <trkpt lat="44.097189232707024" lon="10.214738314971328">
        <ele>737.39999999999998</ele>
        <time>2011-08-07T12:15:25Z</time>
      </trkpt>
      <trkpt lat="44.097217731177807" lon="10.214710822328925">
        <ele>736.39999999999998</ele>
        <time>2011-08-07T12:15:29Z</time>
      </trkpt>
      <trkpt lat="44.09724866040051" lon="10.214692717418075">
        <ele>732.20000000000005</ele>
        <time>2011-08-07T12:15:31Z</time>
      </trkpt>
      <trkpt lat="44.097292581573129" lon="10.214700680226088">
        <ele>725.60000000000002</ele>
        <time>2011-08-07T12:15:39Z</time>
      </trkpt>
      <trkpt lat="44.097264502197504" lon="10.214735884219408">
        <ele>731.79999999999995</ele>
        <time>2011-08-07T12:15:57Z</time>
      </trkpt>
      <trkpt lat="44.09728042781353" lon="10.214684838429093">
        <ele>737.39999999999998</ele>
        <time>2011-08-07T12:16:28Z</time>
      </trkpt>
      <trkpt lat="44.09728629514575" lon="10.214647203683853">
        <ele>734.20000000000005</ele>
        <time>2011-08-07T12:16:34Z</time>
      </trkpt>
      <trkpt lat="44.097222089767456" lon="10.214626835659146">
        <ele>733.60000000000002</ele>
        <time>2011-08-07T12:16:43Z</time>
      </trkpt>
      <trkpt lat="44.097210690379143" lon="10.214655166491866">
        <ele>733.79999999999995</ele>
        <time>2011-08-07T12:16:45Z</time>
      </trkpt>
      <trkpt lat="44.097192082554102" lon="10.214633541181684">
        <ele>733.39999999999998</ele>
        <time>2011-08-07T12:16:47Z</time>
      </trkpt>
      <trkpt lat="44.097178922966123" lon="10.21463580429554">
        <ele>733</ele>
        <time>2011-08-07T12:16:49Z</time>
      </trkpt>
      <trkpt lat="44.097191076725721" lon="10.214632786810398">
        <ele>730.79999999999995</ele>
        <time>2011-08-07T12:16:55Z</time>
      </trkpt>
      <trkpt lat="44.097106503322721" lon="10.21465533412993">
        <ele>729.39999999999998</ele>
        <time>2011-08-07T12:17:00Z</time>
      </trkpt>
      <trkpt lat="44.097063420340419" lon="10.214712079614401">
        <ele>728.79999999999995</ele>
        <time>2011-08-07T12:17:02Z</time>
      </trkpt>
      <trkpt lat="44.097021259367466" lon="10.214809477329254">
        <ele>728.60000000000002</ele>
        <time>2011-08-07T12:17:04Z</time>
      </trkpt>
      <trkpt lat="44.096939284354448" lon="10.214928081259131">
        <ele>725.60000000000002</ele>
        <time>2011-08-07T12:17:08Z</time>
      </trkpt>
      <trkpt lat="44.096753625199199" lon="10.214946437627077">
        <ele>723.39999999999998</ele>
        <time>2011-08-07T12:17:13Z</time>
      </trkpt>
      <trkpt lat="44.096442572772503" lon="10.21491089835763">
        <ele>729.20000000000005</ele>
        <time>2011-08-07T12:17:20Z</time>
      </trkpt>
      <trkpt lat="44.096324304118752" lon="10.214887177571654">
        <ele>721.60000000000002</ele>
        <time>2011-08-07T12:17:24Z</time>
      </trkpt>
      <trkpt lat="44.09624207764864" lon="10.214814338833094">
        <ele>715.20000000000005</ele>
        <time>2011-08-07T12:17:27Z</time>
      </trkpt>
      <trkpt lat="44.096093131229281" lon="10.214668912813067">
        <ele>702.79999999999995</ele>
        <time>2011-08-07T12:17:33Z</time>
      </trkpt>
      <trkpt lat="44.095961870625615" lon="10.214572018012404">
        <ele>693.39999999999998</ele>
        <time>2011-08-07T12:17:39Z</time>
      </trkpt>
      <trkpt lat="44.095860281959176" lon="10.214517870917916">
        <ele>693.20000000000005</ele>
        <time>2011-08-07T12:17:44Z</time>
      </trkpt>
      <trkpt lat="44.095809319987893" lon="10.214493731036782">
        <ele>701</ele>
        <time>2011-08-07T12:17:49Z</time>
      </trkpt>
      <trkpt lat="44.095669761300087" lon="10.214451737701893">
        <ele>705</ele>
        <time>2011-08-07T12:17:54Z</time>
      </trkpt>
      <trkpt lat="44.095523077994585" lon="10.214412091299891">
        <ele>703.60000000000002</ele>
        <time>2011-08-07T12:18:00Z</time>
      </trkpt>
      <trkpt lat="44.095399361103773" lon="10.214373031631112">
        <ele>696.79999999999995</ele>
        <time>2011-08-07T12:18:07Z</time>
      </trkpt>
      <trkpt lat="44.095338759943843" lon="10.214390717446804">
        <ele>693.20000000000005</ele>
        <time>2011-08-07T12:18:13Z</time>
      </trkpt>
      <trkpt lat="44.095270866528153" lon="10.214403793215752">
        <ele>694</ele>
        <time>2011-08-07T12:18:22Z</time>
      </trkpt>
      <trkpt lat="44.095204062759876" lon="10.214471938088536">
        <ele>695.20000000000005</ele>
        <time>2011-08-07T12:18:30Z</time>
      </trkpt>
      <trkpt lat="44.095191406086087" lon="10.214467411860824">
        <ele>690.20000000000005</ele>
        <time>2011-08-07T12:18:33Z</time>
      </trkpt>
      <trkpt lat="44.095170116052032" lon="10.21443597972393">
        <ele>684.60000000000002</ele>
        <time>2011-08-07T12:18:37Z</time>
      </trkpt>
      <trkpt lat="44.095179168507457" lon="10.214409492909908">
        <ele>682.39999999999998</ele>
        <time>2011-08-07T12:18:42Z</time>
      </trkpt>
      <trkpt lat="44.095161817967892" lon="10.214345036074519">
        <ele>686.79999999999995</ele>
        <time>2011-08-07T12:18:53Z</time>
      </trkpt>
      <trkpt lat="44.095176989212632" lon="10.214310837909579">
        <ele>684.60000000000002</ele>
        <time>2011-08-07T12:19:01Z</time>
      </trkpt>
      <trkpt lat="44.095220994204283" lon="10.214301617816091">
        <ele>672.60000000000002</ele>
        <time>2011-08-07T12:20:40Z</time>
      </trkpt>
      <trkpt lat="44.095217809081078" lon="10.21430891007185">
        <ele>677.39999999999998</ele>
        <time>2011-08-07T12:21:34Z</time>
      </trkpt>
      <trkpt lat="44.095184365287423" lon="10.214365404099226">
        <ele>678.39999999999998</ele>
        <time>2011-08-07T12:22:09Z</time>
      </trkpt>
      <trkpt lat="44.095162739977241" lon="10.214431788772345">
        <ele>682.39999999999998</ele>
        <time>2011-08-07T12:22:16Z</time>
      </trkpt>
      <trkpt lat="44.095163829624653" lon="10.214453665539622">
        <ele>683.20000000000005</ele>
        <time>2011-08-07T12:22:18Z</time>
      </trkpt>
      <trkpt lat="44.095147736370564" lon="10.214493982493877">
        <ele>681.60000000000002</ele>
        <time>2011-08-07T12:22:22Z</time>
      </trkpt>
      <trkpt lat="44.095162488520145" lon="10.214489540085196">
        <ele>680.60000000000002</ele>
        <time>2011-08-07T12:22:23Z</time>
      </trkpt>
      <trkpt lat="44.09514999948442" lon="10.214506639167666">
        <ele>685.20000000000005</ele>
        <time>2011-08-07T12:22:28Z</time>
      </trkpt>
      <trkpt lat="44.095199201256037" lon="10.214503705501556">
        <ele>660.20000000000005</ele>
        <time>2011-08-07T12:22:40Z</time>
      </trkpt>
      <trkpt lat="44.095196267589927" lon="10.214441008865833">
        <ele>664.60000000000002</ele>
        <time>2011-08-07T12:24:38Z</time>
      </trkpt>
      <trkpt lat="44.095212193205953" lon="10.214397758245468">
        <ele>665</ele>
        <time>2011-08-07T12:24:43Z</time>
      </trkpt>
      <trkpt lat="44.095200626179576" lon="10.214362470433116">
        <ele>669.20000000000005</ele>
        <time>2011-08-07T12:24:45Z</time>
      </trkpt>
      <trkpt lat="44.095181096345186" lon="10.214309329167008">
        <ele>675</ele>
        <time>2011-08-07T12:24:48Z</time>
      </trkpt>
      <trkpt lat="44.095186125487089" lon="10.214291978627443">
        <ele>673.79999999999995</ele>
        <time>2011-08-07T12:24:50Z</time>
      </trkpt>
      <trkpt lat="44.095188975334167" lon="10.214292230084538">
        <ele>674.20000000000005</ele>
        <time>2011-08-07T12:24:53Z</time>
      </trkpt>
      <trkpt lat="44.095200458541512" lon="10.214274879544973">
        <ele>673.20000000000005</ele>
        <time>2011-08-07T12:24:58Z</time>
      </trkpt>
      <trkpt lat="44.095205403864384" lon="10.214321566745639">
        <ele>680.79999999999995</ele>
        <time>2011-08-07T12:26:17Z</time>
      </trkpt>
      <trkpt lat="44.095290061086416" lon="10.21438024006784">
        <ele>663.79999999999995</ele>
        <time>2011-08-07T12:28:50Z</time>
      </trkpt>
      <trkpt lat="44.09527606330812" lon="10.214377390220761">
        <ele>665</ele>
        <time>2011-08-07T12:28:56Z</time>
      </trkpt>
      <trkpt lat="44.095266088843346" lon="10.214367415755987">
        <ele>663.79999999999995</ele>
        <time>2011-08-07T12:31:48Z</time>
      </trkpt>
      <trkpt lat="44.09520716406405" lon="10.21440370939672">
        <ele>679</ele>
        <time>2011-08-07T12:36:26Z</time>
      </trkpt>
      <trkpt lat="44.095213618129492" lon="10.214479733258486">
        <ele>681.20000000000005</ele>
        <time>2011-08-07T12:36:33Z</time>
      </trkpt>
      <trkpt lat="44.095208672806621" lon="10.214444696903229">
        <ele>680.60000000000002</ele>
        <time>2011-08-07T12:36:41Z</time>
      </trkpt>
      <trkpt lat="44.095192328095436" lon="10.214398009702563">
        <ele>680.39999999999998</ele>
        <time>2011-08-07T12:36:45Z</time>
      </trkpt>
      <trkpt lat="44.095189310610294" lon="10.214362302795053">
        <ele>679.60000000000002</ele>
        <time>2011-08-07T12:36:48Z</time>
      </trkpt>
      <trkpt lat="44.095187885686755" lon="10.214342689141631">
        <ele>678.39999999999998</ele>
        <time>2011-08-07T12:36:50Z</time>
      </trkpt>
      <trkpt lat="44.095190232619643" lon="10.21433288231492">
        <ele>677.79999999999995</ele>
        <time>2011-08-07T12:36:51Z</time>
      </trkpt>
      <trkpt lat="44.095195010304451" lon="10.214324165135622">
        <ele>676.20000000000005</ele>
        <time>2011-08-07T12:36:54Z</time>
      </trkpt>
      <trkpt lat="44.095202134922147" lon="10.214335480704904">
        <ele>671.60000000000002</ele>
        <time>2011-08-07T12:37:03Z</time>
      </trkpt>
      <trkpt lat="44.09523013047874" lon="10.21433430723846">
        <ele>671.79999999999995</ele>
        <time>2011-08-07T12:37:43Z</time>
      </trkpt>
      <trkpt lat="44.095217641443014" lon="10.214342437684536">
        <ele>669.79999999999995</ele>
        <time>2011-08-07T12:39:57Z</time>
      </trkpt>
      <trkpt lat="44.095212779939175" lon="10.214275969192386">
        <ele>668.39999999999998</ele>
        <time>2011-08-07T12:40:03Z</time>
      </trkpt>
      <trkpt lat="44.095226610079408" lon="10.214173793792725">
        <ele>667.39999999999998</ele>
        <time>2011-08-07T12:40:12Z</time>
      </trkpt>
      <trkpt lat="44.095238680019975" lon="10.214098859578371">
        <ele>666.20000000000005</ele>
        <time>2011-08-07T12:40:22Z</time>
      </trkpt>
      <trkpt lat="44.095241026952863" lon="10.214056614786386">
        <ele>665.39999999999998</ele>
        <time>2011-08-07T12:40:27Z</time>
      </trkpt>
      <trkpt lat="44.09525410272181" lon="10.213993415236473">
        <ele>658.39999999999998</ele>
        <time>2011-08-07T12:40:37Z</time>
      </trkpt>
      <trkpt lat="44.095240859314799" lon="10.213938932865858">
        <ele>659</ele>
        <time>2011-08-07T12:40:42Z</time>
      </trkpt>
      <trkpt lat="44.095236081629992" lon="10.213886294513941">
        <ele>658.39999999999998</ele>
        <time>2011-08-07T12:40:47Z</time>
      </trkpt>
      <trkpt lat="44.095229962840676" lon="10.213785460218787">
        <ele>658.79999999999995</ele>
        <time>2011-08-07T12:40:56Z</time>
      </trkpt>
      <trkpt lat="44.095217389985919" lon="10.213697869330645">
        <ele>658.39999999999998</ele>
        <time>2011-08-07T12:41:04Z</time>
      </trkpt>
      <trkpt lat="44.09520523622632" lon="10.213610697537661">
        <ele>657.39999999999998</ele>
        <time>2011-08-07T12:41:13Z</time>
      </trkpt>
      <trkpt lat="44.095184365287423" lon="10.213527968153358">
        <ele>657</ele>
        <time>2011-08-07T12:41:22Z</time>
      </trkpt>
      <trkpt lat="44.095166930928826" lon="10.213455716148019">
        <ele>654.20000000000005</ele>
        <time>2011-08-07T12:41:31Z</time>
      </trkpt>
      <trkpt lat="44.095147987827659" lon="10.2133824583143">
        <ele>651.79999999999995</ele>
        <time>2011-08-07T12:41:41Z</time>
      </trkpt>
      <trkpt lat="44.095137007534504" lon="10.213306182995439">
        <ele>648.39999999999998</ele>
        <time>2011-08-07T12:41:50Z</time>
      </trkpt>
      <trkpt lat="44.095133738592267" lon="10.213237786665559">
        <ele>646.60000000000002</ele>
        <time>2011-08-07T12:41:56Z</time>
      </trkpt>
      <trkpt lat="44.095141282305121" lon="10.21323443390429">
        <ele>645.20000000000005</ele>
        <time>2011-08-07T12:41:57Z</time>
      </trkpt>
      <trkpt lat="44.095208840444684" lon="10.213227309286594">
        <ele>639.60000000000002</ele>
        <time>2011-08-07T12:42:06Z</time>
      </trkpt>
      <trkpt lat="44.095260892063379" lon="10.213236110284925">
        <ele>638.60000000000002</ele>
        <time>2011-08-07T12:42:13Z</time>
      </trkpt>
      <trkpt lat="44.095287462696433" lon="10.213240468874574">
        <ele>639.39999999999998</ele>
        <time>2011-08-07T12:42:18Z</time>
      </trkpt>
      <trkpt lat="44.095334066078067" lon="10.213243067264557">
        <ele>638</ele>
        <time>2011-08-07T12:42:25Z</time>
      </trkpt>
      <trkpt lat="44.095395589247346" lon="10.213247258216143">
        <ele>632.39999999999998</ele>
        <time>2011-08-07T12:42:31Z</time>
      </trkpt>
      <trkpt lat="44.095461722463369" lon="10.213224291801453">
        <ele>627</ele>
        <time>2011-08-07T12:42:39Z</time>
      </trkpt>
      <trkpt lat="44.095519641414285" lon="10.213201660662889">
        <ele>621.79999999999995</ele>
        <time>2011-08-07T12:42:48Z</time>
      </trkpt>
      <trkpt lat="44.095580158755183" lon="10.21315329708159">
        <ele>617.60000000000002</ele>
        <time>2011-08-07T12:42:58Z</time>
      </trkpt>
      <trkpt lat="44.095622906461358" lon="10.213021114468575">
        <ele>630.60000000000002</ele>
        <time>2011-08-07T12:43:06Z</time>
      </trkpt>
      <trkpt lat="44.095665318891406" lon="10.212893793359399">
        <ele>638.20000000000005</ele>
        <time>2011-08-07T12:43:16Z</time>
      </trkpt>
      <trkpt lat="44.095699265599251" lon="10.212811566889286">
        <ele>638.60000000000002</ele>
        <time>2011-08-07T12:43:24Z</time>
      </trkpt>
      <trkpt lat="44.095728937536478" lon="10.212718611583114">
        <ele>640.39999999999998</ele>
        <time>2011-08-07T12:43:33Z</time>
      </trkpt>
      <trkpt lat="44.095732038840652" lon="10.212708972394466">
        <ele>640.60000000000002</ele>
        <time>2011-08-07T12:43:34Z</time>
      </trkpt>
      <trkpt lat="44.095746204257011" lon="10.212634541094303">
        <ele>639.39999999999998</ele>
        <time>2011-08-07T12:43:42Z</time>
      </trkpt>
      <trkpt lat="44.095756094902754" lon="10.212606713175774">
        <ele>634.79999999999995</ele>
        <time>2011-08-07T12:43:51Z</time>
      </trkpt>
      <trkpt lat="44.09576129168272" lon="10.212559523060918">
        <ele>628.20000000000005</ele>
        <time>2011-08-07T12:44:28Z</time>
      </trkpt>
      <trkpt lat="44.095761040225625" lon="10.212512081488967">
        <ele>627.20000000000005</ele>
        <time>2011-08-07T12:44:33Z</time>
      </trkpt>
      <trkpt lat="44.095770427957177" lon="10.212465226650238">
        <ele>625.79999999999995</ele>
        <time>2011-08-07T12:44:39Z</time>
      </trkpt>
      <trkpt lat="44.095787862315774" lon="10.212410241365433">
        <ele>625.20000000000005</ele>
        <time>2011-08-07T12:44:45Z</time>
      </trkpt>
      <trkpt lat="44.095805799588561" lon="10.212378976866603">
        <ele>626.20000000000005</ele>
        <time>2011-08-07T12:44:50Z</time>
      </trkpt>
      <trkpt lat="44.095811080187559" lon="10.212365314364433">
        <ele>624.20000000000005</ele>
        <time>2011-08-07T12:44:55Z</time>
      </trkpt>
      <trkpt lat="44.095760202035308" lon="10.21235341206193">
        <ele>623.20000000000005</ele>
        <time>2011-08-07T12:45:02Z</time>
      </trkpt>
      <trkpt lat="44.095699768513441" lon="10.212350562214851">
        <ele>623</ele>
        <time>2011-08-07T12:45:10Z</time>
      </trkpt>
      <trkpt lat="44.095652159303427" lon="10.212327595800161">
        <ele>621.39999999999998</ele>
        <time>2011-08-07T12:45:15Z</time>
      </trkpt>
      <trkpt lat="44.095498938113451" lon="10.212273532524705">
        <ele>615</ele>
        <time>2011-08-07T12:45:23Z</time>
      </trkpt>
      <trkpt lat="44.095348734408617" lon="10.212235059589148">
        <ele>607.60000000000002</ele>
        <time>2011-08-07T12:45:31Z</time>
      </trkpt>
      <trkpt lat="44.0952252689749" lon="10.212096674367785">
        <ele>603</ele>
        <time>2011-08-07T12:45:38Z</time>
      </trkpt>
      <trkpt lat="44.095129799097776" lon="10.211967928335071">
        <ele>601.39999999999998</ele>
        <time>2011-08-07T12:45:43Z</time>
      </trkpt>
      <trkpt lat="44.095040280371904" lon="10.211877236142755">
        <ele>598.79999999999995</ele>
        <time>2011-08-07T12:45:48Z</time>
      </trkpt>
      <trkpt lat="44.094873983412981" lon="10.211753938347101">
        <ele>595.60000000000002</ele>
        <time>2011-08-07T12:45:55Z</time>
      </trkpt>
      <trkpt lat="44.094739286229014" lon="10.211737174540758">
        <ele>592.60000000000002</ele>
        <time>2011-08-07T12:46:00Z</time>
      </trkpt>
      <trkpt lat="44.094554129987955" lon="10.21169719286263">
        <ele>589</ele>
        <time>2011-08-07T12:46:07Z</time>
      </trkpt>
      <trkpt lat="44.094372326508164" lon="10.211592838168144">
        <ele>584.39999999999998</ele>
        <time>2011-08-07T12:46:14Z</time>
      </trkpt>
      <trkpt lat="44.094201670959592" lon="10.21145042963326">
        <ele>581.20000000000005</ele>
        <time>2011-08-07T12:46:21Z</time>
      </trkpt>
      <trkpt lat="44.094061274081469" lon="10.211297124624252">
        <ele>579.39999999999998</ele>
        <time>2011-08-07T12:46:27Z</time>
      </trkpt>
      <trkpt lat="44.093867316842079" lon="10.211210958659649">
        <ele>577.20000000000005</ele>
        <time>2011-08-07T12:46:33Z</time>
      </trkpt>
      <trkpt lat="44.093732032924891" lon="10.211218502372503">
        <ele>574.39999999999998</ele>
        <time>2011-08-07T12:46:38Z</time>
      </trkpt>
      <trkpt lat="44.093566909432411" lon="10.211264938116074">
        <ele>572</ele>
        <time>2011-08-07T12:46:44Z</time>
      </trkpt>
      <trkpt lat="44.0933792386204" lon="10.211270889267325">
        <ele>570</ele>
        <time>2011-08-07T12:46:50Z</time>
      </trkpt>
      <trkpt lat="44.093164997175336" lon="10.211275164037943">
        <ele>568.60000000000002</ele>
        <time>2011-08-07T12:46:56Z</time>
      </trkpt>
      <trkpt lat="44.092960814014077" lon="10.211266530677676">
        <ele>565.20000000000005</ele>
        <time>2011-08-07T12:47:03Z</time>
      </trkpt>
      <trkpt lat="44.092797534540296" lon="10.211248174309731">
        <ele>561.79999999999995</ele>
        <time>2011-08-07T12:47:09Z</time>
      </trkpt>
      <trkpt lat="44.092668117955327" lon="10.211224537342787">
        <ele>559.79999999999995</ele>
        <time>2011-08-07T12:47:14Z</time>
      </trkpt>
      <trkpt lat="44.092525206506252" lon="10.21117047406733">
        <ele>555.39999999999998</ele>
        <time>2011-08-07T12:47:20Z</time>
      </trkpt>
      <trkpt lat="44.092405764386058" lon="10.210994118824601">
        <ele>551.20000000000005</ele>
        <time>2011-08-07T12:47:26Z</time>
      </trkpt>
      <trkpt lat="44.09227391704917" lon="10.210750540718436">
        <ele>553</ele>
        <time>2011-08-07T12:47:33Z</time>
      </trkpt>
      <trkpt lat="44.092193534597754" lon="10.210614837706089">
        <ele>551</ele>
        <time>2011-08-07T12:47:38Z</time>
      </trkpt>
      <trkpt lat="44.09215078689158" lon="10.210530767217278">
        <ele>548.60000000000002</ele>
        <time>2011-08-07T12:47:41Z</time>
      </trkpt>
      <trkpt lat="44.092157240957022" lon="10.210455665364861">
        <ele>547.39999999999998</ele>
        <time>2011-08-07T12:47:43Z</time>
      </trkpt>
      <trkpt lat="44.092227565124631" lon="10.210196077823639">
        <ele>544.79999999999995</ele>
        <time>2011-08-07T12:47:49Z</time>
      </trkpt>
      <trkpt lat="44.092244580388069" lon="10.209925090894103">
        <ele>543.79999999999995</ele>
        <time>2011-08-07T12:47:54Z</time>
      </trkpt>
      <trkpt lat="44.092206778004766" lon="10.209749070927501">
        <ele>543.20000000000005</ele>
        <time>2011-08-07T12:47:58Z</time>
      </trkpt>
      <trkpt lat="44.092188002541661" lon="10.209732223302126">
        <ele>541.60000000000002</ele>
        <time>2011-08-07T12:47:59Z</time>
      </trkpt>
      <trkpt lat="44.092109464108944" lon="10.209732810035348">
        <ele>539.39999999999998</ele>
        <time>2011-08-07T12:48:02Z</time>
      </trkpt>
      <trkpt lat="44.092083061113954" lon="10.209740269929171">
        <ele>538</ele>
        <time>2011-08-07T12:48:03Z</time>
      </trkpt>
      <trkpt lat="44.091926235705614" lon="10.209848480299115">
        <ele>534.79999999999995</ele>
        <time>2011-08-07T12:48:09Z</time>
      </trkpt>
      <trkpt lat="44.091794388368726" lon="10.210027685388923">
        <ele>533.79999999999995</ele>
        <time>2011-08-07T12:48:13Z</time>
      </trkpt>
      <trkpt lat="44.091644184663892" lon="10.210083089768887">
        <ele>533.20000000000005</ele>
        <time>2011-08-07T12:48:16Z</time>
      </trkpt>
      <trkpt lat="44.091381914913654" lon="10.210088202729821">
        <ele>532.20000000000005</ele>
        <time>2011-08-07T12:48:22Z</time>
      </trkpt>
      <trkpt lat="44.091262640431523" lon="10.210084263235331">
        <ele>529.79999999999995</ele>
        <time>2011-08-07T12:48:27Z</time>
      </trkpt>
      <trkpt lat="44.091055523604155" lon="10.210177469998598">
        <ele>533.60000000000002</ele>
        <time>2011-08-07T12:48:34Z</time>
      </trkpt>
      <trkpt lat="44.090853184461594" lon="10.210338737815619">
        <ele>536</ele>
        <time>2011-08-07T12:48:40Z</time>
      </trkpt>
      <trkpt lat="44.090666519477963" lon="10.210348460823298">
        <ele>535.39999999999998</ele>
        <time>2011-08-07T12:48:45Z</time>
      </trkpt>
      <trkpt lat="44.090411625802517" lon="10.210238071158528">
        <ele>534.39999999999998</ele>
        <time>2011-08-07T12:48:52Z</time>
      </trkpt>
      <trkpt lat="44.090338032692671" lon="10.210046963766217">
        <ele>531.39999999999998</ele>
        <time>2011-08-07T12:48:56Z</time>
      </trkpt>
      <trkpt lat="44.090250860899687" lon="10.20987999625504">
        <ele>527.60000000000002</ele>
        <time>2011-08-07T12:49:00Z</time>
      </trkpt>
      <trkpt lat="44.090148517861962" lon="10.209944788366556">
        <ele>528</ele>
        <time>2011-08-07T12:49:03Z</time>
      </trkpt>
      <trkpt lat="44.090093867853284" lon="10.210014609619975">
        <ele>527.60000000000002</ele>
        <time>2011-08-07T12:49:05Z</time>
      </trkpt>
      <trkpt lat="44.090002840384841" lon="10.21006079390645">
        <ele>527</ele>
        <time>2011-08-07T12:49:08Z</time>
      </trkpt>
      <trkpt lat="44.089974090456963" lon="10.210058027878404">
        <ele>523.79999999999995</ele>
        <time>2011-08-07T12:49:10Z</time>
      </trkpt>
      <trkpt lat="44.089975683018565" lon="10.210054339841008">
        <ele>521.79999999999995</ele>
        <time>2011-08-07T12:49:12Z</time>
      </trkpt>
      <trkpt lat="44.089924804866314" lon="10.210059033706784">
        <ele>527.20000000000005</ele>
        <time>2011-08-07T12:49:35Z</time>
      </trkpt>
      <trkpt lat="44.089887086302042" lon="10.210009664297104">
        <ele>522.20000000000005</ele>
        <time>2011-08-07T12:49:45Z</time>
      </trkpt>
      <trkpt lat="44.089758927002549" lon="10.209948141127825">
        <ele>521.20000000000005</ele>
        <time>2011-08-07T12:49:51Z</time>
      </trkpt>
      <trkpt lat="44.08952733501792" lon="10.209904639050364">
        <ele>521.20000000000005</ele>
        <time>2011-08-07T12:49:58Z</time>
      </trkpt>
      <trkpt lat="44.089358020573854" lon="10.209871865808964">
        <ele>513</ele>
        <time>2011-08-07T12:50:05Z</time>
      </trkpt>
      <trkpt lat="44.089145036414266" lon="10.209867507219315">
        <ele>507</ele>
        <time>2011-08-07T12:50:12Z</time>
      </trkpt>
      <trkpt lat="44.088937835767865" lon="10.209881002083421">
        <ele>500.80000000000001</ele>
        <time>2011-08-07T12:50:17Z</time>
      </trkpt>
      <trkpt lat="44.088699286803603" lon="10.209886617958546">
        <ele>504</ele>
        <time>2011-08-07T12:50:23Z</time>
      </trkpt>
      <trkpt lat="44.088674308732152" lon="10.209900364279747">
        <ele>501.39999999999998</ele>
        <time>2011-08-07T12:50:24Z</time>
      </trkpt>
      <trkpt lat="44.088508430868387" lon="10.210046293213964">
        <ele>496.39999999999998</ele>
        <time>2011-08-07T12:50:31Z</time>
      </trkpt>
      <trkpt lat="44.08849929459393" lon="10.210068924352527">
        <ele>496.39999999999998</ele>
        <time>2011-08-07T12:50:32Z</time>
      </trkpt>
      <trkpt lat="44.088503485545516" lon="10.210083341225982">
        <ele>496</ele>
        <time>2011-08-07T12:50:34Z</time>
      </trkpt>
      <trkpt lat="44.088443638756871" lon="10.210121562704444">
        <ele>492.39999999999998</ele>
        <time>2011-08-07T12:50:40Z</time>
      </trkpt>
      <trkpt lat="44.08828622661531" lon="10.210201861336827">
        <ele>490.19999999999999</ele>
        <time>2011-08-07T12:50:44Z</time>
      </trkpt>
      <trkpt lat="44.088005935773253" lon="10.210333960130811">
        <ele>490.80000000000001</ele>
        <time>2011-08-07T12:50:50Z</time>
      </trkpt>
      <trkpt lat="44.08771357499063" lon="10.210450803861022">
        <ele>487.60000000000002</ele>
        <time>2011-08-07T12:50:56Z</time>
      </trkpt>
      <trkpt lat="44.087548200041056" lon="10.210529761388898">
        <ele>485.80000000000001</ele>
        <time>2011-08-07T12:51:01Z</time>
      </trkpt>
      <trkpt lat="44.087392631918192" lon="10.210610060021281">
        <ele>483</ele>
        <time>2011-08-07T12:51:08Z</time>
      </trkpt>
      <trkpt lat="44.087389279156923" lon="10.210608467459679">
        <ele>480.39999999999998</ele>
        <time>2011-08-07T12:51:12Z</time>
      </trkpt>
      <trkpt lat="44.087425069883466" lon="10.210574688389897">
        <ele>471.60000000000002</ele>
        <time>2011-08-07T12:51:21Z</time>
      </trkpt>
      <trkpt lat="44.087414676323533" lon="10.210603270679712">
        <ele>466.39999999999998</ele>
        <time>2011-08-07T12:51:30Z</time>
      </trkpt>
      <trkpt lat="44.087396822869778" lon="10.210604360327125">
        <ele>492</ele>
        <time>2011-08-07T12:52:18Z</time>
      </trkpt>
      <trkpt lat="44.087462285533547" lon="10.210538981482387">
        <ele>471.60000000000002</ele>
        <time>2011-08-07T12:52:44Z</time>
      </trkpt>
      <trkpt lat="44.087482988834381" lon="10.210522888228297">
        <ele>473.19999999999999</ele>
        <time>2011-08-07T12:52:58Z</time>
      </trkpt>
      <trkpt lat="44.087377125397325" lon="10.210572341457009">
        <ele>497.80000000000001</ele>
        <time>2011-08-07T12:57:32Z</time>
      </trkpt>
      <trkpt lat="44.087361367419362" lon="10.210583908483386">
        <ele>499.60000000000002</ele>
        <time>2011-08-07T12:57:37Z</time>
      </trkpt>
      <trkpt lat="44.087569992989302" lon="10.210445774719119">
        <ele>452.80000000000001</ele>
        <time>2011-08-07T13:01:27Z</time>
      </trkpt>
      <trkpt lat="44.087513163685799" lon="10.210538059473038">
        <ele>475.19999999999999</ele>
        <time>2011-08-07T13:01:33Z</time>
      </trkpt>
      <trkpt lat="44.087456669658422" lon="10.210582399740815">
        <ele>491.39999999999998</ele>
        <time>2011-08-07T13:01:38Z</time>
      </trkpt>
      <trkpt lat="44.087404701858759" lon="10.21061290986836">
        <ele>499.19999999999999</ele>
        <time>2011-08-07T13:01:43Z</time>
      </trkpt>
      <trkpt lat="44.087490029633045" lon="10.210466980934143">
        <ele>464.39999999999998</ele>
        <time>2011-08-07T13:08:42Z</time>
      </trkpt>
      <trkpt lat="44.08749220892787" lon="10.210485085844994">
        <ele>466.60000000000002</ele>
        <time>2011-08-07T13:09:02Z</time>
      </trkpt>
      <trkpt lat="44.087554402649403" lon="10.210527330636978">
        <ele>466.39999999999998</ele>
        <time>2011-08-07T13:09:26Z</time>
      </trkpt>
      <trkpt lat="44.087581811472774" lon="10.210530264303088">
        <ele>467.19999999999999</ele>
        <time>2011-08-07T13:09:31Z</time>
      </trkpt>
      <trkpt lat="44.087477875873446" lon="10.210537808015943">
        <ele>482.39999999999998</ele>
        <time>2011-08-07T13:19:07Z</time>
      </trkpt>
      <trkpt lat="44.087412329390645" lon="10.210585836321115">
        <ele>479</ele>
        <time>2011-08-07T13:20:22Z</time>
      </trkpt>
      <trkpt lat="44.087373772636056" lon="10.210565803572536">
        <ele>478.80000000000001</ele>
        <time>2011-08-07T13:23:13Z</time>
      </trkpt>
      <trkpt lat="44.087345022708178" lon="10.210619531571865">
        <ele>480.19999999999999</ele>
        <time>2011-08-07T13:23:19Z</time>
      </trkpt>
      <trkpt lat="44.087400762364268" lon="10.210610060021281">
        <ele>469.60000000000002</ele>
        <time>2011-08-07T13:23:55Z</time>
      </trkpt>
      <trkpt lat="44.087384920567274" lon="10.210625398904085">
        <ele>466.60000000000002</ele>
        <time>2011-08-07T13:23:59Z</time>
      </trkpt>
      <trkpt lat="44.087282493710518" lon="10.210718689486384">
        <ele>463.60000000000002</ele>
        <time>2011-08-07T13:24:05Z</time>
      </trkpt>
      <trkpt lat="44.08717411570251" lon="10.210782308131456">
        <ele>455</ele>
        <time>2011-08-07T13:24:12Z</time>
      </trkpt>
      <trkpt lat="44.086987534537911" lon="10.210740398615599">
        <ele>455.60000000000002</ele>
        <time>2011-08-07T13:24:18Z</time>
      </trkpt>
      <trkpt lat="44.086753176525235" lon="10.210600839927793">
        <ele>458.39999999999998</ele>
        <time>2011-08-07T13:24:26Z</time>
      </trkpt>
      <trkpt lat="44.086633818224072" lon="10.210527162998915">
        <ele>458.60000000000002</ele>
        <time>2011-08-07T13:24:31Z</time>
      </trkpt>
      <trkpt lat="44.086468275636435" lon="10.210408894345164">
        <ele>459.80000000000001</ele>
        <time>2011-08-07T13:24:37Z</time>
      </trkpt>
      <trkpt lat="44.086298458278179" lon="10.210266234353185">
        <ele>460.60000000000002</ele>
        <time>2011-08-07T13:24:44Z</time>
      </trkpt>
      <trkpt lat="44.086141716688871" lon="10.210185265168548">
        <ele>462.19999999999999</ele>
        <time>2011-08-07T13:24:50Z</time>
      </trkpt>
      <trkpt lat="44.085944322869182" lon="10.210079234093428">
        <ele>467</ele>
        <time>2011-08-07T13:24:57Z</time>
      </trkpt>
      <trkpt lat="44.085795627906919" lon="10.209956187754869">
        <ele>466.60000000000002</ele>
        <time>2011-08-07T13:25:01Z</time>
      </trkpt>
      <trkpt lat="44.085631677880883" lon="10.209848480299115">
        <ele>466.39999999999998</ele>
        <time>2011-08-07T13:25:04Z</time>
      </trkpt>
      <trkpt lat="44.085565460845828" lon="10.209815874695778">
        <ele>466.60000000000002</ele>
        <time>2011-08-07T13:25:05Z</time>
      </trkpt>
      <trkpt lat="44.085508799180388" lon="10.209772372618318">
        <ele>465.19999999999999</ele>
        <time>2011-08-07T13:25:06Z</time>
      </trkpt>
      <trkpt lat="44.085407126694918" lon="10.209619738161564">
        <ele>463.80000000000001</ele>
        <time>2011-08-07T13:25:08Z</time>
      </trkpt>
      <trkpt lat="44.085298329591751" lon="10.209274487569928">
        <ele>459.39999999999998</ele>
        <time>2011-08-07T13:25:11Z</time>
      </trkpt>
      <trkpt lat="44.085262790322304" lon="10.209149681031704">
        <ele>458.80000000000001</ele>
        <time>2011-08-07T13:25:12Z</time>
      </trkpt>
      <trkpt lat="44.085098840296268" lon="10.208795377984643">
        <ele>457</ele>
        <time>2011-08-07T13:25:16Z</time>
      </trkpt>
      <trkpt lat="44.084978392347693" lon="10.208891602233052">
        <ele>454.80000000000001</ele>
        <time>2011-08-07T13:25:18Z</time>
      </trkpt>
      <trkpt lat="44.084876384586096" lon="10.209120931103826">
        <ele>453</ele>
        <time>2011-08-07T13:25:20Z</time>
      </trkpt>
      <trkpt lat="44.084803210571408" lon="10.209242301061749">
        <ele>452</ele>
        <time>2011-08-07T13:25:21Z</time>
      </trkpt>
      <trkpt lat="44.08468653447926" lon="10.209411028772593">
        <ele>448.80000000000001</ele>
        <time>2011-08-07T13:25:23Z</time>
      </trkpt>
      <trkpt lat="44.084597267210484" lon="10.209465594962239">
        <ele>445.80000000000001</ele>
        <time>2011-08-07T13:25:24Z</time>
      </trkpt>
      <trkpt lat="44.084337260574102" lon="10.209471797570586">
        <ele>440.60000000000002</ele>
        <time>2011-08-07T13:25:26Z</time>
      </trkpt>
      <trkpt lat="44.084078092128038" lon="10.209450088441372">
        <ele>438</ele>
        <time>2011-08-07T13:25:28Z</time>
      </trkpt>
      <trkpt lat="44.083844237029552" lon="10.209478503093123">
        <ele>434.80000000000001</ele>
        <time>2011-08-07T13:25:30Z</time>
      </trkpt>
      <trkpt lat="44.083465291187167" lon="10.20960439927876">
        <ele>423.60000000000002</ele>
        <time>2011-08-07T13:25:34Z</time>
      </trkpt>
      <trkpt lat="44.08320939168334" lon="10.209694840013981">
        <ele>420.19999999999999</ele>
        <time>2011-08-07T13:25:37Z</time>
      </trkpt>
      <trkpt lat="44.083155663684011" lon="10.209620827808976">
        <ele>418</ele>
        <time>2011-08-07T13:25:38Z</time>
      </trkpt>
      <trkpt lat="44.083093469962478" lon="10.209384122863412">
        <ele>419.60000000000002</ele>
        <time>2011-08-07T13:25:40Z</time>
      </trkpt>
      <trkpt lat="44.083103528246284" lon="10.209101904183626">
        <ele>421.19999999999999</ele>
        <time>2011-08-07T13:25:42Z</time>
      </trkpt>
      <trkpt lat="44.083086680620909" lon="10.208969637751579">
        <ele>420.80000000000001</ele>
        <time>2011-08-07T13:25:43Z</time>
      </trkpt>
      <trkpt lat="44.083012584596872" lon="10.208550291135907">
        <ele>420.80000000000001</ele>
        <time>2011-08-07T13:25:46Z</time>
      </trkpt>
      <trkpt lat="44.082927759736776" lon="10.208114264532924">
        <ele>417.39999999999998</ele>
        <time>2011-08-07T13:25:49Z</time>
      </trkpt>
      <trkpt lat="44.082873277366161" lon="10.207980740815401">
        <ele>416.80000000000001</ele>
        <time>2011-08-07T13:25:50Z</time>
      </trkpt>
      <trkpt lat="44.082675212994218" lon="10.2076181396842">
        <ele>413.39999999999998</ele>
        <time>2011-08-07T13:25:53Z</time>
      </trkpt>
      <trkpt lat="44.082546886056662" lon="10.20726433955133">
        <ele>410.39999999999998</ele>
        <time>2011-08-07T13:25:56Z</time>
      </trkpt>
      <trkpt lat="44.082527440041304" lon="10.207156715914607">
        <ele>409.39999999999998</ele>
        <time>2011-08-07T13:25:57Z</time>
      </trkpt>
      <trkpt lat="44.082470275461674" lon="10.207001734524965">
        <ele>407.60000000000002</ele>
        <time>2011-08-07T13:25:59Z</time>
      </trkpt>
      <trkpt lat="44.082501707598567" lon="10.206951107829809">
        <ele>405</ele>
        <time>2011-08-07T13:26:00Z</time>
      </trkpt>
      <trkpt lat="44.082537917420268" lon="10.207083625718951">
        <ele>400.80000000000001</ele>
        <time>2011-08-07T13:26:02Z</time>
      </trkpt>
      <trkpt lat="44.082619138062" lon="10.207325862720609">
        <ele>396.80000000000001</ele>
        <time>2011-08-07T13:26:05Z</time>
      </trkpt>
      <trkpt lat="44.082677308470011" lon="10.207429463043809">
        <ele>396.60000000000002</ele>
        <time>2011-08-07T13:26:06Z</time>
      </trkpt>
      <trkpt lat="44.082783423364162" lon="10.207796422764659">
        <ele>395.39999999999998</ele>
        <time>2011-08-07T13:26:09Z</time>
      </trkpt>
      <trkpt lat="44.082964891567826" lon="10.208487007766962">
        <ele>392.19999999999999</ele>
        <time>2011-08-07T13:26:14Z</time>
      </trkpt>
      <trkpt lat="44.0829748660326" lon="10.208979528397322">
        <ele>391.60000000000002</ele>
        <time>2011-08-07T13:26:17Z</time>
      </trkpt>
      <trkpt lat="44.082958772778511" lon="10.209151608869433">
        <ele>392.39999999999998</ele>
        <time>2011-08-07T13:26:18Z</time>
      </trkpt>
      <trkpt lat="44.082917701452971" lon="10.209296280518174">
        <ele>393.19999999999999</ele>
        <time>2011-08-07T13:26:19Z</time>
      </trkpt>
      <trkpt lat="44.082831619307399" lon="10.209510941058397">
        <ele>392.80000000000001</ele>
        <time>2011-08-07T13:26:21Z</time>
      </trkpt>
      <trkpt lat="44.082718715071678" lon="10.209467438980937">
        <ele>391.19999999999999</ele>
        <time>2011-08-07T13:26:23Z</time>
      </trkpt>
      <trkpt lat="44.0826934017241" lon="10.209284294396639">
        <ele>387.60000000000002</ele>
        <time>2011-08-07T13:26:25Z</time>
      </trkpt>
      <trkpt lat="44.082646798342466" lon="10.209265686571598">
        <ele>386.80000000000001</ele>
        <time>2011-08-07T13:26:26Z</time>
      </trkpt>
      <trkpt lat="44.08272416330874" lon="10.209101401269436">
        <ele>383.19999999999999</ele>
        <time>2011-08-07T13:26:27Z</time>
      </trkpt>
      <trkpt lat="44.082760205492377" lon="10.208973661065102">
        <ele>381.80000000000001</ele>
        <time>2011-08-07T13:26:28Z</time>
      </trkpt>
      <trkpt lat="44.082600111141801" lon="10.208720695227385">
        <ele>382.80000000000001</ele>
        <time>2011-08-07T13:26:31Z</time>
      </trkpt>
      <trkpt lat="44.082558285444975" lon="10.208271592855453">
        <ele>380.19999999999999</ele>
        <time>2011-08-07T13:26:34Z</time>
      </trkpt>
      <trkpt lat="44.08235720358789" lon="10.207883259281516">
        <ele>378.60000000000002</ele>
        <time>2011-08-07T13:26:37Z</time>
      </trkpt>
      <trkpt lat="44.082079762592912" lon="10.207668095827103">
        <ele>378</ele>
        <time>2011-08-07T13:26:40Z</time>
      </trkpt>
      <trkpt lat="44.081922685727477" lon="10.207464918494225">
        <ele>375.80000000000001</ele>
        <time>2011-08-07T13:26:42Z</time>
      </trkpt>
      <trkpt lat="44.081886140629649" lon="10.207345392554998">
        <ele>374.19999999999999</ele>
        <time>2011-08-07T13:26:43Z</time>
      </trkpt>
      <trkpt lat="44.082049001008272" lon="10.206967201083899">
        <ele>370.39999999999998</ele>
        <time>2011-08-07T13:26:45Z</time>
      </trkpt>
      <trkpt lat="44.082263326272368" lon="10.206678863614798">
        <ele>368</ele>
        <time>2011-08-07T13:26:48Z</time>
      </trkpt>
      <trkpt lat="44.082256201654673" lon="10.206380719318986">
        <ele>365.19999999999999</ele>
        <time>2011-08-07T13:26:52Z</time>
      </trkpt>
      <trkpt lat="44.082088563591242" lon="10.206582890823483">
        <ele>356.80000000000001</ele>
        <time>2011-08-07T13:26:55Z</time>
      </trkpt>
      <trkpt lat="44.082030225545168" lon="10.20676008425653">
        <ele>351.39999999999998</ele>
        <time>2011-08-07T13:26:57Z</time>
      </trkpt>
      <trkpt lat="44.081969121471047" lon="10.206985641270876">
        <ele>344.19999999999999</ele>
        <time>2011-08-07T13:26:59Z</time>
      </trkpt>
      <trkpt lat="44.081953195855021" lon="10.207085888832808">
        <ele>341.60000000000002</ele>
        <time>2011-08-07T13:27:00Z</time>
      </trkpt>
      <trkpt lat="44.081945987418294" lon="10.207504564896226">
        <ele>337.39999999999998</ele>
        <time>2011-08-07T13:27:04Z</time>
      </trkpt>
      <trkpt lat="44.08197708427906" lon="10.207721572369337">
        <ele>333.60000000000002</ele>
        <time>2011-08-07T13:27:06Z</time>
      </trkpt>
      <trkpt lat="44.082079259678721" lon="10.207925336435437">
        <ele>334</ele>
        <time>2011-08-07T13:27:08Z</time>
      </trkpt>
      <trkpt lat="44.082309259101748" lon="10.208149384707212">
        <ele>334.39999999999998</ele>
        <time>2011-08-07T13:27:11Z</time>
      </trkpt>
      <trkpt lat="44.082367261871696" lon="10.208213841542602">
        <ele>334.60000000000002</ele>
        <time>2011-08-07T13:27:12Z</time>
      </trkpt>
      <trkpt lat="44.082440938800573" lon="10.208452558144927">
        <ele>335.60000000000002</ele>
        <time>2011-08-07T13:27:15Z</time>
      </trkpt>
      <trkpt lat="44.082301966845989" lon="10.208345940336585">
        <ele>338.19999999999999</ele>
        <time>2011-08-07T13:27:17Z</time>
      </trkpt>
      <trkpt lat="44.082140699028969" lon="10.208159862086177">
        <ele>348.60000000000002</ele>
        <time>2011-08-07T13:27:20Z</time>
      </trkpt>
      <trkpt lat="44.082077918574214" lon="10.208117701113224">
        <ele>349.60000000000002</ele>
        <time>2011-08-07T13:27:21Z</time>
      </trkpt>
      <trkpt lat="44.081845739856362" lon="10.20795576274395">
        <ele>354</ele>
        <time>2011-08-07T13:27:24Z</time>
      </trkpt>
      <trkpt lat="44.081611884757876" lon="10.207695672288537">
        <ele>357.19999999999999</ele>
        <time>2011-08-07T13:27:27Z</time>
      </trkpt>
      <trkpt lat="44.081547176465392" lon="10.207581259310246">
        <ele>357.80000000000001</ele>
        <time>2011-08-07T13:27:28Z</time>
      </trkpt>
      <trkpt lat="44.081546338275075" lon="10.206993268802762">
        <ele>351.60000000000002</ele>
        <time>2011-08-07T13:27:31Z</time>
      </trkpt>
      <trkpt lat="44.08153192140162" lon="10.206836862489581">
        <ele>349.39999999999998</ele>
        <time>2011-08-07T13:27:32Z</time>
      </trkpt>
      <trkpt lat="44.081369731575251" lon="10.206252308562398">
        <ele>344.19999999999999</ele>
        <time>2011-08-07T13:27:36Z</time>
      </trkpt>
      <trkpt lat="44.081202764064074" lon="10.206063631922007">
        <ele>341.39999999999998</ele>
        <time>2011-08-07T13:27:38Z</time>
      </trkpt>
      <trkpt lat="44.08108139410615" lon="10.206006215885282">
        <ele>339.80000000000001</ele>
        <time>2011-08-07T13:27:39Z</time>
      </trkpt>
      <trkpt lat="44.08072424121201" lon="10.205873111262918">
        <ele>333.19999999999999</ele>
        <time>2011-08-07T13:27:42Z</time>
      </trkpt>
      <trkpt lat="44.080336159095168" lon="10.206009233370423">
        <ele>330.39999999999998</ele>
        <time>2011-08-07T13:27:45Z</time>
      </trkpt>
      <trkpt lat="44.080060897395015" lon="10.20627929829061">
        <ele>324.39999999999998</ele>
        <time>2011-08-07T13:27:48Z</time>
      </trkpt>
      <trkpt lat="44.079966936260462" lon="10.206337803974748">
        <ele>322.80000000000001</ele>
        <time>2011-08-07T13:27:49Z</time>
      </trkpt>
      <trkpt lat="44.079500902444124" lon="10.206585992127657">
        <ele>308.60000000000002</ele>
        <time>2011-08-07T13:27:54Z</time>
      </trkpt>
      <trkpt lat="44.079250786453485" lon="10.206735022366047">
        <ele>299.19999999999999</ele>
        <time>2011-08-07T13:27:57Z</time>
      </trkpt>
      <trkpt lat="44.079117178916931" lon="10.206917161121964">
        <ele>293.39999999999998</ele>
        <time>2011-08-07T13:27:59Z</time>
      </trkpt>
      <trkpt lat="44.079030090942979" lon="10.207237936556339">
        <ele>287.80000000000001</ele>
        <time>2011-08-07T13:28:02Z</time>
      </trkpt>
      <trkpt lat="44.07910393550992" lon="10.207566171884537">
        <ele>286</ele>
        <time>2011-08-07T13:28:05Z</time>
      </trkpt>
      <trkpt lat="44.079084070399404" lon="10.207786113023758">
        <ele>288.80000000000001</ele>
        <time>2011-08-07T13:28:08Z</time>
      </trkpt>
      <trkpt lat="44.079029001295567" lon="10.207754094153643">
        <ele>290.80000000000001</ele>
        <time>2011-08-07T13:28:09Z</time>
      </trkpt>
      <trkpt lat="44.078883407637477" lon="10.207606824114919">
        <ele>296</ele>
        <time>2011-08-07T13:28:11Z</time>
      </trkpt>
      <trkpt lat="44.078801264986396" lon="10.207289401441813">
        <ele>300.39999999999998</ele>
        <time>2011-08-07T13:28:13Z</time>
      </trkpt>
      <trkpt lat="44.078564224764705" lon="10.206881705671549">
        <ele>303.39999999999998</ele>
        <time>2011-08-07T13:28:17Z</time>
      </trkpt>
      <trkpt lat="44.078377978876233" lon="10.2067806199193">
        <ele>303.60000000000002</ele>
        <time>2011-08-07T13:28:19Z</time>
      </trkpt>
      <trkpt lat="44.078285358846188" lon="10.206707781180739">
        <ele>303.60000000000002</ele>
        <time>2011-08-07T13:28:20Z</time>
      </trkpt>
      <trkpt lat="44.078083019703627" lon="10.206342497840524">
        <ele>302.80000000000001</ele>
        <time>2011-08-07T13:28:23Z</time>
      </trkpt>
      <trkpt lat="44.077846398577094" lon="10.206004036590457">
        <ele>303</ele>
        <time>2011-08-07T13:28:26Z</time>
      </trkpt>
      <trkpt lat="44.077552780508995" lon="10.205881241708994">
        <ele>301.60000000000002</ele>
        <time>2011-08-07T13:28:29Z</time>
      </trkpt>
      <trkpt lat="44.077316829934716" lon="10.205654595047235">
        <ele>298.80000000000001</ele>
        <time>2011-08-07T13:28:32Z</time>
      </trkpt>
      <trkpt lat="44.077241979539394" lon="10.205557700246572">
        <ele>298.60000000000002</ele>
        <time>2011-08-07T13:28:33Z</time>
      </trkpt>
      <trkpt lat="44.076976524665952" lon="10.205139862373471">
        <ele>294.39999999999998</ele>
        <time>2011-08-07T13:28:37Z</time>
      </trkpt>
      <trkpt lat="44.076890023425221" lon="10.205103065818548">
        <ele>293</ele>
        <time>2011-08-07T13:28:38Z</time>
      </trkpt>
      <trkpt lat="44.07670478336513" lon="10.205222759395838">
        <ele>290</ele>
        <time>2011-08-07T13:28:40Z</time>
      </trkpt>
      <trkpt lat="44.076519124209881" lon="10.205373298376799">
        <ele>286</ele>
        <time>2011-08-07T13:28:42Z</time>
      </trkpt>
      <trkpt lat="44.076416026800871" lon="10.205433983355761">
        <ele>285</ele>
        <time>2011-08-07T13:28:43Z</time>
      </trkpt>
      <trkpt lat="44.075114987790585" lon="10.205573961138725">
        <ele>286.60000000000002</ele>
        <time>2011-08-07T13:28:53Z</time>
      </trkpt>
      <trkpt lat="44.074999736621976" lon="10.205544540658593">
        <ele>286.60000000000002</ele>
        <time>2011-08-07T13:28:54Z</time>
      </trkpt>
      <trkpt lat="44.074533618986607" lon="10.205335495993495">
        <ele>286.60000000000002</ele>
        <time>2011-08-07T13:28:58Z</time>
      </trkpt>
      <trkpt lat="44.074105974286795" lon="10.205060988664627">
        <ele>283.19999999999999</ele>
        <time>2011-08-07T13:29:02Z</time>
      </trkpt>
      <trkpt lat="44.073796514421701" lon="10.204712804406881">
        <ele>269.39999999999998</ele>
        <time>2011-08-07T13:29:06Z</time>
      </trkpt>
      <trkpt lat="44.073617309331894" lon="10.204419940710068">
        <ele>260</ele>
        <time>2011-08-07T13:29:09Z</time>
      </trkpt>
      <trkpt lat="44.073561234399676" lon="10.204310389235616">
        <ele>257.19999999999999</ele>
        <time>2011-08-07T13:29:10Z</time>
      </trkpt>
      <trkpt lat="44.073482109233737" lon="10.20425096154213">
        <ele>254.80000000000001</ele>
        <time>2011-08-07T13:29:11Z</time>
      </trkpt>
      <trkpt lat="44.073294689878821" lon="10.203996738418937">
        <ele>251.19999999999999</ele>
        <time>2011-08-07T13:29:14Z</time>
      </trkpt>
      <trkpt lat="44.073226964101195" lon="10.203650398179889">
        <ele>248.80000000000001</ele>
        <time>2011-08-07T13:29:17Z</time>
      </trkpt>
      <trkpt lat="44.073256636038423" lon="10.203229039907455">
        <ele>245.19999999999999</ele>
        <time>2011-08-07T13:29:20Z</time>
      </trkpt>
      <trkpt lat="44.073253534734249" lon="10.203078081831336">
        <ele>243.19999999999999</ele>
        <time>2011-08-07T13:29:21Z</time>
      </trkpt>
      <trkpt lat="44.073185389861465" lon="10.202631074935198">
        <ele>239.59999999999999</ele>
        <time>2011-08-07T13:29:24Z</time>
      </trkpt>
      <trkpt lat="44.072995288297534" lon="10.202093962579966">
        <ele>235.19999999999999</ele>
        <time>2011-08-07T13:29:28Z</time>
      </trkpt>
      <trkpt lat="44.07278691418469" lon="10.201776707544923">
        <ele>232</ele>
        <time>2011-08-07T13:29:31Z</time>
      </trkpt>
      <trkpt lat="44.072723127901554" lon="10.201687607914209">
        <ele>231</ele>
        <time>2011-08-07T13:29:32Z</time>
      </trkpt>
      <trkpt lat="44.07246446236968" lon="10.201408071443439">
        <ele>226.59999999999999</ele>
        <time>2011-08-07T13:29:36Z</time>
      </trkpt>
      <trkpt lat="44.072407130151987" lon="10.201325258240104">
        <ele>225.40000000000001</ele>
        <time>2011-08-07T13:29:37Z</time>
      </trkpt>
      <trkpt lat="44.072211496531963" lon="10.201074723154306">
        <ele>224.80000000000001</ele>
        <time>2011-08-07T13:29:40Z</time>
      </trkpt>
      <trkpt lat="44.072181237861514" lon="10.200955113396049">
        <ele>222.80000000000001</ele>
        <time>2011-08-07T13:29:41Z</time>
      </trkpt>
      <trkpt lat="44.072127677500248" lon="10.200583878904581">
        <ele>217</ele>
        <time>2011-08-07T13:29:44Z</time>
      </trkpt>
      <trkpt lat="44.072209317237139" lon="10.200184397399426">
        <ele>209.59999999999999</ele>
        <time>2011-08-07T13:29:47Z</time>
      </trkpt>
      <trkpt lat="44.072320628911257" lon="10.199897065758705">
        <ele>205.59999999999999</ele>
        <time>2011-08-07T13:29:49Z</time>
      </trkpt>
      <trkpt lat="44.07238282263279" lon="10.199818275868893">
        <ele>203.59999999999999</ele>
        <time>2011-08-07T13:29:50Z</time>
      </trkpt>
      <trkpt lat="44.072535540908575" lon="10.199500434100628">
        <ele>199.80000000000001</ele>
        <time>2011-08-07T13:29:54Z</time>
      </trkpt>
      <trkpt lat="44.072621371597052" lon="10.199316283687949">
        <ele>197.80000000000001</ele>
        <time>2011-08-07T13:29:56Z</time>
      </trkpt>
      <trkpt lat="44.072774760425091" lon="10.198982935398817">
        <ele>194</ele>
        <time>2011-08-07T13:30:00Z</time>
      </trkpt>
      <trkpt lat="44.073015740141273" lon="10.198569372296333">
        <ele>191.59999999999999</ele>
        <time>2011-08-07T13:30:06Z</time>
      </trkpt>
      <trkpt lat="44.073193268850446" lon="10.198248596861959">
        <ele>200.59999999999999</ele>
        <time>2011-08-07T13:30:10Z</time>
      </trkpt>
      <trkpt lat="44.073275495320559" lon="10.198084311559796">
        <ele>196</ele>
        <time>2011-08-07T13:30:13Z</time>
      </trkpt>
      <trkpt lat="44.073334923014045" lon="10.197902340441942">
        <ele>190</ele>
        <time>2011-08-07T13:30:16Z</time>
      </trkpt>
      <trkpt lat="44.073377838358283" lon="10.197697738185525">
        <ele>191.40000000000001</ele>
        <time>2011-08-07T13:30:19Z</time>
      </trkpt>
      <trkpt lat="44.073418574407697" lon="10.197574524208903">
        <ele>190.59999999999999</ele>
        <time>2011-08-07T13:30:21Z</time>
      </trkpt>
      <trkpt lat="44.073471967130899" lon="10.197447035461664">
        <ele>189</ele>
        <time>2011-08-07T13:30:23Z</time>
      </trkpt>
      <trkpt lat="44.073504321277142" lon="10.197379225865006">
        <ele>188.59999999999999</ele>
        <time>2011-08-07T13:30:24Z</time>
      </trkpt>
      <trkpt lat="44.07367673702538" lon="10.19696356728673">
        <ele>188</ele>
        <time>2011-08-07T13:30:29Z</time>
      </trkpt>
      <trkpt lat="44.073764160275459" lon="10.196772124618292">
        <ele>189.40000000000001</ele>
        <time>2011-08-07T13:30:31Z</time>
      </trkpt>
      <trkpt lat="44.073894582688808" lon="10.196619406342506">
        <ele>191.19999999999999</ele>
        <time>2011-08-07T13:30:33Z</time>
      </trkpt>
      <trkpt lat="44.074147129431367" lon="10.196552434936166">
        <ele>191.19999999999999</ele>
        <time>2011-08-07T13:30:36Z</time>
      </trkpt>
      <trkpt lat="44.074523141607642" lon="10.196534413844347">
        <ele>184.19999999999999</ele>
        <time>2011-08-07T13:30:40Z</time>
      </trkpt>
      <trkpt lat="44.074623640626669" lon="10.19649057649076">
        <ele>183.80000000000001</ele>
        <time>2011-08-07T13:30:41Z</time>
      </trkpt>
      <trkpt lat="44.075022619217634" lon="10.196263510733843">
        <ele>181.59999999999999</ele>
        <time>2011-08-07T13:30:45Z</time>
      </trkpt>
      <trkpt lat="44.075206434354186" lon="10.195948434993625">
        <ele>181.80000000000001</ele>
        <time>2011-08-07T13:30:48Z</time>
      </trkpt>
      <trkpt lat="44.07570406794548" lon="10.194826517254114">
        <ele>180</ele>
        <time>2011-08-07T13:30:58Z</time>
      </trkpt>
      <trkpt lat="44.075735164806247" lon="10.194660136476159">
        <ele>186.80000000000001</ele>
        <time>2011-08-07T13:30:59Z</time>
      </trkpt>
      <trkpt lat="44.07586432993412" lon="10.194049263373017">
        <ele>194.80000000000001</ele>
        <time>2011-08-07T13:31:04Z</time>
      </trkpt>
      <trkpt lat="44.076064070686698" lon="10.193448197096586">
        <ele>198.59999999999999</ele>
        <time>2011-08-07T13:31:09Z</time>
      </trkpt>
      <trkpt lat="44.076143531128764" lon="10.193292461335659">
        <ele>200</ele>
        <time>2011-08-07T13:31:11Z</time>
      </trkpt>
      <trkpt lat="44.076193906366825" lon="10.193228339776397">
        <ele>199.59999999999999</ele>
        <time>2011-08-07T13:31:12Z</time>
      </trkpt>
      <trkpt lat="44.076356431469321" lon="10.192970931529999">
        <ele>197.40000000000001</ele>
        <time>2011-08-07T13:31:16Z</time>
      </trkpt>
      <trkpt lat="44.076366908848286" lon="10.192912593483925">
        <ele>196.19999999999999</ele>
        <time>2011-08-07T13:31:17Z</time>
      </trkpt>
      <trkpt lat="44.076278060674667" lon="10.192579329013824">
        <ele>193.19999999999999</ele>
        <time>2011-08-07T13:31:21Z</time>
      </trkpt>
      <trkpt lat="44.076247802004218" lon="10.192504562437534">
        <ele>192.59999999999999</ele>
        <time>2011-08-07T13:31:22Z</time>
      </trkpt>
      <trkpt lat="44.076073877513409" lon="10.192074403166771">
        <ele>188.59999999999999</ele>
        <time>2011-08-07T13:31:27Z</time>
      </trkpt>
      <trkpt lat="44.075818564742804" lon="10.191390439867973">
        <ele>185.80000000000001</ele>
        <time>2011-08-07T13:31:34Z</time>
      </trkpt>
      <trkpt lat="44.075777577236295" lon="10.191061533987522">
        <ele>186.19999999999999</ele>
        <time>2011-08-07T13:31:37Z</time>
      </trkpt>
      <trkpt lat="44.07577145844698" lon="10.190845197066665">
        <ele>187.40000000000001</ele>
        <time>2011-08-07T13:31:39Z</time>
      </trkpt>
      <trkpt lat="44.075715132057667" lon="10.190448397770524">
        <ele>189.80000000000001</ele>
        <time>2011-08-07T13:31:43Z</time>
      </trkpt>
      <trkpt lat="44.075682358816266" lon="10.190373295918107">
        <ele>189.40000000000001</ele>
        <time>2011-08-07T13:31:44Z</time>
      </trkpt>
      <trkpt lat="44.075584206730127" lon="10.19010666757822">
        <ele>187.40000000000001</ele>
        <time>2011-08-07T13:31:47Z</time>
      </trkpt>
      <trkpt lat="44.075477086007595" lon="10.18983643501997">
        <ele>184.59999999999999</ele>
        <time>2011-08-07T13:31:50Z</time>
      </trkpt>
      <trkpt lat="44.075276087969542" lon="10.189196728169918">
        <ele>178</ele>
        <time>2011-08-07T13:31:56Z</time>
      </trkpt>
      <trkpt lat="44.075144659727812" lon="10.188494995236397">
        <ele>173.40000000000001</ele>
        <time>2011-08-07T13:32:02Z</time>
      </trkpt>
      <trkpt lat="44.075116664171219" lon="10.187869537621737">
        <ele>171.80000000000001</ele>
        <time>2011-08-07T13:32:07Z</time>
      </trkpt>
      <trkpt lat="44.07503561116755" lon="10.187339466065168">
        <ele>172</ele>
        <time>2011-08-07T13:32:11Z</time>
      </trkpt>
      <trkpt lat="44.074878534302115" lon="10.18666866235435">
        <ele>164.80000000000001</ele>
        <time>2011-08-07T13:32:16Z</time>
      </trkpt>
      <trkpt lat="44.074664041399956" lon="10.185975059866905">
        <ele>160.19999999999999</ele>
        <time>2011-08-07T13:32:21Z</time>
      </trkpt>
      <trkpt lat="44.0746202878654" lon="10.185848409309983">
        <ele>159.59999999999999</ele>
        <time>2011-08-07T13:32:22Z</time>
      </trkpt>
      <trkpt lat="44.074542000889778" lon="10.185418920591474">
        <ele>157.19999999999999</ele>
        <time>2011-08-07T13:32:25Z</time>
      </trkpt>
      <trkpt lat="44.074522219598293" lon="10.185275003314018">
        <ele>156.40000000000001</ele>
        <time>2011-08-07T13:32:26Z</time>
      </trkpt>
      <trkpt lat="44.074526159092784" lon="10.185107281431556">
        <ele>157</ele>
        <time>2011-08-07T13:32:27Z</time>
      </trkpt>
      <trkpt lat="44.074513921514153" lon="10.184630434960127">
        <ele>154</ele>
        <time>2011-08-07T13:32:30Z</time>
      </trkpt>
      <trkpt lat="44.074432868510485" lon="10.183865334838629">
        <ele>150.40000000000001</ele>
        <time>2011-08-07T13:32:35Z</time>
      </trkpt>
      <trkpt lat="44.074405459687114" lon="10.183720663189888">
        <ele>150.19999999999999</ele>
        <time>2011-08-07T13:32:36Z</time>
      </trkpt>
      <trkpt lat="44.07439548522234" lon="10.183282708749175">
        <ele>151.80000000000001</ele>
        <time>2011-08-07T13:32:39Z</time>
      </trkpt>
      <trkpt lat="44.074400933459401" lon="10.183143904432654">
        <ele>152.59999999999999</ele>
        <time>2011-08-07T13:32:40Z</time>
      </trkpt>
      <trkpt lat="44.074544934555888" lon="10.18239657394588">
        <ele>146.80000000000001</ele>
        <time>2011-08-07T13:32:45Z</time>
      </trkpt>
      <trkpt lat="44.074578629806638" lon="10.182212172076106">
        <ele>146.40000000000001</ele>
        <time>2011-08-07T13:32:46Z</time>
      </trkpt>
      <trkpt lat="44.074643673375249" lon="10.181537261232734">
        <ele>146.59999999999999</ele>
        <time>2011-08-07T13:32:50Z</time>
      </trkpt>
      <trkpt lat="44.074649708345532" lon="10.181226460263133">
        <ele>144.59999999999999</ele>
        <time>2011-08-07T13:32:52Z</time>
      </trkpt>
      <trkpt lat="44.074616935104132" lon="10.181098887696862">
        <ele>142.59999999999999</ele>
        <time>2011-08-07T13:32:53Z</time>
      </trkpt>
      <trkpt lat="44.074520291760564" lon="10.18074793741107">
        <ele>137.59999999999999</ele>
        <time>2011-08-07T13:32:56Z</time>
      </trkpt>
      <trkpt lat="44.074361538514495" lon="10.180083336308599">
        <ele>132.59999999999999</ele>
        <time>2011-08-07T13:33:02Z</time>
      </trkpt>
      <trkpt lat="44.074194235727191" lon="10.179848307743669">
        <ele>131.80000000000001</ele>
        <time>2011-08-07T13:33:05Z</time>
      </trkpt>
      <trkpt lat="44.074136735871434" lon="10.179782593622804">
        <ele>131.40000000000001</ele>
        <time>2011-08-07T13:33:06Z</time>
      </trkpt>
      <trkpt lat="44.073770027607679" lon="10.179428709670901">
        <ele>138.80000000000001</ele>
        <time>2011-08-07T13:33:12Z</time>
      </trkpt>
      <trkpt lat="44.073497531935573" lon="10.17911740578711">
        <ele>140.19999999999999</ele>
        <time>2011-08-07T13:33:17Z</time>
      </trkpt>
      <trkpt lat="44.073449419811368" lon="10.179046327248216">
        <ele>139.80000000000001</ele>
        <time>2011-08-07T13:33:18Z</time>
      </trkpt>
      <trkpt lat="44.073411114513874" lon="10.178967788815498">
        <ele>139.19999999999999</ele>
        <time>2011-08-07T13:33:19Z</time>
      </trkpt>
      <trkpt lat="44.073221432045102" lon="10.178650785237551">
        <ele>136.59999999999999</ele>
        <time>2011-08-07T13:33:23Z</time>
      </trkpt>
      <trkpt lat="44.072850281372666" lon="10.17806489020586">
        <ele>132.80000000000001</ele>
        <time>2011-08-07T13:33:30Z</time>
      </trkpt>
      <trkpt lat="44.072800073772669" lon="10.177975036203861">
        <ele>132.40000000000001</ele>
        <time>2011-08-07T13:33:31Z</time>
      </trkpt>
      <trkpt lat="44.072394138202071" lon="10.177393835037947">
        <ele>132</ele>
        <time>2011-08-07T13:33:38Z</time>
      </trkpt>
      <trkpt lat="44.071981916204095" lon="10.176845658570528">
        <ele>132.19999999999999</ele>
        <time>2011-08-07T13:33:45Z</time>
      </trkpt>
      <trkpt lat="44.071865659207106" lon="10.176691180095077">
        <ele>130.80000000000001</ele>
        <time>2011-08-07T13:33:47Z</time>
      </trkpt>
      <trkpt lat="44.071423010900617" lon="10.176163036376238">
        <ele>131.19999999999999</ele>
        <time>2011-08-07T13:33:55Z</time>
      </trkpt>
      <trkpt lat="44.071260234341025" lon="10.175958182662725">
        <ele>132.59999999999999</ele>
        <time>2011-08-07T13:33:58Z</time>
      </trkpt>
      <trkpt lat="44.071182366460562" lon="10.175781492143869">
        <ele>130.80000000000001</ele>
        <time>2011-08-07T13:34:00Z</time>
      </trkpt>
      <trkpt lat="44.070960162207484" lon="10.175240775570273">
        <ele>127.59999999999999</ele>
        <time>2011-08-07T13:34:06Z</time>
      </trkpt>
      <trkpt lat="44.070690935477614" lon="10.174525463953614">
        <ele>124.40000000000001</ele>
        <time>2011-08-07T13:34:13Z</time>
      </trkpt>
      <trkpt lat="44.070652462542057" lon="10.174417085945606">
        <ele>123.8</ele>
        <time>2011-08-07T13:34:14Z</time>
      </trkpt>
      <trkpt lat="44.070437802001834" lon="10.173753825947642">
        <ele>121</ele>
        <time>2011-08-07T13:34:20Z</time>
      </trkpt>
      <trkpt lat="44.070194223895669" lon="10.172976236790419">
        <ele>119.2</ele>
        <time>2011-08-07T13:34:27Z</time>
      </trkpt>
      <trkpt lat="44.070118116214871" lon="10.172763839364052">
        <ele>118.59999999999999</ele>
        <time>2011-08-07T13:34:29Z</time>
      </trkpt>
      <trkpt lat="44.069858361035585" lon="10.172149026766419">
        <ele>116.8</ele>
        <time>2011-08-07T13:34:35Z</time>
      </trkpt>
      <trkpt lat="44.069838663563132" lon="10.172040062025189">
        <ele>115.8</ele>
        <time>2011-08-07T13:34:36Z</time>
      </trkpt>
      <trkpt lat="44.069541776552796" lon="10.171574866399169">
        <ele>115.8</ele>
        <time>2011-08-07T13:34:42Z</time>
      </trkpt>
      <trkpt lat="44.069186635315418" lon="10.171231795102358">
        <ele>115</ele>
        <time>2011-08-07T13:34:48Z</time>
      </trkpt>
      <trkpt lat="44.068729570135474" lon="10.170714380219579">
        <ele>111.40000000000001</ele>
        <time>2011-08-07T13:34:57Z</time>
      </trkpt>
      <trkpt lat="44.068681038916111" lon="10.17066459171474">
        <ele>111</ele>
        <time>2011-08-07T13:34:58Z</time>
      </trkpt>
      <trkpt lat="44.068240569904447" lon="10.170244909822941">
        <ele>106.8</ele>
        <time>2011-08-07T13:35:07Z</time>
      </trkpt>
      <trkpt lat="44.067818792536855" lon="10.169918267056346">
        <ele>103.2</ele>
        <time>2011-08-07T13:35:16Z</time>
      </trkpt>
      <trkpt lat="44.067450324073434" lon="10.169696817174554">
        <ele>99.200000000000003</ele>
        <time>2011-08-07T13:35:23Z</time>
      </trkpt>
      <trkpt lat="44.067063834518194" lon="10.169591708108783">
        <ele>98</ele>
        <time>2011-08-07T13:35:30Z</time>
      </trkpt>
      <trkpt lat="44.066949002444744" lon="10.169592797756195">
        <ele>98.200000000000003</ele>
        <time>2011-08-07T13:35:32Z</time>
      </trkpt>
      <trkpt lat="44.066768959164619" lon="10.169645100831985">
        <ele>98.599999999999994</ele>
        <time>2011-08-07T13:35:35Z</time>
      </trkpt>
      <trkpt lat="44.066336369141936" lon="10.169842075556517">
        <ele>98.200000000000003</ele>
        <time>2011-08-07T13:35:42Z</time>
      </trkpt>
      <trkpt lat="44.065964967012405" lon="10.169935785233974">
        <ele>98</ele>
        <time>2011-08-07T13:35:48Z</time>
      </trkpt>
      <trkpt lat="44.065538495779037" lon="10.170000493526459">
        <ele>96.799999999999997</ele>
        <time>2011-08-07T13:35:55Z</time>
      </trkpt>
      <trkpt lat="44.065008675679564" lon="10.170122869312763">
        <ele>94.400000000000006</ele>
        <time>2011-08-07T13:36:03Z</time>
      </trkpt>
      <trkpt lat="44.064428396522999" lon="10.170256225392222">
        <ele>95</ele>
        <time>2011-08-07T13:36:11Z</time>
      </trkpt>
      <trkpt lat="44.06435513868928" lon="10.17026879824698">
        <ele>94.599999999999994</ele>
        <time>2011-08-07T13:36:12Z</time>
      </trkpt>
      <trkpt lat="44.06388558447361" lon="10.170273240655661">
        <ele>94.200000000000003</ele>
        <time>2011-08-07T13:36:18Z</time>
      </trkpt>
      <trkpt lat="44.063351489603519" lon="10.170206688344479">
        <ele>93.599999999999994</ele>
        <time>2011-08-07T13:36:25Z</time>
      </trkpt>
      <trkpt lat="44.062766265124083" lon="10.170095963403583">
        <ele>89.400000000000006</ele>
        <time>2011-08-07T13:36:33Z</time>
      </trkpt>
      <trkpt lat="44.062178861349821" lon="10.170006025582552">
        <ele>86</ele>
        <time>2011-08-07T13:36:41Z</time>
      </trkpt>
      <trkpt lat="44.06168675981462" lon="10.17000887542963">
        <ele>83</ele>
        <time>2011-08-07T13:36:48Z</time>
      </trkpt>
      <trkpt lat="44.061384173110127" lon="10.170132759958506">
        <ele>83.200000000000003</ele>
        <time>2011-08-07T13:36:53Z</time>
      </trkpt>
      <trkpt lat="44.060975974425673" lon="10.170301822945476">
        <ele>82.799999999999997</ele>
        <time>2011-08-07T13:37:01Z</time>
      </trkpt>
      <trkpt lat="44.060781933367252" lon="10.170293441042304">
        <ele>82.400000000000006</ele>
        <time>2011-08-07T13:37:05Z</time>
      </trkpt>
      <trkpt lat="44.060734575614333" lon="10.170271899551153">
        <ele>82.200000000000003</ele>
        <time>2011-08-07T13:37:06Z</time>
      </trkpt>
      <trkpt lat="44.060585964471102" lon="10.170174837112427">
        <ele>81.400000000000006</ele>
        <time>2011-08-07T13:37:09Z</time>
      </trkpt>
      <trkpt lat="44.060412878170609" lon="10.170070063322783">
        <ele>83.599999999999994</ele>
        <time>2011-08-07T13:37:12Z</time>
      </trkpt>
      <trkpt lat="44.059949861839414" lon="10.169809302315116">
        <ele>86</ele>
        <time>2011-08-07T13:37:19Z</time>
      </trkpt>
      <trkpt lat="44.059425825253129" lon="10.169503279030323">
        <ele>83.799999999999997</ele>
        <time>2011-08-07T13:37:26Z</time>
      </trkpt>
      <trkpt lat="44.058969682082534" lon="10.169252492487431">
        <ele>82.200000000000003</ele>
        <time>2011-08-07T13:37:32Z</time>
      </trkpt>
      <trkpt lat="44.05889960937202" lon="10.169198932126164">
        <ele>83.400000000000006</ele>
        <time>2011-08-07T13:37:33Z</time>
      </trkpt>
      <trkpt lat="44.058781005442142" lon="10.169078316539526">
        <ele>90.799999999999997</ele>
        <time>2011-08-07T13:37:35Z</time>
      </trkpt>
      <trkpt lat="44.058670615777373" lon="10.168793834745884">
        <ele>92.599999999999994</ele>
        <time>2011-08-07T13:37:38Z</time>
      </trkpt>
      <trkpt lat="44.058637339621782" lon="10.168697191402316">
        <ele>92.799999999999997</ele>
        <time>2011-08-07T13:37:39Z</time>
      </trkpt>
      <trkpt lat="44.058598866686225" lon="10.168610690161586">
        <ele>93</ele>
        <time>2011-08-07T13:37:40Z</time>
      </trkpt>
      <trkpt lat="44.058491326868534" lon="10.168480603024364">
        <ele>93.200000000000003</ele>
        <time>2011-08-07T13:37:42Z</time>
      </trkpt>
      <trkpt lat="44.058238863945007" lon="10.168329980224371">
        <ele>93.799999999999997</ele>
        <time>2011-08-07T13:37:46Z</time>
      </trkpt>
      <trkpt lat="44.058211538940668" lon="10.168166030198336">
        <ele>91.599999999999994</ele>
        <time>2011-08-07T13:37:48Z</time>
      </trkpt>
      <trkpt lat="44.058133084326982" lon="10.167964193969965">
        <ele>90.200000000000003</ele>
        <time>2011-08-07T13:37:51Z</time>
      </trkpt>
      <trkpt lat="44.057883471250534" lon="10.167635791003704">
        <ele>90.599999999999994</ele>
        <time>2011-08-07T13:37:56Z</time>
      </trkpt>
      <trkpt lat="44.057578537613153" lon="10.167132122442126">
        <ele>90</ele>
        <time>2011-08-07T13:38:03Z</time>
      </trkpt>
      <trkpt lat="44.057190623134375" lon="10.166488476097584">
        <ele>89</ele>
        <time>2011-08-07T13:38:12Z</time>
      </trkpt>
      <trkpt lat="44.057152736932039" lon="10.166412871330976">
        <ele>88.799999999999997</ele>
        <time>2011-08-07T13:38:13Z</time>
      </trkpt>
      <trkpt lat="44.056859370321035" lon="10.165940970182419">
        <ele>88.200000000000003</ele>
        <time>2011-08-07T13:38:20Z</time>
      </trkpt>
      <trkpt lat="44.05657572671771" lon="10.16569621860981">
        <ele>87.200000000000003</ele>
        <time>2011-08-07T13:38:25Z</time>
      </trkpt>
      <trkpt lat="44.056152608245611" lon="10.165473259985447">
        <ele>85</ele>
        <time>2011-08-07T13:38:32Z</time>
      </trkpt>
      <trkpt lat="44.055770058184862" lon="10.165272010490298">
        <ele>82.799999999999997</ele>
        <time>2011-08-07T13:38:38Z</time>
      </trkpt>
      <trkpt lat="44.055715827271342" lon="10.165208978578448">
        <ele>82.400000000000006</ele>
        <time>2011-08-07T13:38:39Z</time>
      </trkpt>
      <trkpt lat="44.055413324385881" lon="10.164782758802176">
        <ele>81.200000000000003</ele>
        <time>2011-08-07T13:38:45Z</time>
      </trkpt>
      <trkpt lat="44.055029517039657" lon="10.164389228448272">
        <ele>78.799999999999997</ele>
        <time>2011-08-07T13:38:52Z</time>
      </trkpt>
      <trkpt lat="44.05455669388175" lon="10.164071721956134">
        <ele>76.200000000000003</ele>
        <time>2011-08-07T13:39:00Z</time>
      </trkpt>
      <trkpt lat="44.054396599531174" lon="10.163930235430598">
        <ele>75</ele>
        <time>2011-08-07T13:39:03Z</time>
      </trkpt>
      <trkpt lat="44.054268104955554" lon="10.163724208250642">
        <ele>75.599999999999994</ele>
        <time>2011-08-07T13:39:06Z</time>
      </trkpt>
      <trkpt lat="44.053976917639375" lon="10.163230765610933">
        <ele>75.799999999999997</ele>
        <time>2011-08-07T13:39:13Z</time>
      </trkpt>
      <trkpt lat="44.053685059770942" lon="10.162755092605948">
        <ele>74.400000000000006</ele>
        <time>2011-08-07T13:39:19Z</time>
      </trkpt>
      <trkpt lat="44.05333511531353" lon="10.162351336330175">
        <ele>73.400000000000006</ele>
        <time>2011-08-07T13:39:25Z</time>
      </trkpt>
      <trkpt lat="44.052969077602029" lon="10.162207838147879">
        <ele>72.400000000000006</ele>
        <time>2011-08-07T13:39:30Z</time>
      </trkpt>
      <trkpt lat="44.052586276084185" lon="10.162083534523845">
        <ele>72.200000000000003</ele>
        <time>2011-08-07T13:39:35Z</time>
      </trkpt>
      <trkpt lat="44.052526010200381" lon="10.162030560895801">
        <ele>72.200000000000003</ele>
        <time>2011-08-07T13:39:36Z</time>
      </trkpt>
      <trkpt lat="44.052357533946633" lon="10.161846159026027">
        <ele>72.200000000000003</ele>
        <time>2011-08-07T13:39:39Z</time>
      </trkpt>
      <trkpt lat="44.052249658852816" lon="10.161726716905832">
        <ele>72.599999999999994</ele>
        <time>2011-08-07T13:39:41Z</time>
      </trkpt>
      <trkpt lat="44.051830898970366" lon="10.161308124661446">
        <ele>73.400000000000006</ele>
        <time>2011-08-07T13:39:48Z</time>
      </trkpt>
      <trkpt lat="44.05140358954668" lon="10.160819124430418">
        <ele>74.400000000000006</ele>
        <time>2011-08-07T13:39:55Z</time>
      </trkpt>
      <trkpt lat="44.051343239843845" lon="10.160751817747951">
        <ele>74</ele>
        <time>2011-08-07T13:39:56Z</time>
      </trkpt>
      <trkpt lat="44.051060769706964" lon="10.160383265465498">
        <ele>74.799999999999997</ele>
        <time>2011-08-07T13:40:01Z</time>
      </trkpt>
      <trkpt lat="44.051000336185098" lon="10.160326603800058">
        <ele>74.799999999999997</ele>
        <time>2011-08-07T13:40:02Z</time>
      </trkpt>
      <trkpt lat="44.050750136375427" lon="10.160152679309249">
        <ele>75.400000000000006</ele>
        <time>2011-08-07T13:40:06Z</time>
      </trkpt>
      <trkpt lat="44.050373705103993" lon="10.159927792847157">
        <ele>78.799999999999997</ele>
        <time>2011-08-07T13:40:12Z</time>
      </trkpt>
      <trkpt lat="44.050069358199835" lon="10.159751186147332">
        <ele>78.400000000000006</ele>
        <time>2011-08-07T13:40:17Z</time>
      </trkpt>
      <trkpt lat="44.049991071224213" lon="10.159625038504601">
        <ele>78.400000000000006</ele>
        <time>2011-08-07T13:40:19Z</time>
      </trkpt>
      <trkpt lat="44.049863666296005" lon="10.159444659948349">
        <ele>77.799999999999997</ele>
        <time>2011-08-07T13:40:22Z</time>
      </trkpt>
      <trkpt lat="44.049535598605871" lon="10.158940823748708">
        <ele>77</ele>
        <time>2011-08-07T13:40:30Z</time>
      </trkpt>
      <trkpt lat="44.049426298588514" lon="10.158862788230181">
        <ele>76.599999999999994</ele>
        <time>2011-08-07T13:40:32Z</time>
      </trkpt>
      <trkpt lat="44.049260336905718" lon="10.158761702477932">
        <ele>76</ele>
        <time>2011-08-07T13:40:35Z</time>
      </trkpt>
      <trkpt lat="44.048891700804234" lon="10.158654497936368">
        <ele>75</ele>
        <time>2011-08-07T13:40:41Z</time>
      </trkpt>
      <trkpt lat="44.048670502379537" lon="10.158532289788127">
        <ele>74.799999999999997</ele>
        <time>2011-08-07T13:40:45Z</time>
      </trkpt>
      <trkpt lat="44.048623731359839" lon="10.158483423292637">
        <ele>74.799999999999997</ele>
        <time>2011-08-07T13:40:46Z</time>
      </trkpt>
      <trkpt lat="44.048419799655676" lon="10.158189218491316">
        <ele>74.799999999999997</ele>
        <time>2011-08-07T13:40:51Z</time>
      </trkpt>
      <trkpt lat="44.048197595402598" lon="10.157823013141751">
        <ele>73.799999999999997</ele>
        <time>2011-08-07T13:40:57Z</time>
      </trkpt>
      <trkpt lat="44.048152584582567" lon="10.157672390341759">
        <ele>73.200000000000003</ele>
        <time>2011-08-07T13:40:59Z</time>
      </trkpt>
      <trkpt lat="44.048154260963202" lon="10.157346669584513">
        <ele>72.599999999999994</ele>
        <time>2011-08-07T13:41:03Z</time>
      </trkpt>
      <trkpt lat="44.048163397237659" lon="10.157269136980176">
        <ele>72.400000000000006</ele>
        <time>2011-08-07T13:41:04Z</time>
      </trkpt>
      <trkpt lat="44.048206396400928" lon="10.156725738197565">
        <ele>73.599999999999994</ele>
        <time>2011-08-07T13:41:11Z</time>
      </trkpt>
      <trkpt lat="44.048184100538492" lon="10.156197091564536">
        <ele>74.799999999999997</ele>
        <time>2011-08-07T13:41:18Z</time>
      </trkpt>
      <trkpt lat="44.048063736408949" lon="10.155691914260387">
        <ele>74.799999999999997</ele>
        <time>2011-08-07T13:41:25Z</time>
      </trkpt>
      <trkpt lat="44.047798197716475" lon="10.155278267338872">
        <ele>73.799999999999997</ele>
        <time>2011-08-07T13:41:32Z</time>
      </trkpt>
      <trkpt lat="44.047753186896443" lon="10.155224874615669">
        <ele>73.799999999999997</ele>
        <time>2011-08-07T13:41:33Z</time>
      </trkpt>
      <trkpt lat="44.047654867172241" lon="10.155130913481116">
        <ele>73.599999999999994</ele>
        <time>2011-08-07T13:41:35Z</time>
      </trkpt>
      <trkpt lat="44.047541879117489" lon="10.155066372826695">
        <ele>73.400000000000006</ele>
        <time>2011-08-07T13:41:37Z</time>
      </trkpt>
      <trkpt lat="44.047197718173265" lon="10.154843665659428">
        <ele>75.200000000000003</ele>
        <time>2011-08-07T13:41:43Z</time>
      </trkpt>
      <trkpt lat="44.046678123995662" lon="10.154648367315531">
        <ele>71.799999999999997</ele>
        <time>2011-08-07T13:41:51Z</time>
      </trkpt>
      <trkpt lat="44.046306218951941" lon="10.15444016084075">
        <ele>72.799999999999997</ele>
        <time>2011-08-07T13:41:57Z</time>
      </trkpt>
      <trkpt lat="44.046125924214721" lon="10.154170012101531">
        <ele>72.599999999999994</ele>
        <time>2011-08-07T13:42:01Z</time>
      </trkpt>
      <trkpt lat="44.045740189030766" lon="10.153542961925268">
        <ele>71.599999999999994</ele>
        <time>2011-08-07T13:42:10Z</time>
      </trkpt>
      <trkpt lat="44.045527540147305" lon="10.152953378856182">
        <ele>68.799999999999997</ele>
        <time>2011-08-07T13:42:17Z</time>
      </trkpt>
      <trkpt lat="44.04551706276834" lon="10.152857573702931">
        <ele>68.599999999999994</ele>
        <time>2011-08-07T13:42:18Z</time>
      </trkpt>
      <trkpt lat="44.045528462156653" lon="10.152568062767386">
        <ele>68</ele>
        <time>2011-08-07T13:42:21Z</time>
      </trkpt>
      <trkpt lat="44.04553952626884" lon="10.15247443690896">
        <ele>67.599999999999994</ele>
        <time>2011-08-07T13:42:22Z</time>
      </trkpt>
      <trkpt lat="44.045650167390704" lon="10.152022736147046">
        <ele>64.799999999999997</ele>
        <time>2011-08-07T13:42:27Z</time>
      </trkpt>
      <trkpt lat="44.045902211219072" lon="10.151283703744411">
        <ele>62.200000000000003</ele>
        <time>2011-08-07T13:42:35Z</time>
      </trkpt>
      <trkpt lat="44.046058868989348" lon="10.150665286928415">
        <ele>57.799999999999997</ele>
        <time>2011-08-07T13:42:42Z</time>
      </trkpt>
      <trkpt lat="44.046105137094855" lon="10.150177963078022">
        <ele>57.399999999999999</ele>
        <time>2011-08-07T13:42:47Z</time>
      </trkpt>
      <trkpt lat="44.046099185943604" lon="10.150085175409913">
        <ele>56.600000000000001</ele>
        <time>2011-08-07T13:42:48Z</time>
      </trkpt>
      <trkpt lat="44.046055600047112" lon="10.149802034720778">
        <ele>56</ele>
        <time>2011-08-07T13:42:51Z</time>
      </trkpt>
      <trkpt lat="44.045919310301542" lon="10.14907306060195">
        <ele>54</ele>
        <time>2011-08-07T13:42:59Z</time>
      </trkpt>
      <trkpt lat="44.04583808965981" lon="10.148381302133203">
        <ele>54.600000000000001</ele>
        <time>2011-08-07T13:43:06Z</time>
      </trkpt>
      <trkpt lat="44.045872539281845" lon="10.14785542152822">
        <ele>55.200000000000003</ele>
        <time>2011-08-07T13:43:11Z</time>
      </trkpt>
      <trkpt lat="44.045892991125584" lon="10.147651741281152">
        <ele>59.600000000000001</ele>
        <time>2011-08-07T13:43:13Z</time>
      </trkpt>
      <trkpt lat="44.045868096873164" lon="10.147443367168307">
        <ele>61.600000000000001</ele>
        <time>2011-08-07T13:43:15Z</time>
      </trkpt>
      <trkpt lat="44.045698028057814" lon="10.146857388317585">
        <ele>63.600000000000001</ele>
        <time>2011-08-07T13:43:21Z</time>
      </trkpt>
      <trkpt lat="44.04545302502811" lon="10.146361934021115">
        <ele>64</ele>
        <time>2011-08-07T13:43:27Z</time>
      </trkpt>
      <trkpt lat="44.045313131064177" lon="10.146150458604097">
        <ele>63.799999999999997</ele>
        <time>2011-08-07T13:43:30Z</time>
      </trkpt>
      <trkpt lat="44.045199388638139" lon="10.146057000383735">
        <ele>64</ele>
        <time>2011-08-07T13:43:32Z</time>
      </trkpt>
      <trkpt lat="44.045082964003086" lon="10.145979886874557">
        <ele>64.799999999999997</ele>
        <time>2011-08-07T13:43:34Z</time>
      </trkpt>
      <trkpt lat="44.044873919337988" lon="10.145890871062875">
        <ele>64.200000000000003</ele>
        <time>2011-08-07T13:43:37Z</time>
      </trkpt>
      <trkpt lat="44.044614918529987" lon="10.14571325853467">
        <ele>63.600000000000001</ele>
        <time>2011-08-07T13:43:41Z</time>
      </trkpt>
      <trkpt lat="44.044563202187419" lon="10.145636312663555">
        <ele>63.600000000000001</ele>
        <time>2011-08-07T13:43:42Z</time>
      </trkpt>
      <trkpt lat="44.044449124485254" lon="10.14537270180881">
        <ele>63.600000000000001</ele>
        <time>2011-08-07T13:43:45Z</time>
      </trkpt>
      <trkpt lat="44.044376872479916" lon="10.14520020224154">
        <ele>63.200000000000003</ele>
        <time>2011-08-07T13:43:47Z</time>
      </trkpt>
      <trkpt lat="44.044163972139359" lon="10.144685721024871">
        <ele>62.200000000000003</ele>
        <time>2011-08-07T13:43:53Z</time>
      </trkpt>
      <trkpt lat="44.043860463425517" lon="10.144010726362467">
        <ele>61.200000000000003</ele>
        <time>2011-08-07T13:44:01Z</time>
      </trkpt>
      <trkpt lat="44.043818470090628" lon="10.143928332254291">
        <ele>61.200000000000003</ele>
        <time>2011-08-07T13:44:02Z</time>
      </trkpt>
      <trkpt lat="44.043701374903321" lon="10.14367176219821">
        <ele>61</ele>
        <time>2011-08-07T13:44:05Z</time>
      </trkpt>
      <trkpt lat="44.043631637468934" lon="10.143496999517083">
        <ele>61.200000000000003</ele>
        <time>2011-08-07T13:44:07Z</time>
      </trkpt>
      <trkpt lat="44.04349216260016" lon="10.143069019541144">
        <ele>61.200000000000003</ele>
        <time>2011-08-07T13:44:12Z</time>
      </trkpt>
      <trkpt lat="44.043327793478966" lon="10.142922503873706">
        <ele>62.200000000000003</ele>
        <time>2011-08-07T13:44:15Z</time>
      </trkpt>
      <trkpt lat="44.043261324986815" lon="10.142895514145494">
        <ele>62.399999999999999</ele>
        <time>2011-08-07T13:44:16Z</time>
      </trkpt>
      <trkpt lat="44.043053621426225" lon="10.142825273796916">
        <ele>63</ele>
        <time>2011-08-07T13:44:19Z</time>
      </trkpt>
      <trkpt lat="44.042656235396862" lon="10.142665766179562">
        <ele>62.799999999999997</ele>
        <time>2011-08-07T13:44:25Z</time>
      </trkpt>
      <trkpt lat="44.042250132188201" lon="10.142478514462709">
        <ele>62.399999999999999</ele>
        <time>2011-08-07T13:44:31Z</time>
      </trkpt>
      <trkpt lat="44.041685191914439" lon="10.142260836437345">
        <ele>63.600000000000001</ele>
        <time>2011-08-07T13:44:39Z</time>
      </trkpt>
      <trkpt lat="44.041393417865038" lon="10.141989681869745">
        <ele>61.600000000000001</ele>
        <time>2011-08-07T13:44:44Z</time>
      </trkpt>
      <trkpt lat="44.04131093993783" lon="10.14183746650815">
        <ele>60.399999999999999</ele>
        <time>2011-08-07T13:44:46Z</time>
      </trkpt>
      <trkpt lat="44.041181607171893" lon="10.141622386872768">
        <ele>59.799999999999997</ele>
        <time>2011-08-07T13:44:49Z</time>
      </trkpt>
      <trkpt lat="44.040869297459722" lon="10.141074126586318">
        <ele>58.200000000000003</ele>
        <time>2011-08-07T13:44:57Z</time>
      </trkpt>
      <trkpt lat="44.040618594735861" lon="10.140629634261131">
        <ele>56.399999999999999</ele>
        <time>2011-08-07T13:45:04Z</time>
      </trkpt>
      <trkpt lat="44.040593029931188" lon="10.140561573207378">
        <ele>56.200000000000003</ele>
        <time>2011-08-07T13:45:05Z</time>
      </trkpt>
      <trkpt lat="44.040509797632694" lon="10.140365101397038">
        <ele>55.399999999999999</ele>
        <time>2011-08-07T13:45:08Z</time>
      </trkpt>
      <trkpt lat="44.040325563400984" lon="10.139969559386373">
        <ele>52.600000000000001</ele>
        <time>2011-08-07T13:45:13Z</time>
      </trkpt>
      <trkpt lat="44.040106208994985" lon="10.139458682388067">
        <ele>49.600000000000001</ele>
        <time>2011-08-07T13:45:18Z</time>
      </trkpt>
      <trkpt lat="44.040018785744905" lon="10.139216864481568">
        <ele>48.200000000000003</ele>
        <time>2011-08-07T13:45:21Z</time>
      </trkpt>
      <trkpt lat="44.040001267567277" lon="10.139180570840836">
        <ele>47.399999999999999</ele>
        <time>2011-08-07T13:45:22Z</time>
      </trkpt>
      <trkpt lat="44.039978217333555" lon="10.139138158410788">
        <ele>46.799999999999997</ele>
        <time>2011-08-07T13:45:24Z</time>
      </trkpt>
      <trkpt lat="44.039970422163606" lon="10.139130111783743">
        <ele>46.799999999999997</ele>
        <time>2011-08-07T13:45:25Z</time>
      </trkpt>
      <trkpt lat="44.03992373496294" lon="10.139107061550021">
        <ele>46.600000000000001</ele>
        <time>2011-08-07T13:45:29Z</time>
      </trkpt>
      <trkpt lat="44.0398377366364" lon="10.139118041843176">
        <ele>47.600000000000001</ele>
        <time>2011-08-07T13:45:33Z</time>
      </trkpt>
      <trkpt lat="44.039817536249757" lon="10.139137739315629">
        <ele>48.600000000000001</ele>
        <time>2011-08-07T13:45:34Z</time>
      </trkpt>
      <trkpt lat="44.039740338921547" lon="10.139213176444173">
        <ele>53</ele>
        <time>2011-08-07T13:45:38Z</time>
      </trkpt>
      <trkpt lat="44.039540598168969" lon="10.139405038207769">
        <ele>55.799999999999997</ele>
        <time>2011-08-07T13:45:45Z</time>
      </trkpt>
      <trkpt lat="44.039340438321233" lon="10.139451222494245">
        <ele>56.399999999999999</ele>
        <time>2011-08-07T13:45:52Z</time>
      </trkpt>
      <trkpt lat="44.039228539913893" lon="10.139334630221128">
        <ele>55.200000000000003</ele>
        <time>2011-08-07T13:45:57Z</time>
      </trkpt>
      <trkpt lat="44.039168106392026" lon="10.139244189485908">
        <ele>54.799999999999997</ele>
        <time>2011-08-07T13:46:03Z</time>
      </trkpt>
      <trkpt lat="44.039099290966988" lon="10.139146037399769">
        <ele>51.799999999999997</ele>
        <time>2011-08-07T13:47:12Z</time>
      </trkpt>
      <trkpt lat="44.038975490257144" lon="10.138945877552032">
        <ele>51.399999999999999</ele>
        <time>2011-08-07T13:47:18Z</time>
      </trkpt>
      <trkpt lat="44.03878228738904" lon="10.138612193986773">
        <ele>50.399999999999999</ele>
        <time>2011-08-07T13:47:25Z</time>
      </trkpt>
      <trkpt lat="44.03852429240942" lon="10.13821036554873">
        <ele>47.799999999999997</ele>
        <time>2011-08-07T13:47:32Z</time>
      </trkpt>
      <trkpt lat="44.038185831159353" lon="10.137725723907351">
        <ele>45</ele>
        <time>2011-08-07T13:47:40Z</time>
      </trkpt>
      <trkpt lat="44.037839826196432" lon="10.137087861075997">
        <ele>45.600000000000001</ele>
        <time>2011-08-07T13:47:49Z</time>
      </trkpt>
      <trkpt lat="44.037800682708621" lon="10.137019464746118">
        <ele>45.200000000000003</ele>
        <time>2011-08-07T13:47:50Z</time>
      </trkpt>
      <trkpt lat="44.037541514262557" lon="10.136692235246301">
        <ele>43.799999999999997</ele>
        <time>2011-08-07T13:47:56Z</time>
      </trkpt>
      <trkpt lat="44.037366500124335" lon="10.136802038177848">
        <ele>44.600000000000001</ele>
        <time>2011-08-07T13:47:59Z</time>
      </trkpt>
      <trkpt lat="44.037287458777428" lon="10.136916702613235">
        <ele>44.799999999999997</ele>
        <time>2011-08-07T13:48:01Z</time>
      </trkpt>
      <trkpt lat="44.037137841805816" lon="10.137127172201872">
        <ele>45.600000000000001</ele>
        <time>2011-08-07T13:48:05Z</time>
      </trkpt>
      <trkpt lat="44.036846486851573" lon="10.137477535754442">
        <ele>51.600000000000001</ele>
        <time>2011-08-07T13:48:12Z</time>
      </trkpt>
      <trkpt lat="44.036642471328378" lon="10.137735027819872">
        <ele>59.799999999999997</ele>
        <time>2011-08-07T13:48:19Z</time>
      </trkpt>
      <trkpt lat="44.036618079990149" lon="10.137764113023877">
        <ele>60.399999999999999</ele>
        <time>2011-08-07T13:48:20Z</time>
      </trkpt>
      <trkpt lat="44.036556137725711" lon="10.137859163805842">
        <ele>59.600000000000001</ele>
        <time>2011-08-07T13:48:24Z</time>
      </trkpt>
      <trkpt lat="44.036535266786814" lon="10.137885734438896">
        <ele>59.200000000000003</ele>
        <time>2011-08-07T13:48:25Z</time>
      </trkpt>
      <trkpt lat="44.036440718919039" lon="10.138007439672947">
        <ele>60.200000000000003</ele>
        <time>2011-08-07T13:48:29Z</time>
      </trkpt>
      <trkpt lat="44.036294119432569" lon="10.138203240931034">
        <ele>70.599999999999994</ele>
        <time>2011-08-07T13:48:36Z</time>
      </trkpt>
      <trkpt lat="44.036180879920721" lon="10.138349840417504">
        <ele>74.400000000000006</ele>
        <time>2011-08-07T13:48:40Z</time>
      </trkpt>
      <trkpt lat="44.035956664010882" lon="10.138628873974085">
        <ele>72.799999999999997</ele>
        <time>2011-08-07T13:48:47Z</time>
      </trkpt>
      <trkpt lat="44.035821296274662" lon="10.138731803745031">
        <ele>72.200000000000003</ele>
        <time>2011-08-07T13:48:51Z</time>
      </trkpt>
      <trkpt lat="44.035796318203211" lon="10.138757284730673">
        <ele>72.200000000000003</ele>
        <time>2011-08-07T13:48:52Z</time>
      </trkpt>
      <trkpt lat="44.03567997738719" lon="10.138924587517977">
        <ele>73.200000000000003</ele>
        <time>2011-08-07T13:48:56Z</time>
      </trkpt>
      <trkpt lat="44.035647623240948" lon="10.138972029089928">
        <ele>73</ele>
        <time>2011-08-07T13:48:57Z</time>
      </trkpt>
      <trkpt lat="44.035523906350136" lon="10.139130614697933">
        <ele>69.599999999999994</ele>
        <time>2011-08-07T13:49:01Z</time>
      </trkpt>
      <trkpt lat="44.035480236634612" lon="10.139142936095595">
        <ele>68.400000000000006</ele>
        <time>2011-08-07T13:49:02Z</time>
      </trkpt>
      <trkpt lat="44.035334559157491" lon="10.139062888920307">
        <ele>65.400000000000006</ele>
        <time>2011-08-07T13:49:05Z</time>
      </trkpt>
      <trkpt lat="44.035284100100398" lon="10.139022404327989">
        <ele>64</ele>
        <time>2011-08-07T13:49:06Z</time>
      </trkpt>
      <trkpt lat="44.035002719610929" lon="10.138700539246202">
        <ele>61.200000000000003</ele>
        <time>2011-08-07T13:49:12Z</time>
      </trkpt>
      <trkpt lat="44.034677837044001" lon="10.138219418004155">
        <ele>58.600000000000001</ele>
        <time>2011-08-07T13:49:20Z</time>
      </trkpt>
      <trkpt lat="44.034359576180577" lon="10.137817924842238">
        <ele>57.399999999999999</ele>
        <time>2011-08-07T13:49:27Z</time>
      </trkpt>
      <trkpt lat="44.034303836524487" lon="10.137791438028216">
        <ele>56.799999999999997</ele>
        <time>2011-08-07T13:49:28Z</time>
      </trkpt>
      <trkpt lat="44.03416033834219" lon="10.137897133827209">
        <ele>56.600000000000001</ele>
        <time>2011-08-07T13:49:31Z</time>
      </trkpt>
      <trkpt lat="44.033989096060395" lon="10.137952202931046">
        <ele>57</ele>
        <time>2011-08-07T13:49:34Z</time>
      </trkpt>
      <trkpt lat="44.033930506557226" lon="10.13794650323689">
        <ele>57.200000000000003</ele>
        <time>2011-08-07T13:49:35Z</time>
      </trkpt>
      <trkpt lat="44.033502023667097" lon="10.137889673933387">
        <ele>58.600000000000001</ele>
        <time>2011-08-07T13:49:42Z</time>
      </trkpt>
      <trkpt lat="44.032952841371298" lon="10.137799065560102">
        <ele>57.200000000000003</ele>
        <time>2011-08-07T13:49:51Z</time>
      </trkpt>
      <trkpt lat="44.032890228554606" lon="10.137792360037565">
        <ele>57.600000000000001</ele>
        <time>2011-08-07T13:49:52Z</time>
      </trkpt>
      <trkpt lat="44.032381195574999" lon="10.137700578197837">
        <ele>57.799999999999997</ele>
        <time>2011-08-07T13:50:00Z</time>
      </trkpt>
      <trkpt lat="44.031815836206079" lon="10.137603767216206">
        <ele>56.600000000000001</ele>
        <time>2011-08-07T13:50:09Z</time>
      </trkpt>
      <trkpt lat="44.031635038554668" lon="10.137566635385156">
        <ele>56.399999999999999</ele>
        <time>2011-08-07T13:50:12Z</time>
      </trkpt>
      <trkpt lat="44.031080491840839" lon="10.137487761676311">
        <ele>57.200000000000003</ele>
        <time>2011-08-07T13:50:21Z</time>
      </trkpt>
      <trkpt lat="44.030496189370751" lon="10.137383406981826">
        <ele>54.399999999999999</ele>
        <time>2011-08-07T13:50:30Z</time>
      </trkpt>
      <trkpt lat="44.029960334300995" lon="10.137288691475987">
        <ele>54.200000000000003</ele>
        <time>2011-08-07T13:50:38Z</time>
      </trkpt>
      <trkpt lat="44.029423473402858" lon="10.137194311246276">
        <ele>53.200000000000003</ele>
        <time>2011-08-07T13:50:46Z</time>
      </trkpt>
      <trkpt lat="44.029159694910049" lon="10.137151563540101">
        <ele>53.399999999999999</ele>
        <time>2011-08-07T13:50:50Z</time>
      </trkpt>
      <trkpt lat="44.028620989993215" lon="10.137059781700373">
        <ele>52.399999999999999</ele>
        <time>2011-08-07T13:50:58Z</time>
      </trkpt>
      <trkpt lat="44.028070634230971" lon="10.136973615735769">
        <ele>52.200000000000003</ele>
        <time>2011-08-07T13:51:06Z</time>
      </trkpt>
      <trkpt lat="44.027869887650013" lon="10.136937741190195">
        <ele>51.600000000000001</ele>
        <time>2011-08-07T13:51:09Z</time>
      </trkpt>
      <trkpt lat="44.027323639020324" lon="10.136862639337778">
        <ele>51.600000000000001</ele>
        <time>2011-08-07T13:51:17Z</time>
      </trkpt>
      <trkpt lat="44.027186091989279" lon="10.136839505285025">
        <ele>51.200000000000003</ele>
        <time>2011-08-07T13:51:19Z</time>
      </trkpt>
      <trkpt lat="44.026645040139556" lon="10.136739341542125">
        <ele>49.200000000000003</ele>
        <time>2011-08-07T13:51:27Z</time>
      </trkpt>
      <trkpt lat="44.026449741795659" lon="10.136699862778187">
        <ele>48.399999999999999</ele>
        <time>2011-08-07T13:51:30Z</time>
      </trkpt>
      <trkpt lat="44.025860410183668" lon="10.136601962149143">
        <ele>47.600000000000001</ele>
        <time>2011-08-07T13:51:39Z</time>
      </trkpt>
      <trkpt lat="44.025796791538596" lon="10.13659349642694">
        <ele>47.799999999999997</ele>
        <time>2011-08-07T13:51:40Z</time>
      </trkpt>
      <trkpt lat="44.025229336693883" lon="10.136519568040967">
        <ele>48.799999999999997</ele>
        <time>2011-08-07T13:51:49Z</time>
      </trkpt>
      <trkpt lat="44.025171082466841" lon="10.136506073176861">
        <ele>49</ele>
        <time>2011-08-07T13:51:50Z</time>
      </trkpt>
      <trkpt lat="44.024988440796733" lon="10.136436335742474">
        <ele>46.600000000000001</ele>
        <time>2011-08-07T13:51:54Z</time>
      </trkpt>
      <trkpt lat="44.024951979517937" lon="10.136422170326114">
        <ele>46.200000000000003</ele>
        <time>2011-08-07T13:51:55Z</time>
      </trkpt>
      <trkpt lat="44.024829436093569" lon="10.136334579437971">
        <ele>45</ele>
        <time>2011-08-07T13:51:58Z</time>
      </trkpt>
      <trkpt lat="44.024788364768028" lon="10.13628713786602">
        <ele>44.600000000000001</ele>
        <time>2011-08-07T13:51:59Z</time>
      </trkpt>
      <trkpt lat="44.024572530761361" lon="10.135996285825968">
        <ele>42.600000000000001</ele>
        <time>2011-08-07T13:52:05Z</time>
      </trkpt>
      <trkpt lat="44.024423835799098" lon="10.135871982201934">
        <ele>41.799999999999997</ele>
        <time>2011-08-07T13:52:09Z</time>
      </trkpt>
      <trkpt lat="44.024391984567046" lon="10.135866282507777">
        <ele>42.399999999999999</ele>
        <time>2011-08-07T13:52:10Z</time>
      </trkpt>
      <trkpt lat="44.02436776086688" lon="10.135876089334488">
        <ele>42.600000000000001</ele>
        <time>2011-08-07T13:52:13Z</time>
      </trkpt>
      <trkpt lat="44.024356277659535" lon="10.13588204048574">
        <ele>41.799999999999997</ele>
        <time>2011-08-07T13:52:15Z</time>
      </trkpt>
    </trkseg>
  </trk>

</gpx>
